<?xml version="1.0" encoding="UTF-8" standalone="no" ?>
<gpx xmlns="http://www.topografix.com/GPX/1/1" xmlns:xsi="http://www.w3.org/2001/XMLSchema-instance" xsi:schemaLocation="http://www.topografix.com/GPX/1/1 http://www.topografix.com/GPX/1/1/gpx.xsd" version="1.1" creator="VisuGPX - https://www.visugpx.com">
  <metadata>
    <name>2018-01-28 Bike ride VTT-Amberieux-Saone O in floods</name>
    <desc><![CDATA[2018-01-28 Bike ride VTT-Amberieux-Saone O in floods]]></desc>
  </metadata>
  <wpt lat="45.92455" lon="4.7371">
    <ele>174</ele>
    <name><![CDATA[2018-01-28 10:50 (Start)]]></name>
  </wpt>
  <wpt lat="45.92455" lon="4.73708">
    <ele>174</ele>
    <name><![CDATA[2018-01-28 10:50 (End)]]></name>
  </wpt>
  <trk>
    <name><![CDATA[2018-01-28 10:50]]></name>
    <trkseg>
      <trkpt lat="45.92455" lon="4.7371">
        <ele>174</ele>
        <time>2018-01-28T09:50:50.133Z</time>
      </trkpt>
      <trkpt lat="45.92463" lon="4.73708">
        <ele>174</ele>
        <time>2018-01-28T09:51:15Z</time>
      </trkpt>
      <trkpt lat="45.92464" lon="4.73704">
        <ele>174</ele>
        <time>2018-01-28T09:51:16Z</time>
      </trkpt>
      <trkpt lat="45.92466" lon="4.73693">
        <ele>174</ele>
        <time>2018-01-28T09:51:19Z</time>
      </trkpt>
      <trkpt lat="45.92466" lon="4.73689">
        <ele>174</ele>
        <time>2018-01-28T09:51:20Z</time>
      </trkpt>
      <trkpt lat="45.92469" lon="4.7368">
        <ele>174</ele>
        <time>2018-01-28T09:51:23Z</time>
      </trkpt>
      <trkpt lat="45.92469" lon="4.73676">
        <ele>174</ele>
        <time>2018-01-28T09:51:24Z</time>
      </trkpt>
      <trkpt lat="45.92469" lon="4.73664">
        <ele>174</ele>
        <time>2018-01-28T09:51:27Z</time>
      </trkpt>
      <trkpt lat="45.9247" lon="4.73661">
        <ele>174</ele>
        <time>2018-01-28T09:51:28Z</time>
      </trkpt>
      <trkpt lat="45.92472" lon="4.73649">
        <ele>174</ele>
        <time>2018-01-28T09:51:31Z</time>
      </trkpt>
      <trkpt lat="45.92473" lon="4.73646">
        <ele>174</ele>
        <time>2018-01-28T09:51:32Z</time>
      </trkpt>
      <trkpt lat="45.9248" lon="4.73642">
        <ele>174</ele>
        <time>2018-01-28T09:51:35Z</time>
      </trkpt>
      <trkpt lat="45.92483" lon="4.73641">
        <ele>174</ele>
        <time>2018-01-28T09:51:36Z</time>
      </trkpt>
      <trkpt lat="45.9249" lon="4.73641">
        <ele>174</ele>
        <time>2018-01-28T09:51:38Z</time>
      </trkpt>
      <trkpt lat="45.92492" lon="4.73641">
        <ele>174</ele>
        <time>2018-01-28T09:51:39Z</time>
      </trkpt>
      <trkpt lat="45.92501" lon="4.73638">
        <ele>174</ele>
        <time>2018-01-28T09:51:42Z</time>
      </trkpt>
      <trkpt lat="45.92504" lon="4.73638">
        <ele>174</ele>
        <time>2018-01-28T09:51:43Z</time>
      </trkpt>
      <trkpt lat="45.92512" lon="4.73638">
        <ele>174</ele>
        <time>2018-01-28T09:51:46Z</time>
      </trkpt>
      <trkpt lat="45.92515" lon="4.73637">
        <ele>173</ele>
        <time>2018-01-28T09:51:47Z</time>
      </trkpt>
      <trkpt lat="45.92521" lon="4.73636">
        <ele>173</ele>
        <time>2018-01-28T09:51:49Z</time>
      </trkpt>
      <trkpt lat="45.92524" lon="4.73635">
        <ele>173</ele>
        <time>2018-01-28T09:51:50Z</time>
      </trkpt>
      <trkpt lat="45.92533" lon="4.73635">
        <ele>173</ele>
        <time>2018-01-28T09:51:53Z</time>
      </trkpt>
      <trkpt lat="45.92535" lon="4.73635">
        <ele>173</ele>
        <time>2018-01-28T09:51:54Z</time>
      </trkpt>
      <trkpt lat="45.92544" lon="4.73632">
        <ele>173</ele>
        <time>2018-01-28T09:51:57Z</time>
      </trkpt>
      <trkpt lat="45.92547" lon="4.73632">
        <ele>173</ele>
        <time>2018-01-28T09:51:58Z</time>
      </trkpt>
      <trkpt lat="45.92554" lon="4.7363">
        <ele>173</ele>
        <time>2018-01-28T09:52:00Z</time>
      </trkpt>
      <trkpt lat="45.92558" lon="4.73629">
        <ele>173</ele>
        <time>2018-01-28T09:52:01Z</time>
      </trkpt>
      <trkpt lat="45.92565" lon="4.73627">
        <ele>173</ele>
        <time>2018-01-28T09:52:03Z</time>
      </trkpt>
      <trkpt lat="45.92569" lon="4.73626">
        <ele>173</ele>
        <time>2018-01-28T09:52:04Z</time>
      </trkpt>
      <trkpt lat="45.92577" lon="4.73624">
        <ele>173</ele>
        <time>2018-01-28T09:52:06Z</time>
      </trkpt>
      <trkpt lat="45.92581" lon="4.73623">
        <ele>173</ele>
        <time>2018-01-28T09:52:07Z</time>
      </trkpt>
      <trkpt lat="45.92588" lon="4.73621">
        <ele>173</ele>
        <time>2018-01-28T09:52:09Z</time>
      </trkpt>
      <trkpt lat="45.92592" lon="4.73621">
        <ele>173</ele>
        <time>2018-01-28T09:52:10Z</time>
      </trkpt>
      <trkpt lat="45.926" lon="4.73621">
        <ele>173</ele>
        <time>2018-01-28T09:52:12Z</time>
      </trkpt>
      <trkpt lat="45.92604" lon="4.73623">
        <ele>173</ele>
        <time>2018-01-28T09:52:13Z</time>
      </trkpt>
      <trkpt lat="45.92609" lon="4.73624">
        <ele>173</ele>
        <time>2018-01-28T09:52:14Z</time>
      </trkpt>
      <trkpt lat="45.92613" lon="4.73625">
        <ele>173</ele>
        <time>2018-01-28T09:52:15Z</time>
      </trkpt>
      <trkpt lat="45.92619" lon="4.73632">
        <ele>173</ele>
        <time>2018-01-28T09:52:17Z</time>
      </trkpt>
      <trkpt lat="45.92623" lon="4.73638">
        <ele>173</ele>
        <time>2018-01-28T09:52:18Z</time>
      </trkpt>
      <trkpt lat="45.92625" lon="4.73645">
        <ele>173</ele>
        <time>2018-01-28T09:52:19Z</time>
      </trkpt>
      <trkpt lat="45.92627" lon="4.73651">
        <ele>173</ele>
        <time>2018-01-28T09:52:20Z</time>
      </trkpt>
      <trkpt lat="45.92631" lon="4.73657">
        <ele>173</ele>
        <time>2018-01-28T09:52:21Z</time>
      </trkpt>
      <trkpt lat="45.92633" lon="4.73662">
        <ele>173</ele>
        <time>2018-01-28T09:52:22Z</time>
      </trkpt>
      <trkpt lat="45.92638" lon="4.73671">
        <ele>173</ele>
        <time>2018-01-28T09:52:24Z</time>
      </trkpt>
      <trkpt lat="45.9264" lon="4.73677">
        <ele>173</ele>
        <time>2018-01-28T09:52:25Z</time>
      </trkpt>
      <trkpt lat="45.92643" lon="4.73683">
        <ele>173</ele>
        <time>2018-01-28T09:52:26Z</time>
      </trkpt>
      <trkpt lat="45.92647" lon="4.73687">
        <ele>173</ele>
        <time>2018-01-28T09:52:27Z</time>
      </trkpt>
      <trkpt lat="45.92651" lon="4.73691">
        <ele>173</ele>
        <time>2018-01-28T09:52:28Z</time>
      </trkpt>
      <trkpt lat="45.92655" lon="4.73694">
        <ele>173</ele>
        <time>2018-01-28T09:52:29Z</time>
      </trkpt>
      <trkpt lat="45.92659" lon="4.73697">
        <ele>173</ele>
        <time>2018-01-28T09:52:30Z</time>
      </trkpt>
      <trkpt lat="45.92664" lon="4.737">
        <ele>173</ele>
        <time>2018-01-28T09:52:31Z</time>
      </trkpt>
      <trkpt lat="45.92669" lon="4.73702">
        <ele>174</ele>
        <time>2018-01-28T09:52:32Z</time>
      </trkpt>
      <trkpt lat="45.92673" lon="4.73705">
        <ele>174</ele>
        <time>2018-01-28T09:52:33Z</time>
      </trkpt>
      <trkpt lat="45.92677" lon="4.73708">
        <ele>173</ele>
        <time>2018-01-28T09:52:34Z</time>
      </trkpt>
      <trkpt lat="45.92682" lon="4.73708">
        <ele>173</ele>
        <time>2018-01-28T09:52:35Z</time>
      </trkpt>
      <trkpt lat="45.92688" lon="4.73709">
        <ele>173</ele>
        <time>2018-01-28T09:52:36Z</time>
      </trkpt>
      <trkpt lat="45.92693" lon="4.73709">
        <ele>173</ele>
        <time>2018-01-28T09:52:37Z</time>
      </trkpt>
      <trkpt lat="45.92698" lon="4.73709">
        <ele>173</ele>
        <time>2018-01-28T09:52:38Z</time>
      </trkpt>
      <trkpt lat="45.92704" lon="4.73711">
        <ele>173</ele>
        <time>2018-01-28T09:52:39Z</time>
      </trkpt>
      <trkpt lat="45.92709" lon="4.73711">
        <ele>173</ele>
        <time>2018-01-28T09:52:40Z</time>
      </trkpt>
      <trkpt lat="45.92713" lon="4.73713">
        <ele>173</ele>
        <time>2018-01-28T09:52:41Z</time>
      </trkpt>
      <trkpt lat="45.92719" lon="4.73714">
        <ele>173</ele>
        <time>2018-01-28T09:52:42Z</time>
      </trkpt>
      <trkpt lat="45.92724" lon="4.73715">
        <ele>173</ele>
        <time>2018-01-28T09:52:43Z</time>
      </trkpt>
      <trkpt lat="45.92728" lon="4.73717">
        <ele>173</ele>
        <time>2018-01-28T09:52:44Z</time>
      </trkpt>
      <trkpt lat="45.92733" lon="4.73718">
        <ele>173</ele>
        <time>2018-01-28T09:52:45Z</time>
      </trkpt>
      <trkpt lat="45.92738" lon="4.73721">
        <ele>173</ele>
        <time>2018-01-28T09:52:46Z</time>
      </trkpt>
      <trkpt lat="45.92743" lon="4.73723">
        <ele>173</ele>
        <time>2018-01-28T09:52:47Z</time>
      </trkpt>
      <trkpt lat="45.92747" lon="4.73724">
        <ele>173</ele>
        <time>2018-01-28T09:52:48Z</time>
      </trkpt>
      <trkpt lat="45.92751" lon="4.73725">
        <ele>172</ele>
        <time>2018-01-28T09:52:49Z</time>
      </trkpt>
      <trkpt lat="45.9276" lon="4.73727">
        <ele>172</ele>
        <time>2018-01-28T09:52:51Z</time>
      </trkpt>
      <trkpt lat="45.92764" lon="4.7373">
        <ele>172</ele>
        <time>2018-01-28T09:52:52Z</time>
      </trkpt>
      <trkpt lat="45.92771" lon="4.73733">
        <ele>172</ele>
        <time>2018-01-28T09:52:54Z</time>
      </trkpt>
      <trkpt lat="45.92774" lon="4.73735">
        <ele>172</ele>
        <time>2018-01-28T09:52:55Z</time>
      </trkpt>
      <trkpt lat="45.92781" lon="4.73741">
        <ele>172</ele>
        <time>2018-01-28T09:52:57Z</time>
      </trkpt>
      <trkpt lat="45.92782" lon="4.73745">
        <ele>172</ele>
        <time>2018-01-28T09:52:58Z</time>
      </trkpt>
      <trkpt lat="45.92787" lon="4.73751">
        <ele>173</ele>
        <time>2018-01-28T09:53:00Z</time>
      </trkpt>
      <trkpt lat="45.9279" lon="4.73754">
        <ele>173</ele>
        <time>2018-01-28T09:53:01Z</time>
      </trkpt>
      <trkpt lat="45.92795" lon="4.73757">
        <ele>173</ele>
        <time>2018-01-28T09:53:02Z</time>
      </trkpt>
      <trkpt lat="45.928" lon="4.73758">
        <ele>173</ele>
        <time>2018-01-28T09:53:03Z</time>
      </trkpt>
      <trkpt lat="45.92804" lon="4.73761">
        <ele>173</ele>
        <time>2018-01-28T09:53:04Z</time>
      </trkpt>
      <trkpt lat="45.92809" lon="4.73763">
        <ele>173</ele>
        <time>2018-01-28T09:53:05Z</time>
      </trkpt>
      <trkpt lat="45.92814" lon="4.73767">
        <ele>173</ele>
        <time>2018-01-28T09:53:06Z</time>
      </trkpt>
      <trkpt lat="45.92819" lon="4.73769">
        <ele>173</ele>
        <time>2018-01-28T09:53:07Z</time>
      </trkpt>
      <trkpt lat="45.92823" lon="4.73773">
        <ele>173</ele>
        <time>2018-01-28T09:53:08Z</time>
      </trkpt>
      <trkpt lat="45.92828" lon="4.73777">
        <ele>173</ele>
        <time>2018-01-28T09:53:09Z</time>
      </trkpt>
      <trkpt lat="45.92833" lon="4.7378">
        <ele>173</ele>
        <time>2018-01-28T09:53:10Z</time>
      </trkpt>
      <trkpt lat="45.92838" lon="4.73784">
        <ele>173</ele>
        <time>2018-01-28T09:53:11Z</time>
      </trkpt>
      <trkpt lat="45.92843" lon="4.73788">
        <ele>173</ele>
        <time>2018-01-28T09:53:12Z</time>
      </trkpt>
      <trkpt lat="45.92848" lon="4.73792">
        <ele>173</ele>
        <time>2018-01-28T09:53:13Z</time>
      </trkpt>
      <trkpt lat="45.92853" lon="4.73797">
        <ele>173</ele>
        <time>2018-01-28T09:53:14Z</time>
      </trkpt>
      <trkpt lat="45.92856" lon="4.73802">
        <ele>173</ele>
        <time>2018-01-28T09:53:15Z</time>
      </trkpt>
      <trkpt lat="45.92858" lon="4.7381">
        <ele>173</ele>
        <time>2018-01-28T09:53:16Z</time>
      </trkpt>
      <trkpt lat="45.9286" lon="4.73817">
        <ele>173</ele>
        <time>2018-01-28T09:53:17Z</time>
      </trkpt>
      <trkpt lat="45.92861" lon="4.73825">
        <ele>173</ele>
        <time>2018-01-28T09:53:18Z</time>
      </trkpt>
      <trkpt lat="45.92863" lon="4.73831">
        <ele>173</ele>
        <time>2018-01-28T09:53:19Z</time>
      </trkpt>
      <trkpt lat="45.92865" lon="4.73837">
        <ele>173</ele>
        <time>2018-01-28T09:53:20Z</time>
      </trkpt>
      <trkpt lat="45.92867" lon="4.73844">
        <ele>173</ele>
        <time>2018-01-28T09:53:21Z</time>
      </trkpt>
      <trkpt lat="45.92869" lon="4.7385">
        <ele>173</ele>
        <time>2018-01-28T09:53:22Z</time>
      </trkpt>
      <trkpt lat="45.92869" lon="4.73857">
        <ele>173</ele>
        <time>2018-01-28T09:53:23Z</time>
      </trkpt>
      <trkpt lat="45.92871" lon="4.73864">
        <ele>173</ele>
        <time>2018-01-28T09:53:24Z</time>
      </trkpt>
      <trkpt lat="45.92873" lon="4.73871">
        <ele>173</ele>
        <time>2018-01-28T09:53:25Z</time>
      </trkpt>
      <trkpt lat="45.92874" lon="4.73878">
        <ele>173</ele>
        <time>2018-01-28T09:53:26Z</time>
      </trkpt>
      <trkpt lat="45.92875" lon="4.73886">
        <ele>173</ele>
        <time>2018-01-28T09:53:27Z</time>
      </trkpt>
      <trkpt lat="45.92876" lon="4.73892">
        <ele>173</ele>
        <time>2018-01-28T09:53:28Z</time>
      </trkpt>
      <trkpt lat="45.92877" lon="4.739">
        <ele>173</ele>
        <time>2018-01-28T09:53:29Z</time>
      </trkpt>
      <trkpt lat="45.92877" lon="4.73907">
        <ele>173</ele>
        <time>2018-01-28T09:53:30Z</time>
      </trkpt>
      <trkpt lat="45.92878" lon="4.73914">
        <ele>173</ele>
        <time>2018-01-28T09:53:31Z</time>
      </trkpt>
      <trkpt lat="45.92879" lon="4.73923">
        <ele>172</ele>
        <time>2018-01-28T09:53:32Z</time>
      </trkpt>
      <trkpt lat="45.92879" lon="4.7393">
        <ele>172</ele>
        <time>2018-01-28T09:53:33Z</time>
      </trkpt>
      <trkpt lat="45.92879" lon="4.73937">
        <ele>172</ele>
        <time>2018-01-28T09:53:34Z</time>
      </trkpt>
      <trkpt lat="45.9288" lon="4.73944">
        <ele>172</ele>
        <time>2018-01-28T09:53:35Z</time>
      </trkpt>
      <trkpt lat="45.9288" lon="4.7395">
        <ele>172</ele>
        <time>2018-01-28T09:53:36Z</time>
      </trkpt>
      <trkpt lat="45.92881" lon="4.73958">
        <ele>172</ele>
        <time>2018-01-28T09:53:37Z</time>
      </trkpt>
      <trkpt lat="45.92881" lon="4.73965">
        <ele>172</ele>
        <time>2018-01-28T09:53:38Z</time>
      </trkpt>
      <trkpt lat="45.92881" lon="4.73971">
        <ele>172</ele>
        <time>2018-01-28T09:53:39Z</time>
      </trkpt>
      <trkpt lat="45.92881" lon="4.73983">
        <ele>172</ele>
        <time>2018-01-28T09:53:41Z</time>
      </trkpt>
      <trkpt lat="45.9288" lon="4.73989">
        <ele>172</ele>
        <time>2018-01-28T09:53:42Z</time>
      </trkpt>
      <trkpt lat="45.92878" lon="4.73997">
        <ele>172</ele>
        <time>2018-01-28T09:53:43Z</time>
      </trkpt>
      <trkpt lat="45.92877" lon="4.74003">
        <ele>172</ele>
        <time>2018-01-28T09:53:44Z</time>
      </trkpt>
      <trkpt lat="45.92875" lon="4.74015">
        <ele>172</ele>
        <time>2018-01-28T09:53:46Z</time>
      </trkpt>
      <trkpt lat="45.92875" lon="4.74021">
        <ele>172</ele>
        <time>2018-01-28T09:53:47Z</time>
      </trkpt>
      <trkpt lat="45.92877" lon="4.74033">
        <ele>172</ele>
        <time>2018-01-28T09:53:49Z</time>
      </trkpt>
      <trkpt lat="45.9288" lon="4.7404">
        <ele>172</ele>
        <time>2018-01-28T09:53:50Z</time>
      </trkpt>
      <trkpt lat="45.92883" lon="4.74044">
        <ele>172</ele>
        <time>2018-01-28T09:53:51Z</time>
      </trkpt>
      <trkpt lat="45.92887" lon="4.74048">
        <ele>172</ele>
        <time>2018-01-28T09:53:52Z</time>
      </trkpt>
      <trkpt lat="45.92892" lon="4.7405">
        <ele>172</ele>
        <time>2018-01-28T09:53:53Z</time>
      </trkpt>
      <trkpt lat="45.92896" lon="4.74053">
        <ele>172</ele>
        <time>2018-01-28T09:53:54Z</time>
      </trkpt>
      <trkpt lat="45.929" lon="4.74056">
        <ele>172</ele>
        <time>2018-01-28T09:53:55Z</time>
      </trkpt>
      <trkpt lat="45.92903" lon="4.74061">
        <ele>172</ele>
        <time>2018-01-28T09:53:56Z</time>
      </trkpt>
      <trkpt lat="45.92908" lon="4.74071">
        <ele>173</ele>
        <time>2018-01-28T09:53:58Z</time>
      </trkpt>
      <trkpt lat="45.92909" lon="4.74078">
        <ele>173</ele>
        <time>2018-01-28T09:53:59Z</time>
      </trkpt>
      <trkpt lat="45.92908" lon="4.74089">
        <ele>173</ele>
        <time>2018-01-28T09:54:01Z</time>
      </trkpt>
      <trkpt lat="45.92907" lon="4.74094">
        <ele>172</ele>
        <time>2018-01-28T09:54:02Z</time>
      </trkpt>
      <trkpt lat="45.92902" lon="4.74103">
        <ele>172</ele>
        <time>2018-01-28T09:54:04Z</time>
      </trkpt>
      <trkpt lat="45.92899" lon="4.74106">
        <ele>172</ele>
        <time>2018-01-28T09:54:05Z</time>
      </trkpt>
      <trkpt lat="45.92894" lon="4.74112">
        <ele>172</ele>
        <time>2018-01-28T09:54:07Z</time>
      </trkpt>
      <trkpt lat="45.92891" lon="4.74115">
        <ele>172</ele>
        <time>2018-01-28T09:54:08Z</time>
      </trkpt>
      <trkpt lat="45.92884" lon="4.74123">
        <ele>172</ele>
        <time>2018-01-28T09:54:11Z</time>
      </trkpt>
      <trkpt lat="45.92882" lon="4.74126">
        <ele>172</ele>
        <time>2018-01-28T09:54:12Z</time>
      </trkpt>
      <trkpt lat="45.92878" lon="4.74137">
        <ele>172</ele>
        <time>2018-01-28T09:54:15Z</time>
      </trkpt>
      <trkpt lat="45.92878" lon="4.74141">
        <ele>172</ele>
        <time>2018-01-28T09:54:16Z</time>
      </trkpt>
      <trkpt lat="45.92878" lon="4.7415">
        <ele>172</ele>
        <time>2018-01-28T09:54:18Z</time>
      </trkpt>
      <trkpt lat="45.92878" lon="4.74154">
        <ele>172</ele>
        <time>2018-01-28T09:54:19Z</time>
      </trkpt>
      <trkpt lat="45.92881" lon="4.74163">
        <ele>172</ele>
        <time>2018-01-28T09:54:21Z</time>
      </trkpt>
      <trkpt lat="45.92883" lon="4.74167">
        <ele>171</ele>
        <time>2018-01-28T09:54:22Z</time>
      </trkpt>
      <trkpt lat="45.92887" lon="4.74175">
        <ele>171</ele>
        <time>2018-01-28T09:54:24Z</time>
      </trkpt>
      <trkpt lat="45.9289" lon="4.74178">
        <ele>171</ele>
        <time>2018-01-28T09:54:25Z</time>
      </trkpt>
      <trkpt lat="45.92897" lon="4.74183">
        <ele>171</ele>
        <time>2018-01-28T09:54:27Z</time>
      </trkpt>
      <trkpt lat="45.92901" lon="4.74184">
        <ele>171</ele>
        <time>2018-01-28T09:54:28Z</time>
      </trkpt>
      <trkpt lat="45.92907" lon="4.74187">
        <ele>171</ele>
        <time>2018-01-28T09:54:30Z</time>
      </trkpt>
      <trkpt lat="45.92911" lon="4.74189">
        <ele>171</ele>
        <time>2018-01-28T09:54:31Z</time>
      </trkpt>
      <trkpt lat="45.92917" lon="4.74193">
        <ele>171</ele>
        <time>2018-01-28T09:54:33Z</time>
      </trkpt>
      <trkpt lat="45.92921" lon="4.74195">
        <ele>170</ele>
        <time>2018-01-28T09:54:34Z</time>
      </trkpt>
      <trkpt lat="45.92928" lon="4.74199">
        <ele>170</ele>
        <time>2018-01-28T09:54:36Z</time>
      </trkpt>
      <trkpt lat="45.92932" lon="4.74201">
        <ele>170</ele>
        <time>2018-01-28T09:54:37Z</time>
      </trkpt>
      <trkpt lat="45.92941" lon="4.74205">
        <ele>170</ele>
        <time>2018-01-28T09:54:39Z</time>
      </trkpt>
      <trkpt lat="45.92945" lon="4.74207">
        <ele>170</ele>
        <time>2018-01-28T09:54:40Z</time>
      </trkpt>
      <trkpt lat="45.92954" lon="4.74208">
        <ele>170</ele>
        <time>2018-01-28T09:54:42Z</time>
      </trkpt>
      <trkpt lat="45.92959" lon="4.74205">
        <ele>170</ele>
        <time>2018-01-28T09:54:43Z</time>
      </trkpt>
      <trkpt lat="45.92964" lon="4.74202">
        <ele>170</ele>
        <time>2018-01-28T09:54:44Z</time>
      </trkpt>
      <trkpt lat="45.92968" lon="4.74198">
        <ele>170</ele>
        <time>2018-01-28T09:54:45Z</time>
      </trkpt>
      <trkpt lat="45.92971" lon="4.74194">
        <ele>170</ele>
        <time>2018-01-28T09:54:46Z</time>
      </trkpt>
      <trkpt lat="45.92974" lon="4.74188">
        <ele>170</ele>
        <time>2018-01-28T09:54:47Z</time>
      </trkpt>
      <trkpt lat="45.92976" lon="4.74182">
        <ele>170</ele>
        <time>2018-01-28T09:54:48Z</time>
      </trkpt>
      <trkpt lat="45.92978" lon="4.74176">
        <ele>170</ele>
        <time>2018-01-28T09:54:49Z</time>
      </trkpt>
      <trkpt lat="45.92981" lon="4.74169">
        <ele>170</ele>
        <time>2018-01-28T09:54:50Z</time>
      </trkpt>
      <trkpt lat="45.92983" lon="4.74161">
        <ele>170</ele>
        <time>2018-01-28T09:54:51Z</time>
      </trkpt>
      <trkpt lat="45.92986" lon="4.74152">
        <ele>170</ele>
        <time>2018-01-28T09:54:52Z</time>
      </trkpt>
      <trkpt lat="45.92988" lon="4.74145">
        <ele>170</ele>
        <time>2018-01-28T09:54:53Z</time>
      </trkpt>
      <trkpt lat="45.9299" lon="4.74138">
        <ele>171</ele>
        <time>2018-01-28T09:54:54Z</time>
      </trkpt>
      <trkpt lat="45.92991" lon="4.74131">
        <ele>171</ele>
        <time>2018-01-28T09:54:55Z</time>
      </trkpt>
      <trkpt lat="45.92993" lon="4.74123">
        <ele>171</ele>
        <time>2018-01-28T09:54:56Z</time>
      </trkpt>
      <trkpt lat="45.92995" lon="4.74114">
        <ele>171</ele>
        <time>2018-01-28T09:54:57Z</time>
      </trkpt>
      <trkpt lat="45.92996" lon="4.74106">
        <ele>171</ele>
        <time>2018-01-28T09:54:58Z</time>
      </trkpt>
      <trkpt lat="45.92998" lon="4.74097">
        <ele>171</ele>
        <time>2018-01-28T09:54:59Z</time>
      </trkpt>
      <trkpt lat="45.92999" lon="4.74089">
        <ele>171</ele>
        <time>2018-01-28T09:55:00Z</time>
      </trkpt>
      <trkpt lat="45.92999" lon="4.74081">
        <ele>171</ele>
        <time>2018-01-28T09:55:01Z</time>
      </trkpt>
      <trkpt lat="45.92999" lon="4.74072">
        <ele>171</ele>
        <time>2018-01-28T09:55:02Z</time>
      </trkpt>
      <trkpt lat="45.92998" lon="4.74064">
        <ele>171</ele>
        <time>2018-01-28T09:55:03Z</time>
      </trkpt>
      <trkpt lat="45.92997" lon="4.74057">
        <ele>171</ele>
        <time>2018-01-28T09:55:04Z</time>
      </trkpt>
      <trkpt lat="45.92998" lon="4.74048">
        <ele>171</ele>
        <time>2018-01-28T09:55:05Z</time>
      </trkpt>
      <trkpt lat="45.92999" lon="4.74042">
        <ele>171</ele>
        <time>2018-01-28T09:55:06Z</time>
      </trkpt>
      <trkpt lat="45.92999" lon="4.74035">
        <ele>171</ele>
        <time>2018-01-28T09:55:07Z</time>
      </trkpt>
      <trkpt lat="45.93" lon="4.74028">
        <ele>171</ele>
        <time>2018-01-28T09:55:08Z</time>
      </trkpt>
      <trkpt lat="45.93002" lon="4.74022">
        <ele>170</ele>
        <time>2018-01-28T09:55:09Z</time>
      </trkpt>
      <trkpt lat="45.93006" lon="4.74012">
        <ele>170</ele>
        <time>2018-01-28T09:55:11Z</time>
      </trkpt>
      <trkpt lat="45.93008" lon="4.74007">
        <ele>170</ele>
        <time>2018-01-28T09:55:12Z</time>
      </trkpt>
      <trkpt lat="45.93014" lon="4.74">
        <ele>170</ele>
        <time>2018-01-28T09:55:14Z</time>
      </trkpt>
      <trkpt lat="45.93018" lon="4.73998">
        <ele>169</ele>
        <time>2018-01-28T09:55:15Z</time>
      </trkpt>
      <trkpt lat="45.93022" lon="4.73996">
        <ele>169</ele>
        <time>2018-01-28T09:55:16Z</time>
      </trkpt>
      <trkpt lat="45.93027" lon="4.73995">
        <ele>169</ele>
        <time>2018-01-28T09:55:17Z</time>
      </trkpt>
      <trkpt lat="45.93031" lon="4.73994">
        <ele>169</ele>
        <time>2018-01-28T09:55:18Z</time>
      </trkpt>
      <trkpt lat="45.93036" lon="4.73996">
        <ele>169</ele>
        <time>2018-01-28T09:55:19Z</time>
      </trkpt>
      <trkpt lat="45.93041" lon="4.73998">
        <ele>169</ele>
        <time>2018-01-28T09:55:20Z</time>
      </trkpt>
      <trkpt lat="45.93045" lon="4.74001">
        <ele>169</ele>
        <time>2018-01-28T09:55:21Z</time>
      </trkpt>
      <trkpt lat="45.93053" lon="4.74005">
        <ele>169</ele>
        <time>2018-01-28T09:55:23Z</time>
      </trkpt>
      <trkpt lat="45.93056" lon="4.74007">
        <ele>169</ele>
        <time>2018-01-28T09:55:24Z</time>
      </trkpt>
      <trkpt lat="45.93063" lon="4.74011">
        <ele>169</ele>
        <time>2018-01-28T09:55:26Z</time>
      </trkpt>
      <trkpt lat="45.93067" lon="4.74012">
        <ele>169</ele>
        <time>2018-01-28T09:55:27Z</time>
      </trkpt>
      <trkpt lat="45.93075" lon="4.74014">
        <ele>169</ele>
        <time>2018-01-28T09:55:29Z</time>
      </trkpt>
      <trkpt lat="45.93079" lon="4.74013">
        <ele>169</ele>
        <time>2018-01-28T09:55:30Z</time>
      </trkpt>
      <trkpt lat="45.93088" lon="4.74014">
        <ele>168</ele>
        <time>2018-01-28T09:55:32Z</time>
      </trkpt>
      <trkpt lat="45.93092" lon="4.74014">
        <ele>168</ele>
        <time>2018-01-28T09:55:33Z</time>
      </trkpt>
      <trkpt lat="45.931" lon="4.74014">
        <ele>168</ele>
        <time>2018-01-28T09:55:35Z</time>
      </trkpt>
      <trkpt lat="45.93104" lon="4.74016">
        <ele>168</ele>
        <time>2018-01-28T09:55:36Z</time>
      </trkpt>
      <trkpt lat="45.93109" lon="4.74016">
        <ele>168</ele>
        <time>2018-01-28T09:55:37Z</time>
      </trkpt>
      <trkpt lat="45.93114" lon="4.74017">
        <ele>168</ele>
        <time>2018-01-28T09:55:38Z</time>
      </trkpt>
      <trkpt lat="45.9312" lon="4.7402">
        <ele>168</ele>
        <time>2018-01-28T09:55:40Z</time>
      </trkpt>
      <trkpt lat="45.93124" lon="4.74022">
        <ele>168</ele>
        <time>2018-01-28T09:55:41Z</time>
      </trkpt>
      <trkpt lat="45.93131" lon="4.74026">
        <ele>168</ele>
        <time>2018-01-28T09:55:43Z</time>
      </trkpt>
      <trkpt lat="45.93135" lon="4.74028">
        <ele>168</ele>
        <time>2018-01-28T09:55:44Z</time>
      </trkpt>
      <trkpt lat="45.93143" lon="4.74031">
        <ele>168</ele>
        <time>2018-01-28T09:55:46Z</time>
      </trkpt>
      <trkpt lat="45.93146" lon="4.74034">
        <ele>168</ele>
        <time>2018-01-28T09:55:47Z</time>
      </trkpt>
      <trkpt lat="45.93152" lon="4.7404">
        <ele>168</ele>
        <time>2018-01-28T09:55:49Z</time>
      </trkpt>
      <trkpt lat="45.93154" lon="4.74043">
        <ele>168</ele>
        <time>2018-01-28T09:55:50Z</time>
      </trkpt>
      <trkpt lat="45.93159" lon="4.74049">
        <ele>168</ele>
        <time>2018-01-28T09:55:52Z</time>
      </trkpt>
      <trkpt lat="45.93161" lon="4.74052">
        <ele>168</ele>
        <time>2018-01-28T09:55:53Z</time>
      </trkpt>
      <trkpt lat="45.93166" lon="4.74057">
        <ele>168</ele>
        <time>2018-01-28T09:55:55Z</time>
      </trkpt>
      <trkpt lat="45.93169" lon="4.74059">
        <ele>168</ele>
        <time>2018-01-28T09:55:56Z</time>
      </trkpt>
      <trkpt lat="45.93174" lon="4.74065">
        <ele>168</ele>
        <time>2018-01-28T09:55:58Z</time>
      </trkpt>
      <trkpt lat="45.93176" lon="4.74069">
        <ele>168</ele>
        <time>2018-01-28T09:55:59Z</time>
      </trkpt>
      <trkpt lat="45.93183" lon="4.74076">
        <ele>168</ele>
        <time>2018-01-28T09:56:02Z</time>
      </trkpt>
      <trkpt lat="45.93185" lon="4.74078">
        <ele>168</ele>
        <time>2018-01-28T09:56:03Z</time>
      </trkpt>
      <trkpt lat="45.93177" lon="4.74076">
        <ele>168</ele>
        <time>2018-01-28T09:57:24Z</time>
      </trkpt>
      <trkpt lat="45.93175" lon="4.74074">
        <ele>168</ele>
        <time>2018-01-28T09:57:25Z</time>
      </trkpt>
      <trkpt lat="45.93169" lon="4.74067">
        <ele>168</ele>
        <time>2018-01-28T09:57:28Z</time>
      </trkpt>
      <trkpt lat="45.93167" lon="4.74065">
        <ele>168</ele>
        <time>2018-01-28T09:57:29Z</time>
      </trkpt>
      <trkpt lat="45.93162" lon="4.74059">
        <ele>168</ele>
        <time>2018-01-28T09:57:31Z</time>
      </trkpt>
      <trkpt lat="45.93159" lon="4.74057">
        <ele>168</ele>
        <time>2018-01-28T09:57:32Z</time>
      </trkpt>
      <trkpt lat="45.93153" lon="4.74051">
        <ele>168</ele>
        <time>2018-01-28T09:57:34Z</time>
      </trkpt>
      <trkpt lat="45.9315" lon="4.74049">
        <ele>168</ele>
        <time>2018-01-28T09:57:35Z</time>
      </trkpt>
      <trkpt lat="45.93145" lon="4.74044">
        <ele>168</ele>
        <time>2018-01-28T09:57:37Z</time>
      </trkpt>
      <trkpt lat="45.93142" lon="4.74041">
        <ele>168</ele>
        <time>2018-01-28T09:57:38Z</time>
      </trkpt>
      <trkpt lat="45.93135" lon="4.74035">
        <ele>168</ele>
        <time>2018-01-28T09:57:40Z</time>
      </trkpt>
      <trkpt lat="45.93131" lon="4.74032">
        <ele>168</ele>
        <time>2018-01-28T09:57:41Z</time>
      </trkpt>
      <trkpt lat="45.93127" lon="4.7403">
        <ele>168</ele>
        <time>2018-01-28T09:57:42Z</time>
      </trkpt>
      <trkpt lat="45.93122" lon="4.74028">
        <ele>168</ele>
        <time>2018-01-28T09:57:43Z</time>
      </trkpt>
      <trkpt lat="45.93118" lon="4.74026">
        <ele>168</ele>
        <time>2018-01-28T09:57:44Z</time>
      </trkpt>
      <trkpt lat="45.93113" lon="4.74025">
        <ele>168</ele>
        <time>2018-01-28T09:57:45Z</time>
      </trkpt>
      <trkpt lat="45.93108" lon="4.74024">
        <ele>168</ele>
        <time>2018-01-28T09:57:46Z</time>
      </trkpt>
      <trkpt lat="45.93104" lon="4.74022">
        <ele>168</ele>
        <time>2018-01-28T09:57:47Z</time>
      </trkpt>
      <trkpt lat="45.93096" lon="4.7402">
        <ele>168</ele>
        <time>2018-01-28T09:57:49Z</time>
      </trkpt>
      <trkpt lat="45.93092" lon="4.74019">
        <ele>168</ele>
        <time>2018-01-28T09:57:50Z</time>
      </trkpt>
      <trkpt lat="45.93084" lon="4.74018">
        <ele>168</ele>
        <time>2018-01-28T09:57:52Z</time>
      </trkpt>
      <trkpt lat="45.93081" lon="4.74018">
        <ele>169</ele>
        <time>2018-01-28T09:57:53Z</time>
      </trkpt>
      <trkpt lat="45.93074" lon="4.74018">
        <ele>169</ele>
        <time>2018-01-28T09:57:55Z</time>
      </trkpt>
      <trkpt lat="45.93071" lon="4.7402">
        <ele>169</ele>
        <time>2018-01-28T09:57:56Z</time>
      </trkpt>
      <trkpt lat="45.9307" lon="4.74033">
        <ele>169</ele>
        <time>2018-01-28T09:57:59Z</time>
      </trkpt>
      <trkpt lat="45.93071" lon="4.74037">
        <ele>169</ele>
        <time>2018-01-28T09:58:00Z</time>
      </trkpt>
      <trkpt lat="45.93073" lon="4.74047">
        <ele>169</ele>
        <time>2018-01-28T09:58:02Z</time>
      </trkpt>
      <trkpt lat="45.93074" lon="4.74052">
        <ele>169</ele>
        <time>2018-01-28T09:58:03Z</time>
      </trkpt>
      <trkpt lat="45.93076" lon="4.74064">
        <ele>169</ele>
        <time>2018-01-28T09:58:05Z</time>
      </trkpt>
      <trkpt lat="45.93077" lon="4.74071">
        <ele>169</ele>
        <time>2018-01-28T09:58:06Z</time>
      </trkpt>
      <trkpt lat="45.9308" lon="4.74083">
        <ele>169</ele>
        <time>2018-01-28T09:58:08Z</time>
      </trkpt>
      <trkpt lat="45.93081" lon="4.74089">
        <ele>169</ele>
        <time>2018-01-28T09:58:09Z</time>
      </trkpt>
      <trkpt lat="45.93082" lon="4.74097">
        <ele>169</ele>
        <time>2018-01-28T09:58:10Z</time>
      </trkpt>
      <trkpt lat="45.93083" lon="4.74104">
        <ele>169</ele>
        <time>2018-01-28T09:58:11Z</time>
      </trkpt>
      <trkpt lat="45.93084" lon="4.74111">
        <ele>169</ele>
        <time>2018-01-28T09:58:12Z</time>
      </trkpt>
      <trkpt lat="45.93086" lon="4.74117">
        <ele>169</ele>
        <time>2018-01-28T09:58:13Z</time>
      </trkpt>
      <trkpt lat="45.93087" lon="4.74124">
        <ele>169</ele>
        <time>2018-01-28T09:58:14Z</time>
      </trkpt>
      <trkpt lat="45.93088" lon="4.74131">
        <ele>169</ele>
        <time>2018-01-28T09:58:15Z</time>
      </trkpt>
      <trkpt lat="45.93089" lon="4.74138">
        <ele>169</ele>
        <time>2018-01-28T09:58:16Z</time>
      </trkpt>
      <trkpt lat="45.93091" lon="4.74145">
        <ele>169</ele>
        <time>2018-01-28T09:58:17Z</time>
      </trkpt>
      <trkpt lat="45.93092" lon="4.74151">
        <ele>169</ele>
        <time>2018-01-28T09:58:18Z</time>
      </trkpt>
      <trkpt lat="45.93094" lon="4.74158">
        <ele>169</ele>
        <time>2018-01-28T09:58:19Z</time>
      </trkpt>
      <trkpt lat="45.93096" lon="4.74165">
        <ele>169</ele>
        <time>2018-01-28T09:58:20Z</time>
      </trkpt>
      <trkpt lat="45.93096" lon="4.74172">
        <ele>169</ele>
        <time>2018-01-28T09:58:21Z</time>
      </trkpt>
      <trkpt lat="45.93098" lon="4.74185">
        <ele>169</ele>
        <time>2018-01-28T09:58:23Z</time>
      </trkpt>
      <trkpt lat="45.93099" lon="4.74191">
        <ele>168</ele>
        <time>2018-01-28T09:58:24Z</time>
      </trkpt>
      <trkpt lat="45.931" lon="4.74201">
        <ele>168</ele>
        <time>2018-01-28T09:58:26Z</time>
      </trkpt>
      <trkpt lat="45.93101" lon="4.74207">
        <ele>168</ele>
        <time>2018-01-28T09:58:27Z</time>
      </trkpt>
      <trkpt lat="45.93102" lon="4.74216">
        <ele>168</ele>
        <time>2018-01-28T09:58:29Z</time>
      </trkpt>
      <trkpt lat="45.93102" lon="4.74221">
        <ele>168</ele>
        <time>2018-01-28T09:58:30Z</time>
      </trkpt>
      <trkpt lat="45.93104" lon="4.74233">
        <ele>169</ele>
        <time>2018-01-28T09:58:33Z</time>
      </trkpt>
      <trkpt lat="45.93105" lon="4.74236">
        <ele>169</ele>
        <time>2018-01-28T09:58:34Z</time>
      </trkpt>
      <trkpt lat="45.93102" lon="4.74225">
        <ele>168</ele>
        <time>2018-01-28T09:59:46Z</time>
      </trkpt>
      <trkpt lat="45.93102" lon="4.74223">
        <ele>168</ele>
        <time>2018-01-28T09:59:47Z</time>
      </trkpt>
      <trkpt lat="45.93101" lon="4.74211">
        <ele>168</ele>
        <time>2018-01-28T09:59:51Z</time>
      </trkpt>
      <trkpt lat="45.93101" lon="4.74208">
        <ele>168</ele>
        <time>2018-01-28T09:59:52Z</time>
      </trkpt>
      <trkpt lat="45.93101" lon="4.74199">
        <ele>168</ele>
        <time>2018-01-28T09:59:54Z</time>
      </trkpt>
      <trkpt lat="45.931" lon="4.74194">
        <ele>168</ele>
        <time>2018-01-28T09:59:55Z</time>
      </trkpt>
      <trkpt lat="45.93099" lon="4.74183">
        <ele>169</ele>
        <time>2018-01-28T09:59:57Z</time>
      </trkpt>
      <trkpt lat="45.93099" lon="4.74178">
        <ele>169</ele>
        <time>2018-01-28T09:59:58Z</time>
      </trkpt>
      <trkpt lat="45.93098" lon="4.74166">
        <ele>169</ele>
        <time>2018-01-28T10:00:00Z</time>
      </trkpt>
      <trkpt lat="45.93097" lon="4.7416">
        <ele>169</ele>
        <time>2018-01-28T10:00:01Z</time>
      </trkpt>
      <trkpt lat="45.93095" lon="4.74147">
        <ele>169</ele>
        <time>2018-01-28T10:00:03Z</time>
      </trkpt>
      <trkpt lat="45.93095" lon="4.74141">
        <ele>169</ele>
        <time>2018-01-28T10:00:04Z</time>
      </trkpt>
      <trkpt lat="45.93094" lon="4.74135">
        <ele>168</ele>
        <time>2018-01-28T10:00:05Z</time>
      </trkpt>
      <trkpt lat="45.93094" lon="4.74127">
        <ele>168</ele>
        <time>2018-01-28T10:00:06Z</time>
      </trkpt>
      <trkpt lat="45.93092" lon="4.74116">
        <ele>169</ele>
        <time>2018-01-28T10:00:08Z</time>
      </trkpt>
      <trkpt lat="45.9309" lon="4.74109">
        <ele>169</ele>
        <time>2018-01-28T10:00:09Z</time>
      </trkpt>
      <trkpt lat="45.93089" lon="4.74098">
        <ele>169</ele>
        <time>2018-01-28T10:00:11Z</time>
      </trkpt>
      <trkpt lat="45.93088" lon="4.74092">
        <ele>169</ele>
        <time>2018-01-28T10:00:12Z</time>
      </trkpt>
      <trkpt lat="45.93085" lon="4.7408">
        <ele>169</ele>
        <time>2018-01-28T10:00:14Z</time>
      </trkpt>
      <trkpt lat="45.93084" lon="4.74074">
        <ele>169</ele>
        <time>2018-01-28T10:00:15Z</time>
      </trkpt>
      <trkpt lat="45.93081" lon="4.74062">
        <ele>169</ele>
        <time>2018-01-28T10:00:17Z</time>
      </trkpt>
      <trkpt lat="45.9308" lon="4.74055">
        <ele>169</ele>
        <time>2018-01-28T10:00:18Z</time>
      </trkpt>
      <trkpt lat="45.93077" lon="4.74044">
        <ele>169</ele>
        <time>2018-01-28T10:00:20Z</time>
      </trkpt>
      <trkpt lat="45.93075" lon="4.74038">
        <ele>169</ele>
        <time>2018-01-28T10:00:21Z</time>
      </trkpt>
      <trkpt lat="45.93073" lon="4.74028">
        <ele>169</ele>
        <time>2018-01-28T10:00:23Z</time>
      </trkpt>
      <trkpt lat="45.9307" lon="4.74023">
        <ele>169</ele>
        <time>2018-01-28T10:00:24Z</time>
      </trkpt>
      <trkpt lat="45.93065" lon="4.74015">
        <ele>169</ele>
        <time>2018-01-28T10:00:26Z</time>
      </trkpt>
      <trkpt lat="45.93061" lon="4.7401">
        <ele>169</ele>
        <time>2018-01-28T10:00:27Z</time>
      </trkpt>
      <trkpt lat="45.93053" lon="4.74006">
        <ele>169</ele>
        <time>2018-01-28T10:00:29Z</time>
      </trkpt>
      <trkpt lat="45.93049" lon="4.74005">
        <ele>169</ele>
        <time>2018-01-28T10:00:30Z</time>
      </trkpt>
      <trkpt lat="45.93041" lon="4.74002">
        <ele>169</ele>
        <time>2018-01-28T10:00:32Z</time>
      </trkpt>
      <trkpt lat="45.93037" lon="4.74">
        <ele>169</ele>
        <time>2018-01-28T10:00:33Z</time>
      </trkpt>
      <trkpt lat="45.93029" lon="4.73997">
        <ele>169</ele>
        <time>2018-01-28T10:00:35Z</time>
      </trkpt>
      <trkpt lat="45.93024" lon="4.73997">
        <ele>169</ele>
        <time>2018-01-28T10:00:36Z</time>
      </trkpt>
      <trkpt lat="45.93018" lon="4.73998">
        <ele>169</ele>
        <time>2018-01-28T10:00:38Z</time>
      </trkpt>
      <trkpt lat="45.93014" lon="4.74002">
        <ele>170</ele>
        <time>2018-01-28T10:00:39Z</time>
      </trkpt>
      <trkpt lat="45.93007" lon="4.74008">
        <ele>170</ele>
        <time>2018-01-28T10:00:41Z</time>
      </trkpt>
      <trkpt lat="45.93004" lon="4.74013">
        <ele>170</ele>
        <time>2018-01-28T10:00:42Z</time>
      </trkpt>
      <trkpt lat="45.93" lon="4.74023">
        <ele>171</ele>
        <time>2018-01-28T10:00:44Z</time>
      </trkpt>
      <trkpt lat="45.92999" lon="4.74029">
        <ele>171</ele>
        <time>2018-01-28T10:00:45Z</time>
      </trkpt>
      <trkpt lat="45.92997" lon="4.74041">
        <ele>171</ele>
        <time>2018-01-28T10:00:47Z</time>
      </trkpt>
      <trkpt lat="45.92997" lon="4.74047">
        <ele>171</ele>
        <time>2018-01-28T10:00:48Z</time>
      </trkpt>
      <trkpt lat="45.92996" lon="4.7406">
        <ele>171</ele>
        <time>2018-01-28T10:00:50Z</time>
      </trkpt>
      <trkpt lat="45.92997" lon="4.74069">
        <ele>171</ele>
        <time>2018-01-28T10:00:51Z</time>
      </trkpt>
      <trkpt lat="45.92998" lon="4.74081">
        <ele>171</ele>
        <time>2018-01-28T10:00:53Z</time>
      </trkpt>
      <trkpt lat="45.92998" lon="4.74087">
        <ele>171</ele>
        <time>2018-01-28T10:00:54Z</time>
      </trkpt>
      <trkpt lat="45.92997" lon="4.74099">
        <ele>171</ele>
        <time>2018-01-28T10:00:56Z</time>
      </trkpt>
      <trkpt lat="45.92996" lon="4.74106">
        <ele>171</ele>
        <time>2018-01-28T10:00:57Z</time>
      </trkpt>
      <trkpt lat="45.92994" lon="4.74116">
        <ele>171</ele>
        <time>2018-01-28T10:00:59Z</time>
      </trkpt>
      <trkpt lat="45.92993" lon="4.74121">
        <ele>171</ele>
        <time>2018-01-28T10:01:00Z</time>
      </trkpt>
      <trkpt lat="45.9299" lon="4.7413">
        <ele>171</ele>
        <time>2018-01-28T10:01:02Z</time>
      </trkpt>
      <trkpt lat="45.92989" lon="4.74134">
        <ele>171</ele>
        <time>2018-01-28T10:01:03Z</time>
      </trkpt>
      <trkpt lat="45.92987" lon="4.74146">
        <ele>170</ele>
        <time>2018-01-28T10:01:06Z</time>
      </trkpt>
      <trkpt lat="45.92987" lon="4.7415">
        <ele>170</ele>
        <time>2018-01-28T10:01:07Z</time>
      </trkpt>
      <trkpt lat="45.92984" lon="4.74161">
        <ele>170</ele>
        <time>2018-01-28T10:01:10Z</time>
      </trkpt>
      <trkpt lat="45.92982" lon="4.74164">
        <ele>170</ele>
        <time>2018-01-28T10:01:11Z</time>
      </trkpt>
      <trkpt lat="45.92977" lon="4.74172">
        <ele>170</ele>
        <time>2018-01-28T10:01:14Z</time>
      </trkpt>
      <trkpt lat="45.92976" lon="4.74175">
        <ele>170</ele>
        <time>2018-01-28T10:01:15Z</time>
      </trkpt>
      <trkpt lat="45.92974" lon="4.74185">
        <ele>170</ele>
        <time>2018-01-28T10:01:18Z</time>
      </trkpt>
      <trkpt lat="45.92974" lon="4.74188">
        <ele>170</ele>
        <time>2018-01-28T10:01:19Z</time>
      </trkpt>
      <trkpt lat="45.9297" lon="4.74198">
        <ele>170</ele>
        <time>2018-01-28T10:01:22Z</time>
      </trkpt>
      <trkpt lat="45.92968" lon="4.742">
        <ele>170</ele>
        <time>2018-01-28T10:01:23Z</time>
      </trkpt>
      <trkpt lat="45.92961" lon="4.74207">
        <ele>170</ele>
        <time>2018-01-28T10:01:26Z</time>
      </trkpt>
      <trkpt lat="45.92959" lon="4.74208">
        <ele>170</ele>
        <time>2018-01-28T10:01:27Z</time>
      </trkpt>
      <trkpt lat="45.92953" lon="4.7421">
        <ele>170</ele>
        <time>2018-01-28T10:01:29Z</time>
      </trkpt>
      <trkpt lat="45.9295" lon="4.7421">
        <ele>170</ele>
        <time>2018-01-28T10:01:30Z</time>
      </trkpt>
      <trkpt lat="45.92941" lon="4.74208">
        <ele>170</ele>
        <time>2018-01-28T10:01:33Z</time>
      </trkpt>
      <trkpt lat="45.92938" lon="4.74207">
        <ele>170</ele>
        <time>2018-01-28T10:01:34Z</time>
      </trkpt>
      <trkpt lat="45.92933" lon="4.74202">
        <ele>170</ele>
        <time>2018-01-28T10:01:36Z</time>
      </trkpt>
      <trkpt lat="45.9293" lon="4.742">
        <ele>170</ele>
        <time>2018-01-28T10:01:37Z</time>
      </trkpt>
      <trkpt lat="45.92923" lon="4.74195">
        <ele>170</ele>
        <time>2018-01-28T10:01:39Z</time>
      </trkpt>
      <trkpt lat="45.9292" lon="4.74193">
        <ele>171</ele>
        <time>2018-01-28T10:01:40Z</time>
      </trkpt>
      <trkpt lat="45.92912" lon="4.74188">
        <ele>171</ele>
        <time>2018-01-28T10:01:42Z</time>
      </trkpt>
      <trkpt lat="45.92909" lon="4.74186">
        <ele>171</ele>
        <time>2018-01-28T10:01:43Z</time>
      </trkpt>
      <trkpt lat="45.92902" lon="4.74181">
        <ele>172</ele>
        <time>2018-01-28T10:01:45Z</time>
      </trkpt>
      <trkpt lat="45.92899" lon="4.74179">
        <ele>172</ele>
        <time>2018-01-28T10:01:46Z</time>
      </trkpt>
      <trkpt lat="45.92893" lon="4.74173">
        <ele>171</ele>
        <time>2018-01-28T10:01:48Z</time>
      </trkpt>
      <trkpt lat="45.9289" lon="4.74169">
        <ele>171</ele>
        <time>2018-01-28T10:01:49Z</time>
      </trkpt>
      <trkpt lat="45.92885" lon="4.74162">
        <ele>172</ele>
        <time>2018-01-28T10:01:51Z</time>
      </trkpt>
      <trkpt lat="45.92883" lon="4.74157">
        <ele>172</ele>
        <time>2018-01-28T10:01:52Z</time>
      </trkpt>
      <trkpt lat="45.92881" lon="4.74145">
        <ele>172</ele>
        <time>2018-01-28T10:01:54Z</time>
      </trkpt>
      <trkpt lat="45.92884" lon="4.74137">
        <ele>172</ele>
        <time>2018-01-28T10:01:55Z</time>
      </trkpt>
      <trkpt lat="45.92885" lon="4.74131">
        <ele>172</ele>
        <time>2018-01-28T10:01:56Z</time>
      </trkpt>
      <trkpt lat="45.92888" lon="4.74124">
        <ele>172</ele>
        <time>2018-01-28T10:01:57Z</time>
      </trkpt>
      <trkpt lat="45.92891" lon="4.74119">
        <ele>172</ele>
        <time>2018-01-28T10:01:58Z</time>
      </trkpt>
      <trkpt lat="45.92895" lon="4.74114">
        <ele>172</ele>
        <time>2018-01-28T10:01:59Z</time>
      </trkpt>
      <trkpt lat="45.92899" lon="4.74108">
        <ele>172</ele>
        <time>2018-01-28T10:02:00Z</time>
      </trkpt>
      <trkpt lat="45.92904" lon="4.74101">
        <ele>172</ele>
        <time>2018-01-28T10:02:01Z</time>
      </trkpt>
      <trkpt lat="45.92907" lon="4.74095">
        <ele>172</ele>
        <time>2018-01-28T10:02:02Z</time>
      </trkpt>
      <trkpt lat="45.92911" lon="4.74087">
        <ele>173</ele>
        <time>2018-01-28T10:02:03Z</time>
      </trkpt>
      <trkpt lat="45.92913" lon="4.74077">
        <ele>173</ele>
        <time>2018-01-28T10:02:04Z</time>
      </trkpt>
      <trkpt lat="45.92914" lon="4.74067">
        <ele>173</ele>
        <time>2018-01-28T10:02:05Z</time>
      </trkpt>
      <trkpt lat="45.92914" lon="4.74058">
        <ele>172</ele>
        <time>2018-01-28T10:02:06Z</time>
      </trkpt>
      <trkpt lat="45.92915" lon="4.74048">
        <ele>172</ele>
        <time>2018-01-28T10:02:07Z</time>
      </trkpt>
      <trkpt lat="45.92915" lon="4.7404">
        <ele>172</ele>
        <time>2018-01-28T10:02:08Z</time>
      </trkpt>
      <trkpt lat="45.92916" lon="4.74033">
        <ele>172</ele>
        <time>2018-01-28T10:02:09Z</time>
      </trkpt>
      <trkpt lat="45.92917" lon="4.74025">
        <ele>172</ele>
        <time>2018-01-28T10:02:10Z</time>
      </trkpt>
      <trkpt lat="45.92918" lon="4.74019">
        <ele>172</ele>
        <time>2018-01-28T10:02:11Z</time>
      </trkpt>
      <trkpt lat="45.92918" lon="4.74011">
        <ele>172</ele>
        <time>2018-01-28T10:02:12Z</time>
      </trkpt>
      <trkpt lat="45.92916" lon="4.74004">
        <ele>172</ele>
        <time>2018-01-28T10:02:13Z</time>
      </trkpt>
      <trkpt lat="45.92914" lon="4.73997">
        <ele>172</ele>
        <time>2018-01-28T10:02:14Z</time>
      </trkpt>
      <trkpt lat="45.92911" lon="4.73991">
        <ele>172</ele>
        <time>2018-01-28T10:02:15Z</time>
      </trkpt>
      <trkpt lat="45.92907" lon="4.73988">
        <ele>172</ele>
        <time>2018-01-28T10:02:16Z</time>
      </trkpt>
      <trkpt lat="45.92903" lon="4.73986">
        <ele>172</ele>
        <time>2018-01-28T10:02:17Z</time>
      </trkpt>
      <trkpt lat="45.92898" lon="4.73985">
        <ele>172</ele>
        <time>2018-01-28T10:02:18Z</time>
      </trkpt>
      <trkpt lat="45.92893" lon="4.73985">
        <ele>172</ele>
        <time>2018-01-28T10:02:19Z</time>
      </trkpt>
      <trkpt lat="45.92889" lon="4.73988">
        <ele>172</ele>
        <time>2018-01-28T10:02:20Z</time>
      </trkpt>
      <trkpt lat="45.92885" lon="4.73992">
        <ele>172</ele>
        <time>2018-01-28T10:02:21Z</time>
      </trkpt>
      <trkpt lat="45.92881" lon="4.73998">
        <ele>172</ele>
        <time>2018-01-28T10:02:22Z</time>
      </trkpt>
      <trkpt lat="45.92879" lon="4.74003">
        <ele>172</ele>
        <time>2018-01-28T10:02:23Z</time>
      </trkpt>
      <trkpt lat="45.92877" lon="4.74008">
        <ele>172</ele>
        <time>2018-01-28T10:02:24Z</time>
      </trkpt>
      <trkpt lat="45.92876" lon="4.74016">
        <ele>172</ele>
        <time>2018-01-28T10:02:25Z</time>
      </trkpt>
      <trkpt lat="45.92875" lon="4.74023">
        <ele>172</ele>
        <time>2018-01-28T10:02:26Z</time>
      </trkpt>
      <trkpt lat="45.92874" lon="4.7403">
        <ele>172</ele>
        <time>2018-01-28T10:02:27Z</time>
      </trkpt>
      <trkpt lat="45.92872" lon="4.74037">
        <ele>172</ele>
        <time>2018-01-28T10:02:28Z</time>
      </trkpt>
      <trkpt lat="45.9287" lon="4.74042">
        <ele>172</ele>
        <time>2018-01-28T10:02:29Z</time>
      </trkpt>
      <trkpt lat="45.92866" lon="4.74047">
        <ele>172</ele>
        <time>2018-01-28T10:02:30Z</time>
      </trkpt>
      <trkpt lat="45.92863" lon="4.74052">
        <ele>172</ele>
        <time>2018-01-28T10:02:31Z</time>
      </trkpt>
      <trkpt lat="45.92858" lon="4.74057">
        <ele>172</ele>
        <time>2018-01-28T10:02:32Z</time>
      </trkpt>
      <trkpt lat="45.92855" lon="4.74062">
        <ele>172</ele>
        <time>2018-01-28T10:02:33Z</time>
      </trkpt>
      <trkpt lat="45.92851" lon="4.74066">
        <ele>172</ele>
        <time>2018-01-28T10:02:34Z</time>
      </trkpt>
      <trkpt lat="45.92847" lon="4.74069">
        <ele>172</ele>
        <time>2018-01-28T10:02:35Z</time>
      </trkpt>
      <trkpt lat="45.92841" lon="4.74078">
        <ele>171</ele>
        <time>2018-01-28T10:02:37Z</time>
      </trkpt>
      <trkpt lat="45.92837" lon="4.74084">
        <ele>171</ele>
        <time>2018-01-28T10:02:38Z</time>
      </trkpt>
      <trkpt lat="45.92833" lon="4.74088">
        <ele>171</ele>
        <time>2018-01-28T10:02:39Z</time>
      </trkpt>
      <trkpt lat="45.92828" lon="4.74091">
        <ele>171</ele>
        <time>2018-01-28T10:02:40Z</time>
      </trkpt>
      <trkpt lat="45.92825" lon="4.74095">
        <ele>171</ele>
        <time>2018-01-28T10:02:41Z</time>
      </trkpt>
      <trkpt lat="45.9282" lon="4.74099">
        <ele>171</ele>
        <time>2018-01-28T10:02:42Z</time>
      </trkpt>
      <trkpt lat="45.92816" lon="4.74105">
        <ele>172</ele>
        <time>2018-01-28T10:02:43Z</time>
      </trkpt>
      <trkpt lat="45.92811" lon="4.7411">
        <ele>172</ele>
        <time>2018-01-28T10:02:44Z</time>
      </trkpt>
      <trkpt lat="45.92807" lon="4.74117">
        <ele>172</ele>
        <time>2018-01-28T10:02:45Z</time>
      </trkpt>
      <trkpt lat="45.92803" lon="4.74122">
        <ele>172</ele>
        <time>2018-01-28T10:02:46Z</time>
      </trkpt>
      <trkpt lat="45.92798" lon="4.74126">
        <ele>172</ele>
        <time>2018-01-28T10:02:47Z</time>
      </trkpt>
      <trkpt lat="45.92794" lon="4.74131">
        <ele>172</ele>
        <time>2018-01-28T10:02:48Z</time>
      </trkpt>
      <trkpt lat="45.92789" lon="4.74135">
        <ele>172</ele>
        <time>2018-01-28T10:02:49Z</time>
      </trkpt>
      <trkpt lat="45.92786" lon="4.74139">
        <ele>172</ele>
        <time>2018-01-28T10:02:50Z</time>
      </trkpt>
      <trkpt lat="45.92782" lon="4.74144">
        <ele>172</ele>
        <time>2018-01-28T10:02:51Z</time>
      </trkpt>
      <trkpt lat="45.92777" lon="4.74148">
        <ele>172</ele>
        <time>2018-01-28T10:02:52Z</time>
      </trkpt>
      <trkpt lat="45.92772" lon="4.74152">
        <ele>172</ele>
        <time>2018-01-28T10:02:53Z</time>
      </trkpt>
      <trkpt lat="45.92767" lon="4.74156">
        <ele>172</ele>
        <time>2018-01-28T10:02:54Z</time>
      </trkpt>
      <trkpt lat="45.92764" lon="4.74161">
        <ele>172</ele>
        <time>2018-01-28T10:02:55Z</time>
      </trkpt>
      <trkpt lat="45.9276" lon="4.74166">
        <ele>172</ele>
        <time>2018-01-28T10:02:56Z</time>
      </trkpt>
      <trkpt lat="45.92756" lon="4.7417">
        <ele>172</ele>
        <time>2018-01-28T10:02:57Z</time>
      </trkpt>
      <trkpt lat="45.92752" lon="4.74175">
        <ele>172</ele>
        <time>2018-01-28T10:02:58Z</time>
      </trkpt>
      <trkpt lat="45.92749" lon="4.74179">
        <ele>172</ele>
        <time>2018-01-28T10:02:59Z</time>
      </trkpt>
      <trkpt lat="45.92745" lon="4.74184">
        <ele>172</ele>
        <time>2018-01-28T10:03:00Z</time>
      </trkpt>
      <trkpt lat="45.92741" lon="4.7419">
        <ele>172</ele>
        <time>2018-01-28T10:03:01Z</time>
      </trkpt>
      <trkpt lat="45.92737" lon="4.74194">
        <ele>171</ele>
        <time>2018-01-28T10:03:02Z</time>
      </trkpt>
      <trkpt lat="45.92733" lon="4.74199">
        <ele>171</ele>
        <time>2018-01-28T10:03:03Z</time>
      </trkpt>
      <trkpt lat="45.9273" lon="4.74204">
        <ele>171</ele>
        <time>2018-01-28T10:03:04Z</time>
      </trkpt>
      <trkpt lat="45.92725" lon="4.74214">
        <ele>171</ele>
        <time>2018-01-28T10:03:06Z</time>
      </trkpt>
      <trkpt lat="45.92721" lon="4.74219">
        <ele>171</ele>
        <time>2018-01-28T10:03:07Z</time>
      </trkpt>
      <trkpt lat="45.92719" lon="4.74225">
        <ele>171</ele>
        <time>2018-01-28T10:03:08Z</time>
      </trkpt>
      <trkpt lat="45.92715" lon="4.74231">
        <ele>171</ele>
        <time>2018-01-28T10:03:09Z</time>
      </trkpt>
      <trkpt lat="45.92712" lon="4.74236">
        <ele>171</ele>
        <time>2018-01-28T10:03:10Z</time>
      </trkpt>
      <trkpt lat="45.92708" lon="4.74241">
        <ele>171</ele>
        <time>2018-01-28T10:03:11Z</time>
      </trkpt>
      <trkpt lat="45.92704" lon="4.74246">
        <ele>171</ele>
        <time>2018-01-28T10:03:12Z</time>
      </trkpt>
      <trkpt lat="45.927" lon="4.74252">
        <ele>171</ele>
        <time>2018-01-28T10:03:13Z</time>
      </trkpt>
      <trkpt lat="45.92697" lon="4.74257">
        <ele>171</ele>
        <time>2018-01-28T10:03:14Z</time>
      </trkpt>
      <trkpt lat="45.92693" lon="4.74263">
        <ele>171</ele>
        <time>2018-01-28T10:03:15Z</time>
      </trkpt>
      <trkpt lat="45.9269" lon="4.74269">
        <ele>171</ele>
        <time>2018-01-28T10:03:16Z</time>
      </trkpt>
      <trkpt lat="45.92686" lon="4.74275">
        <ele>171</ele>
        <time>2018-01-28T10:03:17Z</time>
      </trkpt>
      <trkpt lat="45.92683" lon="4.74279">
        <ele>171</ele>
        <time>2018-01-28T10:03:18Z</time>
      </trkpt>
      <trkpt lat="45.92681" lon="4.74285">
        <ele>171</ele>
        <time>2018-01-28T10:03:19Z</time>
      </trkpt>
      <trkpt lat="45.92678" lon="4.74292">
        <ele>171</ele>
        <time>2018-01-28T10:03:20Z</time>
      </trkpt>
      <trkpt lat="45.92675" lon="4.74298">
        <ele>171</ele>
        <time>2018-01-28T10:03:21Z</time>
      </trkpt>
      <trkpt lat="45.92671" lon="4.74303">
        <ele>171</ele>
        <time>2018-01-28T10:03:22Z</time>
      </trkpt>
      <trkpt lat="45.92669" lon="4.7431">
        <ele>171</ele>
        <time>2018-01-28T10:03:23Z</time>
      </trkpt>
      <trkpt lat="45.92666" lon="4.74315">
        <ele>171</ele>
        <time>2018-01-28T10:03:24Z</time>
      </trkpt>
      <trkpt lat="45.92662" lon="4.7432">
        <ele>171</ele>
        <time>2018-01-28T10:03:25Z</time>
      </trkpt>
      <trkpt lat="45.92659" lon="4.74326">
        <ele>171</ele>
        <time>2018-01-28T10:03:26Z</time>
      </trkpt>
      <trkpt lat="45.92656" lon="4.74333">
        <ele>171</ele>
        <time>2018-01-28T10:03:27Z</time>
      </trkpt>
      <trkpt lat="45.92652" lon="4.7434">
        <ele>171</ele>
        <time>2018-01-28T10:03:28Z</time>
      </trkpt>
      <trkpt lat="45.92648" lon="4.74346">
        <ele>171</ele>
        <time>2018-01-28T10:03:29Z</time>
      </trkpt>
      <trkpt lat="45.92645" lon="4.74352">
        <ele>171</ele>
        <time>2018-01-28T10:03:30Z</time>
      </trkpt>
      <trkpt lat="45.92642" lon="4.74359">
        <ele>171</ele>
        <time>2018-01-28T10:03:31Z</time>
      </trkpt>
      <trkpt lat="45.9264" lon="4.74366">
        <ele>171</ele>
        <time>2018-01-28T10:03:32Z</time>
      </trkpt>
      <trkpt lat="45.92636" lon="4.74371">
        <ele>171</ele>
        <time>2018-01-28T10:03:33Z</time>
      </trkpt>
      <trkpt lat="45.92633" lon="4.74378">
        <ele>170</ele>
        <time>2018-01-28T10:03:34Z</time>
      </trkpt>
      <trkpt lat="45.92629" lon="4.74383">
        <ele>170</ele>
        <time>2018-01-28T10:03:35Z</time>
      </trkpt>
      <trkpt lat="45.92626" lon="4.74389">
        <ele>170</ele>
        <time>2018-01-28T10:03:36Z</time>
      </trkpt>
      <trkpt lat="45.92624" lon="4.74394">
        <ele>170</ele>
        <time>2018-01-28T10:03:37Z</time>
      </trkpt>
      <trkpt lat="45.9262" lon="4.744">
        <ele>170</ele>
        <time>2018-01-28T10:03:38Z</time>
      </trkpt>
      <trkpt lat="45.92616" lon="4.74405">
        <ele>170</ele>
        <time>2018-01-28T10:03:39Z</time>
      </trkpt>
      <trkpt lat="45.92613" lon="4.74411">
        <ele>170</ele>
        <time>2018-01-28T10:03:40Z</time>
      </trkpt>
      <trkpt lat="45.9261" lon="4.74416">
        <ele>170</ele>
        <time>2018-01-28T10:03:41Z</time>
      </trkpt>
      <trkpt lat="45.92607" lon="4.74422">
        <ele>170</ele>
        <time>2018-01-28T10:03:42Z</time>
      </trkpt>
      <trkpt lat="45.92604" lon="4.74428">
        <ele>170</ele>
        <time>2018-01-28T10:03:43Z</time>
      </trkpt>
      <trkpt lat="45.926" lon="4.74433">
        <ele>170</ele>
        <time>2018-01-28T10:03:44Z</time>
      </trkpt>
      <trkpt lat="45.92597" lon="4.74439">
        <ele>170</ele>
        <time>2018-01-28T10:03:45Z</time>
      </trkpt>
      <trkpt lat="45.92593" lon="4.74445">
        <ele>170</ele>
        <time>2018-01-28T10:03:46Z</time>
      </trkpt>
      <trkpt lat="45.92589" lon="4.74449">
        <ele>170</ele>
        <time>2018-01-28T10:03:47Z</time>
      </trkpt>
      <trkpt lat="45.92585" lon="4.74456">
        <ele>170</ele>
        <time>2018-01-28T10:03:48Z</time>
      </trkpt>
      <trkpt lat="45.92582" lon="4.74462">
        <ele>170</ele>
        <time>2018-01-28T10:03:49Z</time>
      </trkpt>
      <trkpt lat="45.92579" lon="4.74467">
        <ele>170</ele>
        <time>2018-01-28T10:03:50Z</time>
      </trkpt>
      <trkpt lat="45.92576" lon="4.74471">
        <ele>170</ele>
        <time>2018-01-28T10:03:51Z</time>
      </trkpt>
      <trkpt lat="45.9257" lon="4.74481">
        <ele>170</ele>
        <time>2018-01-28T10:03:53Z</time>
      </trkpt>
      <trkpt lat="45.92567" lon="4.74487">
        <ele>170</ele>
        <time>2018-01-28T10:03:54Z</time>
      </trkpt>
      <trkpt lat="45.92564" lon="4.74493">
        <ele>170</ele>
        <time>2018-01-28T10:03:55Z</time>
      </trkpt>
      <trkpt lat="45.92561" lon="4.74499">
        <ele>170</ele>
        <time>2018-01-28T10:03:56Z</time>
      </trkpt>
      <trkpt lat="45.92557" lon="4.74505">
        <ele>170</ele>
        <time>2018-01-28T10:03:57Z</time>
      </trkpt>
      <trkpt lat="45.92553" lon="4.74511">
        <ele>170</ele>
        <time>2018-01-28T10:03:58Z</time>
      </trkpt>
      <trkpt lat="45.9255" lon="4.74517">
        <ele>170</ele>
        <time>2018-01-28T10:03:59Z</time>
      </trkpt>
      <trkpt lat="45.92547" lon="4.74524">
        <ele>170</ele>
        <time>2018-01-28T10:04:00Z</time>
      </trkpt>
      <trkpt lat="45.92544" lon="4.7453">
        <ele>170</ele>
        <time>2018-01-28T10:04:01Z</time>
      </trkpt>
      <trkpt lat="45.9254" lon="4.74535">
        <ele>171</ele>
        <time>2018-01-28T10:04:02Z</time>
      </trkpt>
      <trkpt lat="45.92537" lon="4.74541">
        <ele>171</ele>
        <time>2018-01-28T10:04:03Z</time>
      </trkpt>
      <trkpt lat="45.92533" lon="4.74548">
        <ele>171</ele>
        <time>2018-01-28T10:04:04Z</time>
      </trkpt>
      <trkpt lat="45.92529" lon="4.74553">
        <ele>171</ele>
        <time>2018-01-28T10:04:05Z</time>
      </trkpt>
      <trkpt lat="45.92526" lon="4.74558">
        <ele>171</ele>
        <time>2018-01-28T10:04:06Z</time>
      </trkpt>
      <trkpt lat="45.92523" lon="4.74564">
        <ele>171</ele>
        <time>2018-01-28T10:04:07Z</time>
      </trkpt>
      <trkpt lat="45.9252" lon="4.74568">
        <ele>171</ele>
        <time>2018-01-28T10:04:08Z</time>
      </trkpt>
      <trkpt lat="45.92514" lon="4.74577">
        <ele>171</ele>
        <time>2018-01-28T10:04:10Z</time>
      </trkpt>
      <trkpt lat="45.9251" lon="4.74581">
        <ele>171</ele>
        <time>2018-01-28T10:04:11Z</time>
      </trkpt>
      <trkpt lat="45.92503" lon="4.74589">
        <ele>171</ele>
        <time>2018-01-28T10:04:13Z</time>
      </trkpt>
      <trkpt lat="45.92499" lon="4.74593">
        <ele>171</ele>
        <time>2018-01-28T10:04:14Z</time>
      </trkpt>
      <trkpt lat="45.92495" lon="4.74598">
        <ele>171</ele>
        <time>2018-01-28T10:04:15Z</time>
      </trkpt>
      <trkpt lat="45.92492" lon="4.74602">
        <ele>171</ele>
        <time>2018-01-28T10:04:16Z</time>
      </trkpt>
      <trkpt lat="45.92489" lon="4.74607">
        <ele>171</ele>
        <time>2018-01-28T10:04:17Z</time>
      </trkpt>
      <trkpt lat="45.92484" lon="4.74613">
        <ele>171</ele>
        <time>2018-01-28T10:04:18Z</time>
      </trkpt>
      <trkpt lat="45.92481" lon="4.74618">
        <ele>171</ele>
        <time>2018-01-28T10:04:19Z</time>
      </trkpt>
      <trkpt lat="45.92477" lon="4.74623">
        <ele>171</ele>
        <time>2018-01-28T10:04:20Z</time>
      </trkpt>
      <trkpt lat="45.92471" lon="4.74631">
        <ele>171</ele>
        <time>2018-01-28T10:04:22Z</time>
      </trkpt>
      <trkpt lat="45.92467" lon="4.74638">
        <ele>171</ele>
        <time>2018-01-28T10:04:23Z</time>
      </trkpt>
      <trkpt lat="45.92463" lon="4.74644">
        <ele>171</ele>
        <time>2018-01-28T10:04:24Z</time>
      </trkpt>
      <trkpt lat="45.9246" lon="4.74649">
        <ele>171</ele>
        <time>2018-01-28T10:04:25Z</time>
      </trkpt>
      <trkpt lat="45.92456" lon="4.74654">
        <ele>171</ele>
        <time>2018-01-28T10:04:26Z</time>
      </trkpt>
      <trkpt lat="45.92453" lon="4.74659">
        <ele>171</ele>
        <time>2018-01-28T10:04:27Z</time>
      </trkpt>
      <trkpt lat="45.92449" lon="4.74662">
        <ele>171</ele>
        <time>2018-01-28T10:04:28Z</time>
      </trkpt>
      <trkpt lat="45.92446" lon="4.74668">
        <ele>171</ele>
        <time>2018-01-28T10:04:29Z</time>
      </trkpt>
      <trkpt lat="45.92443" lon="4.74673">
        <ele>171</ele>
        <time>2018-01-28T10:04:30Z</time>
      </trkpt>
      <trkpt lat="45.9244" lon="4.7468">
        <ele>171</ele>
        <time>2018-01-28T10:04:31Z</time>
      </trkpt>
      <trkpt lat="45.92438" lon="4.74687">
        <ele>171</ele>
        <time>2018-01-28T10:04:32Z</time>
      </trkpt>
      <trkpt lat="45.92435" lon="4.74693">
        <ele>171</ele>
        <time>2018-01-28T10:04:33Z</time>
      </trkpt>
      <trkpt lat="45.92433" lon="4.74699">
        <ele>171</ele>
        <time>2018-01-28T10:04:34Z</time>
      </trkpt>
      <trkpt lat="45.92431" lon="4.74705">
        <ele>171</ele>
        <time>2018-01-28T10:04:35Z</time>
      </trkpt>
      <trkpt lat="45.92428" lon="4.74711">
        <ele>171</ele>
        <time>2018-01-28T10:04:36Z</time>
      </trkpt>
      <trkpt lat="45.92426" lon="4.74718">
        <ele>171</ele>
        <time>2018-01-28T10:04:37Z</time>
      </trkpt>
      <trkpt lat="45.92423" lon="4.74724">
        <ele>171</ele>
        <time>2018-01-28T10:04:38Z</time>
      </trkpt>
      <trkpt lat="45.92421" lon="4.7473">
        <ele>171</ele>
        <time>2018-01-28T10:04:39Z</time>
      </trkpt>
      <trkpt lat="45.92419" lon="4.74738">
        <ele>172</ele>
        <time>2018-01-28T10:04:40Z</time>
      </trkpt>
      <trkpt lat="45.92416" lon="4.74745">
        <ele>172</ele>
        <time>2018-01-28T10:04:41Z</time>
      </trkpt>
      <trkpt lat="45.92414" lon="4.74752">
        <ele>172</ele>
        <time>2018-01-28T10:04:42Z</time>
      </trkpt>
      <trkpt lat="45.92413" lon="4.74759">
        <ele>172</ele>
        <time>2018-01-28T10:04:43Z</time>
      </trkpt>
      <trkpt lat="45.9241" lon="4.74767">
        <ele>172</ele>
        <time>2018-01-28T10:04:44Z</time>
      </trkpt>
      <trkpt lat="45.92408" lon="4.74773">
        <ele>171</ele>
        <time>2018-01-28T10:04:45Z</time>
      </trkpt>
      <trkpt lat="45.92407" lon="4.7478">
        <ele>171</ele>
        <time>2018-01-28T10:04:46Z</time>
      </trkpt>
      <trkpt lat="45.92406" lon="4.74786">
        <ele>171</ele>
        <time>2018-01-28T10:04:47Z</time>
      </trkpt>
      <trkpt lat="45.92404" lon="4.74794">
        <ele>171</ele>
        <time>2018-01-28T10:04:48Z</time>
      </trkpt>
      <trkpt lat="45.92403" lon="4.748">
        <ele>171</ele>
        <time>2018-01-28T10:04:49Z</time>
      </trkpt>
      <trkpt lat="45.92402" lon="4.74806">
        <ele>171</ele>
        <time>2018-01-28T10:04:50Z</time>
      </trkpt>
      <trkpt lat="45.92401" lon="4.74813">
        <ele>171</ele>
        <time>2018-01-28T10:04:51Z</time>
      </trkpt>
      <trkpt lat="45.924" lon="4.74819">
        <ele>171</ele>
        <time>2018-01-28T10:04:52Z</time>
      </trkpt>
      <trkpt lat="45.92398" lon="4.74826">
        <ele>171</ele>
        <time>2018-01-28T10:04:53Z</time>
      </trkpt>
      <trkpt lat="45.92397" lon="4.74834">
        <ele>171</ele>
        <time>2018-01-28T10:04:54Z</time>
      </trkpt>
      <trkpt lat="45.92395" lon="4.74842">
        <ele>171</ele>
        <time>2018-01-28T10:04:55Z</time>
      </trkpt>
      <trkpt lat="45.92393" lon="4.74848">
        <ele>171</ele>
        <time>2018-01-28T10:04:56Z</time>
      </trkpt>
      <trkpt lat="45.92391" lon="4.74856">
        <ele>171</ele>
        <time>2018-01-28T10:04:57Z</time>
      </trkpt>
      <trkpt lat="45.92389" lon="4.74863">
        <ele>171</ele>
        <time>2018-01-28T10:04:58Z</time>
      </trkpt>
      <trkpt lat="45.92387" lon="4.7487">
        <ele>171</ele>
        <time>2018-01-28T10:04:59Z</time>
      </trkpt>
      <trkpt lat="45.92385" lon="4.74878">
        <ele>171</ele>
        <time>2018-01-28T10:05:00Z</time>
      </trkpt>
      <trkpt lat="45.92382" lon="4.74884">
        <ele>171</ele>
        <time>2018-01-28T10:05:01Z</time>
      </trkpt>
      <trkpt lat="45.9238" lon="4.74891">
        <ele>171</ele>
        <time>2018-01-28T10:05:02Z</time>
      </trkpt>
      <trkpt lat="45.92378" lon="4.74898">
        <ele>171</ele>
        <time>2018-01-28T10:05:03Z</time>
      </trkpt>
      <trkpt lat="45.92375" lon="4.74903">
        <ele>171</ele>
        <time>2018-01-28T10:05:04Z</time>
      </trkpt>
      <trkpt lat="45.92373" lon="4.74909">
        <ele>171</ele>
        <time>2018-01-28T10:05:05Z</time>
      </trkpt>
      <trkpt lat="45.9237" lon="4.74914">
        <ele>171</ele>
        <time>2018-01-28T10:05:06Z</time>
      </trkpt>
      <trkpt lat="45.92367" lon="4.7492">
        <ele>170</ele>
        <time>2018-01-28T10:05:07Z</time>
      </trkpt>
      <trkpt lat="45.92365" lon="4.74925">
        <ele>170</ele>
        <time>2018-01-28T10:05:08Z</time>
      </trkpt>
      <trkpt lat="45.92363" lon="4.74932">
        <ele>170</ele>
        <time>2018-01-28T10:05:09Z</time>
      </trkpt>
      <trkpt lat="45.92361" lon="4.74938">
        <ele>170</ele>
        <time>2018-01-28T10:05:10Z</time>
      </trkpt>
      <trkpt lat="45.92359" lon="4.74944">
        <ele>170</ele>
        <time>2018-01-28T10:05:11Z</time>
      </trkpt>
      <trkpt lat="45.92356" lon="4.74951">
        <ele>170</ele>
        <time>2018-01-28T10:05:12Z</time>
      </trkpt>
      <trkpt lat="45.92354" lon="4.74958">
        <ele>170</ele>
        <time>2018-01-28T10:05:13Z</time>
      </trkpt>
      <trkpt lat="45.92351" lon="4.74965">
        <ele>170</ele>
        <time>2018-01-28T10:05:14Z</time>
      </trkpt>
      <trkpt lat="45.92348" lon="4.74971">
        <ele>170</ele>
        <time>2018-01-28T10:05:15Z</time>
      </trkpt>
      <trkpt lat="45.92346" lon="4.74977">
        <ele>170</ele>
        <time>2018-01-28T10:05:16Z</time>
      </trkpt>
      <trkpt lat="45.92342" lon="4.74986">
        <ele>170</ele>
        <time>2018-01-28T10:05:17Z</time>
      </trkpt>
      <trkpt lat="45.9234" lon="4.74991">
        <ele>170</ele>
        <time>2018-01-28T10:05:18Z</time>
      </trkpt>
      <trkpt lat="45.92338" lon="4.74997">
        <ele>170</ele>
        <time>2018-01-28T10:05:19Z</time>
      </trkpt>
      <trkpt lat="45.92335" lon="4.75002">
        <ele>170</ele>
        <time>2018-01-28T10:05:20Z</time>
      </trkpt>
      <trkpt lat="45.92334" lon="4.75009">
        <ele>170</ele>
        <time>2018-01-28T10:05:21Z</time>
      </trkpt>
      <trkpt lat="45.92332" lon="4.75014">
        <ele>171</ele>
        <time>2018-01-28T10:05:22Z</time>
      </trkpt>
      <trkpt lat="45.92329" lon="4.7502">
        <ele>171</ele>
        <time>2018-01-28T10:05:23Z</time>
      </trkpt>
      <trkpt lat="45.92326" lon="4.75025">
        <ele>171</ele>
        <time>2018-01-28T10:05:24Z</time>
      </trkpt>
      <trkpt lat="45.92323" lon="4.75031">
        <ele>171</ele>
        <time>2018-01-28T10:05:25Z</time>
      </trkpt>
      <trkpt lat="45.92319" lon="4.75037">
        <ele>171</ele>
        <time>2018-01-28T10:05:26Z</time>
      </trkpt>
      <trkpt lat="45.92316" lon="4.75043">
        <ele>172</ele>
        <time>2018-01-28T10:05:27Z</time>
      </trkpt>
      <trkpt lat="45.92313" lon="4.75048">
        <ele>172</ele>
        <time>2018-01-28T10:05:28Z</time>
      </trkpt>
      <trkpt lat="45.9231" lon="4.75053">
        <ele>172</ele>
        <time>2018-01-28T10:05:29Z</time>
      </trkpt>
      <trkpt lat="45.92306" lon="4.75058">
        <ele>172</ele>
        <time>2018-01-28T10:05:30Z</time>
      </trkpt>
      <trkpt lat="45.92302" lon="4.75063">
        <ele>172</ele>
        <time>2018-01-28T10:05:31Z</time>
      </trkpt>
      <trkpt lat="45.92299" lon="4.75068">
        <ele>172</ele>
        <time>2018-01-28T10:05:32Z</time>
      </trkpt>
      <trkpt lat="45.92295" lon="4.75071">
        <ele>172</ele>
        <time>2018-01-28T10:05:33Z</time>
      </trkpt>
      <trkpt lat="45.92288" lon="4.75079">
        <ele>172</ele>
        <time>2018-01-28T10:05:35Z</time>
      </trkpt>
      <trkpt lat="45.92284" lon="4.75082">
        <ele>172</ele>
        <time>2018-01-28T10:05:36Z</time>
      </trkpt>
      <trkpt lat="45.9228" lon="4.75086">
        <ele>173</ele>
        <time>2018-01-28T10:05:37Z</time>
      </trkpt>
      <trkpt lat="45.92276" lon="4.7509">
        <ele>173</ele>
        <time>2018-01-28T10:05:38Z</time>
      </trkpt>
      <trkpt lat="45.92272" lon="4.75094">
        <ele>173</ele>
        <time>2018-01-28T10:05:39Z</time>
      </trkpt>
      <trkpt lat="45.92268" lon="4.751">
        <ele>173</ele>
        <time>2018-01-28T10:05:40Z</time>
      </trkpt>
      <trkpt lat="45.92264" lon="4.75104">
        <ele>173</ele>
        <time>2018-01-28T10:05:41Z</time>
      </trkpt>
      <trkpt lat="45.92261" lon="4.75108">
        <ele>174</ele>
        <time>2018-01-28T10:05:42Z</time>
      </trkpt>
      <trkpt lat="45.92256" lon="4.75111">
        <ele>174</ele>
        <time>2018-01-28T10:05:43Z</time>
      </trkpt>
      <trkpt lat="45.92253" lon="4.75115">
        <ele>174</ele>
        <time>2018-01-28T10:05:44Z</time>
      </trkpt>
      <trkpt lat="45.92246" lon="4.75122">
        <ele>174</ele>
        <time>2018-01-28T10:05:46Z</time>
      </trkpt>
      <trkpt lat="45.92243" lon="4.75127">
        <ele>174</ele>
        <time>2018-01-28T10:05:47Z</time>
      </trkpt>
      <trkpt lat="45.92237" lon="4.75136">
        <ele>174</ele>
        <time>2018-01-28T10:05:49Z</time>
      </trkpt>
      <trkpt lat="45.92233" lon="4.75144">
        <ele>174</ele>
        <time>2018-01-28T10:05:50Z</time>
      </trkpt>
      <trkpt lat="45.92229" lon="4.75149">
        <ele>174</ele>
        <time>2018-01-28T10:05:51Z</time>
      </trkpt>
      <trkpt lat="45.92227" lon="4.75154">
        <ele>174</ele>
        <time>2018-01-28T10:05:52Z</time>
      </trkpt>
      <trkpt lat="45.92224" lon="4.7516">
        <ele>174</ele>
        <time>2018-01-28T10:05:53Z</time>
      </trkpt>
      <trkpt lat="45.92221" lon="4.75168">
        <ele>175</ele>
        <time>2018-01-28T10:05:54Z</time>
      </trkpt>
      <trkpt lat="45.92218" lon="4.75173">
        <ele>175</ele>
        <time>2018-01-28T10:05:55Z</time>
      </trkpt>
      <trkpt lat="45.92217" lon="4.7518">
        <ele>175</ele>
        <time>2018-01-28T10:05:56Z</time>
      </trkpt>
      <trkpt lat="45.92215" lon="4.75192">
        <ele>175</ele>
        <time>2018-01-28T10:05:58Z</time>
      </trkpt>
      <trkpt lat="45.92213" lon="4.75198">
        <ele>175</ele>
        <time>2018-01-28T10:05:59Z</time>
      </trkpt>
      <trkpt lat="45.92212" lon="4.75205">
        <ele>175</ele>
        <time>2018-01-28T10:06:00Z</time>
      </trkpt>
      <trkpt lat="45.92211" lon="4.75211">
        <ele>175</ele>
        <time>2018-01-28T10:06:01Z</time>
      </trkpt>
      <trkpt lat="45.9221" lon="4.75217">
        <ele>175</ele>
        <time>2018-01-28T10:06:02Z</time>
      </trkpt>
      <trkpt lat="45.9221" lon="4.75224">
        <ele>175</ele>
        <time>2018-01-28T10:06:03Z</time>
      </trkpt>
      <trkpt lat="45.9221" lon="4.75235">
        <ele>175</ele>
        <time>2018-01-28T10:06:05Z</time>
      </trkpt>
      <trkpt lat="45.9221" lon="4.75242">
        <ele>175</ele>
        <time>2018-01-28T10:06:06Z</time>
      </trkpt>
      <trkpt lat="45.9221" lon="4.75254">
        <ele>175</ele>
        <time>2018-01-28T10:06:08Z</time>
      </trkpt>
      <trkpt lat="45.9221" lon="4.7526">
        <ele>176</ele>
        <time>2018-01-28T10:06:09Z</time>
      </trkpt>
      <trkpt lat="45.92209" lon="4.75272">
        <ele>176</ele>
        <time>2018-01-28T10:06:11Z</time>
      </trkpt>
      <trkpt lat="45.92209" lon="4.75278">
        <ele>176</ele>
        <time>2018-01-28T10:06:12Z</time>
      </trkpt>
      <trkpt lat="45.92208" lon="4.7529">
        <ele>176</ele>
        <time>2018-01-28T10:06:14Z</time>
      </trkpt>
      <trkpt lat="45.92208" lon="4.75297">
        <ele>176</ele>
        <time>2018-01-28T10:06:15Z</time>
      </trkpt>
      <trkpt lat="45.92208" lon="4.75308">
        <ele>176</ele>
        <time>2018-01-28T10:06:17Z</time>
      </trkpt>
      <trkpt lat="45.92208" lon="4.75314">
        <ele>176</ele>
        <time>2018-01-28T10:06:18Z</time>
      </trkpt>
      <trkpt lat="45.92207" lon="4.75325">
        <ele>176</ele>
        <time>2018-01-28T10:06:20Z</time>
      </trkpt>
      <trkpt lat="45.92206" lon="4.75331">
        <ele>176</ele>
        <time>2018-01-28T10:06:21Z</time>
      </trkpt>
      <trkpt lat="45.92204" lon="4.75342">
        <ele>177</ele>
        <time>2018-01-28T10:06:23Z</time>
      </trkpt>
      <trkpt lat="45.92203" lon="4.75348">
        <ele>177</ele>
        <time>2018-01-28T10:06:24Z</time>
      </trkpt>
      <trkpt lat="45.922" lon="4.75359">
        <ele>177</ele>
        <time>2018-01-28T10:06:26Z</time>
      </trkpt>
      <trkpt lat="45.92198" lon="4.75363">
        <ele>177</ele>
        <time>2018-01-28T10:06:27Z</time>
      </trkpt>
      <trkpt lat="45.92196" lon="4.75373">
        <ele>177</ele>
        <time>2018-01-28T10:06:29Z</time>
      </trkpt>
      <trkpt lat="45.92194" lon="4.75379">
        <ele>177</ele>
        <time>2018-01-28T10:06:30Z</time>
      </trkpt>
      <trkpt lat="45.92191" lon="4.75385">
        <ele>177</ele>
        <time>2018-01-28T10:06:31Z</time>
      </trkpt>
      <trkpt lat="45.9219" lon="4.75391">
        <ele>177</ele>
        <time>2018-01-28T10:06:32Z</time>
      </trkpt>
      <trkpt lat="45.92187" lon="4.75396">
        <ele>177</ele>
        <time>2018-01-28T10:06:33Z</time>
      </trkpt>
      <trkpt lat="45.92184" lon="4.75402">
        <ele>177</ele>
        <time>2018-01-28T10:06:34Z</time>
      </trkpt>
      <trkpt lat="45.92182" lon="4.75407">
        <ele>177</ele>
        <time>2018-01-28T10:06:35Z</time>
      </trkpt>
      <trkpt lat="45.9218" lon="4.75414">
        <ele>177</ele>
        <time>2018-01-28T10:06:36Z</time>
      </trkpt>
      <trkpt lat="45.92178" lon="4.7542">
        <ele>177</ele>
        <time>2018-01-28T10:06:37Z</time>
      </trkpt>
      <trkpt lat="45.92176" lon="4.75427">
        <ele>177</ele>
        <time>2018-01-28T10:06:38Z</time>
      </trkpt>
      <trkpt lat="45.92172" lon="4.75438">
        <ele>177</ele>
        <time>2018-01-28T10:06:40Z</time>
      </trkpt>
      <trkpt lat="45.9217" lon="4.75444">
        <ele>176</ele>
        <time>2018-01-28T10:06:41Z</time>
      </trkpt>
      <trkpt lat="45.92165" lon="4.75455">
        <ele>176</ele>
        <time>2018-01-28T10:06:43Z</time>
      </trkpt>
      <trkpt lat="45.92164" lon="4.7546">
        <ele>176</ele>
        <time>2018-01-28T10:06:44Z</time>
      </trkpt>
      <trkpt lat="45.92161" lon="4.75466">
        <ele>176</ele>
        <time>2018-01-28T10:06:45Z</time>
      </trkpt>
      <trkpt lat="45.92158" lon="4.75471">
        <ele>176</ele>
        <time>2018-01-28T10:06:46Z</time>
      </trkpt>
      <trkpt lat="45.92156" lon="4.75477">
        <ele>176</ele>
        <time>2018-01-28T10:06:47Z</time>
      </trkpt>
      <trkpt lat="45.92154" lon="4.75483">
        <ele>176</ele>
        <time>2018-01-28T10:06:48Z</time>
      </trkpt>
      <trkpt lat="45.92151" lon="4.75488">
        <ele>176</ele>
        <time>2018-01-28T10:06:49Z</time>
      </trkpt>
      <trkpt lat="45.92148" lon="4.75494">
        <ele>175</ele>
        <time>2018-01-28T10:06:50Z</time>
      </trkpt>
      <trkpt lat="45.92146" lon="4.755">
        <ele>175</ele>
        <time>2018-01-28T10:06:51Z</time>
      </trkpt>
      <trkpt lat="45.92142" lon="4.75507">
        <ele>174</ele>
        <time>2018-01-28T10:06:52Z</time>
      </trkpt>
      <trkpt lat="45.92138" lon="4.75513">
        <ele>174</ele>
        <time>2018-01-28T10:06:53Z</time>
      </trkpt>
      <trkpt lat="45.92135" lon="4.75518">
        <ele>174</ele>
        <time>2018-01-28T10:06:54Z</time>
      </trkpt>
      <trkpt lat="45.92131" lon="4.75524">
        <ele>174</ele>
        <time>2018-01-28T10:06:55Z</time>
      </trkpt>
      <trkpt lat="45.92129" lon="4.75529">
        <ele>174</ele>
        <time>2018-01-28T10:06:56Z</time>
      </trkpt>
      <trkpt lat="45.92127" lon="4.75535">
        <ele>174</ele>
        <time>2018-01-28T10:06:57Z</time>
      </trkpt>
      <trkpt lat="45.92124" lon="4.75542">
        <ele>174</ele>
        <time>2018-01-28T10:06:58Z</time>
      </trkpt>
      <trkpt lat="45.92122" lon="4.75549">
        <ele>174</ele>
        <time>2018-01-28T10:06:59Z</time>
      </trkpt>
      <trkpt lat="45.9212" lon="4.75554">
        <ele>174</ele>
        <time>2018-01-28T10:07:00Z</time>
      </trkpt>
      <trkpt lat="45.92116" lon="4.75565">
        <ele>174</ele>
        <time>2018-01-28T10:07:02Z</time>
      </trkpt>
      <trkpt lat="45.92113" lon="4.7557">
        <ele>174</ele>
        <time>2018-01-28T10:07:03Z</time>
      </trkpt>
      <trkpt lat="45.9211" lon="4.75576">
        <ele>174</ele>
        <time>2018-01-28T10:07:04Z</time>
      </trkpt>
      <trkpt lat="45.9211" lon="4.75583">
        <ele>174</ele>
        <time>2018-01-28T10:07:05Z</time>
      </trkpt>
      <trkpt lat="45.92115" lon="4.75593">
        <ele>174</ele>
        <time>2018-01-28T10:07:07Z</time>
      </trkpt>
      <trkpt lat="45.92119" lon="4.75597">
        <ele>174</ele>
        <time>2018-01-28T10:07:08Z</time>
      </trkpt>
      <trkpt lat="45.92124" lon="4.75601">
        <ele>174</ele>
        <time>2018-01-28T10:07:09Z</time>
      </trkpt>
      <trkpt lat="45.92128" lon="4.75605">
        <ele>174</ele>
        <time>2018-01-28T10:07:10Z</time>
      </trkpt>
      <trkpt lat="45.92132" lon="4.75609">
        <ele>174</ele>
        <time>2018-01-28T10:07:11Z</time>
      </trkpt>
      <trkpt lat="45.92136" lon="4.75614">
        <ele>174</ele>
        <time>2018-01-28T10:07:12Z</time>
      </trkpt>
      <trkpt lat="45.92141" lon="4.75618">
        <ele>174</ele>
        <time>2018-01-28T10:07:13Z</time>
      </trkpt>
      <trkpt lat="45.92145" lon="4.75621">
        <ele>174</ele>
        <time>2018-01-28T10:07:14Z</time>
      </trkpt>
      <trkpt lat="45.92153" lon="4.75626">
        <ele>174</ele>
        <time>2018-01-28T10:07:16Z</time>
      </trkpt>
      <trkpt lat="45.92156" lon="4.7563">
        <ele>174</ele>
        <time>2018-01-28T10:07:17Z</time>
      </trkpt>
      <trkpt lat="45.92163" lon="4.75637">
        <ele>174</ele>
        <time>2018-01-28T10:07:19Z</time>
      </trkpt>
      <trkpt lat="45.92167" lon="4.75641">
        <ele>174</ele>
        <time>2018-01-28T10:07:20Z</time>
      </trkpt>
      <trkpt lat="45.9217" lon="4.75645">
        <ele>174</ele>
        <time>2018-01-28T10:07:21Z</time>
      </trkpt>
      <trkpt lat="45.92174" lon="4.75649">
        <ele>174</ele>
        <time>2018-01-28T10:07:22Z</time>
      </trkpt>
      <trkpt lat="45.92178" lon="4.75653">
        <ele>174</ele>
        <time>2018-01-28T10:07:23Z</time>
      </trkpt>
      <trkpt lat="45.92182" lon="4.75658">
        <ele>174</ele>
        <time>2018-01-28T10:07:24Z</time>
      </trkpt>
      <trkpt lat="45.92185" lon="4.75662">
        <ele>174</ele>
        <time>2018-01-28T10:07:25Z</time>
      </trkpt>
      <trkpt lat="45.92189" lon="4.75667">
        <ele>174</ele>
        <time>2018-01-28T10:07:26Z</time>
      </trkpt>
      <trkpt lat="45.92193" lon="4.75672">
        <ele>174</ele>
        <time>2018-01-28T10:07:27Z</time>
      </trkpt>
      <trkpt lat="45.92198" lon="4.75676">
        <ele>174</ele>
        <time>2018-01-28T10:07:28Z</time>
      </trkpt>
      <trkpt lat="45.92201" lon="4.75679">
        <ele>174</ele>
        <time>2018-01-28T10:07:29Z</time>
      </trkpt>
      <trkpt lat="45.92205" lon="4.75683">
        <ele>174</ele>
        <time>2018-01-28T10:07:30Z</time>
      </trkpt>
      <trkpt lat="45.92209" lon="4.75686">
        <ele>174</ele>
        <time>2018-01-28T10:07:31Z</time>
      </trkpt>
      <trkpt lat="45.92213" lon="4.75689">
        <ele>174</ele>
        <time>2018-01-28T10:07:32Z</time>
      </trkpt>
      <trkpt lat="45.9222" lon="4.75696">
        <ele>174</ele>
        <time>2018-01-28T10:07:34Z</time>
      </trkpt>
      <trkpt lat="45.92224" lon="4.757">
        <ele>174</ele>
        <time>2018-01-28T10:07:35Z</time>
      </trkpt>
      <trkpt lat="45.9223" lon="4.75708">
        <ele>174</ele>
        <time>2018-01-28T10:07:37Z</time>
      </trkpt>
      <trkpt lat="45.92233" lon="4.75714">
        <ele>174</ele>
        <time>2018-01-28T10:07:38Z</time>
      </trkpt>
      <trkpt lat="45.92237" lon="4.75718">
        <ele>174</ele>
        <time>2018-01-28T10:07:39Z</time>
      </trkpt>
      <trkpt lat="45.92239" lon="4.75723">
        <ele>174</ele>
        <time>2018-01-28T10:07:40Z</time>
      </trkpt>
      <trkpt lat="45.92241" lon="4.75728">
        <ele>174</ele>
        <time>2018-01-28T10:07:41Z</time>
      </trkpt>
      <trkpt lat="45.92244" lon="4.75735">
        <ele>174</ele>
        <time>2018-01-28T10:07:42Z</time>
      </trkpt>
      <trkpt lat="45.92247" lon="4.75746">
        <ele>174</ele>
        <time>2018-01-28T10:07:44Z</time>
      </trkpt>
      <trkpt lat="45.92248" lon="4.75751">
        <ele>174</ele>
        <time>2018-01-28T10:07:45Z</time>
      </trkpt>
      <trkpt lat="45.9225" lon="4.75763">
        <ele>174</ele>
        <time>2018-01-28T10:07:47Z</time>
      </trkpt>
      <trkpt lat="45.92251" lon="4.75769">
        <ele>174</ele>
        <time>2018-01-28T10:07:48Z</time>
      </trkpt>
      <trkpt lat="45.92252" lon="4.75776">
        <ele>174</ele>
        <time>2018-01-28T10:07:49Z</time>
      </trkpt>
      <trkpt lat="45.92253" lon="4.75782">
        <ele>174</ele>
        <time>2018-01-28T10:07:50Z</time>
      </trkpt>
      <trkpt lat="45.92254" lon="4.7579">
        <ele>174</ele>
        <time>2018-01-28T10:07:51Z</time>
      </trkpt>
      <trkpt lat="45.92256" lon="4.75796">
        <ele>174</ele>
        <time>2018-01-28T10:07:52Z</time>
      </trkpt>
      <trkpt lat="45.92258" lon="4.75802">
        <ele>174</ele>
        <time>2018-01-28T10:07:53Z</time>
      </trkpt>
      <trkpt lat="45.9226" lon="4.75809">
        <ele>174</ele>
        <time>2018-01-28T10:07:54Z</time>
      </trkpt>
      <trkpt lat="45.92262" lon="4.75816">
        <ele>174</ele>
        <time>2018-01-28T10:07:55Z</time>
      </trkpt>
      <trkpt lat="45.92265" lon="4.75822">
        <ele>174</ele>
        <time>2018-01-28T10:07:56Z</time>
      </trkpt>
      <trkpt lat="45.92271" lon="4.75831">
        <ele>174</ele>
        <time>2018-01-28T10:07:58Z</time>
      </trkpt>
      <trkpt lat="45.92275" lon="4.75835">
        <ele>173</ele>
        <time>2018-01-28T10:07:59Z</time>
      </trkpt>
      <trkpt lat="45.9228" lon="4.75837">
        <ele>173</ele>
        <time>2018-01-28T10:08:00Z</time>
      </trkpt>
      <trkpt lat="45.92284" lon="4.75841">
        <ele>173</ele>
        <time>2018-01-28T10:08:01Z</time>
      </trkpt>
      <trkpt lat="45.9229" lon="4.75842">
        <ele>173</ele>
        <time>2018-01-28T10:08:02Z</time>
      </trkpt>
      <trkpt lat="45.92295" lon="4.75846">
        <ele>173</ele>
        <time>2018-01-28T10:08:03Z</time>
      </trkpt>
      <trkpt lat="45.92299" lon="4.75849">
        <ele>173</ele>
        <time>2018-01-28T10:08:04Z</time>
      </trkpt>
      <trkpt lat="45.92304" lon="4.75852">
        <ele>173</ele>
        <time>2018-01-28T10:08:05Z</time>
      </trkpt>
      <trkpt lat="45.92308" lon="4.75854">
        <ele>173</ele>
        <time>2018-01-28T10:08:06Z</time>
      </trkpt>
      <trkpt lat="45.92312" lon="4.75857">
        <ele>173</ele>
        <time>2018-01-28T10:08:07Z</time>
      </trkpt>
      <trkpt lat="45.92317" lon="4.7586">
        <ele>173</ele>
        <time>2018-01-28T10:08:08Z</time>
      </trkpt>
      <trkpt lat="45.92322" lon="4.75863">
        <ele>173</ele>
        <time>2018-01-28T10:08:09Z</time>
      </trkpt>
      <trkpt lat="45.92325" lon="4.75866">
        <ele>173</ele>
        <time>2018-01-28T10:08:10Z</time>
      </trkpt>
      <trkpt lat="45.9233" lon="4.7587">
        <ele>173</ele>
        <time>2018-01-28T10:08:11Z</time>
      </trkpt>
      <trkpt lat="45.92335" lon="4.75873">
        <ele>173</ele>
        <time>2018-01-28T10:08:12Z</time>
      </trkpt>
      <trkpt lat="45.9234" lon="4.75876">
        <ele>173</ele>
        <time>2018-01-28T10:08:13Z</time>
      </trkpt>
      <trkpt lat="45.92346" lon="4.75878">
        <ele>173</ele>
        <time>2018-01-28T10:08:14Z</time>
      </trkpt>
      <trkpt lat="45.92351" lon="4.75882">
        <ele>173</ele>
        <time>2018-01-28T10:08:15Z</time>
      </trkpt>
      <trkpt lat="45.92356" lon="4.75885">
        <ele>173</ele>
        <time>2018-01-28T10:08:16Z</time>
      </trkpt>
      <trkpt lat="45.92361" lon="4.75888">
        <ele>173</ele>
        <time>2018-01-28T10:08:17Z</time>
      </trkpt>
      <trkpt lat="45.92365" lon="4.75892">
        <ele>173</ele>
        <time>2018-01-28T10:08:18Z</time>
      </trkpt>
      <trkpt lat="45.9237" lon="4.75892">
        <ele>173</ele>
        <time>2018-01-28T10:08:19Z</time>
      </trkpt>
      <trkpt lat="45.92374" lon="4.75895">
        <ele>173</ele>
        <time>2018-01-28T10:08:20Z</time>
      </trkpt>
      <trkpt lat="45.92379" lon="4.75898">
        <ele>173</ele>
        <time>2018-01-28T10:08:21Z</time>
      </trkpt>
      <trkpt lat="45.92384" lon="4.75899">
        <ele>173</ele>
        <time>2018-01-28T10:08:22Z</time>
      </trkpt>
      <trkpt lat="45.92387" lon="4.75903">
        <ele>173</ele>
        <time>2018-01-28T10:08:23Z</time>
      </trkpt>
      <trkpt lat="45.92392" lon="4.75905">
        <ele>173</ele>
        <time>2018-01-28T10:08:24Z</time>
      </trkpt>
      <trkpt lat="45.92396" lon="4.75908">
        <ele>173</ele>
        <time>2018-01-28T10:08:25Z</time>
      </trkpt>
      <trkpt lat="45.924" lon="4.75911">
        <ele>173</ele>
        <time>2018-01-28T10:08:26Z</time>
      </trkpt>
      <trkpt lat="45.92404" lon="4.75914">
        <ele>172</ele>
        <time>2018-01-28T10:08:27Z</time>
      </trkpt>
      <trkpt lat="45.92409" lon="4.75915">
        <ele>172</ele>
        <time>2018-01-28T10:08:28Z</time>
      </trkpt>
      <trkpt lat="45.92413" lon="4.75918">
        <ele>172</ele>
        <time>2018-01-28T10:08:29Z</time>
      </trkpt>
      <trkpt lat="45.92421" lon="4.75923">
        <ele>172</ele>
        <time>2018-01-28T10:08:31Z</time>
      </trkpt>
      <trkpt lat="45.92425" lon="4.75926">
        <ele>172</ele>
        <time>2018-01-28T10:08:32Z</time>
      </trkpt>
      <trkpt lat="45.92433" lon="4.75932">
        <ele>172</ele>
        <time>2018-01-28T10:08:34Z</time>
      </trkpt>
      <trkpt lat="45.92437" lon="4.75935">
        <ele>172</ele>
        <time>2018-01-28T10:08:35Z</time>
      </trkpt>
      <trkpt lat="45.92445" lon="4.7594">
        <ele>172</ele>
        <time>2018-01-28T10:08:37Z</time>
      </trkpt>
      <trkpt lat="45.92448" lon="4.75943">
        <ele>172</ele>
        <time>2018-01-28T10:08:38Z</time>
      </trkpt>
      <trkpt lat="45.92456" lon="4.75948">
        <ele>172</ele>
        <time>2018-01-28T10:08:40Z</time>
      </trkpt>
      <trkpt lat="45.92459" lon="4.75952">
        <ele>172</ele>
        <time>2018-01-28T10:08:41Z</time>
      </trkpt>
      <trkpt lat="45.92466" lon="4.75957">
        <ele>172</ele>
        <time>2018-01-28T10:08:43Z</time>
      </trkpt>
      <trkpt lat="45.92469" lon="4.7596">
        <ele>172</ele>
        <time>2018-01-28T10:08:44Z</time>
      </trkpt>
      <trkpt lat="45.92475" lon="4.75964">
        <ele>172</ele>
        <time>2018-01-28T10:08:46Z</time>
      </trkpt>
      <trkpt lat="45.92479" lon="4.75966">
        <ele>172</ele>
        <time>2018-01-28T10:08:47Z</time>
      </trkpt>
      <trkpt lat="45.92485" lon="4.75971">
        <ele>172</ele>
        <time>2018-01-28T10:08:49Z</time>
      </trkpt>
      <trkpt lat="45.92488" lon="4.75974">
        <ele>172</ele>
        <time>2018-01-28T10:08:50Z</time>
      </trkpt>
      <trkpt lat="45.92494" lon="4.7598">
        <ele>172</ele>
        <time>2018-01-28T10:08:52Z</time>
      </trkpt>
      <trkpt lat="45.92497" lon="4.75983">
        <ele>172</ele>
        <time>2018-01-28T10:08:53Z</time>
      </trkpt>
      <trkpt lat="45.92503" lon="4.7599">
        <ele>172</ele>
        <time>2018-01-28T10:08:55Z</time>
      </trkpt>
      <trkpt lat="45.92506" lon="4.75993">
        <ele>172</ele>
        <time>2018-01-28T10:08:56Z</time>
      </trkpt>
      <trkpt lat="45.92512" lon="4.75998">
        <ele>172</ele>
        <time>2018-01-28T10:08:58Z</time>
      </trkpt>
      <trkpt lat="45.92516" lon="4.76001">
        <ele>172</ele>
        <time>2018-01-28T10:08:59Z</time>
      </trkpt>
      <trkpt lat="45.92523" lon="4.76006">
        <ele>172</ele>
        <time>2018-01-28T10:09:01Z</time>
      </trkpt>
      <trkpt lat="45.92526" lon="4.76008">
        <ele>172</ele>
        <time>2018-01-28T10:09:02Z</time>
      </trkpt>
      <trkpt lat="45.92533" lon="4.76014">
        <ele>172</ele>
        <time>2018-01-28T10:09:04Z</time>
      </trkpt>
      <trkpt lat="45.92537" lon="4.76017">
        <ele>172</ele>
        <time>2018-01-28T10:09:05Z</time>
      </trkpt>
      <trkpt lat="45.92544" lon="4.76023">
        <ele>172</ele>
        <time>2018-01-28T10:09:07Z</time>
      </trkpt>
      <trkpt lat="45.92548" lon="4.76025">
        <ele>172</ele>
        <time>2018-01-28T10:09:08Z</time>
      </trkpt>
      <trkpt lat="45.92554" lon="4.76032">
        <ele>172</ele>
        <time>2018-01-28T10:09:45Z</time>
      </trkpt>
      <trkpt lat="45.92554" lon="4.76032">
        <ele>172</ele>
        <time>2018-01-28T10:09:46Z</time>
      </trkpt>
      <trkpt lat="45.92553" lon="4.76031">
        <ele>172</ele>
        <time>2018-01-28T10:10:25Z</time>
      </trkpt>
      <trkpt lat="45.92552" lon="4.7603">
        <ele>172</ele>
        <time>2018-01-28T10:10:26Z</time>
      </trkpt>
      <trkpt lat="45.9256" lon="4.76033">
        <ele>172</ele>
        <time>2018-01-28T10:10:53Z</time>
      </trkpt>
      <trkpt lat="45.92562" lon="4.76034">
        <ele>172</ele>
        <time>2018-01-28T10:10:54Z</time>
      </trkpt>
      <trkpt lat="45.92568" lon="4.7604">
        <ele>172</ele>
        <time>2018-01-28T10:10:57Z</time>
      </trkpt>
      <trkpt lat="45.92571" lon="4.76042">
        <ele>171</ele>
        <time>2018-01-28T10:10:58Z</time>
      </trkpt>
      <trkpt lat="45.92579" lon="4.76048">
        <ele>171</ele>
        <time>2018-01-28T10:11:00Z</time>
      </trkpt>
      <trkpt lat="45.92582" lon="4.76051">
        <ele>171</ele>
        <time>2018-01-28T10:11:01Z</time>
      </trkpt>
      <trkpt lat="45.92587" lon="4.76054">
        <ele>171</ele>
        <time>2018-01-28T10:11:02Z</time>
      </trkpt>
      <trkpt lat="45.92591" lon="4.76058">
        <ele>171</ele>
        <time>2018-01-28T10:11:03Z</time>
      </trkpt>
      <trkpt lat="45.92596" lon="4.76061">
        <ele>171</ele>
        <time>2018-01-28T10:11:04Z</time>
      </trkpt>
      <trkpt lat="45.926" lon="4.76065">
        <ele>171</ele>
        <time>2018-01-28T10:11:05Z</time>
      </trkpt>
      <trkpt lat="45.92604" lon="4.76068">
        <ele>171</ele>
        <time>2018-01-28T10:11:06Z</time>
      </trkpt>
      <trkpt lat="45.92609" lon="4.76071">
        <ele>171</ele>
        <time>2018-01-28T10:11:07Z</time>
      </trkpt>
      <trkpt lat="45.92614" lon="4.76074">
        <ele>171</ele>
        <time>2018-01-28T10:11:08Z</time>
      </trkpt>
      <trkpt lat="45.92618" lon="4.76078">
        <ele>171</ele>
        <time>2018-01-28T10:11:09Z</time>
      </trkpt>
      <trkpt lat="45.92623" lon="4.76082">
        <ele>171</ele>
        <time>2018-01-28T10:11:10Z</time>
      </trkpt>
      <trkpt lat="45.92629" lon="4.76086">
        <ele>170</ele>
        <time>2018-01-28T10:11:11Z</time>
      </trkpt>
      <trkpt lat="45.92635" lon="4.7609">
        <ele>170</ele>
        <time>2018-01-28T10:11:12Z</time>
      </trkpt>
      <trkpt lat="45.92641" lon="4.76093">
        <ele>170</ele>
        <time>2018-01-28T10:11:13Z</time>
      </trkpt>
      <trkpt lat="45.92646" lon="4.76097">
        <ele>170</ele>
        <time>2018-01-28T10:11:14Z</time>
      </trkpt>
      <trkpt lat="45.92652" lon="4.76101">
        <ele>170</ele>
        <time>2018-01-28T10:11:15Z</time>
      </trkpt>
      <trkpt lat="45.92657" lon="4.76104">
        <ele>170</ele>
        <time>2018-01-28T10:11:16Z</time>
      </trkpt>
      <trkpt lat="45.92663" lon="4.76108">
        <ele>170</ele>
        <time>2018-01-28T10:11:17Z</time>
      </trkpt>
      <trkpt lat="45.92668" lon="4.76112">
        <ele>169</ele>
        <time>2018-01-28T10:11:18Z</time>
      </trkpt>
      <trkpt lat="45.92675" lon="4.76116">
        <ele>169</ele>
        <time>2018-01-28T10:11:19Z</time>
      </trkpt>
      <trkpt lat="45.92681" lon="4.76119">
        <ele>169</ele>
        <time>2018-01-28T10:11:20Z</time>
      </trkpt>
      <trkpt lat="45.92687" lon="4.76123">
        <ele>169</ele>
        <time>2018-01-28T10:11:21Z</time>
      </trkpt>
      <trkpt lat="45.92693" lon="4.76127">
        <ele>169</ele>
        <time>2018-01-28T10:11:22Z</time>
      </trkpt>
      <trkpt lat="45.92698" lon="4.76131">
        <ele>169</ele>
        <time>2018-01-28T10:11:23Z</time>
      </trkpt>
      <trkpt lat="45.92705" lon="4.76135">
        <ele>169</ele>
        <time>2018-01-28T10:11:24Z</time>
      </trkpt>
      <trkpt lat="45.92711" lon="4.76139">
        <ele>168</ele>
        <time>2018-01-28T10:11:25Z</time>
      </trkpt>
      <trkpt lat="45.92717" lon="4.76144">
        <ele>168</ele>
        <time>2018-01-28T10:11:26Z</time>
      </trkpt>
      <trkpt lat="45.92722" lon="4.76148">
        <ele>168</ele>
        <time>2018-01-28T10:11:27Z</time>
      </trkpt>
      <trkpt lat="45.92728" lon="4.76152">
        <ele>168</ele>
        <time>2018-01-28T10:11:28Z</time>
      </trkpt>
      <trkpt lat="45.92734" lon="4.76156">
        <ele>168</ele>
        <time>2018-01-28T10:11:29Z</time>
      </trkpt>
      <trkpt lat="45.92739" lon="4.76159">
        <ele>168</ele>
        <time>2018-01-28T10:11:30Z</time>
      </trkpt>
      <trkpt lat="45.92744" lon="4.76164">
        <ele>167</ele>
        <time>2018-01-28T10:11:31Z</time>
      </trkpt>
      <trkpt lat="45.92749" lon="4.76168">
        <ele>167</ele>
        <time>2018-01-28T10:11:32Z</time>
      </trkpt>
      <trkpt lat="45.92754" lon="4.76172">
        <ele>167</ele>
        <time>2018-01-28T10:11:33Z</time>
      </trkpt>
      <trkpt lat="45.92758" lon="4.76176">
        <ele>167</ele>
        <time>2018-01-28T10:11:34Z</time>
      </trkpt>
      <trkpt lat="45.92762" lon="4.76181">
        <ele>167</ele>
        <time>2018-01-28T10:11:35Z</time>
      </trkpt>
      <trkpt lat="45.92766" lon="4.76185">
        <ele>167</ele>
        <time>2018-01-28T10:11:36Z</time>
      </trkpt>
      <trkpt lat="45.9277" lon="4.76189">
        <ele>168</ele>
        <time>2018-01-28T10:11:37Z</time>
      </trkpt>
      <trkpt lat="45.92777" lon="4.76195">
        <ele>168</ele>
        <time>2018-01-28T10:11:39Z</time>
      </trkpt>
      <trkpt lat="45.92781" lon="4.76199">
        <ele>168</ele>
        <time>2018-01-28T10:11:40Z</time>
      </trkpt>
      <trkpt lat="45.92786" lon="4.76202">
        <ele>168</ele>
        <time>2018-01-28T10:11:41Z</time>
      </trkpt>
      <trkpt lat="45.92789" lon="4.76205">
        <ele>168</ele>
        <time>2018-01-28T10:11:42Z</time>
      </trkpt>
      <trkpt lat="45.92794" lon="4.7621">
        <ele>168</ele>
        <time>2018-01-28T10:11:43Z</time>
      </trkpt>
      <trkpt lat="45.92799" lon="4.76214">
        <ele>168</ele>
        <time>2018-01-28T10:11:44Z</time>
      </trkpt>
      <trkpt lat="45.92803" lon="4.76218">
        <ele>168</ele>
        <time>2018-01-28T10:11:45Z</time>
      </trkpt>
      <trkpt lat="45.92807" lon="4.76221">
        <ele>168</ele>
        <time>2018-01-28T10:11:46Z</time>
      </trkpt>
      <trkpt lat="45.92813" lon="4.76225">
        <ele>168</ele>
        <time>2018-01-28T10:11:47Z</time>
      </trkpt>
      <trkpt lat="45.92817" lon="4.76229">
        <ele>168</ele>
        <time>2018-01-28T10:11:48Z</time>
      </trkpt>
      <trkpt lat="45.92821" lon="4.76234">
        <ele>168</ele>
        <time>2018-01-28T10:11:49Z</time>
      </trkpt>
      <trkpt lat="45.92824" lon="4.76238">
        <ele>168</ele>
        <time>2018-01-28T10:11:50Z</time>
      </trkpt>
      <trkpt lat="45.92828" lon="4.76242">
        <ele>169</ele>
        <time>2018-01-28T10:11:51Z</time>
      </trkpt>
      <trkpt lat="45.92832" lon="4.76247">
        <ele>169</ele>
        <time>2018-01-28T10:11:52Z</time>
      </trkpt>
      <trkpt lat="45.92836" lon="4.76251">
        <ele>169</ele>
        <time>2018-01-28T10:11:53Z</time>
      </trkpt>
      <trkpt lat="45.92841" lon="4.76254">
        <ele>169</ele>
        <time>2018-01-28T10:11:54Z</time>
      </trkpt>
      <trkpt lat="45.92845" lon="4.76258">
        <ele>169</ele>
        <time>2018-01-28T10:11:55Z</time>
      </trkpt>
      <trkpt lat="45.92848" lon="4.76263">
        <ele>169</ele>
        <time>2018-01-28T10:11:56Z</time>
      </trkpt>
      <trkpt lat="45.92851" lon="4.76267">
        <ele>169</ele>
        <time>2018-01-28T10:11:57Z</time>
      </trkpt>
      <trkpt lat="45.92855" lon="4.76272">
        <ele>169</ele>
        <time>2018-01-28T10:11:58Z</time>
      </trkpt>
      <trkpt lat="45.92859" lon="4.76276">
        <ele>169</ele>
        <time>2018-01-28T10:11:59Z</time>
      </trkpt>
      <trkpt lat="45.92863" lon="4.7628">
        <ele>169</ele>
        <time>2018-01-28T10:12:00Z</time>
      </trkpt>
      <trkpt lat="45.92867" lon="4.76284">
        <ele>169</ele>
        <time>2018-01-28T10:12:01Z</time>
      </trkpt>
      <trkpt lat="45.9287" lon="4.76287">
        <ele>169</ele>
        <time>2018-01-28T10:12:02Z</time>
      </trkpt>
      <trkpt lat="45.92874" lon="4.7629">
        <ele>169</ele>
        <time>2018-01-28T10:12:03Z</time>
      </trkpt>
      <trkpt lat="45.92878" lon="4.76294">
        <ele>169</ele>
        <time>2018-01-28T10:12:04Z</time>
      </trkpt>
      <trkpt lat="45.92882" lon="4.76298">
        <ele>169</ele>
        <time>2018-01-28T10:12:05Z</time>
      </trkpt>
      <trkpt lat="45.92887" lon="4.76301">
        <ele>169</ele>
        <time>2018-01-28T10:12:06Z</time>
      </trkpt>
      <trkpt lat="45.92891" lon="4.76305">
        <ele>169</ele>
        <time>2018-01-28T10:12:07Z</time>
      </trkpt>
      <trkpt lat="45.92895" lon="4.7631">
        <ele>169</ele>
        <time>2018-01-28T10:12:08Z</time>
      </trkpt>
      <trkpt lat="45.92899" lon="4.76314">
        <ele>169</ele>
        <time>2018-01-28T10:12:09Z</time>
      </trkpt>
      <trkpt lat="45.92903" lon="4.76317">
        <ele>169</ele>
        <time>2018-01-28T10:12:10Z</time>
      </trkpt>
      <trkpt lat="45.92908" lon="4.76321">
        <ele>169</ele>
        <time>2018-01-28T10:12:11Z</time>
      </trkpt>
      <trkpt lat="45.92912" lon="4.76326">
        <ele>169</ele>
        <time>2018-01-28T10:12:12Z</time>
      </trkpt>
      <trkpt lat="45.92916" lon="4.76331">
        <ele>169</ele>
        <time>2018-01-28T10:12:13Z</time>
      </trkpt>
      <trkpt lat="45.9292" lon="4.76335">
        <ele>169</ele>
        <time>2018-01-28T10:12:14Z</time>
      </trkpt>
      <trkpt lat="45.92928" lon="4.76342">
        <ele>169</ele>
        <time>2018-01-28T10:12:16Z</time>
      </trkpt>
      <trkpt lat="45.92931" lon="4.76346">
        <ele>169</ele>
        <time>2018-01-28T10:12:17Z</time>
      </trkpt>
      <trkpt lat="45.92935" lon="4.7635">
        <ele>169</ele>
        <time>2018-01-28T10:12:18Z</time>
      </trkpt>
      <trkpt lat="45.92939" lon="4.76354">
        <ele>169</ele>
        <time>2018-01-28T10:12:19Z</time>
      </trkpt>
      <trkpt lat="45.92943" lon="4.76356">
        <ele>169</ele>
        <time>2018-01-28T10:12:20Z</time>
      </trkpt>
      <trkpt lat="45.92947" lon="4.7636">
        <ele>169</ele>
        <time>2018-01-28T10:12:21Z</time>
      </trkpt>
      <trkpt lat="45.9295" lon="4.76364">
        <ele>169</ele>
        <time>2018-01-28T10:12:22Z</time>
      </trkpt>
      <trkpt lat="45.92954" lon="4.76368">
        <ele>169</ele>
        <time>2018-01-28T10:12:23Z</time>
      </trkpt>
      <trkpt lat="45.92958" lon="4.76372">
        <ele>169</ele>
        <time>2018-01-28T10:12:24Z</time>
      </trkpt>
      <trkpt lat="45.92962" lon="4.76377">
        <ele>169</ele>
        <time>2018-01-28T10:12:25Z</time>
      </trkpt>
      <trkpt lat="45.92966" lon="4.76381">
        <ele>169</ele>
        <time>2018-01-28T10:12:26Z</time>
      </trkpt>
      <trkpt lat="45.9297" lon="4.76384">
        <ele>169</ele>
        <time>2018-01-28T10:12:27Z</time>
      </trkpt>
      <trkpt lat="45.92975" lon="4.76388">
        <ele>169</ele>
        <time>2018-01-28T10:12:28Z</time>
      </trkpt>
      <trkpt lat="45.92978" lon="4.76393">
        <ele>169</ele>
        <time>2018-01-28T10:12:29Z</time>
      </trkpt>
      <trkpt lat="45.92982" lon="4.76397">
        <ele>169</ele>
        <time>2018-01-28T10:12:30Z</time>
      </trkpt>
      <trkpt lat="45.92985" lon="4.76401">
        <ele>169</ele>
        <time>2018-01-28T10:12:31Z</time>
      </trkpt>
      <trkpt lat="45.92989" lon="4.76404">
        <ele>169</ele>
        <time>2018-01-28T10:12:32Z</time>
      </trkpt>
      <trkpt lat="45.92993" lon="4.76409">
        <ele>169</ele>
        <time>2018-01-28T10:12:33Z</time>
      </trkpt>
      <trkpt lat="45.92997" lon="4.76411">
        <ele>169</ele>
        <time>2018-01-28T10:12:34Z</time>
      </trkpt>
      <trkpt lat="45.93001" lon="4.76415">
        <ele>169</ele>
        <time>2018-01-28T10:12:35Z</time>
      </trkpt>
      <trkpt lat="45.93005" lon="4.76419">
        <ele>169</ele>
        <time>2018-01-28T10:12:36Z</time>
      </trkpt>
      <trkpt lat="45.93009" lon="4.76423">
        <ele>169</ele>
        <time>2018-01-28T10:12:37Z</time>
      </trkpt>
      <trkpt lat="45.93013" lon="4.76427">
        <ele>169</ele>
        <time>2018-01-28T10:12:38Z</time>
      </trkpt>
      <trkpt lat="45.93017" lon="4.7643">
        <ele>169</ele>
        <time>2018-01-28T10:12:39Z</time>
      </trkpt>
      <trkpt lat="45.93022" lon="4.76434">
        <ele>169</ele>
        <time>2018-01-28T10:12:40Z</time>
      </trkpt>
      <trkpt lat="45.93026" lon="4.76438">
        <ele>169</ele>
        <time>2018-01-28T10:12:41Z</time>
      </trkpt>
      <trkpt lat="45.9303" lon="4.76442">
        <ele>169</ele>
        <time>2018-01-28T10:12:42Z</time>
      </trkpt>
      <trkpt lat="45.93034" lon="4.76447">
        <ele>169</ele>
        <time>2018-01-28T10:12:43Z</time>
      </trkpt>
      <trkpt lat="45.93038" lon="4.76451">
        <ele>169</ele>
        <time>2018-01-28T10:12:44Z</time>
      </trkpt>
      <trkpt lat="45.93042" lon="4.76456">
        <ele>169</ele>
        <time>2018-01-28T10:12:45Z</time>
      </trkpt>
      <trkpt lat="45.93046" lon="4.7646">
        <ele>169</ele>
        <time>2018-01-28T10:12:46Z</time>
      </trkpt>
      <trkpt lat="45.93051" lon="4.76464">
        <ele>169</ele>
        <time>2018-01-28T10:12:47Z</time>
      </trkpt>
      <trkpt lat="45.93055" lon="4.76468">
        <ele>169</ele>
        <time>2018-01-28T10:12:48Z</time>
      </trkpt>
      <trkpt lat="45.93059" lon="4.76472">
        <ele>169</ele>
        <time>2018-01-28T10:12:49Z</time>
      </trkpt>
      <trkpt lat="45.93063" lon="4.76476">
        <ele>169</ele>
        <time>2018-01-28T10:12:50Z</time>
      </trkpt>
      <trkpt lat="45.93066" lon="4.76479">
        <ele>169</ele>
        <time>2018-01-28T10:12:51Z</time>
      </trkpt>
      <trkpt lat="45.9307" lon="4.76483">
        <ele>169</ele>
        <time>2018-01-28T10:12:52Z</time>
      </trkpt>
      <trkpt lat="45.93074" lon="4.76487">
        <ele>169</ele>
        <time>2018-01-28T10:12:53Z</time>
      </trkpt>
      <trkpt lat="45.93078" lon="4.76491">
        <ele>170</ele>
        <time>2018-01-28T10:12:54Z</time>
      </trkpt>
      <trkpt lat="45.93082" lon="4.76495">
        <ele>170</ele>
        <time>2018-01-28T10:12:55Z</time>
      </trkpt>
      <trkpt lat="45.93085" lon="4.765">
        <ele>170</ele>
        <time>2018-01-28T10:12:56Z</time>
      </trkpt>
      <trkpt lat="45.9309" lon="4.76504">
        <ele>170</ele>
        <time>2018-01-28T10:12:57Z</time>
      </trkpt>
      <trkpt lat="45.93094" lon="4.76507">
        <ele>170</ele>
        <time>2018-01-28T10:12:58Z</time>
      </trkpt>
      <trkpt lat="45.93099" lon="4.76511">
        <ele>170</ele>
        <time>2018-01-28T10:12:59Z</time>
      </trkpt>
      <trkpt lat="45.93103" lon="4.76516">
        <ele>170</ele>
        <time>2018-01-28T10:13:00Z</time>
      </trkpt>
      <trkpt lat="45.93107" lon="4.7652">
        <ele>170</ele>
        <time>2018-01-28T10:13:01Z</time>
      </trkpt>
      <trkpt lat="45.93111" lon="4.76523">
        <ele>170</ele>
        <time>2018-01-28T10:13:02Z</time>
      </trkpt>
      <trkpt lat="45.93115" lon="4.76526">
        <ele>170</ele>
        <time>2018-01-28T10:13:03Z</time>
      </trkpt>
      <trkpt lat="45.9312" lon="4.7653">
        <ele>170</ele>
        <time>2018-01-28T10:13:04Z</time>
      </trkpt>
      <trkpt lat="45.93123" lon="4.76534">
        <ele>170</ele>
        <time>2018-01-28T10:13:05Z</time>
      </trkpt>
      <trkpt lat="45.93127" lon="4.76539">
        <ele>170</ele>
        <time>2018-01-28T10:13:06Z</time>
      </trkpt>
      <trkpt lat="45.9313" lon="4.76543">
        <ele>170</ele>
        <time>2018-01-28T10:13:07Z</time>
      </trkpt>
      <trkpt lat="45.93136" lon="4.7655">
        <ele>170</ele>
        <time>2018-01-28T10:13:09Z</time>
      </trkpt>
      <trkpt lat="45.93139" lon="4.76553">
        <ele>170</ele>
        <time>2018-01-28T10:13:10Z</time>
      </trkpt>
      <trkpt lat="45.93146" lon="4.7656">
        <ele>170</ele>
        <time>2018-01-28T10:13:12Z</time>
      </trkpt>
      <trkpt lat="45.93149" lon="4.76564">
        <ele>170</ele>
        <time>2018-01-28T10:13:13Z</time>
      </trkpt>
      <trkpt lat="45.93155" lon="4.76569">
        <ele>170</ele>
        <time>2018-01-28T10:13:14Z</time>
      </trkpt>
      <trkpt lat="45.93158" lon="4.76572">
        <ele>170</ele>
        <time>2018-01-28T10:13:15Z</time>
      </trkpt>
      <trkpt lat="45.93162" lon="4.76576">
        <ele>171</ele>
        <time>2018-01-28T10:13:16Z</time>
      </trkpt>
      <trkpt lat="45.93166" lon="4.7658">
        <ele>171</ele>
        <time>2018-01-28T10:13:17Z</time>
      </trkpt>
      <trkpt lat="45.93171" lon="4.76584">
        <ele>171</ele>
        <time>2018-01-28T10:13:18Z</time>
      </trkpt>
      <trkpt lat="45.93175" lon="4.76588">
        <ele>171</ele>
        <time>2018-01-28T10:13:19Z</time>
      </trkpt>
      <trkpt lat="45.9318" lon="4.76592">
        <ele>171</ele>
        <time>2018-01-28T10:13:20Z</time>
      </trkpt>
      <trkpt lat="45.93184" lon="4.76597">
        <ele>171</ele>
        <time>2018-01-28T10:13:21Z</time>
      </trkpt>
      <trkpt lat="45.93191" lon="4.76604">
        <ele>170</ele>
        <time>2018-01-28T10:13:23Z</time>
      </trkpt>
      <trkpt lat="45.93195" lon="4.76608">
        <ele>170</ele>
        <time>2018-01-28T10:13:24Z</time>
      </trkpt>
      <trkpt lat="45.93203" lon="4.76612">
        <ele>170</ele>
        <time>2018-01-28T10:13:26Z</time>
      </trkpt>
      <trkpt lat="45.93206" lon="4.76615">
        <ele>170</ele>
        <time>2018-01-28T10:13:27Z</time>
      </trkpt>
      <trkpt lat="45.93212" lon="4.76622">
        <ele>170</ele>
        <time>2018-01-28T10:13:29Z</time>
      </trkpt>
      <trkpt lat="45.93215" lon="4.76625">
        <ele>170</ele>
        <time>2018-01-28T10:13:30Z</time>
      </trkpt>
      <trkpt lat="45.93221" lon="4.76632">
        <ele>171</ele>
        <time>2018-01-28T10:13:32Z</time>
      </trkpt>
      <trkpt lat="45.93225" lon="4.76636">
        <ele>171</ele>
        <time>2018-01-28T10:13:33Z</time>
      </trkpt>
      <trkpt lat="45.9323" lon="4.7664">
        <ele>171</ele>
        <time>2018-01-28T10:13:34Z</time>
      </trkpt>
      <trkpt lat="45.93234" lon="4.76643">
        <ele>171</ele>
        <time>2018-01-28T10:13:35Z</time>
      </trkpt>
      <trkpt lat="45.93237" lon="4.76647">
        <ele>171</ele>
        <time>2018-01-28T10:13:36Z</time>
      </trkpt>
      <trkpt lat="45.93241" lon="4.76651">
        <ele>171</ele>
        <time>2018-01-28T10:13:37Z</time>
      </trkpt>
      <trkpt lat="45.93247" lon="4.76659">
        <ele>172</ele>
        <time>2018-01-28T10:13:39Z</time>
      </trkpt>
      <trkpt lat="45.93251" lon="4.76662">
        <ele>172</ele>
        <time>2018-01-28T10:13:40Z</time>
      </trkpt>
      <trkpt lat="45.93258" lon="4.76668">
        <ele>172</ele>
        <time>2018-01-28T10:13:42Z</time>
      </trkpt>
      <trkpt lat="45.93261" lon="4.76673">
        <ele>172</ele>
        <time>2018-01-28T10:13:43Z</time>
      </trkpt>
      <trkpt lat="45.93264" lon="4.76678">
        <ele>172</ele>
        <time>2018-01-28T10:13:44Z</time>
      </trkpt>
      <trkpt lat="45.93268" lon="4.76682">
        <ele>172</ele>
        <time>2018-01-28T10:13:45Z</time>
      </trkpt>
      <trkpt lat="45.93275" lon="4.76689">
        <ele>172</ele>
        <time>2018-01-28T10:13:47Z</time>
      </trkpt>
      <trkpt lat="45.93279" lon="4.76693">
        <ele>172</ele>
        <time>2018-01-28T10:13:48Z</time>
      </trkpt>
      <trkpt lat="45.93286" lon="4.767">
        <ele>172</ele>
        <time>2018-01-28T10:13:50Z</time>
      </trkpt>
      <trkpt lat="45.93289" lon="4.76704">
        <ele>172</ele>
        <time>2018-01-28T10:13:51Z</time>
      </trkpt>
      <trkpt lat="45.93293" lon="4.76708">
        <ele>172</ele>
        <time>2018-01-28T10:13:52Z</time>
      </trkpt>
      <trkpt lat="45.93298" lon="4.76711">
        <ele>172</ele>
        <time>2018-01-28T10:13:53Z</time>
      </trkpt>
      <trkpt lat="45.93303" lon="4.76715">
        <ele>172</ele>
        <time>2018-01-28T10:13:54Z</time>
      </trkpt>
      <trkpt lat="45.93307" lon="4.76719">
        <ele>172</ele>
        <time>2018-01-28T10:13:55Z</time>
      </trkpt>
      <trkpt lat="45.93311" lon="4.76724">
        <ele>172</ele>
        <time>2018-01-28T10:13:56Z</time>
      </trkpt>
      <trkpt lat="45.93315" lon="4.76727">
        <ele>172</ele>
        <time>2018-01-28T10:13:57Z</time>
      </trkpt>
      <trkpt lat="45.93319" lon="4.76731">
        <ele>172</ele>
        <time>2018-01-28T10:13:58Z</time>
      </trkpt>
      <trkpt lat="45.93323" lon="4.76734">
        <ele>172</ele>
        <time>2018-01-28T10:13:59Z</time>
      </trkpt>
      <trkpt lat="45.93327" lon="4.76738">
        <ele>172</ele>
        <time>2018-01-28T10:14:00Z</time>
      </trkpt>
      <trkpt lat="45.93331" lon="4.76741">
        <ele>173</ele>
        <time>2018-01-28T10:14:01Z</time>
      </trkpt>
      <trkpt lat="45.93334" lon="4.76745">
        <ele>173</ele>
        <time>2018-01-28T10:14:02Z</time>
      </trkpt>
      <trkpt lat="45.93338" lon="4.76749">
        <ele>173</ele>
        <time>2018-01-28T10:14:03Z</time>
      </trkpt>
      <trkpt lat="45.93341" lon="4.76753">
        <ele>173</ele>
        <time>2018-01-28T10:14:04Z</time>
      </trkpt>
      <trkpt lat="45.93345" lon="4.76756">
        <ele>172</ele>
        <time>2018-01-28T10:14:05Z</time>
      </trkpt>
      <trkpt lat="45.93353" lon="4.76761">
        <ele>172</ele>
        <time>2018-01-28T10:14:07Z</time>
      </trkpt>
      <trkpt lat="45.93357" lon="4.76765">
        <ele>172</ele>
        <time>2018-01-28T10:14:08Z</time>
      </trkpt>
      <trkpt lat="45.93361" lon="4.7677">
        <ele>172</ele>
        <time>2018-01-28T10:14:09Z</time>
      </trkpt>
      <trkpt lat="45.93365" lon="4.76774">
        <ele>172</ele>
        <time>2018-01-28T10:14:10Z</time>
      </trkpt>
      <trkpt lat="45.93369" lon="4.76778">
        <ele>172</ele>
        <time>2018-01-28T10:14:11Z</time>
      </trkpt>
      <trkpt lat="45.93373" lon="4.76781">
        <ele>172</ele>
        <time>2018-01-28T10:14:12Z</time>
      </trkpt>
      <trkpt lat="45.93377" lon="4.76785">
        <ele>172</ele>
        <time>2018-01-28T10:14:13Z</time>
      </trkpt>
      <trkpt lat="45.93381" lon="4.76789">
        <ele>172</ele>
        <time>2018-01-28T10:14:14Z</time>
      </trkpt>
      <trkpt lat="45.93387" lon="4.76797">
        <ele>172</ele>
        <time>2018-01-28T10:14:16Z</time>
      </trkpt>
      <trkpt lat="45.93391" lon="4.768">
        <ele>172</ele>
        <time>2018-01-28T10:14:17Z</time>
      </trkpt>
      <trkpt lat="45.93395" lon="4.76804">
        <ele>172</ele>
        <time>2018-01-28T10:14:18Z</time>
      </trkpt>
      <trkpt lat="45.93399" lon="4.76808">
        <ele>172</ele>
        <time>2018-01-28T10:14:19Z</time>
      </trkpt>
      <trkpt lat="45.93403" lon="4.76812">
        <ele>172</ele>
        <time>2018-01-28T10:14:20Z</time>
      </trkpt>
      <trkpt lat="45.93406" lon="4.76816">
        <ele>172</ele>
        <time>2018-01-28T10:14:21Z</time>
      </trkpt>
      <trkpt lat="45.93409" lon="4.76822">
        <ele>172</ele>
        <time>2018-01-28T10:14:22Z</time>
      </trkpt>
      <trkpt lat="45.93413" lon="4.76826">
        <ele>172</ele>
        <time>2018-01-28T10:14:23Z</time>
      </trkpt>
      <trkpt lat="45.93416" lon="4.7683">
        <ele>172</ele>
        <time>2018-01-28T10:14:24Z</time>
      </trkpt>
      <trkpt lat="45.93419" lon="4.76835">
        <ele>172</ele>
        <time>2018-01-28T10:14:25Z</time>
      </trkpt>
      <trkpt lat="45.93427" lon="4.76842">
        <ele>171</ele>
        <time>2018-01-28T10:14:27Z</time>
      </trkpt>
      <trkpt lat="45.93431" lon="4.76844">
        <ele>171</ele>
        <time>2018-01-28T10:14:28Z</time>
      </trkpt>
      <trkpt lat="45.93438" lon="4.76848">
        <ele>171</ele>
        <time>2018-01-28T10:14:30Z</time>
      </trkpt>
      <trkpt lat="45.93443" lon="4.76849">
        <ele>171</ele>
        <time>2018-01-28T10:14:31Z</time>
      </trkpt>
      <trkpt lat="45.93447" lon="4.76851">
        <ele>171</ele>
        <time>2018-01-28T10:14:32Z</time>
      </trkpt>
      <trkpt lat="45.93452" lon="4.76855">
        <ele>170</ele>
        <time>2018-01-28T10:14:33Z</time>
      </trkpt>
      <trkpt lat="45.93456" lon="4.76858">
        <ele>170</ele>
        <time>2018-01-28T10:14:34Z</time>
      </trkpt>
      <trkpt lat="45.9346" lon="4.76861">
        <ele>170</ele>
        <time>2018-01-28T10:14:35Z</time>
      </trkpt>
      <trkpt lat="45.93464" lon="4.76865">
        <ele>170</ele>
        <time>2018-01-28T10:14:36Z</time>
      </trkpt>
      <trkpt lat="45.93468" lon="4.76868">
        <ele>170</ele>
        <time>2018-01-28T10:14:37Z</time>
      </trkpt>
      <trkpt lat="45.93472" lon="4.76873">
        <ele>170</ele>
        <time>2018-01-28T10:14:38Z</time>
      </trkpt>
      <trkpt lat="45.93475" lon="4.76877">
        <ele>170</ele>
        <time>2018-01-28T10:14:39Z</time>
      </trkpt>
      <trkpt lat="45.93479" lon="4.76881">
        <ele>170</ele>
        <time>2018-01-28T10:14:40Z</time>
      </trkpt>
      <trkpt lat="45.93482" lon="4.76885">
        <ele>170</ele>
        <time>2018-01-28T10:14:41Z</time>
      </trkpt>
      <trkpt lat="45.93489" lon="4.7689">
        <ele>170</ele>
        <time>2018-01-28T10:14:43Z</time>
      </trkpt>
      <trkpt lat="45.93493" lon="4.76894">
        <ele>170</ele>
        <time>2018-01-28T10:14:44Z</time>
      </trkpt>
      <trkpt lat="45.93499" lon="4.76902">
        <ele>170</ele>
        <time>2018-01-28T10:14:46Z</time>
      </trkpt>
      <trkpt lat="45.93502" lon="4.76905">
        <ele>169</ele>
        <time>2018-01-28T10:14:47Z</time>
      </trkpt>
      <trkpt lat="45.9351" lon="4.76912">
        <ele>169</ele>
        <time>2018-01-28T10:14:49Z</time>
      </trkpt>
      <trkpt lat="45.93514" lon="4.76915">
        <ele>169</ele>
        <time>2018-01-28T10:14:50Z</time>
      </trkpt>
      <trkpt lat="45.93518" lon="4.76919">
        <ele>170</ele>
        <time>2018-01-28T10:14:51Z</time>
      </trkpt>
      <trkpt lat="45.93521" lon="4.76923">
        <ele>170</ele>
        <time>2018-01-28T10:14:52Z</time>
      </trkpt>
      <trkpt lat="45.93525" lon="4.76928">
        <ele>170</ele>
        <time>2018-01-28T10:14:53Z</time>
      </trkpt>
      <trkpt lat="45.93529" lon="4.76932">
        <ele>170</ele>
        <time>2018-01-28T10:14:54Z</time>
      </trkpt>
      <trkpt lat="45.93532" lon="4.76936">
        <ele>170</ele>
        <time>2018-01-28T10:14:55Z</time>
      </trkpt>
      <trkpt lat="45.93536" lon="4.7694">
        <ele>170</ele>
        <time>2018-01-28T10:14:56Z</time>
      </trkpt>
      <trkpt lat="45.93543" lon="4.76946">
        <ele>170</ele>
        <time>2018-01-28T10:14:58Z</time>
      </trkpt>
      <trkpt lat="45.93546" lon="4.7695">
        <ele>170</ele>
        <time>2018-01-28T10:14:59Z</time>
      </trkpt>
      <trkpt lat="45.93552" lon="4.76957">
        <ele>170</ele>
        <time>2018-01-28T10:15:01Z</time>
      </trkpt>
      <trkpt lat="45.93555" lon="4.7696">
        <ele>170</ele>
        <time>2018-01-28T10:15:02Z</time>
      </trkpt>
      <trkpt lat="45.93561" lon="4.76966">
        <ele>170</ele>
        <time>2018-01-28T10:15:04Z</time>
      </trkpt>
      <trkpt lat="45.93564" lon="4.76969">
        <ele>170</ele>
        <time>2018-01-28T10:15:05Z</time>
      </trkpt>
      <trkpt lat="45.9357" lon="4.76976">
        <ele>170</ele>
        <time>2018-01-28T10:15:07Z</time>
      </trkpt>
      <trkpt lat="45.93574" lon="4.7698">
        <ele>170</ele>
        <time>2018-01-28T10:15:08Z</time>
      </trkpt>
      <trkpt lat="45.93581" lon="4.76987">
        <ele>171</ele>
        <time>2018-01-28T10:15:10Z</time>
      </trkpt>
      <trkpt lat="45.93584" lon="4.7699">
        <ele>170</ele>
        <time>2018-01-28T10:15:11Z</time>
      </trkpt>
      <trkpt lat="45.93591" lon="4.76996">
        <ele>170</ele>
        <time>2018-01-28T10:15:13Z</time>
      </trkpt>
      <trkpt lat="45.93594" lon="4.76999">
        <ele>170</ele>
        <time>2018-01-28T10:15:14Z</time>
      </trkpt>
      <trkpt lat="45.93601" lon="4.77007">
        <ele>170</ele>
        <time>2018-01-28T10:15:16Z</time>
      </trkpt>
      <trkpt lat="45.93604" lon="4.7701">
        <ele>170</ele>
        <time>2018-01-28T10:15:17Z</time>
      </trkpt>
      <trkpt lat="45.93612" lon="4.7701">
        <ele>170</ele>
        <time>2018-01-28T10:15:20Z</time>
      </trkpt>
      <trkpt lat="45.93614" lon="4.77009">
        <ele>170</ele>
        <time>2018-01-28T10:15:21Z</time>
      </trkpt>
      <trkpt lat="45.93619" lon="4.77001">
        <ele>170</ele>
        <time>2018-01-28T10:15:24Z</time>
      </trkpt>
      <trkpt lat="45.9362" lon="4.76999">
        <ele>169</ele>
        <time>2018-01-28T10:15:25Z</time>
      </trkpt>
      <trkpt lat="45.93623" lon="4.76997">
        <ele>169</ele>
        <time>2018-01-28T10:16:29Z</time>
      </trkpt>
      <trkpt lat="45.93624" lon="4.76997">
        <ele>169</ele>
        <time>2018-01-28T10:16:30Z</time>
      </trkpt>
      <trkpt lat="45.93623" lon="4.76996">
        <ele>169</ele>
        <time>2018-01-28T10:16:33Z</time>
      </trkpt>
      <trkpt lat="45.93623" lon="4.76997">
        <ele>169</ele>
        <time>2018-01-28T10:16:34Z</time>
      </trkpt>
      <trkpt lat="45.9362" lon="4.77008">
        <ele>170</ele>
        <time>2018-01-28T10:16:47Z</time>
      </trkpt>
      <trkpt lat="45.9362" lon="4.77009">
        <ele>170</ele>
        <time>2018-01-28T10:16:48Z</time>
      </trkpt>
      <trkpt lat="45.93626" lon="4.77018">
        <ele>169</ele>
        <time>2018-01-28T10:16:53Z</time>
      </trkpt>
      <trkpt lat="45.93628" lon="4.7702">
        <ele>169</ele>
        <time>2018-01-28T10:16:54Z</time>
      </trkpt>
      <trkpt lat="45.93634" lon="4.77026">
        <ele>169</ele>
        <time>2018-01-28T10:16:57Z</time>
      </trkpt>
      <trkpt lat="45.93636" lon="4.77029">
        <ele>169</ele>
        <time>2018-01-28T10:16:58Z</time>
      </trkpt>
      <trkpt lat="45.93641" lon="4.77036">
        <ele>169</ele>
        <time>2018-01-28T10:17:00Z</time>
      </trkpt>
      <trkpt lat="45.93644" lon="4.77039">
        <ele>169</ele>
        <time>2018-01-28T10:17:01Z</time>
      </trkpt>
      <trkpt lat="45.93649" lon="4.77046">
        <ele>169</ele>
        <time>2018-01-28T10:17:03Z</time>
      </trkpt>
      <trkpt lat="45.93652" lon="4.77049">
        <ele>169</ele>
        <time>2018-01-28T10:17:04Z</time>
      </trkpt>
      <trkpt lat="45.93658" lon="4.77056">
        <ele>170</ele>
        <time>2018-01-28T10:17:06Z</time>
      </trkpt>
      <trkpt lat="45.9366" lon="4.7706">
        <ele>170</ele>
        <time>2018-01-28T10:17:07Z</time>
      </trkpt>
      <trkpt lat="45.93664" lon="4.77066">
        <ele>170</ele>
        <time>2018-01-28T10:17:09Z</time>
      </trkpt>
      <trkpt lat="45.93667" lon="4.77069">
        <ele>170</ele>
        <time>2018-01-28T10:17:10Z</time>
      </trkpt>
      <trkpt lat="45.93673" lon="4.77076">
        <ele>170</ele>
        <time>2018-01-28T10:17:12Z</time>
      </trkpt>
      <trkpt lat="45.93676" lon="4.77079">
        <ele>170</ele>
        <time>2018-01-28T10:17:13Z</time>
      </trkpt>
      <trkpt lat="45.93682" lon="4.77086">
        <ele>171</ele>
        <time>2018-01-28T10:17:15Z</time>
      </trkpt>
      <trkpt lat="45.93686" lon="4.77089">
        <ele>171</ele>
        <time>2018-01-28T10:17:16Z</time>
      </trkpt>
      <trkpt lat="45.93692" lon="4.77095">
        <ele>171</ele>
        <time>2018-01-28T10:17:18Z</time>
      </trkpt>
      <trkpt lat="45.93695" lon="4.77099">
        <ele>171</ele>
        <time>2018-01-28T10:17:19Z</time>
      </trkpt>
      <trkpt lat="45.93701" lon="4.77104">
        <ele>171</ele>
        <time>2018-01-28T10:17:21Z</time>
      </trkpt>
      <trkpt lat="45.93704" lon="4.77107">
        <ele>171</ele>
        <time>2018-01-28T10:17:22Z</time>
      </trkpt>
      <trkpt lat="45.9371" lon="4.77113">
        <ele>171</ele>
        <time>2018-01-28T10:17:24Z</time>
      </trkpt>
      <trkpt lat="45.93713" lon="4.77116">
        <ele>171</ele>
        <time>2018-01-28T10:17:25Z</time>
      </trkpt>
      <trkpt lat="45.9372" lon="4.77123">
        <ele>171</ele>
        <time>2018-01-28T10:17:27Z</time>
      </trkpt>
      <trkpt lat="45.93724" lon="4.77126">
        <ele>171</ele>
        <time>2018-01-28T10:17:28Z</time>
      </trkpt>
      <trkpt lat="45.93727" lon="4.7713">
        <ele>171</ele>
        <time>2018-01-28T10:17:29Z</time>
      </trkpt>
      <trkpt lat="45.93731" lon="4.77133">
        <ele>171</ele>
        <time>2018-01-28T10:17:30Z</time>
      </trkpt>
      <trkpt lat="45.93738" lon="4.7714">
        <ele>172</ele>
        <time>2018-01-28T10:17:32Z</time>
      </trkpt>
      <trkpt lat="45.93742" lon="4.77144">
        <ele>172</ele>
        <time>2018-01-28T10:17:33Z</time>
      </trkpt>
      <trkpt lat="45.93749" lon="4.7715">
        <ele>172</ele>
        <time>2018-01-28T10:17:35Z</time>
      </trkpt>
      <trkpt lat="45.93752" lon="4.77154">
        <ele>171</ele>
        <time>2018-01-28T10:17:36Z</time>
      </trkpt>
      <trkpt lat="45.93759" lon="4.77161">
        <ele>171</ele>
        <time>2018-01-28T10:17:38Z</time>
      </trkpt>
      <trkpt lat="45.93763" lon="4.77164">
        <ele>171</ele>
        <time>2018-01-28T10:17:39Z</time>
      </trkpt>
      <trkpt lat="45.9377" lon="4.7717">
        <ele>171</ele>
        <time>2018-01-28T10:17:41Z</time>
      </trkpt>
      <trkpt lat="45.93774" lon="4.77173">
        <ele>170</ele>
        <time>2018-01-28T10:17:42Z</time>
      </trkpt>
      <trkpt lat="45.9378" lon="4.77178">
        <ele>170</ele>
        <time>2018-01-28T10:17:44Z</time>
      </trkpt>
      <trkpt lat="45.93783" lon="4.77182">
        <ele>170</ele>
        <time>2018-01-28T10:17:45Z</time>
      </trkpt>
      <trkpt lat="45.9379" lon="4.77187">
        <ele>170</ele>
        <time>2018-01-28T10:17:47Z</time>
      </trkpt>
      <trkpt lat="45.93793" lon="4.7719">
        <ele>170</ele>
        <time>2018-01-28T10:17:48Z</time>
      </trkpt>
      <trkpt lat="45.938" lon="4.77195">
        <ele>170</ele>
        <time>2018-01-28T10:17:50Z</time>
      </trkpt>
      <trkpt lat="45.93803" lon="4.77197">
        <ele>170</ele>
        <time>2018-01-28T10:17:51Z</time>
      </trkpt>
      <trkpt lat="45.9381" lon="4.77202">
        <ele>170</ele>
        <time>2018-01-28T10:17:53Z</time>
      </trkpt>
      <trkpt lat="45.93813" lon="4.77204">
        <ele>170</ele>
        <time>2018-01-28T10:17:54Z</time>
      </trkpt>
      <trkpt lat="45.93821" lon="4.77207">
        <ele>170</ele>
        <time>2018-01-28T10:17:57Z</time>
      </trkpt>
      <trkpt lat="45.93822" lon="4.77208">
        <ele>170</ele>
        <time>2018-01-28T10:17:58Z</time>
      </trkpt>
      <trkpt lat="45.93831" lon="4.7721">
        <ele>170</ele>
        <time>2018-01-28T10:18:02Z</time>
      </trkpt>
      <trkpt lat="45.93833" lon="4.77211">
        <ele>170</ele>
        <time>2018-01-28T10:18:03Z</time>
      </trkpt>
      <trkpt lat="45.9384" lon="4.77217">
        <ele>168</ele>
        <time>2018-01-28T10:18:08Z</time>
      </trkpt>
      <trkpt lat="45.93842" lon="4.77218">
        <ele>168</ele>
        <time>2018-01-28T10:18:09Z</time>
      </trkpt>
      <trkpt lat="45.9385" lon="4.77222">
        <ele>168</ele>
        <time>2018-01-28T10:18:13Z</time>
      </trkpt>
      <trkpt lat="45.93853" lon="4.77222">
        <ele>168</ele>
        <time>2018-01-28T10:18:14Z</time>
      </trkpt>
      <trkpt lat="45.93861" lon="4.77223">
        <ele>168</ele>
        <time>2018-01-28T10:18:18Z</time>
      </trkpt>
      <trkpt lat="45.93864" lon="4.77223">
        <ele>168</ele>
        <time>2018-01-28T10:18:19Z</time>
      </trkpt>
      <trkpt lat="45.9387" lon="4.77225">
        <ele>168</ele>
        <time>2018-01-28T10:18:22Z</time>
      </trkpt>
      <trkpt lat="45.93872" lon="4.77226">
        <ele>168</ele>
        <time>2018-01-28T10:18:23Z</time>
      </trkpt>
      <trkpt lat="45.93881" lon="4.77228">
        <ele>168</ele>
        <time>2018-01-28T10:18:26Z</time>
      </trkpt>
      <trkpt lat="45.93883" lon="4.77229">
        <ele>168</ele>
        <time>2018-01-28T10:18:27Z</time>
      </trkpt>
      <trkpt lat="45.9389" lon="4.7723">
        <ele>167</ele>
        <time>2018-01-28T10:18:29Z</time>
      </trkpt>
      <trkpt lat="45.93893" lon="4.77231">
        <ele>167</ele>
        <time>2018-01-28T10:18:30Z</time>
      </trkpt>
      <trkpt lat="45.93899" lon="4.77231">
        <ele>167</ele>
        <time>2018-01-28T10:18:32Z</time>
      </trkpt>
      <trkpt lat="45.93902" lon="4.77232">
        <ele>167</ele>
        <time>2018-01-28T10:18:33Z</time>
      </trkpt>
      <trkpt lat="45.93908" lon="4.77233">
        <ele>167</ele>
        <time>2018-01-28T10:18:35Z</time>
      </trkpt>
      <trkpt lat="45.93911" lon="4.77233">
        <ele>167</ele>
        <time>2018-01-28T10:18:36Z</time>
      </trkpt>
      <trkpt lat="45.93918" lon="4.77235">
        <ele>167</ele>
        <time>2018-01-28T10:18:38Z</time>
      </trkpt>
      <trkpt lat="45.93921" lon="4.77236">
        <ele>167</ele>
        <time>2018-01-28T10:18:39Z</time>
      </trkpt>
      <trkpt lat="45.93927" lon="4.77238">
        <ele>167</ele>
        <time>2018-01-28T10:18:41Z</time>
      </trkpt>
      <trkpt lat="45.9393" lon="4.77239">
        <ele>167</ele>
        <time>2018-01-28T10:18:42Z</time>
      </trkpt>
      <trkpt lat="45.93939" lon="4.77241">
        <ele>168</ele>
        <time>2018-01-28T10:18:45Z</time>
      </trkpt>
      <trkpt lat="45.93942" lon="4.77242">
        <ele>168</ele>
        <time>2018-01-28T10:18:46Z</time>
      </trkpt>
      <trkpt lat="45.93948" lon="4.77244">
        <ele>168</ele>
        <time>2018-01-28T10:18:48Z</time>
      </trkpt>
      <trkpt lat="45.93951" lon="4.77246">
        <ele>168</ele>
        <time>2018-01-28T10:18:49Z</time>
      </trkpt>
      <trkpt lat="45.93958" lon="4.77247">
        <ele>168</ele>
        <time>2018-01-28T10:18:51Z</time>
      </trkpt>
      <trkpt lat="45.93961" lon="4.77247">
        <ele>168</ele>
        <time>2018-01-28T10:18:52Z</time>
      </trkpt>
      <trkpt lat="45.9397" lon="4.77249">
        <ele>169</ele>
        <time>2018-01-28T10:18:55Z</time>
      </trkpt>
      <trkpt lat="45.93973" lon="4.7725">
        <ele>169</ele>
        <time>2018-01-28T10:18:56Z</time>
      </trkpt>
      <trkpt lat="45.93981" lon="4.77251">
        <ele>169</ele>
        <time>2018-01-28T10:18:58Z</time>
      </trkpt>
      <trkpt lat="45.93985" lon="4.77251">
        <ele>169</ele>
        <time>2018-01-28T10:18:59Z</time>
      </trkpt>
      <trkpt lat="45.93993" lon="4.77253">
        <ele>170</ele>
        <time>2018-01-28T10:19:01Z</time>
      </trkpt>
      <trkpt lat="45.93997" lon="4.77254">
        <ele>170</ele>
        <time>2018-01-28T10:19:02Z</time>
      </trkpt>
      <trkpt lat="45.94003" lon="4.77256">
        <ele>172</ele>
        <time>2018-01-28T10:19:04Z</time>
      </trkpt>
      <trkpt lat="45.94006" lon="4.77256">
        <ele>172</ele>
        <time>2018-01-28T10:19:05Z</time>
      </trkpt>
      <trkpt lat="45.94014" lon="4.77252">
        <ele>173</ele>
        <time>2018-01-28T10:19:09Z</time>
      </trkpt>
      <trkpt lat="45.94014" lon="4.77248">
        <ele>172</ele>
        <time>2018-01-28T10:19:10Z</time>
      </trkpt>
      <trkpt lat="45.94015" lon="4.77238">
        <ele>173</ele>
        <time>2018-01-28T10:19:12Z</time>
      </trkpt>
      <trkpt lat="45.94016" lon="4.77233">
        <ele>173</ele>
        <time>2018-01-28T10:19:13Z</time>
      </trkpt>
      <trkpt lat="45.94017" lon="4.77222">
        <ele>174</ele>
        <time>2018-01-28T10:19:17Z</time>
      </trkpt>
      <trkpt lat="45.94017" lon="4.77219">
        <ele>174</ele>
        <time>2018-01-28T10:19:18Z</time>
      </trkpt>
      <trkpt lat="45.94017" lon="4.77206">
        <ele>174</ele>
        <time>2018-01-28T10:19:23Z</time>
      </trkpt>
      <trkpt lat="45.94017" lon="4.77205">
        <ele>174</ele>
        <time>2018-01-28T10:19:24Z</time>
      </trkpt>
      <trkpt lat="45.94017" lon="4.77205">
        <ele>174</ele>
        <time>2018-01-28T10:20:43Z</time>
      </trkpt>
      <trkpt lat="45.94017" lon="4.77204">
        <ele>174</ele>
        <time>2018-01-28T10:20:44Z</time>
      </trkpt>
      <trkpt lat="45.94015" lon="4.77203">
        <ele>174</ele>
        <time>2018-01-28T10:20:48Z</time>
      </trkpt>
      <trkpt lat="45.94015" lon="4.77203">
        <ele>174</ele>
        <time>2018-01-28T10:20:49Z</time>
      </trkpt>
      <trkpt lat="45.94016" lon="4.77194">
        <ele>174</ele>
        <time>2018-01-28T10:20:55Z</time>
      </trkpt>
      <trkpt lat="45.94017" lon="4.7719">
        <ele>174</ele>
        <time>2018-01-28T10:20:56Z</time>
      </trkpt>
      <trkpt lat="45.94018" lon="4.7718">
        <ele>174</ele>
        <time>2018-01-28T10:20:59Z</time>
      </trkpt>
      <trkpt lat="45.94018" lon="4.77176">
        <ele>174</ele>
        <time>2018-01-28T10:21:00Z</time>
      </trkpt>
      <trkpt lat="45.94019" lon="4.77168">
        <ele>174</ele>
        <time>2018-01-28T10:21:02Z</time>
      </trkpt>
      <trkpt lat="45.9402" lon="4.77164">
        <ele>174</ele>
        <time>2018-01-28T10:21:03Z</time>
      </trkpt>
      <trkpt lat="45.94022" lon="4.77151">
        <ele>174</ele>
        <time>2018-01-28T10:21:06Z</time>
      </trkpt>
      <trkpt lat="45.94023" lon="4.77146">
        <ele>174</ele>
        <time>2018-01-28T10:21:07Z</time>
      </trkpt>
      <trkpt lat="45.94024" lon="4.77137">
        <ele>174</ele>
        <time>2018-01-28T10:21:09Z</time>
      </trkpt>
      <trkpt lat="45.94025" lon="4.77132">
        <ele>174</ele>
        <time>2018-01-28T10:21:10Z</time>
      </trkpt>
      <trkpt lat="45.94026" lon="4.7712">
        <ele>174</ele>
        <time>2018-01-28T10:21:12Z</time>
      </trkpt>
      <trkpt lat="45.94027" lon="4.77114">
        <ele>174</ele>
        <time>2018-01-28T10:21:13Z</time>
      </trkpt>
      <trkpt lat="45.94028" lon="4.77103">
        <ele>174</ele>
        <time>2018-01-28T10:21:15Z</time>
      </trkpt>
      <trkpt lat="45.94029" lon="4.77097">
        <ele>174</ele>
        <time>2018-01-28T10:21:16Z</time>
      </trkpt>
      <trkpt lat="45.9403" lon="4.77087">
        <ele>174</ele>
        <time>2018-01-28T10:21:18Z</time>
      </trkpt>
      <trkpt lat="45.94031" lon="4.77083">
        <ele>174</ele>
        <time>2018-01-28T10:21:19Z</time>
      </trkpt>
      <trkpt lat="45.94032" lon="4.77074">
        <ele>174</ele>
        <time>2018-01-28T10:21:21Z</time>
      </trkpt>
      <trkpt lat="45.94032" lon="4.7707">
        <ele>174</ele>
        <time>2018-01-28T10:21:22Z</time>
      </trkpt>
      <trkpt lat="45.94025" lon="4.77067">
        <ele>174</ele>
        <time>2018-01-28T10:21:43Z</time>
      </trkpt>
      <trkpt lat="45.94023" lon="4.77067">
        <ele>174</ele>
        <time>2018-01-28T10:21:44Z</time>
      </trkpt>
      <trkpt lat="45.94016" lon="4.7706">
        <ele>173</ele>
        <time>2018-01-28T10:22:06Z</time>
      </trkpt>
      <trkpt lat="45.94015" lon="4.7706">
        <ele>173</ele>
        <time>2018-01-28T10:22:07Z</time>
      </trkpt>
      <trkpt lat="45.94014" lon="4.77052">
        <ele>173</ele>
        <time>2018-01-28T10:22:20Z</time>
      </trkpt>
      <trkpt lat="45.94014" lon="4.77052">
        <ele>173</ele>
        <time>2018-01-28T10:22:21Z</time>
      </trkpt>
      <trkpt lat="45.94011" lon="4.77046">
        <ele>173</ele>
        <time>2018-01-28T10:22:59Z</time>
      </trkpt>
      <trkpt lat="45.94011" lon="4.77046">
        <ele>173</ele>
        <time>2018-01-28T10:23:00Z</time>
      </trkpt>
      <trkpt lat="45.94013" lon="4.77034">
        <ele>173</ele>
        <time>2018-01-28T10:23:12Z</time>
      </trkpt>
      <trkpt lat="45.94014" lon="4.77033">
        <ele>173</ele>
        <time>2018-01-28T10:23:13Z</time>
      </trkpt>
      <trkpt lat="45.94017" lon="4.77021">
        <ele>173</ele>
        <time>2018-01-28T10:23:22Z</time>
      </trkpt>
      <trkpt lat="45.94017" lon="4.77019">
        <ele>173</ele>
        <time>2018-01-28T10:23:23Z</time>
      </trkpt>
      <trkpt lat="45.94016" lon="4.77007">
        <ele>173</ele>
        <time>2018-01-28T10:23:30Z</time>
      </trkpt>
      <trkpt lat="45.94015" lon="4.77005">
        <ele>173</ele>
        <time>2018-01-28T10:23:31Z</time>
      </trkpt>
      <trkpt lat="45.94012" lon="4.76996">
        <ele>172</ele>
        <time>2018-01-28T10:23:43Z</time>
      </trkpt>
      <trkpt lat="45.94011" lon="4.76994">
        <ele>172</ele>
        <time>2018-01-28T10:23:44Z</time>
      </trkpt>
      <trkpt lat="45.94006" lon="4.76984">
        <ele>172</ele>
        <time>2018-01-28T10:23:53Z</time>
      </trkpt>
      <trkpt lat="45.94005" lon="4.76983">
        <ele>172</ele>
        <time>2018-01-28T10:23:54Z</time>
      </trkpt>
      <trkpt lat="45.93996" lon="4.76981">
        <ele>171</ele>
        <time>2018-01-28T10:24:01Z</time>
      </trkpt>
      <trkpt lat="45.93995" lon="4.76981">
        <ele>171</ele>
        <time>2018-01-28T10:24:02Z</time>
      </trkpt>
      <trkpt lat="45.93988" lon="4.76974">
        <ele>170</ele>
        <time>2018-01-28T10:24:28Z</time>
      </trkpt>
      <trkpt lat="45.93987" lon="4.76973">
        <ele>170</ele>
        <time>2018-01-28T10:24:29Z</time>
      </trkpt>
      <trkpt lat="45.9399" lon="4.76985">
        <ele>171</ele>
        <time>2018-01-28T10:25:31Z</time>
      </trkpt>
      <trkpt lat="45.9399" lon="4.76985">
        <ele>171</ele>
        <time>2018-01-28T10:25:32Z</time>
      </trkpt>
      <trkpt lat="45.93999" lon="4.76989">
        <ele>171</ele>
        <time>2018-01-28T10:25:44Z</time>
      </trkpt>
      <trkpt lat="45.94" lon="4.76989">
        <ele>171</ele>
        <time>2018-01-28T10:25:45Z</time>
      </trkpt>
      <trkpt lat="45.94003" lon="4.76977">
        <ele>173</ele>
        <time>2018-01-28T10:26:06Z</time>
      </trkpt>
      <trkpt lat="45.94004" lon="4.76976">
        <ele>173</ele>
        <time>2018-01-28T10:26:07Z</time>
      </trkpt>
      <trkpt lat="45.94" lon="4.76966">
        <ele>173</ele>
        <time>2018-01-28T10:26:19Z</time>
      </trkpt>
      <trkpt lat="45.94" lon="4.76964">
        <ele>171</ele>
        <time>2018-01-28T10:26:20Z</time>
      </trkpt>
      <trkpt lat="45.93994" lon="4.76956">
        <ele>171</ele>
        <time>2018-01-28T10:26:23Z</time>
      </trkpt>
      <trkpt lat="45.93993" lon="4.76953">
        <ele>171</ele>
        <time>2018-01-28T10:26:24Z</time>
      </trkpt>
      <trkpt lat="45.93989" lon="4.76946">
        <ele>171</ele>
        <time>2018-01-28T10:26:27Z</time>
      </trkpt>
      <trkpt lat="45.93987" lon="4.76943">
        <ele>171</ele>
        <time>2018-01-28T10:26:28Z</time>
      </trkpt>
      <trkpt lat="45.93981" lon="4.76936">
        <ele>171</ele>
        <time>2018-01-28T10:26:31Z</time>
      </trkpt>
      <trkpt lat="45.93979" lon="4.76934">
        <ele>171</ele>
        <time>2018-01-28T10:26:32Z</time>
      </trkpt>
      <trkpt lat="45.93973" lon="4.76926">
        <ele>171</ele>
        <time>2018-01-28T10:26:36Z</time>
      </trkpt>
      <trkpt lat="45.93971" lon="4.76924">
        <ele>171</ele>
        <time>2018-01-28T10:26:37Z</time>
      </trkpt>
      <trkpt lat="45.93966" lon="4.76917">
        <ele>171</ele>
        <time>2018-01-28T10:26:40Z</time>
      </trkpt>
      <trkpt lat="45.93965" lon="4.76914">
        <ele>172</ele>
        <time>2018-01-28T10:26:41Z</time>
      </trkpt>
      <trkpt lat="45.9396" lon="4.76905">
        <ele>172</ele>
        <time>2018-01-28T10:26:45Z</time>
      </trkpt>
      <trkpt lat="45.93959" lon="4.76903">
        <ele>172</ele>
        <time>2018-01-28T10:26:46Z</time>
      </trkpt>
      <trkpt lat="45.93954" lon="4.76892">
        <ele>172</ele>
        <time>2018-01-28T10:26:51Z</time>
      </trkpt>
      <trkpt lat="45.93953" lon="4.76891">
        <ele>172</ele>
        <time>2018-01-28T10:26:52Z</time>
      </trkpt>
      <trkpt lat="45.93946" lon="4.76885">
        <ele>172</ele>
        <time>2018-01-28T10:26:56Z</time>
      </trkpt>
      <trkpt lat="45.93945" lon="4.76884">
        <ele>172</ele>
        <time>2018-01-28T10:26:57Z</time>
      </trkpt>
      <trkpt lat="45.93948" lon="4.76893">
        <ele>172</ele>
        <time>2018-01-28T10:28:09Z</time>
      </trkpt>
      <trkpt lat="45.93949" lon="4.76896">
        <ele>172</ele>
        <time>2018-01-28T10:28:10Z</time>
      </trkpt>
      <trkpt lat="45.93955" lon="4.76905">
        <ele>172</ele>
        <time>2018-01-28T10:28:19Z</time>
      </trkpt>
      <trkpt lat="45.93955" lon="4.76906">
        <ele>172</ele>
        <time>2018-01-28T10:28:20Z</time>
      </trkpt>
      <trkpt lat="45.93962" lon="4.76913">
        <ele>172</ele>
        <time>2018-01-28T10:29:27Z</time>
      </trkpt>
      <trkpt lat="45.93964" lon="4.76915">
        <ele>172</ele>
        <time>2018-01-28T10:29:28Z</time>
      </trkpt>
      <trkpt lat="45.93968" lon="4.76923">
        <ele>171</ele>
        <time>2018-01-28T10:29:31Z</time>
      </trkpt>
      <trkpt lat="45.9397" lon="4.76926">
        <ele>171</ele>
        <time>2018-01-28T10:29:32Z</time>
      </trkpt>
      <trkpt lat="45.93975" lon="4.76934">
        <ele>171</ele>
        <time>2018-01-28T10:29:35Z</time>
      </trkpt>
      <trkpt lat="45.93976" lon="4.76936">
        <ele>171</ele>
        <time>2018-01-28T10:29:36Z</time>
      </trkpt>
      <trkpt lat="45.93982" lon="4.76943">
        <ele>171</ele>
        <time>2018-01-28T10:29:39Z</time>
      </trkpt>
      <trkpt lat="45.93984" lon="4.76945">
        <ele>171</ele>
        <time>2018-01-28T10:29:40Z</time>
      </trkpt>
      <trkpt lat="45.93991" lon="4.76952">
        <ele>171</ele>
        <time>2018-01-28T10:29:43Z</time>
      </trkpt>
      <trkpt lat="45.93993" lon="4.76954">
        <ele>171</ele>
        <time>2018-01-28T10:29:44Z</time>
      </trkpt>
      <trkpt lat="45.94" lon="4.76961">
        <ele>171</ele>
        <time>2018-01-28T10:29:47Z</time>
      </trkpt>
      <trkpt lat="45.94002" lon="4.76963">
        <ele>173</ele>
        <time>2018-01-28T10:29:48Z</time>
      </trkpt>
      <trkpt lat="45.94008" lon="4.7697">
        <ele>173</ele>
        <time>2018-01-28T10:29:52Z</time>
      </trkpt>
      <trkpt lat="45.9401" lon="4.76971">
        <ele>173</ele>
        <time>2018-01-28T10:29:53Z</time>
      </trkpt>
      <trkpt lat="45.94018" lon="4.76972">
        <ele>173</ele>
        <time>2018-01-28T10:29:59Z</time>
      </trkpt>
      <trkpt lat="45.94019" lon="4.76973">
        <ele>173</ele>
        <time>2018-01-28T10:30:00Z</time>
      </trkpt>
      <trkpt lat="45.94026" lon="4.7698">
        <ele>173</ele>
        <time>2018-01-28T10:30:06Z</time>
      </trkpt>
      <trkpt lat="45.94027" lon="4.76981">
        <ele>173</ele>
        <time>2018-01-28T10:30:07Z</time>
      </trkpt>
      <trkpt lat="45.94035" lon="4.76983">
        <ele>174</ele>
        <time>2018-01-28T10:30:11Z</time>
      </trkpt>
      <trkpt lat="45.94037" lon="4.76983">
        <ele>174</ele>
        <time>2018-01-28T10:30:12Z</time>
      </trkpt>
      <trkpt lat="45.9404" lon="4.76973">
        <ele>174</ele>
        <time>2018-01-28T10:30:15Z</time>
      </trkpt>
      <trkpt lat="45.9404" lon="4.7697">
        <ele>174</ele>
        <time>2018-01-28T10:30:16Z</time>
      </trkpt>
      <trkpt lat="45.94042" lon="4.76961">
        <ele>174</ele>
        <time>2018-01-28T10:30:18Z</time>
      </trkpt>
      <trkpt lat="45.94042" lon="4.76956">
        <ele>174</ele>
        <time>2018-01-28T10:30:19Z</time>
      </trkpt>
      <trkpt lat="45.94041" lon="4.76947">
        <ele>174</ele>
        <time>2018-01-28T10:30:21Z</time>
      </trkpt>
      <trkpt lat="45.9404" lon="4.76942">
        <ele>174</ele>
        <time>2018-01-28T10:30:22Z</time>
      </trkpt>
      <trkpt lat="45.94038" lon="4.76931">
        <ele>174</ele>
        <time>2018-01-28T10:30:24Z</time>
      </trkpt>
      <trkpt lat="45.94037" lon="4.76925">
        <ele>174</ele>
        <time>2018-01-28T10:30:25Z</time>
      </trkpt>
      <trkpt lat="45.94036" lon="4.76915">
        <ele>173</ele>
        <time>2018-01-28T10:30:27Z</time>
      </trkpt>
      <trkpt lat="45.94035" lon="4.7691">
        <ele>173</ele>
        <time>2018-01-28T10:30:28Z</time>
      </trkpt>
      <trkpt lat="45.94033" lon="4.76901">
        <ele>173</ele>
        <time>2018-01-28T10:30:30Z</time>
      </trkpt>
      <trkpt lat="45.94032" lon="4.76897">
        <ele>173</ele>
        <time>2018-01-28T10:30:31Z</time>
      </trkpt>
      <trkpt lat="45.94029" lon="4.76887">
        <ele>173</ele>
        <time>2018-01-28T10:30:33Z</time>
      </trkpt>
      <trkpt lat="45.94027" lon="4.76882">
        <ele>173</ele>
        <time>2018-01-28T10:30:34Z</time>
      </trkpt>
      <trkpt lat="45.94022" lon="4.76873">
        <ele>173</ele>
        <time>2018-01-28T10:30:36Z</time>
      </trkpt>
      <trkpt lat="45.9402" lon="4.76868">
        <ele>173</ele>
        <time>2018-01-28T10:30:37Z</time>
      </trkpt>
      <trkpt lat="45.94014" lon="4.76859">
        <ele>172</ele>
        <time>2018-01-28T10:30:39Z</time>
      </trkpt>
      <trkpt lat="45.94012" lon="4.76854">
        <ele>172</ele>
        <time>2018-01-28T10:30:40Z</time>
      </trkpt>
      <trkpt lat="45.94008" lon="4.76845">
        <ele>172</ele>
        <time>2018-01-28T10:30:42Z</time>
      </trkpt>
      <trkpt lat="45.94006" lon="4.7684">
        <ele>172</ele>
        <time>2018-01-28T10:30:43Z</time>
      </trkpt>
      <trkpt lat="45.94003" lon="4.76829">
        <ele>171</ele>
        <time>2018-01-28T10:30:45Z</time>
      </trkpt>
      <trkpt lat="45.94001" lon="4.76823">
        <ele>172</ele>
        <time>2018-01-28T10:30:46Z</time>
      </trkpt>
      <trkpt lat="45.94" lon="4.76816">
        <ele>172</ele>
        <time>2018-01-28T10:30:47Z</time>
      </trkpt>
      <trkpt lat="45.93999" lon="4.76809">
        <ele>172</ele>
        <time>2018-01-28T10:30:48Z</time>
      </trkpt>
      <trkpt lat="45.93998" lon="4.76797">
        <ele>172</ele>
        <time>2018-01-28T10:30:50Z</time>
      </trkpt>
      <trkpt lat="45.93998" lon="4.76791">
        <ele>172</ele>
        <time>2018-01-28T10:30:51Z</time>
      </trkpt>
      <trkpt lat="45.94" lon="4.7678">
        <ele>172</ele>
        <time>2018-01-28T10:30:53Z</time>
      </trkpt>
      <trkpt lat="45.94" lon="4.76775">
        <ele>172</ele>
        <time>2018-01-28T10:30:54Z</time>
      </trkpt>
      <trkpt lat="45.94001" lon="4.76764">
        <ele>173</ele>
        <time>2018-01-28T10:30:56Z</time>
      </trkpt>
      <trkpt lat="45.94002" lon="4.76761">
        <ele>173</ele>
        <time>2018-01-28T10:30:57Z</time>
      </trkpt>
      <trkpt lat="45.94004" lon="4.7675">
        <ele>173</ele>
        <time>2018-01-28T10:30:59Z</time>
      </trkpt>
      <trkpt lat="45.94005" lon="4.76743">
        <ele>173</ele>
        <time>2018-01-28T10:31:00Z</time>
      </trkpt>
      <trkpt lat="45.94008" lon="4.76732">
        <ele>173</ele>
        <time>2018-01-28T10:31:02Z</time>
      </trkpt>
      <trkpt lat="45.9401" lon="4.76727">
        <ele>173</ele>
        <time>2018-01-28T10:31:03Z</time>
      </trkpt>
      <trkpt lat="45.94013" lon="4.76718">
        <ele>173</ele>
        <time>2018-01-28T10:31:05Z</time>
      </trkpt>
      <trkpt lat="45.94014" lon="4.76714">
        <ele>173</ele>
        <time>2018-01-28T10:31:06Z</time>
      </trkpt>
      <trkpt lat="45.94018" lon="4.76704">
        <ele>173</ele>
        <time>2018-01-28T10:31:09Z</time>
      </trkpt>
      <trkpt lat="45.94019" lon="4.76701">
        <ele>173</ele>
        <time>2018-01-28T10:31:10Z</time>
      </trkpt>
      <trkpt lat="45.94023" lon="4.76694">
        <ele>173</ele>
        <time>2018-01-28T10:31:13Z</time>
      </trkpt>
      <trkpt lat="45.94024" lon="4.7669">
        <ele>173</ele>
        <time>2018-01-28T10:31:14Z</time>
      </trkpt>
      <trkpt lat="45.94024" lon="4.7668">
        <ele>173</ele>
        <time>2018-01-28T10:31:17Z</time>
      </trkpt>
      <trkpt lat="45.94023" lon="4.76677">
        <ele>173</ele>
        <time>2018-01-28T10:31:18Z</time>
      </trkpt>
      <trkpt lat="45.9402" lon="4.76668">
        <ele>173</ele>
        <time>2018-01-28T10:31:20Z</time>
      </trkpt>
      <trkpt lat="45.94019" lon="4.76663">
        <ele>172</ele>
        <time>2018-01-28T10:31:21Z</time>
      </trkpt>
      <trkpt lat="45.94017" lon="4.76652">
        <ele>172</ele>
        <time>2018-01-28T10:31:23Z</time>
      </trkpt>
      <trkpt lat="45.94016" lon="4.76646">
        <ele>172</ele>
        <time>2018-01-28T10:31:24Z</time>
      </trkpt>
      <trkpt lat="45.94014" lon="4.7664">
        <ele>172</ele>
        <time>2018-01-28T10:31:25Z</time>
      </trkpt>
      <trkpt lat="45.94013" lon="4.76634">
        <ele>172</ele>
        <time>2018-01-28T10:31:26Z</time>
      </trkpt>
      <trkpt lat="45.94011" lon="4.76627">
        <ele>172</ele>
        <time>2018-01-28T10:31:27Z</time>
      </trkpt>
      <trkpt lat="45.94009" lon="4.76621">
        <ele>172</ele>
        <time>2018-01-28T10:31:28Z</time>
      </trkpt>
      <trkpt lat="45.94005" lon="4.7661">
        <ele>172</ele>
        <time>2018-01-28T10:31:30Z</time>
      </trkpt>
      <trkpt lat="45.94004" lon="4.76605">
        <ele>172</ele>
        <time>2018-01-28T10:31:31Z</time>
      </trkpt>
      <trkpt lat="45.94" lon="4.76595">
        <ele>172</ele>
        <time>2018-01-28T10:31:33Z</time>
      </trkpt>
      <trkpt lat="45.93998" lon="4.7659">
        <ele>172</ele>
        <time>2018-01-28T10:31:34Z</time>
      </trkpt>
      <trkpt lat="45.93996" lon="4.7658">
        <ele>172</ele>
        <time>2018-01-28T10:31:36Z</time>
      </trkpt>
      <trkpt lat="45.93995" lon="4.76576">
        <ele>172</ele>
        <time>2018-01-28T10:31:37Z</time>
      </trkpt>
      <trkpt lat="45.93995" lon="4.76565">
        <ele>172</ele>
        <time>2018-01-28T10:31:40Z</time>
      </trkpt>
      <trkpt lat="45.93996" lon="4.76562">
        <ele>172</ele>
        <time>2018-01-28T10:31:41Z</time>
      </trkpt>
      <trkpt lat="45.94001" lon="4.76571">
        <ele>172</ele>
        <time>2018-01-28T10:32:47Z</time>
      </trkpt>
      <trkpt lat="45.94001" lon="4.76576">
        <ele>172</ele>
        <time>2018-01-28T10:32:48Z</time>
      </trkpt>
      <trkpt lat="45.94003" lon="4.76587">
        <ele>172</ele>
        <time>2018-01-28T10:32:51Z</time>
      </trkpt>
      <trkpt lat="45.94004" lon="4.7659">
        <ele>172</ele>
        <time>2018-01-28T10:32:52Z</time>
      </trkpt>
      <trkpt lat="45.94007" lon="4.76603">
        <ele>172</ele>
        <time>2018-01-28T10:32:57Z</time>
      </trkpt>
      <trkpt lat="45.94008" lon="4.76606">
        <ele>172</ele>
        <time>2018-01-28T10:32:58Z</time>
      </trkpt>
      <trkpt lat="45.94013" lon="4.76615">
        <ele>172</ele>
        <time>2018-01-28T10:33:01Z</time>
      </trkpt>
      <trkpt lat="45.94014" lon="4.76619">
        <ele>172</ele>
        <time>2018-01-28T10:33:02Z</time>
      </trkpt>
      <trkpt lat="45.94017" lon="4.76627">
        <ele>172</ele>
        <time>2018-01-28T10:33:04Z</time>
      </trkpt>
      <trkpt lat="45.94019" lon="4.76631">
        <ele>172</ele>
        <time>2018-01-28T10:33:05Z</time>
      </trkpt>
      <trkpt lat="45.94022" lon="4.76641">
        <ele>172</ele>
        <time>2018-01-28T10:33:07Z</time>
      </trkpt>
      <trkpt lat="45.94023" lon="4.76646">
        <ele>172</ele>
        <time>2018-01-28T10:33:08Z</time>
      </trkpt>
      <trkpt lat="45.94024" lon="4.76656">
        <ele>172</ele>
        <time>2018-01-28T10:33:10Z</time>
      </trkpt>
      <trkpt lat="45.94025" lon="4.76661">
        <ele>172</ele>
        <time>2018-01-28T10:33:11Z</time>
      </trkpt>
      <trkpt lat="45.94026" lon="4.76672">
        <ele>173</ele>
        <time>2018-01-28T10:33:14Z</time>
      </trkpt>
      <trkpt lat="45.94025" lon="4.76676">
        <ele>173</ele>
        <time>2018-01-28T10:33:15Z</time>
      </trkpt>
      <trkpt lat="45.94026" lon="4.76688">
        <ele>173</ele>
        <time>2018-01-28T10:33:19Z</time>
      </trkpt>
      <trkpt lat="45.94028" lon="4.7669">
        <ele>173</ele>
        <time>2018-01-28T10:33:20Z</time>
      </trkpt>
      <trkpt lat="45.94035" lon="4.76695">
        <ele>173</ele>
        <time>2018-01-28T10:33:24Z</time>
      </trkpt>
      <trkpt lat="45.94037" lon="4.76696">
        <ele>173</ele>
        <time>2018-01-28T10:33:25Z</time>
      </trkpt>
      <trkpt lat="45.94045" lon="4.76691">
        <ele>173</ele>
        <time>2018-01-28T10:33:29Z</time>
      </trkpt>
      <trkpt lat="45.94048" lon="4.7669">
        <ele>173</ele>
        <time>2018-01-28T10:33:30Z</time>
      </trkpt>
      <trkpt lat="45.94054" lon="4.76686">
        <ele>173</ele>
        <time>2018-01-28T10:33:33Z</time>
      </trkpt>
      <trkpt lat="45.94056" lon="4.76686">
        <ele>173</ele>
        <time>2018-01-28T10:33:34Z</time>
      </trkpt>
      <trkpt lat="45.94064" lon="4.76686">
        <ele>173</ele>
        <time>2018-01-28T10:33:37Z</time>
      </trkpt>
      <trkpt lat="45.94067" lon="4.76687">
        <ele>173</ele>
        <time>2018-01-28T10:33:38Z</time>
      </trkpt>
      <trkpt lat="45.94073" lon="4.7669">
        <ele>173</ele>
        <time>2018-01-28T10:33:41Z</time>
      </trkpt>
      <trkpt lat="45.94076" lon="4.7669">
        <ele>173</ele>
        <time>2018-01-28T10:33:42Z</time>
      </trkpt>
      <trkpt lat="45.94084" lon="4.76688">
        <ele>176</ele>
        <time>2018-01-28T10:33:44Z</time>
      </trkpt>
      <trkpt lat="45.94087" lon="4.76687">
        <ele>176</ele>
        <time>2018-01-28T10:33:45Z</time>
      </trkpt>
      <trkpt lat="45.94095" lon="4.76684">
        <ele>176</ele>
        <time>2018-01-28T10:33:49Z</time>
      </trkpt>
      <trkpt lat="45.94097" lon="4.76683">
        <ele>176</ele>
        <time>2018-01-28T10:33:50Z</time>
      </trkpt>
      <trkpt lat="45.94102" lon="4.76676">
        <ele>176</ele>
        <time>2018-01-28T10:33:52Z</time>
      </trkpt>
      <trkpt lat="45.94103" lon="4.7667">
        <ele>176</ele>
        <time>2018-01-28T10:33:53Z</time>
      </trkpt>
      <trkpt lat="45.94102" lon="4.76659">
        <ele>177</ele>
        <time>2018-01-28T10:33:55Z</time>
      </trkpt>
      <trkpt lat="45.94102" lon="4.76654">
        <ele>177</ele>
        <time>2018-01-28T10:33:56Z</time>
      </trkpt>
      <trkpt lat="45.94101" lon="4.76642">
        <ele>177</ele>
        <time>2018-01-28T10:33:58Z</time>
      </trkpt>
      <trkpt lat="45.941" lon="4.76636">
        <ele>178</ele>
        <time>2018-01-28T10:33:59Z</time>
      </trkpt>
      <trkpt lat="45.94099" lon="4.76623">
        <ele>178</ele>
        <time>2018-01-28T10:34:01Z</time>
      </trkpt>
      <trkpt lat="45.94099" lon="4.76617">
        <ele>178</ele>
        <time>2018-01-28T10:34:02Z</time>
      </trkpt>
      <trkpt lat="45.94098" lon="4.76605">
        <ele>177</ele>
        <time>2018-01-28T10:34:04Z</time>
      </trkpt>
      <trkpt lat="45.94098" lon="4.766">
        <ele>177</ele>
        <time>2018-01-28T10:34:05Z</time>
      </trkpt>
      <trkpt lat="45.94096" lon="4.76589">
        <ele>176</ele>
        <time>2018-01-28T10:34:07Z</time>
      </trkpt>
      <trkpt lat="45.94095" lon="4.76584">
        <ele>176</ele>
        <time>2018-01-28T10:34:08Z</time>
      </trkpt>
      <trkpt lat="45.94094" lon="4.76574">
        <ele>176</ele>
        <time>2018-01-28T10:34:10Z</time>
      </trkpt>
      <trkpt lat="45.94093" lon="4.76569">
        <ele>177</ele>
        <time>2018-01-28T10:34:11Z</time>
      </trkpt>
      <trkpt lat="45.94092" lon="4.76558">
        <ele>177</ele>
        <time>2018-01-28T10:34:13Z</time>
      </trkpt>
      <trkpt lat="45.94091" lon="4.76552">
        <ele>178</ele>
        <time>2018-01-28T10:34:14Z</time>
      </trkpt>
      <trkpt lat="45.9409" lon="4.76541">
        <ele>178</ele>
        <time>2018-01-28T10:34:16Z</time>
      </trkpt>
      <trkpt lat="45.94089" lon="4.76536">
        <ele>178</ele>
        <time>2018-01-28T10:34:17Z</time>
      </trkpt>
      <trkpt lat="45.94087" lon="4.76527">
        <ele>178</ele>
        <time>2018-01-28T10:34:19Z</time>
      </trkpt>
      <trkpt lat="45.94087" lon="4.76522">
        <ele>177</ele>
        <time>2018-01-28T10:34:20Z</time>
      </trkpt>
      <trkpt lat="45.94086" lon="4.76513">
        <ele>176</ele>
        <time>2018-01-28T10:34:22Z</time>
      </trkpt>
      <trkpt lat="45.94087" lon="4.76509">
        <ele>176</ele>
        <time>2018-01-28T10:34:23Z</time>
      </trkpt>
      <trkpt lat="45.94087" lon="4.76499">
        <ele>175</ele>
        <time>2018-01-28T10:34:25Z</time>
      </trkpt>
      <trkpt lat="45.94087" lon="4.76494">
        <ele>175</ele>
        <time>2018-01-28T10:34:26Z</time>
      </trkpt>
      <trkpt lat="45.94086" lon="4.76483">
        <ele>176</ele>
        <time>2018-01-28T10:34:28Z</time>
      </trkpt>
      <trkpt lat="45.94086" lon="4.76478">
        <ele>177</ele>
        <time>2018-01-28T10:34:29Z</time>
      </trkpt>
      <trkpt lat="45.94084" lon="4.76467">
        <ele>177</ele>
        <time>2018-01-28T10:34:31Z</time>
      </trkpt>
      <trkpt lat="45.94083" lon="4.76461">
        <ele>172</ele>
        <time>2018-01-28T10:34:32Z</time>
      </trkpt>
      <trkpt lat="45.94081" lon="4.7645">
        <ele>172</ele>
        <time>2018-01-28T10:34:34Z</time>
      </trkpt>
      <trkpt lat="45.9408" lon="4.76445">
        <ele>172</ele>
        <time>2018-01-28T10:34:35Z</time>
      </trkpt>
      <trkpt lat="45.94079" lon="4.76436">
        <ele>172</ele>
        <time>2018-01-28T10:34:37Z</time>
      </trkpt>
      <trkpt lat="45.94079" lon="4.7643">
        <ele>172</ele>
        <time>2018-01-28T10:34:38Z</time>
      </trkpt>
      <trkpt lat="45.94079" lon="4.76418">
        <ele>173</ele>
        <time>2018-01-28T10:34:40Z</time>
      </trkpt>
      <trkpt lat="45.94079" lon="4.76412">
        <ele>172</ele>
        <time>2018-01-28T10:34:41Z</time>
      </trkpt>
      <trkpt lat="45.9408" lon="4.76401">
        <ele>172</ele>
        <time>2018-01-28T10:34:43Z</time>
      </trkpt>
      <trkpt lat="45.9408" lon="4.76395">
        <ele>171</ele>
        <time>2018-01-28T10:34:44Z</time>
      </trkpt>
      <trkpt lat="45.9408" lon="4.76383">
        <ele>171</ele>
        <time>2018-01-28T10:34:46Z</time>
      </trkpt>
      <trkpt lat="45.9408" lon="4.76376">
        <ele>171</ele>
        <time>2018-01-28T10:34:47Z</time>
      </trkpt>
      <trkpt lat="45.94079" lon="4.76365">
        <ele>171</ele>
        <time>2018-01-28T10:34:49Z</time>
      </trkpt>
      <trkpt lat="45.94079" lon="4.76359">
        <ele>171</ele>
        <time>2018-01-28T10:34:50Z</time>
      </trkpt>
      <trkpt lat="45.94079" lon="4.76349">
        <ele>171</ele>
        <time>2018-01-28T10:34:52Z</time>
      </trkpt>
      <trkpt lat="45.94079" lon="4.76345">
        <ele>171</ele>
        <time>2018-01-28T10:34:53Z</time>
      </trkpt>
      <trkpt lat="45.94079" lon="4.76334">
        <ele>171</ele>
        <time>2018-01-28T10:34:56Z</time>
      </trkpt>
      <trkpt lat="45.94079" lon="4.76329">
        <ele>171</ele>
        <time>2018-01-28T10:34:57Z</time>
      </trkpt>
      <trkpt lat="45.94079" lon="4.76321">
        <ele>171</ele>
        <time>2018-01-28T10:34:59Z</time>
      </trkpt>
      <trkpt lat="45.94079" lon="4.76316">
        <ele>171</ele>
        <time>2018-01-28T10:35:00Z</time>
      </trkpt>
      <trkpt lat="45.94079" lon="4.76306">
        <ele>171</ele>
        <time>2018-01-28T10:35:02Z</time>
      </trkpt>
      <trkpt lat="45.94079" lon="4.76301">
        <ele>171</ele>
        <time>2018-01-28T10:35:03Z</time>
      </trkpt>
      <trkpt lat="45.9408" lon="4.76292">
        <ele>172</ele>
        <time>2018-01-28T10:35:05Z</time>
      </trkpt>
      <trkpt lat="45.94081" lon="4.76287">
        <ele>172</ele>
        <time>2018-01-28T10:35:06Z</time>
      </trkpt>
      <trkpt lat="45.94083" lon="4.76277">
        <ele>172</ele>
        <time>2018-01-28T10:35:08Z</time>
      </trkpt>
      <trkpt lat="45.94084" lon="4.76273">
        <ele>176</ele>
        <time>2018-01-28T10:35:09Z</time>
      </trkpt>
      <trkpt lat="45.9409" lon="4.76266">
        <ele>176</ele>
        <time>2018-01-28T10:35:11Z</time>
      </trkpt>
      <trkpt lat="45.94093" lon="4.76264">
        <ele>176</ele>
        <time>2018-01-28T10:35:12Z</time>
      </trkpt>
      <trkpt lat="45.941" lon="4.76262">
        <ele>176</ele>
        <time>2018-01-28T10:35:14Z</time>
      </trkpt>
      <trkpt lat="45.94103" lon="4.76262">
        <ele>176</ele>
        <time>2018-01-28T10:35:15Z</time>
      </trkpt>
      <trkpt lat="45.9411" lon="4.76259">
        <ele>177</ele>
        <time>2018-01-28T10:35:17Z</time>
      </trkpt>
      <trkpt lat="45.94113" lon="4.76258">
        <ele>177</ele>
        <time>2018-01-28T10:35:18Z</time>
      </trkpt>
      <trkpt lat="45.9412" lon="4.76258">
        <ele>177</ele>
        <time>2018-01-28T10:35:20Z</time>
      </trkpt>
      <trkpt lat="45.94123" lon="4.76258">
        <ele>177</ele>
        <time>2018-01-28T10:35:21Z</time>
      </trkpt>
      <trkpt lat="45.94129" lon="4.76258">
        <ele>178</ele>
        <time>2018-01-28T10:35:23Z</time>
      </trkpt>
      <trkpt lat="45.94132" lon="4.76259">
        <ele>178</ele>
        <time>2018-01-28T10:35:24Z</time>
      </trkpt>
      <trkpt lat="45.94139" lon="4.76259">
        <ele>178</ele>
        <time>2018-01-28T10:35:26Z</time>
      </trkpt>
      <trkpt lat="45.94143" lon="4.76258">
        <ele>178</ele>
        <time>2018-01-28T10:35:27Z</time>
      </trkpt>
      <trkpt lat="45.94149" lon="4.76258">
        <ele>179</ele>
        <time>2018-01-28T10:35:29Z</time>
      </trkpt>
      <trkpt lat="45.94152" lon="4.76259">
        <ele>179</ele>
        <time>2018-01-28T10:35:30Z</time>
      </trkpt>
      <trkpt lat="45.94159" lon="4.76261">
        <ele>179</ele>
        <time>2018-01-28T10:35:32Z</time>
      </trkpt>
      <trkpt lat="45.94162" lon="4.76261">
        <ele>180</ele>
        <time>2018-01-28T10:35:33Z</time>
      </trkpt>
      <trkpt lat="45.94166" lon="4.7626">
        <ele>180</ele>
        <time>2018-01-28T10:35:34Z</time>
      </trkpt>
      <trkpt lat="45.9417" lon="4.7625">
        <ele>181</ele>
        <time>2018-01-28T10:35:35Z</time>
      </trkpt>
      <trkpt lat="45.94172" lon="4.76238">
        <ele>182</ele>
        <time>2018-01-28T10:35:37Z</time>
      </trkpt>
      <trkpt lat="45.94172" lon="4.76232">
        <ele>182</ele>
        <time>2018-01-28T10:35:38Z</time>
      </trkpt>
      <trkpt lat="45.94174" lon="4.76219">
        <ele>182</ele>
        <time>2018-01-28T10:35:40Z</time>
      </trkpt>
      <trkpt lat="45.94174" lon="4.76213">
        <ele>182</ele>
        <time>2018-01-28T10:35:41Z</time>
      </trkpt>
      <trkpt lat="45.94176" lon="4.76202">
        <ele>182</ele>
        <time>2018-01-28T10:35:43Z</time>
      </trkpt>
      <trkpt lat="45.94177" lon="4.76197">
        <ele>182</ele>
        <time>2018-01-28T10:35:44Z</time>
      </trkpt>
      <trkpt lat="45.94178" lon="4.7619">
        <ele>182</ele>
        <time>2018-01-28T10:35:45Z</time>
      </trkpt>
      <trkpt lat="45.9418" lon="4.76182">
        <ele>182</ele>
        <time>2018-01-28T10:35:46Z</time>
      </trkpt>
      <trkpt lat="45.9418" lon="4.7617">
        <ele>181</ele>
        <time>2018-01-28T10:35:48Z</time>
      </trkpt>
      <trkpt lat="45.94181" lon="4.76164">
        <ele>180</ele>
        <time>2018-01-28T10:35:49Z</time>
      </trkpt>
      <trkpt lat="45.94182" lon="4.76153">
        <ele>181</ele>
        <time>2018-01-28T10:35:51Z</time>
      </trkpt>
      <trkpt lat="45.94182" lon="4.76147">
        <ele>181</ele>
        <time>2018-01-28T10:35:52Z</time>
      </trkpt>
      <trkpt lat="45.94182" lon="4.76136">
        <ele>181</ele>
        <time>2018-01-28T10:35:54Z</time>
      </trkpt>
      <trkpt lat="45.94182" lon="4.7613">
        <ele>180</ele>
        <time>2018-01-28T10:35:55Z</time>
      </trkpt>
      <trkpt lat="45.94181" lon="4.76117">
        <ele>180</ele>
        <time>2018-01-28T10:35:57Z</time>
      </trkpt>
      <trkpt lat="45.94181" lon="4.7611">
        <ele>180</ele>
        <time>2018-01-28T10:35:58Z</time>
      </trkpt>
      <trkpt lat="45.94182" lon="4.76102">
        <ele>180</ele>
        <time>2018-01-28T10:35:59Z</time>
      </trkpt>
      <trkpt lat="45.94182" lon="4.76095">
        <ele>180</ele>
        <time>2018-01-28T10:36:00Z</time>
      </trkpt>
      <trkpt lat="45.94181" lon="4.76087">
        <ele>179</ele>
        <time>2018-01-28T10:36:01Z</time>
      </trkpt>
      <trkpt lat="45.94181" lon="4.7608">
        <ele>179</ele>
        <time>2018-01-28T10:36:02Z</time>
      </trkpt>
      <trkpt lat="45.9418" lon="4.76072">
        <ele>179</ele>
        <time>2018-01-28T10:36:03Z</time>
      </trkpt>
      <trkpt lat="45.94181" lon="4.76066">
        <ele>179</ele>
        <time>2018-01-28T10:36:04Z</time>
      </trkpt>
      <trkpt lat="45.94181" lon="4.76058">
        <ele>179</ele>
        <time>2018-01-28T10:36:05Z</time>
      </trkpt>
      <trkpt lat="45.94181" lon="4.76052">
        <ele>179</ele>
        <time>2018-01-28T10:36:06Z</time>
      </trkpt>
      <trkpt lat="45.94182" lon="4.76041">
        <ele>179</ele>
        <time>2018-01-28T10:36:08Z</time>
      </trkpt>
      <trkpt lat="45.94182" lon="4.76035">
        <ele>179</ele>
        <time>2018-01-28T10:36:09Z</time>
      </trkpt>
      <trkpt lat="45.94181" lon="4.76029">
        <ele>179</ele>
        <time>2018-01-28T10:36:10Z</time>
      </trkpt>
      <trkpt lat="45.94181" lon="4.76022">
        <ele>179</ele>
        <time>2018-01-28T10:36:11Z</time>
      </trkpt>
      <trkpt lat="45.94182" lon="4.76015">
        <ele>179</ele>
        <time>2018-01-28T10:36:12Z</time>
      </trkpt>
      <trkpt lat="45.9418" lon="4.76007">
        <ele>179</ele>
        <time>2018-01-28T10:36:13Z</time>
      </trkpt>
      <trkpt lat="45.9418" lon="4.76">
        <ele>178</ele>
        <time>2018-01-28T10:36:14Z</time>
      </trkpt>
      <trkpt lat="45.9418" lon="4.75993">
        <ele>178</ele>
        <time>2018-01-28T10:36:15Z</time>
      </trkpt>
      <trkpt lat="45.94179" lon="4.75986">
        <ele>178</ele>
        <time>2018-01-28T10:36:16Z</time>
      </trkpt>
      <trkpt lat="45.94178" lon="4.7598">
        <ele>178</ele>
        <time>2018-01-28T10:36:17Z</time>
      </trkpt>
      <trkpt lat="45.94177" lon="4.75973">
        <ele>177</ele>
        <time>2018-01-28T10:36:18Z</time>
      </trkpt>
      <trkpt lat="45.94177" lon="4.75967">
        <ele>177</ele>
        <time>2018-01-28T10:36:19Z</time>
      </trkpt>
      <trkpt lat="45.94178" lon="4.75954">
        <ele>177</ele>
        <time>2018-01-28T10:36:21Z</time>
      </trkpt>
      <trkpt lat="45.94176" lon="4.75947">
        <ele>177</ele>
        <time>2018-01-28T10:36:22Z</time>
      </trkpt>
      <trkpt lat="45.94177" lon="4.75936">
        <ele>176</ele>
        <time>2018-01-28T10:36:24Z</time>
      </trkpt>
      <trkpt lat="45.94177" lon="4.75931">
        <ele>176</ele>
        <time>2018-01-28T10:36:25Z</time>
      </trkpt>
      <trkpt lat="45.94177" lon="4.75918">
        <ele>176</ele>
        <time>2018-01-28T10:36:27Z</time>
      </trkpt>
      <trkpt lat="45.94176" lon="4.75911">
        <ele>175</ele>
        <time>2018-01-28T10:36:28Z</time>
      </trkpt>
      <trkpt lat="45.94176" lon="4.75899">
        <ele>175</ele>
        <time>2018-01-28T10:36:30Z</time>
      </trkpt>
      <trkpt lat="45.94175" lon="4.75893">
        <ele>175</ele>
        <time>2018-01-28T10:36:31Z</time>
      </trkpt>
      <trkpt lat="45.94175" lon="4.7588">
        <ele>175</ele>
        <time>2018-01-28T10:36:33Z</time>
      </trkpt>
      <trkpt lat="45.94175" lon="4.75874">
        <ele>175</ele>
        <time>2018-01-28T10:36:34Z</time>
      </trkpt>
      <trkpt lat="45.94173" lon="4.75862">
        <ele>175</ele>
        <time>2018-01-28T10:36:36Z</time>
      </trkpt>
      <trkpt lat="45.94173" lon="4.75857">
        <ele>174</ele>
        <time>2018-01-28T10:36:37Z</time>
      </trkpt>
      <trkpt lat="45.94173" lon="4.75844">
        <ele>174</ele>
        <time>2018-01-28T10:36:39Z</time>
      </trkpt>
      <trkpt lat="45.94172" lon="4.75838">
        <ele>174</ele>
        <time>2018-01-28T10:36:40Z</time>
      </trkpt>
      <trkpt lat="45.94171" lon="4.75831">
        <ele>174</ele>
        <time>2018-01-28T10:36:41Z</time>
      </trkpt>
      <trkpt lat="45.94171" lon="4.75824">
        <ele>174</ele>
        <time>2018-01-28T10:36:42Z</time>
      </trkpt>
      <trkpt lat="45.94172" lon="4.75816">
        <ele>174</ele>
        <time>2018-01-28T10:36:43Z</time>
      </trkpt>
      <trkpt lat="45.94171" lon="4.75809">
        <ele>174</ele>
        <time>2018-01-28T10:36:44Z</time>
      </trkpt>
      <trkpt lat="45.94171" lon="4.75797">
        <ele>174</ele>
        <time>2018-01-28T10:36:46Z</time>
      </trkpt>
      <trkpt lat="45.94171" lon="4.75791">
        <ele>174</ele>
        <time>2018-01-28T10:36:47Z</time>
      </trkpt>
      <trkpt lat="45.94171" lon="4.75779">
        <ele>174</ele>
        <time>2018-01-28T10:36:49Z</time>
      </trkpt>
      <trkpt lat="45.94171" lon="4.75774">
        <ele>174</ele>
        <time>2018-01-28T10:36:50Z</time>
      </trkpt>
      <trkpt lat="45.9417" lon="4.75761">
        <ele>174</ele>
        <time>2018-01-28T10:36:52Z</time>
      </trkpt>
      <trkpt lat="45.9417" lon="4.75755">
        <ele>174</ele>
        <time>2018-01-28T10:36:53Z</time>
      </trkpt>
      <trkpt lat="45.9417" lon="4.75749">
        <ele>174</ele>
        <time>2018-01-28T10:36:54Z</time>
      </trkpt>
      <trkpt lat="45.9417" lon="4.75742">
        <ele>174</ele>
        <time>2018-01-28T10:36:55Z</time>
      </trkpt>
      <trkpt lat="45.9417" lon="4.75735">
        <ele>174</ele>
        <time>2018-01-28T10:36:56Z</time>
      </trkpt>
      <trkpt lat="45.94169" lon="4.75727">
        <ele>173</ele>
        <time>2018-01-28T10:36:57Z</time>
      </trkpt>
      <trkpt lat="45.94169" lon="4.7572">
        <ele>173</ele>
        <time>2018-01-28T10:36:58Z</time>
      </trkpt>
      <trkpt lat="45.94168" lon="4.75713">
        <ele>173</ele>
        <time>2018-01-28T10:36:59Z</time>
      </trkpt>
      <trkpt lat="45.94167" lon="4.75701">
        <ele>173</ele>
        <time>2018-01-28T10:37:01Z</time>
      </trkpt>
      <trkpt lat="45.94167" lon="4.75696">
        <ele>173</ele>
        <time>2018-01-28T10:37:02Z</time>
      </trkpt>
      <trkpt lat="45.94168" lon="4.75686">
        <ele>173</ele>
        <time>2018-01-28T10:37:04Z</time>
      </trkpt>
      <trkpt lat="45.94168" lon="4.7568">
        <ele>173</ele>
        <time>2018-01-28T10:37:05Z</time>
      </trkpt>
      <trkpt lat="45.94168" lon="4.75674">
        <ele>173</ele>
        <time>2018-01-28T10:37:06Z</time>
      </trkpt>
      <trkpt lat="45.94169" lon="4.75667">
        <ele>173</ele>
        <time>2018-01-28T10:37:07Z</time>
      </trkpt>
      <trkpt lat="45.94169" lon="4.75655">
        <ele>173</ele>
        <time>2018-01-28T10:37:09Z</time>
      </trkpt>
      <trkpt lat="45.94169" lon="4.75649">
        <ele>173</ele>
        <time>2018-01-28T10:37:10Z</time>
      </trkpt>
      <trkpt lat="45.9417" lon="4.75638">
        <ele>173</ele>
        <time>2018-01-28T10:37:12Z</time>
      </trkpt>
      <trkpt lat="45.9417" lon="4.75632">
        <ele>173</ele>
        <time>2018-01-28T10:37:13Z</time>
      </trkpt>
      <trkpt lat="45.94171" lon="4.75625">
        <ele>173</ele>
        <time>2018-01-28T10:37:14Z</time>
      </trkpt>
      <trkpt lat="45.94171" lon="4.75619">
        <ele>173</ele>
        <time>2018-01-28T10:37:15Z</time>
      </trkpt>
      <trkpt lat="45.94172" lon="4.75606">
        <ele>173</ele>
        <time>2018-01-28T10:37:17Z</time>
      </trkpt>
      <trkpt lat="45.94172" lon="4.756">
        <ele>173</ele>
        <time>2018-01-28T10:37:18Z</time>
      </trkpt>
      <trkpt lat="45.94173" lon="4.75594">
        <ele>173</ele>
        <time>2018-01-28T10:37:19Z</time>
      </trkpt>
      <trkpt lat="45.94173" lon="4.75587">
        <ele>173</ele>
        <time>2018-01-28T10:37:20Z</time>
      </trkpt>
      <trkpt lat="45.94173" lon="4.7558">
        <ele>173</ele>
        <time>2018-01-28T10:37:21Z</time>
      </trkpt>
      <trkpt lat="45.94173" lon="4.75574">
        <ele>173</ele>
        <time>2018-01-28T10:37:22Z</time>
      </trkpt>
      <trkpt lat="45.94173" lon="4.75564">
        <ele>173</ele>
        <time>2018-01-28T10:37:24Z</time>
      </trkpt>
      <trkpt lat="45.94174" lon="4.75558">
        <ele>173</ele>
        <time>2018-01-28T10:37:25Z</time>
      </trkpt>
      <trkpt lat="45.94174" lon="4.75547">
        <ele>173</ele>
        <time>2018-01-28T10:37:27Z</time>
      </trkpt>
      <trkpt lat="45.94174" lon="4.75541">
        <ele>173</ele>
        <time>2018-01-28T10:37:28Z</time>
      </trkpt>
      <trkpt lat="45.94172" lon="4.7553">
        <ele>173</ele>
        <time>2018-01-28T10:37:30Z</time>
      </trkpt>
      <trkpt lat="45.94172" lon="4.75525">
        <ele>173</ele>
        <time>2018-01-28T10:37:31Z</time>
      </trkpt>
      <trkpt lat="45.94173" lon="4.75512">
        <ele>173</ele>
        <time>2018-01-28T10:37:33Z</time>
      </trkpt>
      <trkpt lat="45.94173" lon="4.75507">
        <ele>173</ele>
        <time>2018-01-28T10:37:34Z</time>
      </trkpt>
      <trkpt lat="45.94176" lon="4.75496">
        <ele>173</ele>
        <time>2018-01-28T10:37:36Z</time>
      </trkpt>
      <trkpt lat="45.94177" lon="4.7549">
        <ele>172</ele>
        <time>2018-01-28T10:37:37Z</time>
      </trkpt>
      <trkpt lat="45.9418" lon="4.75479">
        <ele>172</ele>
        <time>2018-01-28T10:37:39Z</time>
      </trkpt>
      <trkpt lat="45.94181" lon="4.75474">
        <ele>172</ele>
        <time>2018-01-28T10:37:40Z</time>
      </trkpt>
      <trkpt lat="45.94184" lon="4.75464">
        <ele>172</ele>
        <time>2018-01-28T10:37:42Z</time>
      </trkpt>
      <trkpt lat="45.94186" lon="4.75458">
        <ele>172</ele>
        <time>2018-01-28T10:37:43Z</time>
      </trkpt>
      <trkpt lat="45.94188" lon="4.75448">
        <ele>171</ele>
        <time>2018-01-28T10:37:45Z</time>
      </trkpt>
      <trkpt lat="45.94189" lon="4.75443">
        <ele>171</ele>
        <time>2018-01-28T10:37:46Z</time>
      </trkpt>
      <trkpt lat="45.94189" lon="4.75432">
        <ele>171</ele>
        <time>2018-01-28T10:37:48Z</time>
      </trkpt>
      <trkpt lat="45.94189" lon="4.75427">
        <ele>171</ele>
        <time>2018-01-28T10:37:49Z</time>
      </trkpt>
      <trkpt lat="45.94188" lon="4.75418">
        <ele>171</ele>
        <time>2018-01-28T10:37:51Z</time>
      </trkpt>
      <trkpt lat="45.94187" lon="4.75413">
        <ele>171</ele>
        <time>2018-01-28T10:37:52Z</time>
      </trkpt>
      <trkpt lat="45.94187" lon="4.75404">
        <ele>171</ele>
        <time>2018-01-28T10:37:54Z</time>
      </trkpt>
      <trkpt lat="45.94188" lon="4.75399">
        <ele>171</ele>
        <time>2018-01-28T10:37:55Z</time>
      </trkpt>
      <trkpt lat="45.9419" lon="4.75388">
        <ele>171</ele>
        <time>2018-01-28T10:37:57Z</time>
      </trkpt>
      <trkpt lat="45.94191" lon="4.75383">
        <ele>171</ele>
        <time>2018-01-28T10:37:58Z</time>
      </trkpt>
      <trkpt lat="45.94193" lon="4.7537">
        <ele>171</ele>
        <time>2018-01-28T10:38:00Z</time>
      </trkpt>
      <trkpt lat="45.94193" lon="4.75364">
        <ele>171</ele>
        <time>2018-01-28T10:38:01Z</time>
      </trkpt>
      <trkpt lat="45.94195" lon="4.75353">
        <ele>171</ele>
        <time>2018-01-28T10:38:03Z</time>
      </trkpt>
      <trkpt lat="45.94196" lon="4.75348">
        <ele>171</ele>
        <time>2018-01-28T10:38:04Z</time>
      </trkpt>
      <trkpt lat="45.94198" lon="4.75338">
        <ele>171</ele>
        <time>2018-01-28T10:38:06Z</time>
      </trkpt>
      <trkpt lat="45.94199" lon="4.75332">
        <ele>171</ele>
        <time>2018-01-28T10:38:07Z</time>
      </trkpt>
      <trkpt lat="45.94202" lon="4.75322">
        <ele>171</ele>
        <time>2018-01-28T10:38:09Z</time>
      </trkpt>
      <trkpt lat="45.94202" lon="4.75316">
        <ele>171</ele>
        <time>2018-01-28T10:38:10Z</time>
      </trkpt>
      <trkpt lat="45.94204" lon="4.75304">
        <ele>171</ele>
        <time>2018-01-28T10:38:12Z</time>
      </trkpt>
      <trkpt lat="45.94204" lon="4.75297">
        <ele>171</ele>
        <time>2018-01-28T10:38:13Z</time>
      </trkpt>
      <trkpt lat="45.94203" lon="4.7529">
        <ele>171</ele>
        <time>2018-01-28T10:38:14Z</time>
      </trkpt>
      <trkpt lat="45.94204" lon="4.75284">
        <ele>171</ele>
        <time>2018-01-28T10:38:15Z</time>
      </trkpt>
      <trkpt lat="45.94206" lon="4.75272">
        <ele>171</ele>
        <time>2018-01-28T10:38:17Z</time>
      </trkpt>
      <trkpt lat="45.94207" lon="4.75265">
        <ele>171</ele>
        <time>2018-01-28T10:38:18Z</time>
      </trkpt>
      <trkpt lat="45.94209" lon="4.75254">
        <ele>172</ele>
        <time>2018-01-28T10:38:20Z</time>
      </trkpt>
      <trkpt lat="45.9421" lon="4.75248">
        <ele>171</ele>
        <time>2018-01-28T10:38:21Z</time>
      </trkpt>
      <trkpt lat="45.94212" lon="4.75238">
        <ele>171</ele>
        <time>2018-01-28T10:38:23Z</time>
      </trkpt>
      <trkpt lat="45.94213" lon="4.75231">
        <ele>171</ele>
        <time>2018-01-28T10:38:24Z</time>
      </trkpt>
      <trkpt lat="45.94215" lon="4.75225">
        <ele>171</ele>
        <time>2018-01-28T10:38:25Z</time>
      </trkpt>
      <trkpt lat="45.94216" lon="4.75219">
        <ele>171</ele>
        <time>2018-01-28T10:38:26Z</time>
      </trkpt>
      <trkpt lat="45.94218" lon="4.75213">
        <ele>171</ele>
        <time>2018-01-28T10:38:27Z</time>
      </trkpt>
      <trkpt lat="45.94219" lon="4.75206">
        <ele>171</ele>
        <time>2018-01-28T10:38:28Z</time>
      </trkpt>
      <trkpt lat="45.94222" lon="4.75196">
        <ele>171</ele>
        <time>2018-01-28T10:38:30Z</time>
      </trkpt>
      <trkpt lat="45.94223" lon="4.7519">
        <ele>171</ele>
        <time>2018-01-28T10:38:31Z</time>
      </trkpt>
      <trkpt lat="45.94225" lon="4.75178">
        <ele>171</ele>
        <time>2018-01-28T10:38:33Z</time>
      </trkpt>
      <trkpt lat="45.94226" lon="4.75172">
        <ele>171</ele>
        <time>2018-01-28T10:38:34Z</time>
      </trkpt>
      <trkpt lat="45.94229" lon="4.7516">
        <ele>171</ele>
        <time>2018-01-28T10:38:36Z</time>
      </trkpt>
      <trkpt lat="45.9423" lon="4.75153">
        <ele>171</ele>
        <time>2018-01-28T10:38:37Z</time>
      </trkpt>
      <trkpt lat="45.94232" lon="4.75146">
        <ele>171</ele>
        <time>2018-01-28T10:38:38Z</time>
      </trkpt>
      <trkpt lat="45.94234" lon="4.7514">
        <ele>171</ele>
        <time>2018-01-28T10:38:39Z</time>
      </trkpt>
      <trkpt lat="45.94236" lon="4.75133">
        <ele>171</ele>
        <time>2018-01-28T10:38:40Z</time>
      </trkpt>
      <trkpt lat="45.94237" lon="4.75127">
        <ele>171</ele>
        <time>2018-01-28T10:38:41Z</time>
      </trkpt>
      <trkpt lat="45.9424" lon="4.7512">
        <ele>172</ele>
        <time>2018-01-28T10:38:42Z</time>
      </trkpt>
      <trkpt lat="45.94242" lon="4.75115">
        <ele>172</ele>
        <time>2018-01-28T10:38:43Z</time>
      </trkpt>
      <trkpt lat="45.94245" lon="4.75103">
        <ele>172</ele>
        <time>2018-01-28T10:38:45Z</time>
      </trkpt>
      <trkpt lat="45.94247" lon="4.75097">
        <ele>172</ele>
        <time>2018-01-28T10:38:46Z</time>
      </trkpt>
      <trkpt lat="45.94249" lon="4.75091">
        <ele>172</ele>
        <time>2018-01-28T10:38:47Z</time>
      </trkpt>
      <trkpt lat="45.94253" lon="4.75085">
        <ele>173</ele>
        <time>2018-01-28T10:38:48Z</time>
      </trkpt>
      <trkpt lat="45.94254" lon="4.75078">
        <ele>173</ele>
        <time>2018-01-28T10:38:49Z</time>
      </trkpt>
      <trkpt lat="45.94256" lon="4.75072">
        <ele>174</ele>
        <time>2018-01-28T10:38:50Z</time>
      </trkpt>
      <trkpt lat="45.94258" lon="4.75065">
        <ele>174</ele>
        <time>2018-01-28T10:38:51Z</time>
      </trkpt>
      <trkpt lat="45.94259" lon="4.75059">
        <ele>174</ele>
        <time>2018-01-28T10:38:52Z</time>
      </trkpt>
      <trkpt lat="45.94261" lon="4.75048">
        <ele>174</ele>
        <time>2018-01-28T10:38:54Z</time>
      </trkpt>
      <trkpt lat="45.94263" lon="4.75042">
        <ele>174</ele>
        <time>2018-01-28T10:38:55Z</time>
      </trkpt>
      <trkpt lat="45.94266" lon="4.75031">
        <ele>174</ele>
        <time>2018-01-28T10:38:57Z</time>
      </trkpt>
      <trkpt lat="45.94268" lon="4.75025">
        <ele>174</ele>
        <time>2018-01-28T10:38:58Z</time>
      </trkpt>
      <trkpt lat="45.9427" lon="4.75018">
        <ele>174</ele>
        <time>2018-01-28T10:38:59Z</time>
      </trkpt>
      <trkpt lat="45.94272" lon="4.75012">
        <ele>175</ele>
        <time>2018-01-28T10:39:00Z</time>
      </trkpt>
      <trkpt lat="45.94275" lon="4.75003">
        <ele>175</ele>
        <time>2018-01-28T10:39:01Z</time>
      </trkpt>
      <trkpt lat="45.94276" lon="4.74996">
        <ele>175</ele>
        <time>2018-01-28T10:39:02Z</time>
      </trkpt>
      <trkpt lat="45.94277" lon="4.74989">
        <ele>175</ele>
        <time>2018-01-28T10:39:03Z</time>
      </trkpt>
      <trkpt lat="45.9428" lon="4.74981">
        <ele>175</ele>
        <time>2018-01-28T10:39:04Z</time>
      </trkpt>
      <trkpt lat="45.94283" lon="4.74975">
        <ele>175</ele>
        <time>2018-01-28T10:39:05Z</time>
      </trkpt>
      <trkpt lat="45.94285" lon="4.74967">
        <ele>175</ele>
        <time>2018-01-28T10:39:06Z</time>
      </trkpt>
      <trkpt lat="45.94287" lon="4.7496">
        <ele>175</ele>
        <time>2018-01-28T10:39:07Z</time>
      </trkpt>
      <trkpt lat="45.94288" lon="4.74953">
        <ele>175</ele>
        <time>2018-01-28T10:39:08Z</time>
      </trkpt>
      <trkpt lat="45.94292" lon="4.74942">
        <ele>175</ele>
        <time>2018-01-28T10:39:10Z</time>
      </trkpt>
      <trkpt lat="45.94294" lon="4.74937">
        <ele>175</ele>
        <time>2018-01-28T10:39:11Z</time>
      </trkpt>
      <trkpt lat="45.94297" lon="4.74926">
        <ele>175</ele>
        <time>2018-01-28T10:39:13Z</time>
      </trkpt>
      <trkpt lat="45.94298" lon="4.74921">
        <ele>175</ele>
        <time>2018-01-28T10:39:14Z</time>
      </trkpt>
      <trkpt lat="45.94299" lon="4.74911">
        <ele>174</ele>
        <time>2018-01-28T10:39:16Z</time>
      </trkpt>
      <trkpt lat="45.943" lon="4.74906">
        <ele>174</ele>
        <time>2018-01-28T10:39:17Z</time>
      </trkpt>
      <trkpt lat="45.94302" lon="4.74895">
        <ele>174</ele>
        <time>2018-01-28T10:39:19Z</time>
      </trkpt>
      <trkpt lat="45.94304" lon="4.7489">
        <ele>174</ele>
        <time>2018-01-28T10:39:20Z</time>
      </trkpt>
      <trkpt lat="45.94307" lon="4.74879">
        <ele>174</ele>
        <time>2018-01-28T10:39:22Z</time>
      </trkpt>
      <trkpt lat="45.94308" lon="4.74873">
        <ele>174</ele>
        <time>2018-01-28T10:39:23Z</time>
      </trkpt>
      <trkpt lat="45.9431" lon="4.74866">
        <ele>174</ele>
        <time>2018-01-28T10:39:24Z</time>
      </trkpt>
      <trkpt lat="45.94313" lon="4.7486">
        <ele>174</ele>
        <time>2018-01-28T10:39:25Z</time>
      </trkpt>
      <trkpt lat="45.94316" lon="4.74849">
        <ele>174</ele>
        <time>2018-01-28T10:39:27Z</time>
      </trkpt>
      <trkpt lat="45.94316" lon="4.74843">
        <ele>174</ele>
        <time>2018-01-28T10:39:28Z</time>
      </trkpt>
      <trkpt lat="45.94319" lon="4.74831">
        <ele>173</ele>
        <time>2018-01-28T10:39:30Z</time>
      </trkpt>
      <trkpt lat="45.94321" lon="4.74826">
        <ele>173</ele>
        <time>2018-01-28T10:39:31Z</time>
      </trkpt>
      <trkpt lat="45.94324" lon="4.74816">
        <ele>172</ele>
        <time>2018-01-28T10:39:33Z</time>
      </trkpt>
      <trkpt lat="45.94325" lon="4.7481">
        <ele>172</ele>
        <time>2018-01-28T10:39:34Z</time>
      </trkpt>
      <trkpt lat="45.94329" lon="4.74799">
        <ele>172</ele>
        <time>2018-01-28T10:39:36Z</time>
      </trkpt>
      <trkpt lat="45.9433" lon="4.74792">
        <ele>172</ele>
        <time>2018-01-28T10:39:37Z</time>
      </trkpt>
      <trkpt lat="45.94333" lon="4.74786">
        <ele>172</ele>
        <time>2018-01-28T10:39:38Z</time>
      </trkpt>
      <trkpt lat="45.94334" lon="4.7478">
        <ele>173</ele>
        <time>2018-01-28T10:39:39Z</time>
      </trkpt>
      <trkpt lat="45.94334" lon="4.74773">
        <ele>173</ele>
        <time>2018-01-28T10:39:40Z</time>
      </trkpt>
      <trkpt lat="45.94335" lon="4.74767">
        <ele>173</ele>
        <time>2018-01-28T10:39:41Z</time>
      </trkpt>
      <trkpt lat="45.94336" lon="4.7476">
        <ele>172</ele>
        <time>2018-01-28T10:39:42Z</time>
      </trkpt>
      <trkpt lat="45.94338" lon="4.74753">
        <ele>172</ele>
        <time>2018-01-28T10:39:43Z</time>
      </trkpt>
      <trkpt lat="45.94339" lon="4.74746">
        <ele>171</ele>
        <time>2018-01-28T10:39:44Z</time>
      </trkpt>
      <trkpt lat="45.94341" lon="4.7474">
        <ele>171</ele>
        <time>2018-01-28T10:39:45Z</time>
      </trkpt>
      <trkpt lat="45.94342" lon="4.74728">
        <ele>171</ele>
        <time>2018-01-28T10:39:47Z</time>
      </trkpt>
      <trkpt lat="45.94343" lon="4.74723">
        <ele>171</ele>
        <time>2018-01-28T10:39:48Z</time>
      </trkpt>
      <trkpt lat="45.94345" lon="4.74711">
        <ele>171</ele>
        <time>2018-01-28T10:39:50Z</time>
      </trkpt>
      <trkpt lat="45.94343" lon="4.74704">
        <ele>172</ele>
        <time>2018-01-28T10:39:51Z</time>
      </trkpt>
      <trkpt lat="45.94344" lon="4.74698">
        <ele>172</ele>
        <time>2018-01-28T10:39:52Z</time>
      </trkpt>
      <trkpt lat="45.94345" lon="4.74692">
        <ele>172</ele>
        <time>2018-01-28T10:39:53Z</time>
      </trkpt>
      <trkpt lat="45.94347" lon="4.74684">
        <ele>172</ele>
        <time>2018-01-28T10:39:54Z</time>
      </trkpt>
      <trkpt lat="45.94348" lon="4.74677">
        <ele>172</ele>
        <time>2018-01-28T10:39:55Z</time>
      </trkpt>
      <trkpt lat="45.94349" lon="4.74671">
        <ele>172</ele>
        <time>2018-01-28T10:39:56Z</time>
      </trkpt>
      <trkpt lat="45.9435" lon="4.74663">
        <ele>172</ele>
        <time>2018-01-28T10:39:57Z</time>
      </trkpt>
      <trkpt lat="45.94351" lon="4.74657">
        <ele>172</ele>
        <time>2018-01-28T10:39:58Z</time>
      </trkpt>
      <trkpt lat="45.94351" lon="4.7465">
        <ele>171</ele>
        <time>2018-01-28T10:39:59Z</time>
      </trkpt>
      <trkpt lat="45.9435" lon="4.74637">
        <ele>171</ele>
        <time>2018-01-28T10:40:01Z</time>
      </trkpt>
      <trkpt lat="45.9435" lon="4.74632">
        <ele>171</ele>
        <time>2018-01-28T10:40:02Z</time>
      </trkpt>
      <trkpt lat="45.94351" lon="4.74624">
        <ele>171</ele>
        <time>2018-01-28T10:40:03Z</time>
      </trkpt>
      <trkpt lat="45.94352" lon="4.74617">
        <ele>171</ele>
        <time>2018-01-28T10:40:04Z</time>
      </trkpt>
      <trkpt lat="45.94354" lon="4.74605">
        <ele>171</ele>
        <time>2018-01-28T10:40:06Z</time>
      </trkpt>
      <trkpt lat="45.94355" lon="4.74599">
        <ele>171</ele>
        <time>2018-01-28T10:40:07Z</time>
      </trkpt>
      <trkpt lat="45.94356" lon="4.74588">
        <ele>171</ele>
        <time>2018-01-28T10:40:09Z</time>
      </trkpt>
      <trkpt lat="45.94356" lon="4.74583">
        <ele>171</ele>
        <time>2018-01-28T10:40:10Z</time>
      </trkpt>
      <trkpt lat="45.94356" lon="4.7457">
        <ele>171</ele>
        <time>2018-01-28T10:40:12Z</time>
      </trkpt>
      <trkpt lat="45.94357" lon="4.74565">
        <ele>171</ele>
        <time>2018-01-28T10:40:13Z</time>
      </trkpt>
      <trkpt lat="45.94358" lon="4.74553">
        <ele>171</ele>
        <time>2018-01-28T10:40:15Z</time>
      </trkpt>
      <trkpt lat="45.94359" lon="4.74547">
        <ele>171</ele>
        <time>2018-01-28T10:40:16Z</time>
      </trkpt>
      <trkpt lat="45.9436" lon="4.74541">
        <ele>171</ele>
        <time>2018-01-28T10:40:17Z</time>
      </trkpt>
      <trkpt lat="45.9436" lon="4.74533">
        <ele>171</ele>
        <time>2018-01-28T10:40:18Z</time>
      </trkpt>
      <trkpt lat="45.94361" lon="4.74527">
        <ele>171</ele>
        <time>2018-01-28T10:40:19Z</time>
      </trkpt>
      <trkpt lat="45.94361" lon="4.74519">
        <ele>171</ele>
        <time>2018-01-28T10:40:20Z</time>
      </trkpt>
      <trkpt lat="45.94362" lon="4.74511">
        <ele>171</ele>
        <time>2018-01-28T10:40:21Z</time>
      </trkpt>
      <trkpt lat="45.94364" lon="4.74505">
        <ele>171</ele>
        <time>2018-01-28T10:40:22Z</time>
      </trkpt>
      <trkpt lat="45.94364" lon="4.74498">
        <ele>170</ele>
        <time>2018-01-28T10:40:23Z</time>
      </trkpt>
      <trkpt lat="45.94365" lon="4.74491">
        <ele>170</ele>
        <time>2018-01-28T10:40:24Z</time>
      </trkpt>
      <trkpt lat="45.94366" lon="4.74483">
        <ele>171</ele>
        <time>2018-01-28T10:40:25Z</time>
      </trkpt>
      <trkpt lat="45.94366" lon="4.74477">
        <ele>171</ele>
        <time>2018-01-28T10:40:26Z</time>
      </trkpt>
      <trkpt lat="45.94367" lon="4.74471">
        <ele>171</ele>
        <time>2018-01-28T10:40:27Z</time>
      </trkpt>
      <trkpt lat="45.94367" lon="4.74464">
        <ele>171</ele>
        <time>2018-01-28T10:40:28Z</time>
      </trkpt>
      <trkpt lat="45.94367" lon="4.74457">
        <ele>171</ele>
        <time>2018-01-28T10:40:29Z</time>
      </trkpt>
      <trkpt lat="45.94368" lon="4.74451">
        <ele>171</ele>
        <time>2018-01-28T10:40:30Z</time>
      </trkpt>
      <trkpt lat="45.94368" lon="4.74443">
        <ele>171</ele>
        <time>2018-01-28T10:40:31Z</time>
      </trkpt>
      <trkpt lat="45.9437" lon="4.74436">
        <ele>171</ele>
        <time>2018-01-28T10:40:32Z</time>
      </trkpt>
      <trkpt lat="45.94372" lon="4.74429">
        <ele>171</ele>
        <time>2018-01-28T10:40:33Z</time>
      </trkpt>
      <trkpt lat="45.94373" lon="4.74422">
        <ele>171</ele>
        <time>2018-01-28T10:40:34Z</time>
      </trkpt>
      <trkpt lat="45.94374" lon="4.74415">
        <ele>170</ele>
        <time>2018-01-28T10:40:35Z</time>
      </trkpt>
      <trkpt lat="45.94375" lon="4.74407">
        <ele>170</ele>
        <time>2018-01-28T10:40:36Z</time>
      </trkpt>
      <trkpt lat="45.94376" lon="4.744">
        <ele>171</ele>
        <time>2018-01-28T10:40:37Z</time>
      </trkpt>
      <trkpt lat="45.94376" lon="4.74392">
        <ele>171</ele>
        <time>2018-01-28T10:40:38Z</time>
      </trkpt>
      <trkpt lat="45.94377" lon="4.74385">
        <ele>171</ele>
        <time>2018-01-28T10:40:39Z</time>
      </trkpt>
      <trkpt lat="45.94378" lon="4.74377">
        <ele>171</ele>
        <time>2018-01-28T10:40:40Z</time>
      </trkpt>
      <trkpt lat="45.94378" lon="4.7437">
        <ele>171</ele>
        <time>2018-01-28T10:40:41Z</time>
      </trkpt>
      <trkpt lat="45.94379" lon="4.74362">
        <ele>171</ele>
        <time>2018-01-28T10:40:42Z</time>
      </trkpt>
      <trkpt lat="45.9438" lon="4.74355">
        <ele>171</ele>
        <time>2018-01-28T10:40:43Z</time>
      </trkpt>
      <trkpt lat="45.94382" lon="4.74347">
        <ele>171</ele>
        <time>2018-01-28T10:40:44Z</time>
      </trkpt>
      <trkpt lat="45.94382" lon="4.7434">
        <ele>171</ele>
        <time>2018-01-28T10:40:45Z</time>
      </trkpt>
      <trkpt lat="45.94383" lon="4.74333">
        <ele>170</ele>
        <time>2018-01-28T10:40:46Z</time>
      </trkpt>
      <trkpt lat="45.94385" lon="4.7432">
        <ele>170</ele>
        <time>2018-01-28T10:40:48Z</time>
      </trkpt>
      <trkpt lat="45.94386" lon="4.74313">
        <ele>170</ele>
        <time>2018-01-28T10:40:49Z</time>
      </trkpt>
      <trkpt lat="45.94387" lon="4.74301">
        <ele>170</ele>
        <time>2018-01-28T10:40:51Z</time>
      </trkpt>
      <trkpt lat="45.94388" lon="4.74297">
        <ele>170</ele>
        <time>2018-01-28T10:40:52Z</time>
      </trkpt>
      <trkpt lat="45.94388" lon="4.74286">
        <ele>170</ele>
        <time>2018-01-28T10:40:54Z</time>
      </trkpt>
      <trkpt lat="45.94389" lon="4.7428">
        <ele>170</ele>
        <time>2018-01-28T10:40:55Z</time>
      </trkpt>
      <trkpt lat="45.94392" lon="4.74268">
        <ele>170</ele>
        <time>2018-01-28T10:40:57Z</time>
      </trkpt>
      <trkpt lat="45.94394" lon="4.74262">
        <ele>170</ele>
        <time>2018-01-28T10:40:58Z</time>
      </trkpt>
      <trkpt lat="45.94397" lon="4.74251">
        <ele>171</ele>
        <time>2018-01-28T10:41:00Z</time>
      </trkpt>
      <trkpt lat="45.94399" lon="4.74245">
        <ele>171</ele>
        <time>2018-01-28T10:41:01Z</time>
      </trkpt>
      <trkpt lat="45.94401" lon="4.74237">
        <ele>171</ele>
        <time>2018-01-28T10:41:02Z</time>
      </trkpt>
      <trkpt lat="45.94403" lon="4.74232">
        <ele>171</ele>
        <time>2018-01-28T10:41:03Z</time>
      </trkpt>
      <trkpt lat="45.94404" lon="4.74219">
        <ele>171</ele>
        <time>2018-01-28T10:41:05Z</time>
      </trkpt>
      <trkpt lat="45.94405" lon="4.74214">
        <ele>171</ele>
        <time>2018-01-28T10:41:06Z</time>
      </trkpt>
      <trkpt lat="45.94403" lon="4.74201">
        <ele>171</ele>
        <time>2018-01-28T10:41:08Z</time>
      </trkpt>
      <trkpt lat="45.94404" lon="4.74195">
        <ele>172</ele>
        <time>2018-01-28T10:41:09Z</time>
      </trkpt>
      <trkpt lat="45.94404" lon="4.74183">
        <ele>172</ele>
        <time>2018-01-28T10:41:11Z</time>
      </trkpt>
      <trkpt lat="45.94406" lon="4.74178">
        <ele>172</ele>
        <time>2018-01-28T10:41:12Z</time>
      </trkpt>
      <trkpt lat="45.94407" lon="4.74167">
        <ele>174</ele>
        <time>2018-01-28T10:41:14Z</time>
      </trkpt>
      <trkpt lat="45.94407" lon="4.74161">
        <ele>174</ele>
        <time>2018-01-28T10:41:15Z</time>
      </trkpt>
      <trkpt lat="45.94408" lon="4.7415">
        <ele>174</ele>
        <time>2018-01-28T10:41:17Z</time>
      </trkpt>
      <trkpt lat="45.94409" lon="4.74145">
        <ele>174</ele>
        <time>2018-01-28T10:41:18Z</time>
      </trkpt>
      <trkpt lat="45.94409" lon="4.74135">
        <ele>174</ele>
        <time>2018-01-28T10:41:20Z</time>
      </trkpt>
      <trkpt lat="45.94409" lon="4.74129">
        <ele>174</ele>
        <time>2018-01-28T10:41:21Z</time>
      </trkpt>
      <trkpt lat="45.9441" lon="4.74119">
        <ele>174</ele>
        <time>2018-01-28T10:41:23Z</time>
      </trkpt>
      <trkpt lat="45.9441" lon="4.74114">
        <ele>174</ele>
        <time>2018-01-28T10:41:24Z</time>
      </trkpt>
      <trkpt lat="45.94412" lon="4.74104">
        <ele>175</ele>
        <time>2018-01-28T10:41:26Z</time>
      </trkpt>
      <trkpt lat="45.94413" lon="4.74099">
        <ele>175</ele>
        <time>2018-01-28T10:41:27Z</time>
      </trkpt>
      <trkpt lat="45.94414" lon="4.74088">
        <ele>176</ele>
        <time>2018-01-28T10:41:29Z</time>
      </trkpt>
      <trkpt lat="45.94415" lon="4.74083">
        <ele>177</ele>
        <time>2018-01-28T10:41:30Z</time>
      </trkpt>
      <trkpt lat="45.94417" lon="4.74074">
        <ele>178</ele>
        <time>2018-01-28T10:41:32Z</time>
      </trkpt>
      <trkpt lat="45.94418" lon="4.74069">
        <ele>178</ele>
        <time>2018-01-28T10:41:33Z</time>
      </trkpt>
      <trkpt lat="45.94419" lon="4.74059">
        <ele>178</ele>
        <time>2018-01-28T10:41:35Z</time>
      </trkpt>
      <trkpt lat="45.9442" lon="4.74054">
        <ele>179</ele>
        <time>2018-01-28T10:41:36Z</time>
      </trkpt>
      <trkpt lat="45.94422" lon="4.74046">
        <ele>179</ele>
        <time>2018-01-28T10:41:38Z</time>
      </trkpt>
      <trkpt lat="45.94422" lon="4.74041">
        <ele>179</ele>
        <time>2018-01-28T10:41:39Z</time>
      </trkpt>
      <trkpt lat="45.94424" lon="4.74031">
        <ele>179</ele>
        <time>2018-01-28T10:41:41Z</time>
      </trkpt>
      <trkpt lat="45.94424" lon="4.74026">
        <ele>179</ele>
        <time>2018-01-28T10:41:42Z</time>
      </trkpt>
      <trkpt lat="45.94426" lon="4.74017">
        <ele>179</ele>
        <time>2018-01-28T10:41:44Z</time>
      </trkpt>
      <trkpt lat="45.94427" lon="4.74012">
        <ele>179</ele>
        <time>2018-01-28T10:41:45Z</time>
      </trkpt>
      <trkpt lat="45.94429" lon="4.74003">
        <ele>179</ele>
        <time>2018-01-28T10:41:47Z</time>
      </trkpt>
      <trkpt lat="45.9443" lon="4.73999">
        <ele>179</ele>
        <time>2018-01-28T10:41:48Z</time>
      </trkpt>
      <trkpt lat="45.94432" lon="4.73988">
        <ele>180</ele>
        <time>2018-01-28T10:41:51Z</time>
      </trkpt>
      <trkpt lat="45.94432" lon="4.73985">
        <ele>180</ele>
        <time>2018-01-28T10:41:52Z</time>
      </trkpt>
      <trkpt lat="45.94423" lon="4.73983">
        <ele>180</ele>
        <time>2018-01-28T10:41:55Z</time>
      </trkpt>
      <trkpt lat="45.9442" lon="4.73985">
        <ele>179</ele>
        <time>2018-01-28T10:41:56Z</time>
      </trkpt>
      <trkpt lat="45.94412" lon="4.73985">
        <ele>179</ele>
        <time>2018-01-28T10:41:58Z</time>
      </trkpt>
      <trkpt lat="45.94409" lon="4.73984">
        <ele>179</ele>
        <time>2018-01-28T10:41:59Z</time>
      </trkpt>
      <trkpt lat="45.94402" lon="4.7398">
        <ele>179</ele>
        <time>2018-01-28T10:42:01Z</time>
      </trkpt>
      <trkpt lat="45.94399" lon="4.73979">
        <ele>179</ele>
        <time>2018-01-28T10:42:02Z</time>
      </trkpt>
      <trkpt lat="45.94392" lon="4.73975">
        <ele>179</ele>
        <time>2018-01-28T10:42:04Z</time>
      </trkpt>
      <trkpt lat="45.94388" lon="4.73972">
        <ele>179</ele>
        <time>2018-01-28T10:42:05Z</time>
      </trkpt>
      <trkpt lat="45.94382" lon="4.73968">
        <ele>180</ele>
        <time>2018-01-28T10:42:07Z</time>
      </trkpt>
      <trkpt lat="45.94378" lon="4.73966">
        <ele>180</ele>
        <time>2018-01-28T10:42:08Z</time>
      </trkpt>
      <trkpt lat="45.94371" lon="4.73962">
        <ele>180</ele>
        <time>2018-01-28T10:42:10Z</time>
      </trkpt>
      <trkpt lat="45.94367" lon="4.73959">
        <ele>180</ele>
        <time>2018-01-28T10:42:11Z</time>
      </trkpt>
      <trkpt lat="45.9436" lon="4.73955">
        <ele>180</ele>
        <time>2018-01-28T10:42:13Z</time>
      </trkpt>
      <trkpt lat="45.94356" lon="4.73953">
        <ele>180</ele>
        <time>2018-01-28T10:42:14Z</time>
      </trkpt>
      <trkpt lat="45.94349" lon="4.73949">
        <ele>180</ele>
        <time>2018-01-28T10:42:16Z</time>
      </trkpt>
      <trkpt lat="45.94346" lon="4.73947">
        <ele>180</ele>
        <time>2018-01-28T10:42:17Z</time>
      </trkpt>
      <trkpt lat="45.94339" lon="4.73943">
        <ele>180</ele>
        <time>2018-01-28T10:42:19Z</time>
      </trkpt>
      <trkpt lat="45.94335" lon="4.73943">
        <ele>180</ele>
        <time>2018-01-28T10:42:20Z</time>
      </trkpt>
      <trkpt lat="45.94326" lon="4.73943">
        <ele>180</ele>
        <time>2018-01-28T10:42:22Z</time>
      </trkpt>
      <trkpt lat="45.94322" lon="4.73946">
        <ele>180</ele>
        <time>2018-01-28T10:42:23Z</time>
      </trkpt>
      <trkpt lat="45.94317" lon="4.73946">
        <ele>180</ele>
        <time>2018-01-28T10:42:24Z</time>
      </trkpt>
      <trkpt lat="45.94312" lon="4.73946">
        <ele>180</ele>
        <time>2018-01-28T10:42:25Z</time>
      </trkpt>
      <trkpt lat="45.94307" lon="4.73945">
        <ele>180</ele>
        <time>2018-01-28T10:42:26Z</time>
      </trkpt>
      <trkpt lat="45.94302" lon="4.73945">
        <ele>180</ele>
        <time>2018-01-28T10:42:27Z</time>
      </trkpt>
      <trkpt lat="45.94297" lon="4.73946">
        <ele>180</ele>
        <time>2018-01-28T10:42:28Z</time>
      </trkpt>
      <trkpt lat="45.94292" lon="4.73946">
        <ele>180</ele>
        <time>2018-01-28T10:42:29Z</time>
      </trkpt>
      <trkpt lat="45.94288" lon="4.73946">
        <ele>180</ele>
        <time>2018-01-28T10:42:30Z</time>
      </trkpt>
      <trkpt lat="45.94283" lon="4.73946">
        <ele>180</ele>
        <time>2018-01-28T10:42:31Z</time>
      </trkpt>
      <trkpt lat="45.94278" lon="4.73946">
        <ele>180</ele>
        <time>2018-01-28T10:42:32Z</time>
      </trkpt>
      <trkpt lat="45.94273" lon="4.73946">
        <ele>180</ele>
        <time>2018-01-28T10:42:33Z</time>
      </trkpt>
      <trkpt lat="45.94269" lon="4.73946">
        <ele>180</ele>
        <time>2018-01-28T10:42:34Z</time>
      </trkpt>
      <trkpt lat="45.94264" lon="4.73946">
        <ele>180</ele>
        <time>2018-01-28T10:42:35Z</time>
      </trkpt>
      <trkpt lat="45.94255" lon="4.73946">
        <ele>180</ele>
        <time>2018-01-28T10:42:37Z</time>
      </trkpt>
      <trkpt lat="45.94251" lon="4.73946">
        <ele>180</ele>
        <time>2018-01-28T10:42:38Z</time>
      </trkpt>
      <trkpt lat="45.94242" lon="4.73945">
        <ele>179</ele>
        <time>2018-01-28T10:42:40Z</time>
      </trkpt>
      <trkpt lat="45.94239" lon="4.73945">
        <ele>179</ele>
        <time>2018-01-28T10:42:41Z</time>
      </trkpt>
      <trkpt lat="45.94231" lon="4.73942">
        <ele>179</ele>
        <time>2018-01-28T10:42:43Z</time>
      </trkpt>
      <trkpt lat="45.94227" lon="4.73941">
        <ele>179</ele>
        <time>2018-01-28T10:42:44Z</time>
      </trkpt>
      <trkpt lat="45.94219" lon="4.7394">
        <ele>178</ele>
        <time>2018-01-28T10:42:46Z</time>
      </trkpt>
      <trkpt lat="45.94215" lon="4.73939">
        <ele>178</ele>
        <time>2018-01-28T10:42:47Z</time>
      </trkpt>
      <trkpt lat="45.94206" lon="4.73937">
        <ele>178</ele>
        <time>2018-01-28T10:42:49Z</time>
      </trkpt>
      <trkpt lat="45.94202" lon="4.73936">
        <ele>178</ele>
        <time>2018-01-28T10:42:50Z</time>
      </trkpt>
      <trkpt lat="45.94194" lon="4.73933">
        <ele>178</ele>
        <time>2018-01-28T10:42:52Z</time>
      </trkpt>
      <trkpt lat="45.9419" lon="4.73931">
        <ele>178</ele>
        <time>2018-01-28T10:42:53Z</time>
      </trkpt>
      <trkpt lat="45.94183" lon="4.73928">
        <ele>178</ele>
        <time>2018-01-28T10:42:55Z</time>
      </trkpt>
      <trkpt lat="45.94179" lon="4.73927">
        <ele>178</ele>
        <time>2018-01-28T10:42:56Z</time>
      </trkpt>
      <trkpt lat="45.94171" lon="4.73924">
        <ele>178</ele>
        <time>2018-01-28T10:42:58Z</time>
      </trkpt>
      <trkpt lat="45.94167" lon="4.73923">
        <ele>179</ele>
        <time>2018-01-28T10:42:59Z</time>
      </trkpt>
      <trkpt lat="45.94159" lon="4.73922">
        <ele>177</ele>
        <time>2018-01-28T10:43:01Z</time>
      </trkpt>
      <trkpt lat="45.94155" lon="4.73922">
        <ele>177</ele>
        <time>2018-01-28T10:43:02Z</time>
      </trkpt>
      <trkpt lat="45.94148" lon="4.73919">
        <ele>176</ele>
        <time>2018-01-28T10:43:04Z</time>
      </trkpt>
      <trkpt lat="45.94144" lon="4.73918">
        <ele>176</ele>
        <time>2018-01-28T10:43:05Z</time>
      </trkpt>
      <trkpt lat="45.94138" lon="4.73915">
        <ele>178</ele>
        <time>2018-01-28T10:43:07Z</time>
      </trkpt>
      <trkpt lat="45.94135" lon="4.73912">
        <ele>178</ele>
        <time>2018-01-28T10:43:08Z</time>
      </trkpt>
      <trkpt lat="45.9413" lon="4.73907">
        <ele>178</ele>
        <time>2018-01-28T10:43:10Z</time>
      </trkpt>
      <trkpt lat="45.94128" lon="4.73904">
        <ele>177</ele>
        <time>2018-01-28T10:43:11Z</time>
      </trkpt>
      <trkpt lat="45.9412" lon="4.73898">
        <ele>177</ele>
        <time>2018-01-28T10:43:15Z</time>
      </trkpt>
      <trkpt lat="45.94118" lon="4.73899">
        <ele>177</ele>
        <time>2018-01-28T10:43:16Z</time>
      </trkpt>
      <trkpt lat="45.94111" lon="4.73905">
        <ele>177</ele>
        <time>2018-01-28T10:43:19Z</time>
      </trkpt>
      <trkpt lat="45.94109" lon="4.73906">
        <ele>177</ele>
        <time>2018-01-28T10:43:20Z</time>
      </trkpt>
      <trkpt lat="45.94101" lon="4.73911">
        <ele>176</ele>
        <time>2018-01-28T10:43:23Z</time>
      </trkpt>
      <trkpt lat="45.94098" lon="4.73912">
        <ele>176</ele>
        <time>2018-01-28T10:43:24Z</time>
      </trkpt>
      <trkpt lat="45.94092" lon="4.73915">
        <ele>175</ele>
        <time>2018-01-28T10:43:26Z</time>
      </trkpt>
      <trkpt lat="45.94089" lon="4.73916">
        <ele>175</ele>
        <time>2018-01-28T10:43:27Z</time>
      </trkpt>
      <trkpt lat="45.94083" lon="4.73917">
        <ele>174</ele>
        <time>2018-01-28T10:43:28Z</time>
      </trkpt>
      <trkpt lat="45.94079" lon="4.73919">
        <ele>174</ele>
        <time>2018-01-28T10:43:29Z</time>
      </trkpt>
      <trkpt lat="45.94073" lon="4.73921">
        <ele>173</ele>
        <time>2018-01-28T10:43:30Z</time>
      </trkpt>
      <trkpt lat="45.94068" lon="4.73922">
        <ele>173</ele>
        <time>2018-01-28T10:43:31Z</time>
      </trkpt>
      <trkpt lat="45.94062" lon="4.73923">
        <ele>173</ele>
        <time>2018-01-28T10:43:32Z</time>
      </trkpt>
      <trkpt lat="45.94055" lon="4.73923">
        <ele>173</ele>
        <time>2018-01-28T10:43:33Z</time>
      </trkpt>
      <trkpt lat="45.94049" lon="4.73924">
        <ele>172</ele>
        <time>2018-01-28T10:43:34Z</time>
      </trkpt>
      <trkpt lat="45.94043" lon="4.73925">
        <ele>172</ele>
        <time>2018-01-28T10:43:35Z</time>
      </trkpt>
      <trkpt lat="45.94037" lon="4.73926">
        <ele>172</ele>
        <time>2018-01-28T10:43:36Z</time>
      </trkpt>
      <trkpt lat="45.94032" lon="4.73926">
        <ele>172</ele>
        <time>2018-01-28T10:43:37Z</time>
      </trkpt>
      <trkpt lat="45.94026" lon="4.73927">
        <ele>172</ele>
        <time>2018-01-28T10:43:38Z</time>
      </trkpt>
      <trkpt lat="45.94021" lon="4.73928">
        <ele>172</ele>
        <time>2018-01-28T10:43:39Z</time>
      </trkpt>
      <trkpt lat="45.94016" lon="4.73929">
        <ele>172</ele>
        <time>2018-01-28T10:43:40Z</time>
      </trkpt>
      <trkpt lat="45.94012" lon="4.73929">
        <ele>172</ele>
        <time>2018-01-28T10:43:41Z</time>
      </trkpt>
      <trkpt lat="45.94007" lon="4.7393">
        <ele>172</ele>
        <time>2018-01-28T10:43:42Z</time>
      </trkpt>
      <trkpt lat="45.94003" lon="4.73932">
        <ele>172</ele>
        <time>2018-01-28T10:43:43Z</time>
      </trkpt>
      <trkpt lat="45.93995" lon="4.73936">
        <ele>172</ele>
        <time>2018-01-28T10:43:45Z</time>
      </trkpt>
      <trkpt lat="45.93992" lon="4.73939">
        <ele>172</ele>
        <time>2018-01-28T10:43:46Z</time>
      </trkpt>
      <trkpt lat="45.93985" lon="4.73946">
        <ele>172</ele>
        <time>2018-01-28T10:43:49Z</time>
      </trkpt>
      <trkpt lat="45.93983" lon="4.73948">
        <ele>172</ele>
        <time>2018-01-28T10:43:50Z</time>
      </trkpt>
      <trkpt lat="45.93976" lon="4.73953">
        <ele>172</ele>
        <time>2018-01-28T10:43:53Z</time>
      </trkpt>
      <trkpt lat="45.93973" lon="4.73955">
        <ele>172</ele>
        <time>2018-01-28T10:43:54Z</time>
      </trkpt>
      <trkpt lat="45.93965" lon="4.73957">
        <ele>172</ele>
        <time>2018-01-28T10:43:57Z</time>
      </trkpt>
      <trkpt lat="45.93962" lon="4.73956">
        <ele>172</ele>
        <time>2018-01-28T10:43:58Z</time>
      </trkpt>
      <trkpt lat="45.93954" lon="4.73956">
        <ele>172</ele>
        <time>2018-01-28T10:44:01Z</time>
      </trkpt>
      <trkpt lat="45.93951" lon="4.73956">
        <ele>172</ele>
        <time>2018-01-28T10:44:02Z</time>
      </trkpt>
      <trkpt lat="45.93944" lon="4.73955">
        <ele>172</ele>
        <time>2018-01-28T10:44:04Z</time>
      </trkpt>
      <trkpt lat="45.93942" lon="4.73955">
        <ele>172</ele>
        <time>2018-01-28T10:44:05Z</time>
      </trkpt>
      <trkpt lat="45.93934" lon="4.73955">
        <ele>172</ele>
        <time>2018-01-28T10:44:08Z</time>
      </trkpt>
      <trkpt lat="45.93932" lon="4.73955">
        <ele>172</ele>
        <time>2018-01-28T10:44:09Z</time>
      </trkpt>
      <trkpt lat="45.93927" lon="4.73965">
        <ele>172</ele>
        <time>2018-01-28T10:44:13Z</time>
      </trkpt>
      <trkpt lat="45.93928" lon="4.73969">
        <ele>172</ele>
        <time>2018-01-28T10:44:14Z</time>
      </trkpt>
      <trkpt lat="45.93929" lon="4.73978">
        <ele>172</ele>
        <time>2018-01-28T10:44:16Z</time>
      </trkpt>
      <trkpt lat="45.93929" lon="4.73982">
        <ele>172</ele>
        <time>2018-01-28T10:44:17Z</time>
      </trkpt>
      <trkpt lat="45.93931" lon="4.73994">
        <ele>172</ele>
        <time>2018-01-28T10:44:21Z</time>
      </trkpt>
      <trkpt lat="45.9393" lon="4.73997">
        <ele>172</ele>
        <time>2018-01-28T10:44:22Z</time>
      </trkpt>
      <trkpt lat="45.93929" lon="4.74005">
        <ele>171</ele>
        <time>2018-01-28T10:44:24Z</time>
      </trkpt>
      <trkpt lat="45.93928" lon="4.7401">
        <ele>171</ele>
        <time>2018-01-28T10:44:25Z</time>
      </trkpt>
      <trkpt lat="45.93926" lon="4.7402">
        <ele>171</ele>
        <time>2018-01-28T10:44:27Z</time>
      </trkpt>
      <trkpt lat="45.93925" lon="4.74026">
        <ele>171</ele>
        <time>2018-01-28T10:44:28Z</time>
      </trkpt>
      <trkpt lat="45.93924" lon="4.74036">
        <ele>171</ele>
        <time>2018-01-28T10:44:30Z</time>
      </trkpt>
      <trkpt lat="45.93924" lon="4.74041">
        <ele>171</ele>
        <time>2018-01-28T10:44:31Z</time>
      </trkpt>
      <trkpt lat="45.93923" lon="4.74049">
        <ele>171</ele>
        <time>2018-01-28T10:44:33Z</time>
      </trkpt>
      <trkpt lat="45.93923" lon="4.74054">
        <ele>171</ele>
        <time>2018-01-28T10:44:34Z</time>
      </trkpt>
      <trkpt lat="45.93921" lon="4.74064">
        <ele>170</ele>
        <time>2018-01-28T10:44:36Z</time>
      </trkpt>
      <trkpt lat="45.93921" lon="4.7407">
        <ele>170</ele>
        <time>2018-01-28T10:44:37Z</time>
      </trkpt>
      <trkpt lat="45.9392" lon="4.74081">
        <ele>170</ele>
        <time>2018-01-28T10:44:39Z</time>
      </trkpt>
      <trkpt lat="45.9392" lon="4.74086">
        <ele>170</ele>
        <time>2018-01-28T10:44:40Z</time>
      </trkpt>
      <trkpt lat="45.9392" lon="4.74096">
        <ele>169</ele>
        <time>2018-01-28T10:44:42Z</time>
      </trkpt>
      <trkpt lat="45.93919" lon="4.74101">
        <ele>169</ele>
        <time>2018-01-28T10:44:43Z</time>
      </trkpt>
      <trkpt lat="45.93918" lon="4.74111">
        <ele>169</ele>
        <time>2018-01-28T10:44:45Z</time>
      </trkpt>
      <trkpt lat="45.93917" lon="4.74117">
        <ele>169</ele>
        <time>2018-01-28T10:44:46Z</time>
      </trkpt>
      <trkpt lat="45.93915" lon="4.74128">
        <ele>170</ele>
        <time>2018-01-28T10:44:48Z</time>
      </trkpt>
      <trkpt lat="45.93914" lon="4.74134">
        <ele>169</ele>
        <time>2018-01-28T10:44:49Z</time>
      </trkpt>
      <trkpt lat="45.93913" lon="4.74145">
        <ele>169</ele>
        <time>2018-01-28T10:44:51Z</time>
      </trkpt>
      <trkpt lat="45.93913" lon="4.7415">
        <ele>169</ele>
        <time>2018-01-28T10:44:52Z</time>
      </trkpt>
      <trkpt lat="45.93912" lon="4.7416">
        <ele>169</ele>
        <time>2018-01-28T10:44:54Z</time>
      </trkpt>
      <trkpt lat="45.93911" lon="4.74165">
        <ele>168</ele>
        <time>2018-01-28T10:44:55Z</time>
      </trkpt>
      <trkpt lat="45.9391" lon="4.74176">
        <ele>169</ele>
        <time>2018-01-28T10:44:57Z</time>
      </trkpt>
      <trkpt lat="45.9391" lon="4.74182">
        <ele>169</ele>
        <time>2018-01-28T10:44:58Z</time>
      </trkpt>
      <trkpt lat="45.93909" lon="4.74192">
        <ele>169</ele>
        <time>2018-01-28T10:45:00Z</time>
      </trkpt>
      <trkpt lat="45.93909" lon="4.74197">
        <ele>169</ele>
        <time>2018-01-28T10:45:01Z</time>
      </trkpt>
      <trkpt lat="45.93908" lon="4.74209">
        <ele>169</ele>
        <time>2018-01-28T10:45:04Z</time>
      </trkpt>
      <trkpt lat="45.93908" lon="4.74212">
        <ele>169</ele>
        <time>2018-01-28T10:45:05Z</time>
      </trkpt>
      <trkpt lat="45.93907" lon="4.74223">
        <ele>170</ele>
        <time>2018-01-28T10:45:09Z</time>
      </trkpt>
      <trkpt lat="45.93906" lon="4.74226">
        <ele>170</ele>
        <time>2018-01-28T10:45:10Z</time>
      </trkpt>
      <trkpt lat="45.93906" lon="4.74237">
        <ele>170</ele>
        <time>2018-01-28T10:45:13Z</time>
      </trkpt>
      <trkpt lat="45.93906" lon="4.74241">
        <ele>170</ele>
        <time>2018-01-28T10:45:14Z</time>
      </trkpt>
      <trkpt lat="45.93908" lon="4.74249">
        <ele>170</ele>
        <time>2018-01-28T10:45:16Z</time>
      </trkpt>
      <trkpt lat="45.93908" lon="4.74254">
        <ele>170</ele>
        <time>2018-01-28T10:45:17Z</time>
      </trkpt>
      <trkpt lat="45.93908" lon="4.74263">
        <ele>170</ele>
        <time>2018-01-28T10:45:19Z</time>
      </trkpt>
      <trkpt lat="45.93908" lon="4.74268">
        <ele>170</ele>
        <time>2018-01-28T10:45:20Z</time>
      </trkpt>
      <trkpt lat="45.93907" lon="4.74277">
        <ele>170</ele>
        <time>2018-01-28T10:45:22Z</time>
      </trkpt>
      <trkpt lat="45.93906" lon="4.74281">
        <ele>170</ele>
        <time>2018-01-28T10:45:23Z</time>
      </trkpt>
      <trkpt lat="45.93906" lon="4.74291">
        <ele>170</ele>
        <time>2018-01-28T10:45:25Z</time>
      </trkpt>
      <trkpt lat="45.93906" lon="4.74296">
        <ele>170</ele>
        <time>2018-01-28T10:45:26Z</time>
      </trkpt>
      <trkpt lat="45.93906" lon="4.74308">
        <ele>170</ele>
        <time>2018-01-28T10:45:29Z</time>
      </trkpt>
      <trkpt lat="45.93906" lon="4.74312">
        <ele>170</ele>
        <time>2018-01-28T10:45:30Z</time>
      </trkpt>
      <trkpt lat="45.93906" lon="4.74322">
        <ele>170</ele>
        <time>2018-01-28T10:45:32Z</time>
      </trkpt>
      <trkpt lat="45.93906" lon="4.74327">
        <ele>170</ele>
        <time>2018-01-28T10:45:33Z</time>
      </trkpt>
      <trkpt lat="45.93906" lon="4.74337">
        <ele>170</ele>
        <time>2018-01-28T10:45:35Z</time>
      </trkpt>
      <trkpt lat="45.93906" lon="4.74342">
        <ele>170</ele>
        <time>2018-01-28T10:45:36Z</time>
      </trkpt>
      <trkpt lat="45.93905" lon="4.74352">
        <ele>171</ele>
        <time>2018-01-28T10:45:38Z</time>
      </trkpt>
      <trkpt lat="45.93905" lon="4.74357">
        <ele>171</ele>
        <time>2018-01-28T10:45:39Z</time>
      </trkpt>
      <trkpt lat="45.93906" lon="4.74368">
        <ele>171</ele>
        <time>2018-01-28T10:45:41Z</time>
      </trkpt>
      <trkpt lat="45.93906" lon="4.74373">
        <ele>171</ele>
        <time>2018-01-28T10:45:42Z</time>
      </trkpt>
      <trkpt lat="45.93907" lon="4.74382">
        <ele>171</ele>
        <time>2018-01-28T10:45:44Z</time>
      </trkpt>
      <trkpt lat="45.93907" lon="4.74387">
        <ele>171</ele>
        <time>2018-01-28T10:45:45Z</time>
      </trkpt>
      <trkpt lat="45.93908" lon="4.74399">
        <ele>171</ele>
        <time>2018-01-28T10:45:48Z</time>
      </trkpt>
      <trkpt lat="45.93908" lon="4.74404">
        <ele>171</ele>
        <time>2018-01-28T10:45:49Z</time>
      </trkpt>
      <trkpt lat="45.9391" lon="4.74413">
        <ele>171</ele>
        <time>2018-01-28T10:45:51Z</time>
      </trkpt>
      <trkpt lat="45.93911" lon="4.74418">
        <ele>171</ele>
        <time>2018-01-28T10:45:52Z</time>
      </trkpt>
      <trkpt lat="45.93912" lon="4.74427">
        <ele>171</ele>
        <time>2018-01-28T10:45:54Z</time>
      </trkpt>
      <trkpt lat="45.93913" lon="4.74432">
        <ele>171</ele>
        <time>2018-01-28T10:45:55Z</time>
      </trkpt>
      <trkpt lat="45.93913" lon="4.74442">
        <ele>171</ele>
        <time>2018-01-28T10:45:57Z</time>
      </trkpt>
      <trkpt lat="45.93913" lon="4.74447">
        <ele>171</ele>
        <time>2018-01-28T10:45:58Z</time>
      </trkpt>
      <trkpt lat="45.93913" lon="4.74456">
        <ele>171</ele>
        <time>2018-01-28T10:46:00Z</time>
      </trkpt>
      <trkpt lat="45.93914" lon="4.7446">
        <ele>171</ele>
        <time>2018-01-28T10:46:01Z</time>
      </trkpt>
      <trkpt lat="45.93914" lon="4.7447">
        <ele>171</ele>
        <time>2018-01-28T10:46:03Z</time>
      </trkpt>
      <trkpt lat="45.93913" lon="4.74474">
        <ele>171</ele>
        <time>2018-01-28T10:46:04Z</time>
      </trkpt>
      <trkpt lat="45.93913" lon="4.74485">
        <ele>171</ele>
        <time>2018-01-28T10:46:06Z</time>
      </trkpt>
      <trkpt lat="45.93912" lon="4.7449">
        <ele>170</ele>
        <time>2018-01-28T10:46:07Z</time>
      </trkpt>
      <trkpt lat="45.93911" lon="4.74501">
        <ele>170</ele>
        <time>2018-01-28T10:46:09Z</time>
      </trkpt>
      <trkpt lat="45.93911" lon="4.74506">
        <ele>170</ele>
        <time>2018-01-28T10:46:10Z</time>
      </trkpt>
      <trkpt lat="45.93911" lon="4.74515">
        <ele>170</ele>
        <time>2018-01-28T10:46:12Z</time>
      </trkpt>
      <trkpt lat="45.93911" lon="4.7452">
        <ele>170</ele>
        <time>2018-01-28T10:46:13Z</time>
      </trkpt>
      <trkpt lat="45.9391" lon="4.74532">
        <ele>170</ele>
        <time>2018-01-28T10:46:15Z</time>
      </trkpt>
      <trkpt lat="45.93909" lon="4.74538">
        <ele>170</ele>
        <time>2018-01-28T10:46:16Z</time>
      </trkpt>
      <trkpt lat="45.93908" lon="4.74548">
        <ele>170</ele>
        <time>2018-01-28T10:46:18Z</time>
      </trkpt>
      <trkpt lat="45.93907" lon="4.74553">
        <ele>170</ele>
        <time>2018-01-28T10:46:19Z</time>
      </trkpt>
      <trkpt lat="45.93906" lon="4.74563">
        <ele>170</ele>
        <time>2018-01-28T10:46:21Z</time>
      </trkpt>
      <trkpt lat="45.93905" lon="4.74568">
        <ele>170</ele>
        <time>2018-01-28T10:46:22Z</time>
      </trkpt>
      <trkpt lat="45.93903" lon="4.74578">
        <ele>170</ele>
        <time>2018-01-28T10:46:24Z</time>
      </trkpt>
      <trkpt lat="45.93902" lon="4.74583">
        <ele>170</ele>
        <time>2018-01-28T10:46:25Z</time>
      </trkpt>
      <trkpt lat="45.939" lon="4.74593">
        <ele>170</ele>
        <time>2018-01-28T10:46:27Z</time>
      </trkpt>
      <trkpt lat="45.93899" lon="4.74597">
        <ele>170</ele>
        <time>2018-01-28T10:46:28Z</time>
      </trkpt>
      <trkpt lat="45.93895" lon="4.74609">
        <ele>170</ele>
        <time>2018-01-28T10:46:31Z</time>
      </trkpt>
      <trkpt lat="45.93894" lon="4.74613">
        <ele>170</ele>
        <time>2018-01-28T10:46:32Z</time>
      </trkpt>
      <trkpt lat="45.93891" lon="4.74622">
        <ele>170</ele>
        <time>2018-01-28T10:46:34Z</time>
      </trkpt>
      <trkpt lat="45.9389" lon="4.74627">
        <ele>170</ele>
        <time>2018-01-28T10:46:35Z</time>
      </trkpt>
      <trkpt lat="45.93887" lon="4.74638">
        <ele>170</ele>
        <time>2018-01-28T10:46:37Z</time>
      </trkpt>
      <trkpt lat="45.93885" lon="4.74642">
        <ele>170</ele>
        <time>2018-01-28T10:46:38Z</time>
      </trkpt>
      <trkpt lat="45.93882" lon="4.74651">
        <ele>170</ele>
        <time>2018-01-28T10:46:40Z</time>
      </trkpt>
      <trkpt lat="45.93881" lon="4.74655">
        <ele>170</ele>
        <time>2018-01-28T10:46:41Z</time>
      </trkpt>
      <trkpt lat="45.93878" lon="4.74663">
        <ele>170</ele>
        <time>2018-01-28T10:46:43Z</time>
      </trkpt>
      <trkpt lat="45.93876" lon="4.74667">
        <ele>170</ele>
        <time>2018-01-28T10:46:44Z</time>
      </trkpt>
      <trkpt lat="45.93872" lon="4.74676">
        <ele>170</ele>
        <time>2018-01-28T10:46:46Z</time>
      </trkpt>
      <trkpt lat="45.9387" lon="4.74682">
        <ele>170</ele>
        <time>2018-01-28T10:46:47Z</time>
      </trkpt>
      <trkpt lat="45.93866" lon="4.74692">
        <ele>170</ele>
        <time>2018-01-28T10:46:49Z</time>
      </trkpt>
      <trkpt lat="45.93865" lon="4.74697">
        <ele>169</ele>
        <time>2018-01-28T10:46:50Z</time>
      </trkpt>
      <trkpt lat="45.93861" lon="4.74705">
        <ele>169</ele>
        <time>2018-01-28T10:46:52Z</time>
      </trkpt>
      <trkpt lat="45.9386" lon="4.74709">
        <ele>169</ele>
        <time>2018-01-28T10:46:53Z</time>
      </trkpt>
      <trkpt lat="45.93855" lon="4.74719">
        <ele>169</ele>
        <time>2018-01-28T10:46:56Z</time>
      </trkpt>
      <trkpt lat="45.93853" lon="4.74721">
        <ele>169</ele>
        <time>2018-01-28T10:46:57Z</time>
      </trkpt>
      <trkpt lat="45.93847" lon="4.7473">
        <ele>169</ele>
        <time>2018-01-28T10:47:00Z</time>
      </trkpt>
      <trkpt lat="45.93845" lon="4.74733">
        <ele>169</ele>
        <time>2018-01-28T10:47:01Z</time>
      </trkpt>
      <trkpt lat="45.93841" lon="4.74741">
        <ele>168</ele>
        <time>2018-01-28T10:47:04Z</time>
      </trkpt>
      <trkpt lat="45.9384" lon="4.74744">
        <ele>168</ele>
        <time>2018-01-28T10:47:05Z</time>
      </trkpt>
      <trkpt lat="45.93836" lon="4.74752">
        <ele>168</ele>
        <time>2018-01-28T10:47:07Z</time>
      </trkpt>
      <trkpt lat="45.93834" lon="4.74756">
        <ele>168</ele>
        <time>2018-01-28T10:47:08Z</time>
      </trkpt>
      <trkpt lat="45.93831" lon="4.74765">
        <ele>168</ele>
        <time>2018-01-28T10:47:10Z</time>
      </trkpt>
      <trkpt lat="45.93828" lon="4.74769">
        <ele>167</ele>
        <time>2018-01-28T10:47:11Z</time>
      </trkpt>
      <trkpt lat="45.93824" lon="4.74778">
        <ele>167</ele>
        <time>2018-01-28T10:47:13Z</time>
      </trkpt>
      <trkpt lat="45.93822" lon="4.74782">
        <ele>167</ele>
        <time>2018-01-28T10:47:14Z</time>
      </trkpt>
      <trkpt lat="45.93818" lon="4.74791">
        <ele>167</ele>
        <time>2018-01-28T10:47:17Z</time>
      </trkpt>
      <trkpt lat="45.93816" lon="4.74794">
        <ele>167</ele>
        <time>2018-01-28T10:47:18Z</time>
      </trkpt>
      <trkpt lat="45.9381" lon="4.74802">
        <ele>167</ele>
        <time>2018-01-28T10:47:21Z</time>
      </trkpt>
      <trkpt lat="45.93808" lon="4.74805">
        <ele>167</ele>
        <time>2018-01-28T10:47:22Z</time>
      </trkpt>
      <trkpt lat="45.93804" lon="4.74812">
        <ele>167</ele>
        <time>2018-01-28T10:47:24Z</time>
      </trkpt>
      <trkpt lat="45.93802" lon="4.74816">
        <ele>167</ele>
        <time>2018-01-28T10:47:25Z</time>
      </trkpt>
      <trkpt lat="45.93798" lon="4.74824">
        <ele>167</ele>
        <time>2018-01-28T10:47:27Z</time>
      </trkpt>
      <trkpt lat="45.93796" lon="4.74829">
        <ele>167</ele>
        <time>2018-01-28T10:47:28Z</time>
      </trkpt>
      <trkpt lat="45.93791" lon="4.74836">
        <ele>168</ele>
        <time>2018-01-28T10:47:30Z</time>
      </trkpt>
      <trkpt lat="45.9379" lon="4.74839">
        <ele>168</ele>
        <time>2018-01-28T10:47:31Z</time>
      </trkpt>
      <trkpt lat="45.93786" lon="4.74846">
        <ele>168</ele>
        <time>2018-01-28T10:47:33Z</time>
      </trkpt>
      <trkpt lat="45.93784" lon="4.7485">
        <ele>168</ele>
        <time>2018-01-28T10:47:34Z</time>
      </trkpt>
      <trkpt lat="45.9378" lon="4.74858">
        <ele>168</ele>
        <time>2018-01-28T10:47:36Z</time>
      </trkpt>
      <trkpt lat="45.93778" lon="4.74863">
        <ele>168</ele>
        <time>2018-01-28T10:47:37Z</time>
      </trkpt>
      <trkpt lat="45.93774" lon="4.74871">
        <ele>168</ele>
        <time>2018-01-28T10:47:39Z</time>
      </trkpt>
      <trkpt lat="45.93771" lon="4.74875">
        <ele>168</ele>
        <time>2018-01-28T10:47:40Z</time>
      </trkpt>
      <trkpt lat="45.93766" lon="4.74883">
        <ele>169</ele>
        <time>2018-01-28T10:47:42Z</time>
      </trkpt>
      <trkpt lat="45.93764" lon="4.74887">
        <ele>169</ele>
        <time>2018-01-28T10:47:43Z</time>
      </trkpt>
      <trkpt lat="45.93759" lon="4.74898">
        <ele>169</ele>
        <time>2018-01-28T10:47:45Z</time>
      </trkpt>
      <trkpt lat="45.93757" lon="4.74903">
        <ele>170</ele>
        <time>2018-01-28T10:47:46Z</time>
      </trkpt>
      <trkpt lat="45.93752" lon="4.74913">
        <ele>171</ele>
        <time>2018-01-28T10:47:48Z</time>
      </trkpt>
      <trkpt lat="45.9375" lon="4.74918">
        <ele>171</ele>
        <time>2018-01-28T10:47:49Z</time>
      </trkpt>
      <trkpt lat="45.93745" lon="4.74928">
        <ele>170</ele>
        <time>2018-01-28T10:47:51Z</time>
      </trkpt>
      <trkpt lat="45.93743" lon="4.74933">
        <ele>169</ele>
        <time>2018-01-28T10:47:52Z</time>
      </trkpt>
      <trkpt lat="45.93739" lon="4.74944">
        <ele>169</ele>
        <time>2018-01-28T10:47:54Z</time>
      </trkpt>
      <trkpt lat="45.93737" lon="4.74948">
        <ele>169</ele>
        <time>2018-01-28T10:47:55Z</time>
      </trkpt>
      <trkpt lat="45.93732" lon="4.74958">
        <ele>169</ele>
        <time>2018-01-28T10:47:57Z</time>
      </trkpt>
      <trkpt lat="45.9373" lon="4.74964">
        <ele>168</ele>
        <time>2018-01-28T10:47:58Z</time>
      </trkpt>
      <trkpt lat="45.93725" lon="4.74974">
        <ele>168</ele>
        <time>2018-01-28T10:48:00Z</time>
      </trkpt>
      <trkpt lat="45.93723" lon="4.74979">
        <ele>168</ele>
        <time>2018-01-28T10:48:01Z</time>
      </trkpt>
      <trkpt lat="45.9372" lon="4.74988">
        <ele>168</ele>
        <time>2018-01-28T10:48:03Z</time>
      </trkpt>
      <trkpt lat="45.93718" lon="4.74992">
        <ele>168</ele>
        <time>2018-01-28T10:48:04Z</time>
      </trkpt>
      <trkpt lat="45.93714" lon="4.74999">
        <ele>168</ele>
        <time>2018-01-28T10:48:06Z</time>
      </trkpt>
      <trkpt lat="45.93713" lon="4.75003">
        <ele>167</ele>
        <time>2018-01-28T10:48:07Z</time>
      </trkpt>
      <trkpt lat="45.93709" lon="4.75011">
        <ele>167</ele>
        <time>2018-01-28T10:48:09Z</time>
      </trkpt>
      <trkpt lat="45.93707" lon="4.75015">
        <ele>167</ele>
        <time>2018-01-28T10:48:10Z</time>
      </trkpt>
      <trkpt lat="45.93704" lon="4.75023">
        <ele>167</ele>
        <time>2018-01-28T10:48:12Z</time>
      </trkpt>
      <trkpt lat="45.93702" lon="4.75026">
        <ele>167</ele>
        <time>2018-01-28T10:48:13Z</time>
      </trkpt>
      <trkpt lat="45.93698" lon="4.75035">
        <ele>167</ele>
        <time>2018-01-28T10:48:15Z</time>
      </trkpt>
      <trkpt lat="45.93696" lon="4.7504">
        <ele>167</ele>
        <time>2018-01-28T10:48:16Z</time>
      </trkpt>
      <trkpt lat="45.93691" lon="4.7505">
        <ele>167</ele>
        <time>2018-01-28T10:48:18Z</time>
      </trkpt>
      <trkpt lat="45.93689" lon="4.75055">
        <ele>167</ele>
        <time>2018-01-28T10:48:19Z</time>
      </trkpt>
      <trkpt lat="45.93685" lon="4.75065">
        <ele>167</ele>
        <time>2018-01-28T10:48:21Z</time>
      </trkpt>
      <trkpt lat="45.93683" lon="4.75069">
        <ele>167</ele>
        <time>2018-01-28T10:48:22Z</time>
      </trkpt>
      <trkpt lat="45.9368" lon="4.7508">
        <ele>167</ele>
        <time>2018-01-28T10:48:25Z</time>
      </trkpt>
      <trkpt lat="45.93679" lon="4.75082">
        <ele>167</ele>
        <time>2018-01-28T10:48:26Z</time>
      </trkpt>
      <trkpt lat="45.93678" lon="4.7508">
        <ele>167</ele>
        <time>2018-01-28T10:49:07Z</time>
      </trkpt>
      <trkpt lat="45.93678" lon="4.7508">
        <ele>167</ele>
        <time>2018-01-28T10:49:08Z</time>
      </trkpt>
      <trkpt lat="45.93678" lon="4.75081">
        <ele>167</ele>
        <time>2018-01-28T10:49:28Z</time>
      </trkpt>
      <trkpt lat="45.93678" lon="4.7508">
        <ele>167</ele>
        <time>2018-01-28T10:49:29Z</time>
      </trkpt>
      <trkpt lat="45.93675" lon="4.75091">
        <ele>167</ele>
        <time>2018-01-28T10:49:48Z</time>
      </trkpt>
      <trkpt lat="45.93674" lon="4.75093">
        <ele>168</ele>
        <time>2018-01-28T10:49:49Z</time>
      </trkpt>
      <trkpt lat="45.9367" lon="4.75104">
        <ele>168</ele>
        <time>2018-01-28T10:49:52Z</time>
      </trkpt>
      <trkpt lat="45.93668" lon="4.75108">
        <ele>168</ele>
        <time>2018-01-28T10:49:53Z</time>
      </trkpt>
      <trkpt lat="45.93665" lon="4.75116">
        <ele>168</ele>
        <time>2018-01-28T10:49:55Z</time>
      </trkpt>
      <trkpt lat="45.93663" lon="4.75119">
        <ele>168</ele>
        <time>2018-01-28T10:49:56Z</time>
      </trkpt>
      <trkpt lat="45.93661" lon="4.75127">
        <ele>168</ele>
        <time>2018-01-28T10:49:58Z</time>
      </trkpt>
      <trkpt lat="45.93659" lon="4.75131">
        <ele>168</ele>
        <time>2018-01-28T10:49:59Z</time>
      </trkpt>
      <trkpt lat="45.93654" lon="4.75139">
        <ele>168</ele>
        <time>2018-01-28T10:50:01Z</time>
      </trkpt>
      <trkpt lat="45.93652" lon="4.75142">
        <ele>168</ele>
        <time>2018-01-28T10:50:02Z</time>
      </trkpt>
      <trkpt lat="45.93647" lon="4.75153">
        <ele>168</ele>
        <time>2018-01-28T10:50:06Z</time>
      </trkpt>
      <trkpt lat="45.93645" lon="4.75155">
        <ele>168</ele>
        <time>2018-01-28T10:50:07Z</time>
      </trkpt>
      <trkpt lat="45.93643" lon="4.75164">
        <ele>168</ele>
        <time>2018-01-28T10:50:09Z</time>
      </trkpt>
      <trkpt lat="45.93641" lon="4.75168">
        <ele>168</ele>
        <time>2018-01-28T10:50:10Z</time>
      </trkpt>
      <trkpt lat="45.93639" lon="4.75177">
        <ele>168</ele>
        <time>2018-01-28T10:50:12Z</time>
      </trkpt>
      <trkpt lat="45.93637" lon="4.75181">
        <ele>168</ele>
        <time>2018-01-28T10:50:13Z</time>
      </trkpt>
      <trkpt lat="45.93633" lon="4.7519">
        <ele>168</ele>
        <time>2018-01-28T10:50:15Z</time>
      </trkpt>
      <trkpt lat="45.93632" lon="4.75195">
        <ele>168</ele>
        <time>2018-01-28T10:50:16Z</time>
      </trkpt>
      <trkpt lat="45.93628" lon="4.75206">
        <ele>168</ele>
        <time>2018-01-28T10:50:18Z</time>
      </trkpt>
      <trkpt lat="45.93627" lon="4.75211">
        <ele>168</ele>
        <time>2018-01-28T10:50:19Z</time>
      </trkpt>
      <trkpt lat="45.93623" lon="4.75221">
        <ele>167</ele>
        <time>2018-01-28T10:50:21Z</time>
      </trkpt>
      <trkpt lat="45.93622" lon="4.75226">
        <ele>167</ele>
        <time>2018-01-28T10:50:22Z</time>
      </trkpt>
      <trkpt lat="45.93619" lon="4.75236">
        <ele>167</ele>
        <time>2018-01-28T10:50:24Z</time>
      </trkpt>
      <trkpt lat="45.93618" lon="4.7524">
        <ele>167</ele>
        <time>2018-01-28T10:50:25Z</time>
      </trkpt>
      <trkpt lat="45.93615" lon="4.7525">
        <ele>167</ele>
        <time>2018-01-28T10:50:27Z</time>
      </trkpt>
      <trkpt lat="45.93614" lon="4.75255">
        <ele>168</ele>
        <time>2018-01-28T10:50:28Z</time>
      </trkpt>
      <trkpt lat="45.93612" lon="4.75264">
        <ele>168</ele>
        <time>2018-01-28T10:50:30Z</time>
      </trkpt>
      <trkpt lat="45.9361" lon="4.7527">
        <ele>168</ele>
        <time>2018-01-28T10:50:31Z</time>
      </trkpt>
      <trkpt lat="45.93607" lon="4.75281">
        <ele>168</ele>
        <time>2018-01-28T10:50:33Z</time>
      </trkpt>
      <trkpt lat="45.93606" lon="4.75286">
        <ele>168</ele>
        <time>2018-01-28T10:50:34Z</time>
      </trkpt>
      <trkpt lat="45.93604" lon="4.75297">
        <ele>168</ele>
        <time>2018-01-28T10:50:36Z</time>
      </trkpt>
      <trkpt lat="45.93603" lon="4.75302">
        <ele>168</ele>
        <time>2018-01-28T10:50:37Z</time>
      </trkpt>
      <trkpt lat="45.93602" lon="4.75311">
        <ele>169</ele>
        <time>2018-01-28T10:50:39Z</time>
      </trkpt>
      <trkpt lat="45.93601" lon="4.75315">
        <ele>169</ele>
        <time>2018-01-28T10:50:40Z</time>
      </trkpt>
      <trkpt lat="45.93599" lon="4.75327">
        <ele>169</ele>
        <time>2018-01-28T10:50:43Z</time>
      </trkpt>
      <trkpt lat="45.93598" lon="4.75331">
        <ele>169</ele>
        <time>2018-01-28T10:50:44Z</time>
      </trkpt>
      <trkpt lat="45.93597" lon="4.75341">
        <ele>170</ele>
        <time>2018-01-28T10:50:46Z</time>
      </trkpt>
      <trkpt lat="45.93596" lon="4.75346">
        <ele>169</ele>
        <time>2018-01-28T10:50:47Z</time>
      </trkpt>
      <trkpt lat="45.93593" lon="4.75358">
        <ele>169</ele>
        <time>2018-01-28T10:50:50Z</time>
      </trkpt>
      <trkpt lat="45.93592" lon="4.75363">
        <ele>169</ele>
        <time>2018-01-28T10:50:51Z</time>
      </trkpt>
      <trkpt lat="45.93589" lon="4.75374">
        <ele>169</ele>
        <time>2018-01-28T10:50:53Z</time>
      </trkpt>
      <trkpt lat="45.93588" lon="4.75379">
        <ele>169</ele>
        <time>2018-01-28T10:50:54Z</time>
      </trkpt>
      <trkpt lat="45.93585" lon="4.75388">
        <ele>169</ele>
        <time>2018-01-28T10:50:56Z</time>
      </trkpt>
      <trkpt lat="45.93584" lon="4.75393">
        <ele>169</ele>
        <time>2018-01-28T10:50:57Z</time>
      </trkpt>
      <trkpt lat="45.93582" lon="4.75401">
        <ele>168</ele>
        <time>2018-01-28T10:50:59Z</time>
      </trkpt>
      <trkpt lat="45.93581" lon="4.75406">
        <ele>168</ele>
        <time>2018-01-28T10:51:00Z</time>
      </trkpt>
      <trkpt lat="45.93578" lon="4.75413">
        <ele>168</ele>
        <time>2018-01-28T10:51:02Z</time>
      </trkpt>
      <trkpt lat="45.93576" lon="4.75418">
        <ele>168</ele>
        <time>2018-01-28T10:51:03Z</time>
      </trkpt>
      <trkpt lat="45.93575" lon="4.75429">
        <ele>168</ele>
        <time>2018-01-28T10:51:05Z</time>
      </trkpt>
      <trkpt lat="45.93574" lon="4.75435">
        <ele>168</ele>
        <time>2018-01-28T10:51:06Z</time>
      </trkpt>
      <trkpt lat="45.93573" lon="4.75447">
        <ele>168</ele>
        <time>2018-01-28T10:51:08Z</time>
      </trkpt>
      <trkpt lat="45.93573" lon="4.75452">
        <ele>168</ele>
        <time>2018-01-28T10:51:09Z</time>
      </trkpt>
      <trkpt lat="45.93571" lon="4.75462">
        <ele>168</ele>
        <time>2018-01-28T10:51:11Z</time>
      </trkpt>
      <trkpt lat="45.93571" lon="4.75467">
        <ele>168</ele>
        <time>2018-01-28T10:51:12Z</time>
      </trkpt>
      <trkpt lat="45.9357" lon="4.75478">
        <ele>168</ele>
        <time>2018-01-28T10:51:14Z</time>
      </trkpt>
      <trkpt lat="45.93569" lon="4.75485">
        <ele>169</ele>
        <time>2018-01-28T10:51:15Z</time>
      </trkpt>
      <trkpt lat="45.93568" lon="4.75497">
        <ele>169</ele>
        <time>2018-01-28T10:51:17Z</time>
      </trkpt>
      <trkpt lat="45.93567" lon="4.75503">
        <ele>169</ele>
        <time>2018-01-28T10:51:18Z</time>
      </trkpt>
      <trkpt lat="45.93566" lon="4.75514">
        <ele>169</ele>
        <time>2018-01-28T10:51:20Z</time>
      </trkpt>
      <trkpt lat="45.93565" lon="4.75518">
        <ele>169</ele>
        <time>2018-01-28T10:51:21Z</time>
      </trkpt>
      <trkpt lat="45.93564" lon="4.75528">
        <ele>169</ele>
        <time>2018-01-28T10:51:23Z</time>
      </trkpt>
      <trkpt lat="45.93563" lon="4.75533">
        <ele>169</ele>
        <time>2018-01-28T10:51:24Z</time>
      </trkpt>
      <trkpt lat="45.9356" lon="4.75545">
        <ele>169</ele>
        <time>2018-01-28T10:51:26Z</time>
      </trkpt>
      <trkpt lat="45.93559" lon="4.75551">
        <ele>169</ele>
        <time>2018-01-28T10:51:27Z</time>
      </trkpt>
      <trkpt lat="45.93557" lon="4.75561">
        <ele>169</ele>
        <time>2018-01-28T10:51:29Z</time>
      </trkpt>
      <trkpt lat="45.93557" lon="4.75565">
        <ele>169</ele>
        <time>2018-01-28T10:51:30Z</time>
      </trkpt>
      <trkpt lat="45.93555" lon="4.75574">
        <ele>169</ele>
        <time>2018-01-28T10:51:32Z</time>
      </trkpt>
      <trkpt lat="45.93554" lon="4.75579">
        <ele>169</ele>
        <time>2018-01-28T10:51:33Z</time>
      </trkpt>
      <trkpt lat="45.93553" lon="4.75591">
        <ele>170</ele>
        <time>2018-01-28T10:51:35Z</time>
      </trkpt>
      <trkpt lat="45.93553" lon="4.75602">
        <ele>170</ele>
        <time>2018-01-28T10:51:36Z</time>
      </trkpt>
      <trkpt lat="45.93551" lon="4.75613">
        <ele>170</ele>
        <time>2018-01-28T10:51:38Z</time>
      </trkpt>
      <trkpt lat="45.9355" lon="4.75619">
        <ele>170</ele>
        <time>2018-01-28T10:51:39Z</time>
      </trkpt>
      <trkpt lat="45.93549" lon="4.75626">
        <ele>170</ele>
        <time>2018-01-28T10:51:40Z</time>
      </trkpt>
      <trkpt lat="45.93548" lon="4.75632">
        <ele>170</ele>
        <time>2018-01-28T10:51:41Z</time>
      </trkpt>
      <trkpt lat="45.93547" lon="4.75639">
        <ele>170</ele>
        <time>2018-01-28T10:51:42Z</time>
      </trkpt>
      <trkpt lat="45.93546" lon="4.75645">
        <ele>170</ele>
        <time>2018-01-28T10:51:43Z</time>
      </trkpt>
      <trkpt lat="45.93543" lon="4.75657">
        <ele>170</ele>
        <time>2018-01-28T10:51:45Z</time>
      </trkpt>
      <trkpt lat="45.93542" lon="4.75662">
        <ele>170</ele>
        <time>2018-01-28T10:51:46Z</time>
      </trkpt>
      <trkpt lat="45.9354" lon="4.75674">
        <ele>170</ele>
        <time>2018-01-28T10:51:48Z</time>
      </trkpt>
      <trkpt lat="45.93539" lon="4.7568">
        <ele>170</ele>
        <time>2018-01-28T10:51:49Z</time>
      </trkpt>
      <trkpt lat="45.93538" lon="4.75693">
        <ele>170</ele>
        <time>2018-01-28T10:51:51Z</time>
      </trkpt>
      <trkpt lat="45.93537" lon="4.75698">
        <ele>170</ele>
        <time>2018-01-28T10:51:52Z</time>
      </trkpt>
      <trkpt lat="45.93535" lon="4.75708">
        <ele>170</ele>
        <time>2018-01-28T10:51:54Z</time>
      </trkpt>
      <trkpt lat="45.93535" lon="4.75713">
        <ele>170</ele>
        <time>2018-01-28T10:51:55Z</time>
      </trkpt>
      <trkpt lat="45.93533" lon="4.75723">
        <ele>170</ele>
        <time>2018-01-28T10:51:57Z</time>
      </trkpt>
      <trkpt lat="45.93532" lon="4.75728">
        <ele>169</ele>
        <time>2018-01-28T10:51:58Z</time>
      </trkpt>
      <trkpt lat="45.93531" lon="4.75738">
        <ele>169</ele>
        <time>2018-01-28T10:52:00Z</time>
      </trkpt>
      <trkpt lat="45.9353" lon="4.75743">
        <ele>169</ele>
        <time>2018-01-28T10:52:01Z</time>
      </trkpt>
      <trkpt lat="45.93529" lon="4.75754">
        <ele>169</ele>
        <time>2018-01-28T10:52:03Z</time>
      </trkpt>
      <trkpt lat="45.93528" lon="4.7576">
        <ele>169</ele>
        <time>2018-01-28T10:52:04Z</time>
      </trkpt>
      <trkpt lat="45.93526" lon="4.75771">
        <ele>169</ele>
        <time>2018-01-28T10:52:06Z</time>
      </trkpt>
      <trkpt lat="45.93526" lon="4.75776">
        <ele>169</ele>
        <time>2018-01-28T10:52:07Z</time>
      </trkpt>
      <trkpt lat="45.93526" lon="4.75785">
        <ele>169</ele>
        <time>2018-01-28T10:52:09Z</time>
      </trkpt>
      <trkpt lat="45.93526" lon="4.75789">
        <ele>169</ele>
        <time>2018-01-28T10:52:10Z</time>
      </trkpt>
      <trkpt lat="45.93524" lon="4.758">
        <ele>169</ele>
        <time>2018-01-28T10:52:13Z</time>
      </trkpt>
      <trkpt lat="45.93524" lon="4.75805">
        <ele>169</ele>
        <time>2018-01-28T10:52:14Z</time>
      </trkpt>
      <trkpt lat="45.93524" lon="4.75812">
        <ele>169</ele>
        <time>2018-01-28T10:52:15Z</time>
      </trkpt>
      <trkpt lat="45.93524" lon="4.75819">
        <ele>169</ele>
        <time>2018-01-28T10:52:16Z</time>
      </trkpt>
      <trkpt lat="45.93525" lon="4.75832">
        <ele>169</ele>
        <time>2018-01-28T10:52:18Z</time>
      </trkpt>
      <trkpt lat="45.93525" lon="4.75837">
        <ele>168</ele>
        <time>2018-01-28T10:52:19Z</time>
      </trkpt>
      <trkpt lat="45.93527" lon="4.75847">
        <ele>168</ele>
        <time>2018-01-28T10:52:21Z</time>
      </trkpt>
      <trkpt lat="45.93529" lon="4.75852">
        <ele>168</ele>
        <time>2018-01-28T10:52:22Z</time>
      </trkpt>
      <trkpt lat="45.93531" lon="4.75862">
        <ele>168</ele>
        <time>2018-01-28T10:52:24Z</time>
      </trkpt>
      <trkpt lat="45.93533" lon="4.75868">
        <ele>168</ele>
        <time>2018-01-28T10:52:25Z</time>
      </trkpt>
      <trkpt lat="45.93535" lon="4.75877">
        <ele>169</ele>
        <time>2018-01-28T10:52:27Z</time>
      </trkpt>
      <trkpt lat="45.93537" lon="4.75882">
        <ele>169</ele>
        <time>2018-01-28T10:52:28Z</time>
      </trkpt>
      <trkpt lat="45.93539" lon="4.7589">
        <ele>169</ele>
        <time>2018-01-28T10:52:30Z</time>
      </trkpt>
      <trkpt lat="45.9354" lon="4.75894">
        <ele>169</ele>
        <time>2018-01-28T10:52:31Z</time>
      </trkpt>
      <trkpt lat="45.93544" lon="4.75903">
        <ele>169</ele>
        <time>2018-01-28T10:52:34Z</time>
      </trkpt>
      <trkpt lat="45.93545" lon="4.75906">
        <ele>169</ele>
        <time>2018-01-28T10:52:35Z</time>
      </trkpt>
      <trkpt lat="45.93549" lon="4.75916">
        <ele>169</ele>
        <time>2018-01-28T10:52:38Z</time>
      </trkpt>
      <trkpt lat="45.9355" lon="4.7592">
        <ele>169</ele>
        <time>2018-01-28T10:52:39Z</time>
      </trkpt>
      <trkpt lat="45.93552" lon="4.75928">
        <ele>169</ele>
        <time>2018-01-28T10:52:41Z</time>
      </trkpt>
      <trkpt lat="45.93553" lon="4.75933">
        <ele>169</ele>
        <time>2018-01-28T10:52:42Z</time>
      </trkpt>
      <trkpt lat="45.93556" lon="4.75942">
        <ele>169</ele>
        <time>2018-01-28T10:52:44Z</time>
      </trkpt>
      <trkpt lat="45.93558" lon="4.75947">
        <ele>169</ele>
        <time>2018-01-28T10:52:45Z</time>
      </trkpt>
      <trkpt lat="45.93562" lon="4.75956">
        <ele>169</ele>
        <time>2018-01-28T10:52:47Z</time>
      </trkpt>
      <trkpt lat="45.93563" lon="4.75961">
        <ele>169</ele>
        <time>2018-01-28T10:52:48Z</time>
      </trkpt>
      <trkpt lat="45.93567" lon="4.7597">
        <ele>169</ele>
        <time>2018-01-28T10:52:50Z</time>
      </trkpt>
      <trkpt lat="45.93568" lon="4.75974">
        <ele>170</ele>
        <time>2018-01-28T10:52:51Z</time>
      </trkpt>
      <trkpt lat="45.93571" lon="4.75985">
        <ele>170</ele>
        <time>2018-01-28T10:52:54Z</time>
      </trkpt>
      <trkpt lat="45.93573" lon="4.7599">
        <ele>170</ele>
        <time>2018-01-28T10:52:55Z</time>
      </trkpt>
      <trkpt lat="45.93576" lon="4.76002">
        <ele>171</ele>
        <time>2018-01-28T10:52:58Z</time>
      </trkpt>
      <trkpt lat="45.93577" lon="4.76005">
        <ele>171</ele>
        <time>2018-01-28T10:52:59Z</time>
      </trkpt>
      <trkpt lat="45.93585" lon="4.76009">
        <ele>171</ele>
        <time>2018-01-28T10:54:13Z</time>
      </trkpt>
      <trkpt lat="45.93586" lon="4.76011">
        <ele>171</ele>
        <time>2018-01-28T10:54:14Z</time>
      </trkpt>
      <trkpt lat="45.9359" lon="4.7602">
        <ele>171</ele>
        <time>2018-01-28T10:54:17Z</time>
      </trkpt>
      <trkpt lat="45.93591" lon="4.76024">
        <ele>171</ele>
        <time>2018-01-28T10:54:18Z</time>
      </trkpt>
      <trkpt lat="45.93594" lon="4.76032">
        <ele>170</ele>
        <time>2018-01-28T10:54:20Z</time>
      </trkpt>
      <trkpt lat="45.93595" lon="4.76036">
        <ele>170</ele>
        <time>2018-01-28T10:54:21Z</time>
      </trkpt>
      <trkpt lat="45.93599" lon="4.76046">
        <ele>170</ele>
        <time>2018-01-28T10:54:24Z</time>
      </trkpt>
      <trkpt lat="45.93599" lon="4.76049">
        <ele>170</ele>
        <time>2018-01-28T10:54:25Z</time>
      </trkpt>
      <trkpt lat="45.93602" lon="4.76059">
        <ele>170</ele>
        <time>2018-01-28T10:54:28Z</time>
      </trkpt>
      <trkpt lat="45.93603" lon="4.76063">
        <ele>170</ele>
        <time>2018-01-28T10:54:29Z</time>
      </trkpt>
      <trkpt lat="45.93606" lon="4.76074">
        <ele>170</ele>
        <time>2018-01-28T10:54:32Z</time>
      </trkpt>
      <trkpt lat="45.93607" lon="4.76078">
        <ele>170</ele>
        <time>2018-01-28T10:54:33Z</time>
      </trkpt>
      <trkpt lat="45.9361" lon="4.76089">
        <ele>170</ele>
        <time>2018-01-28T10:54:36Z</time>
      </trkpt>
      <trkpt lat="45.93611" lon="4.76093">
        <ele>170</ele>
        <time>2018-01-28T10:54:37Z</time>
      </trkpt>
      <trkpt lat="45.93614" lon="4.76103">
        <ele>170</ele>
        <time>2018-01-28T10:54:40Z</time>
      </trkpt>
      <trkpt lat="45.93615" lon="4.76106">
        <ele>170</ele>
        <time>2018-01-28T10:54:41Z</time>
      </trkpt>
      <trkpt lat="45.93618" lon="4.76113">
        <ele>169</ele>
        <time>2018-01-28T10:54:43Z</time>
      </trkpt>
      <trkpt lat="45.93619" lon="4.76117">
        <ele>169</ele>
        <time>2018-01-28T10:54:44Z</time>
      </trkpt>
      <trkpt lat="45.93623" lon="4.76128">
        <ele>169</ele>
        <time>2018-01-28T10:54:47Z</time>
      </trkpt>
      <trkpt lat="45.93624" lon="4.76133">
        <ele>169</ele>
        <time>2018-01-28T10:54:48Z</time>
      </trkpt>
      <trkpt lat="45.93626" lon="4.76143">
        <ele>169</ele>
        <time>2018-01-28T10:54:51Z</time>
      </trkpt>
      <trkpt lat="45.93627" lon="4.76146">
        <ele>169</ele>
        <time>2018-01-28T10:54:52Z</time>
      </trkpt>
      <trkpt lat="45.9363" lon="4.76156">
        <ele>170</ele>
        <time>2018-01-28T10:54:55Z</time>
      </trkpt>
      <trkpt lat="45.93631" lon="4.7616">
        <ele>170</ele>
        <time>2018-01-28T10:54:56Z</time>
      </trkpt>
      <trkpt lat="45.93633" lon="4.7617">
        <ele>169</ele>
        <time>2018-01-28T10:54:59Z</time>
      </trkpt>
      <trkpt lat="45.93634" lon="4.76173">
        <ele>169</ele>
        <time>2018-01-28T10:55:00Z</time>
      </trkpt>
      <trkpt lat="45.93637" lon="4.76182">
        <ele>169</ele>
        <time>2018-01-28T10:55:03Z</time>
      </trkpt>
      <trkpt lat="45.93638" lon="4.76186">
        <ele>169</ele>
        <time>2018-01-28T10:55:04Z</time>
      </trkpt>
      <trkpt lat="45.93641" lon="4.76193">
        <ele>169</ele>
        <time>2018-01-28T10:55:06Z</time>
      </trkpt>
      <trkpt lat="45.93643" lon="4.76197">
        <ele>169</ele>
        <time>2018-01-28T10:55:07Z</time>
      </trkpt>
      <trkpt lat="45.93647" lon="4.76207">
        <ele>169</ele>
        <time>2018-01-28T10:55:10Z</time>
      </trkpt>
      <trkpt lat="45.93648" lon="4.76211">
        <ele>169</ele>
        <time>2018-01-28T10:55:11Z</time>
      </trkpt>
      <trkpt lat="45.93652" lon="4.76222">
        <ele>169</ele>
        <time>2018-01-28T10:55:14Z</time>
      </trkpt>
      <trkpt lat="45.93653" lon="4.76226">
        <ele>169</ele>
        <time>2018-01-28T10:55:15Z</time>
      </trkpt>
      <trkpt lat="45.93657" lon="4.76237">
        <ele>169</ele>
        <time>2018-01-28T10:55:18Z</time>
      </trkpt>
      <trkpt lat="45.93658" lon="4.76241">
        <ele>169</ele>
        <time>2018-01-28T10:55:19Z</time>
      </trkpt>
      <trkpt lat="45.9366" lon="4.7625">
        <ele>170</ele>
        <time>2018-01-28T10:55:21Z</time>
      </trkpt>
      <trkpt lat="45.93661" lon="4.76254">
        <ele>169</ele>
        <time>2018-01-28T10:55:22Z</time>
      </trkpt>
      <trkpt lat="45.93664" lon="4.76265">
        <ele>169</ele>
        <time>2018-01-28T10:55:25Z</time>
      </trkpt>
      <trkpt lat="45.93665" lon="4.76268">
        <ele>169</ele>
        <time>2018-01-28T10:55:26Z</time>
      </trkpt>
      <trkpt lat="45.93667" lon="4.76278">
        <ele>169</ele>
        <time>2018-01-28T10:55:30Z</time>
      </trkpt>
      <trkpt lat="45.93668" lon="4.76281">
        <ele>170</ele>
        <time>2018-01-28T10:55:31Z</time>
      </trkpt>
      <trkpt lat="45.93671" lon="4.76291">
        <ele>170</ele>
        <time>2018-01-28T10:55:35Z</time>
      </trkpt>
      <trkpt lat="45.93672" lon="4.76294">
        <ele>170</ele>
        <time>2018-01-28T10:55:36Z</time>
      </trkpt>
      <trkpt lat="45.93675" lon="4.76305">
        <ele>170</ele>
        <time>2018-01-28T10:55:40Z</time>
      </trkpt>
      <trkpt lat="45.93676" lon="4.76307">
        <ele>170</ele>
        <time>2018-01-28T10:55:41Z</time>
      </trkpt>
      <trkpt lat="45.93681" lon="4.76317">
        <ele>170</ele>
        <time>2018-01-28T10:55:46Z</time>
      </trkpt>
      <trkpt lat="45.93681" lon="4.7632">
        <ele>170</ele>
        <time>2018-01-28T10:55:47Z</time>
      </trkpt>
      <trkpt lat="45.93685" lon="4.7633">
        <ele>170</ele>
        <time>2018-01-28T10:55:52Z</time>
      </trkpt>
      <trkpt lat="45.93686" lon="4.76332">
        <ele>170</ele>
        <time>2018-01-28T10:55:53Z</time>
      </trkpt>
      <trkpt lat="45.9369" lon="4.7634">
        <ele>169</ele>
        <time>2018-01-28T10:55:57Z</time>
      </trkpt>
      <trkpt lat="45.93691" lon="4.76343">
        <ele>169</ele>
        <time>2018-01-28T10:55:58Z</time>
      </trkpt>
      <trkpt lat="45.93695" lon="4.76354">
        <ele>169</ele>
        <time>2018-01-28T10:56:02Z</time>
      </trkpt>
      <trkpt lat="45.93696" lon="4.76358">
        <ele>169</ele>
        <time>2018-01-28T10:56:03Z</time>
      </trkpt>
      <trkpt lat="45.937" lon="4.76368">
        <ele>169</ele>
        <time>2018-01-28T10:56:06Z</time>
      </trkpt>
      <trkpt lat="45.93701" lon="4.76372">
        <ele>169</ele>
        <time>2018-01-28T10:56:07Z</time>
      </trkpt>
      <trkpt lat="45.93705" lon="4.76382">
        <ele>169</ele>
        <time>2018-01-28T10:56:09Z</time>
      </trkpt>
      <trkpt lat="45.93706" lon="4.76386">
        <ele>169</ele>
        <time>2018-01-28T10:56:10Z</time>
      </trkpt>
      <trkpt lat="45.9371" lon="4.76397">
        <ele>169</ele>
        <time>2018-01-28T10:56:13Z</time>
      </trkpt>
      <trkpt lat="45.9371" lon="4.764">
        <ele>169</ele>
        <time>2018-01-28T10:56:14Z</time>
      </trkpt>
      <trkpt lat="45.93713" lon="4.76408">
        <ele>169</ele>
        <time>2018-01-28T10:56:17Z</time>
      </trkpt>
      <trkpt lat="45.93715" lon="4.76411">
        <ele>169</ele>
        <time>2018-01-28T10:56:18Z</time>
      </trkpt>
      <trkpt lat="45.93718" lon="4.76421">
        <ele>169</ele>
        <time>2018-01-28T10:56:21Z</time>
      </trkpt>
      <trkpt lat="45.93719" lon="4.76424">
        <ele>169</ele>
        <time>2018-01-28T10:56:22Z</time>
      </trkpt>
      <trkpt lat="45.93723" lon="4.76435">
        <ele>169</ele>
        <time>2018-01-28T10:56:25Z</time>
      </trkpt>
      <trkpt lat="45.93724" lon="4.76438">
        <ele>169</ele>
        <time>2018-01-28T10:56:26Z</time>
      </trkpt>
      <trkpt lat="45.93727" lon="4.76446">
        <ele>169</ele>
        <time>2018-01-28T10:56:29Z</time>
      </trkpt>
      <trkpt lat="45.93728" lon="4.7645">
        <ele>169</ele>
        <time>2018-01-28T10:56:30Z</time>
      </trkpt>
      <trkpt lat="45.93731" lon="4.76458">
        <ele>169</ele>
        <time>2018-01-28T10:56:33Z</time>
      </trkpt>
      <trkpt lat="45.93732" lon="4.76461">
        <ele>169</ele>
        <time>2018-01-28T10:56:34Z</time>
      </trkpt>
      <trkpt lat="45.93737" lon="4.76471">
        <ele>169</ele>
        <time>2018-01-28T10:56:38Z</time>
      </trkpt>
      <trkpt lat="45.93738" lon="4.76473">
        <ele>169</ele>
        <time>2018-01-28T10:56:39Z</time>
      </trkpt>
      <trkpt lat="45.93741" lon="4.76481">
        <ele>169</ele>
        <time>2018-01-28T10:56:43Z</time>
      </trkpt>
      <trkpt lat="45.93742" lon="4.76484">
        <ele>169</ele>
        <time>2018-01-28T10:56:44Z</time>
      </trkpt>
      <trkpt lat="45.93746" lon="4.76495">
        <ele>170</ele>
        <time>2018-01-28T10:56:47Z</time>
      </trkpt>
      <trkpt lat="45.93747" lon="4.76498">
        <ele>170</ele>
        <time>2018-01-28T10:56:48Z</time>
      </trkpt>
      <trkpt lat="45.9375" lon="4.76508">
        <ele>169</ele>
        <time>2018-01-28T10:56:51Z</time>
      </trkpt>
      <trkpt lat="45.93751" lon="4.7651">
        <ele>170</ele>
        <time>2018-01-28T10:56:52Z</time>
      </trkpt>
      <trkpt lat="45.93754" lon="4.76521">
        <ele>170</ele>
        <time>2018-01-28T10:56:56Z</time>
      </trkpt>
      <trkpt lat="45.93755" lon="4.76523">
        <ele>170</ele>
        <time>2018-01-28T10:56:57Z</time>
      </trkpt>
      <trkpt lat="45.93751" lon="4.76513">
        <ele>170</ele>
        <time>2018-01-28T10:58:51Z</time>
      </trkpt>
      <trkpt lat="45.9375" lon="4.7651">
        <ele>170</ele>
        <time>2018-01-28T10:58:52Z</time>
      </trkpt>
      <trkpt lat="45.93747" lon="4.76499">
        <ele>170</ele>
        <time>2018-01-28T10:58:55Z</time>
      </trkpt>
      <trkpt lat="45.93746" lon="4.76496">
        <ele>170</ele>
        <time>2018-01-28T10:58:56Z</time>
      </trkpt>
      <trkpt lat="45.93743" lon="4.76486">
        <ele>169</ele>
        <time>2018-01-28T10:58:59Z</time>
      </trkpt>
      <trkpt lat="45.93741" lon="4.76482">
        <ele>169</ele>
        <time>2018-01-28T10:59:00Z</time>
      </trkpt>
      <trkpt lat="45.93737" lon="4.76472">
        <ele>169</ele>
        <time>2018-01-28T10:59:03Z</time>
      </trkpt>
      <trkpt lat="45.93735" lon="4.76469">
        <ele>169</ele>
        <time>2018-01-28T10:59:04Z</time>
      </trkpt>
      <trkpt lat="45.93733" lon="4.76461">
        <ele>169</ele>
        <time>2018-01-28T10:59:06Z</time>
      </trkpt>
      <trkpt lat="45.93732" lon="4.76456">
        <ele>169</ele>
        <time>2018-01-28T10:59:07Z</time>
      </trkpt>
      <trkpt lat="45.9373" lon="4.76447">
        <ele>169</ele>
        <time>2018-01-28T10:59:09Z</time>
      </trkpt>
      <trkpt lat="45.93729" lon="4.76443">
        <ele>169</ele>
        <time>2018-01-28T10:59:10Z</time>
      </trkpt>
      <trkpt lat="45.93726" lon="4.76435">
        <ele>169</ele>
        <time>2018-01-28T10:59:12Z</time>
      </trkpt>
      <trkpt lat="45.93725" lon="4.76431">
        <ele>169</ele>
        <time>2018-01-28T10:59:13Z</time>
      </trkpt>
      <trkpt lat="45.93722" lon="4.76421">
        <ele>169</ele>
        <time>2018-01-28T10:59:15Z</time>
      </trkpt>
      <trkpt lat="45.93721" lon="4.76416">
        <ele>169</ele>
        <time>2018-01-28T10:59:16Z</time>
      </trkpt>
      <trkpt lat="45.93718" lon="4.76408">
        <ele>169</ele>
        <time>2018-01-28T10:59:18Z</time>
      </trkpt>
      <trkpt lat="45.93716" lon="4.76404">
        <ele>169</ele>
        <time>2018-01-28T10:59:19Z</time>
      </trkpt>
      <trkpt lat="45.93712" lon="4.76397">
        <ele>169</ele>
        <time>2018-01-28T10:59:21Z</time>
      </trkpt>
      <trkpt lat="45.93711" lon="4.76393">
        <ele>169</ele>
        <time>2018-01-28T10:59:22Z</time>
      </trkpt>
      <trkpt lat="45.93707" lon="4.76384">
        <ele>169</ele>
        <time>2018-01-28T10:59:24Z</time>
      </trkpt>
      <trkpt lat="45.93705" lon="4.76379">
        <ele>169</ele>
        <time>2018-01-28T10:59:25Z</time>
      </trkpt>
      <trkpt lat="45.93701" lon="4.76368">
        <ele>169</ele>
        <time>2018-01-28T10:59:28Z</time>
      </trkpt>
      <trkpt lat="45.937" lon="4.76364">
        <ele>169</ele>
        <time>2018-01-28T10:59:29Z</time>
      </trkpt>
      <trkpt lat="45.93698" lon="4.76356">
        <ele>169</ele>
        <time>2018-01-28T10:59:31Z</time>
      </trkpt>
      <trkpt lat="45.93697" lon="4.76351">
        <ele>169</ele>
        <time>2018-01-28T10:59:32Z</time>
      </trkpt>
      <trkpt lat="45.93693" lon="4.76341">
        <ele>169</ele>
        <time>2018-01-28T10:59:35Z</time>
      </trkpt>
      <trkpt lat="45.93693" lon="4.76338">
        <ele>169</ele>
        <time>2018-01-28T10:59:36Z</time>
      </trkpt>
      <trkpt lat="45.93689" lon="4.76327">
        <ele>170</ele>
        <time>2018-01-28T10:59:41Z</time>
      </trkpt>
      <trkpt lat="45.93688" lon="4.76324">
        <ele>170</ele>
        <time>2018-01-28T10:59:42Z</time>
      </trkpt>
      <trkpt lat="45.93685" lon="4.76312">
        <ele>170</ele>
        <time>2018-01-28T10:59:46Z</time>
      </trkpt>
      <trkpt lat="45.93685" lon="4.76309">
        <ele>170</ele>
        <time>2018-01-28T10:59:47Z</time>
      </trkpt>
      <trkpt lat="45.9368" lon="4.763">
        <ele>170</ele>
        <time>2018-01-28T10:59:50Z</time>
      </trkpt>
      <trkpt lat="45.93679" lon="4.76297">
        <ele>170</ele>
        <time>2018-01-28T10:59:51Z</time>
      </trkpt>
      <trkpt lat="45.93676" lon="4.76285">
        <ele>170</ele>
        <time>2018-01-28T10:59:54Z</time>
      </trkpt>
      <trkpt lat="45.93674" lon="4.7628">
        <ele>170</ele>
        <time>2018-01-28T10:59:55Z</time>
      </trkpt>
      <trkpt lat="45.93671" lon="4.76272">
        <ele>170</ele>
        <time>2018-01-28T10:59:57Z</time>
      </trkpt>
      <trkpt lat="45.9367" lon="4.76268">
        <ele>170</ele>
        <time>2018-01-28T10:59:58Z</time>
      </trkpt>
      <trkpt lat="45.93666" lon="4.76257">
        <ele>170</ele>
        <time>2018-01-28T11:00:01Z</time>
      </trkpt>
      <trkpt lat="45.93665" lon="4.76253">
        <ele>170</ele>
        <time>2018-01-28T11:00:02Z</time>
      </trkpt>
      <trkpt lat="45.93662" lon="4.76244">
        <ele>170</ele>
        <time>2018-01-28T11:00:04Z</time>
      </trkpt>
      <trkpt lat="45.9366" lon="4.76239">
        <ele>169</ele>
        <time>2018-01-28T11:00:05Z</time>
      </trkpt>
      <trkpt lat="45.93656" lon="4.7623">
        <ele>169</ele>
        <time>2018-01-28T11:00:07Z</time>
      </trkpt>
      <trkpt lat="45.93655" lon="4.76226">
        <ele>169</ele>
        <time>2018-01-28T11:00:08Z</time>
      </trkpt>
      <trkpt lat="45.93653" lon="4.76215">
        <ele>169</ele>
        <time>2018-01-28T11:00:11Z</time>
      </trkpt>
      <trkpt lat="45.93652" lon="4.7621">
        <ele>169</ele>
        <time>2018-01-28T11:00:12Z</time>
      </trkpt>
      <trkpt lat="45.9365" lon="4.76201">
        <ele>169</ele>
        <time>2018-01-28T11:00:14Z</time>
      </trkpt>
      <trkpt lat="45.93648" lon="4.76198">
        <ele>169</ele>
        <time>2018-01-28T11:00:15Z</time>
      </trkpt>
      <trkpt lat="45.93646" lon="4.76189">
        <ele>169</ele>
        <time>2018-01-28T11:00:17Z</time>
      </trkpt>
      <trkpt lat="45.93645" lon="4.76185">
        <ele>170</ele>
        <time>2018-01-28T11:00:18Z</time>
      </trkpt>
      <trkpt lat="45.93641" lon="4.76174">
        <ele>170</ele>
        <time>2018-01-28T11:00:21Z</time>
      </trkpt>
      <trkpt lat="45.9364" lon="4.7617">
        <ele>170</ele>
        <time>2018-01-28T11:00:22Z</time>
      </trkpt>
      <trkpt lat="45.93637" lon="4.7616">
        <ele>170</ele>
        <time>2018-01-28T11:00:25Z</time>
      </trkpt>
      <trkpt lat="45.93636" lon="4.76157">
        <ele>170</ele>
        <time>2018-01-28T11:00:26Z</time>
      </trkpt>
      <trkpt lat="45.93634" lon="4.76147">
        <ele>170</ele>
        <time>2018-01-28T11:00:29Z</time>
      </trkpt>
      <trkpt lat="45.93634" lon="4.76143">
        <ele>170</ele>
        <time>2018-01-28T11:00:30Z</time>
      </trkpt>
      <trkpt lat="45.93631" lon="4.76135">
        <ele>170</ele>
        <time>2018-01-28T11:00:32Z</time>
      </trkpt>
      <trkpt lat="45.9363" lon="4.76131">
        <ele>170</ele>
        <time>2018-01-28T11:00:33Z</time>
      </trkpt>
      <trkpt lat="45.93627" lon="4.76123">
        <ele>170</ele>
        <time>2018-01-28T11:00:35Z</time>
      </trkpt>
      <trkpt lat="45.93625" lon="4.76119">
        <ele>170</ele>
        <time>2018-01-28T11:00:36Z</time>
      </trkpt>
      <trkpt lat="45.93622" lon="4.76111">
        <ele>170</ele>
        <time>2018-01-28T11:00:38Z</time>
      </trkpt>
      <trkpt lat="45.9362" lon="4.76107">
        <ele>170</ele>
        <time>2018-01-28T11:00:39Z</time>
      </trkpt>
      <trkpt lat="45.93617" lon="4.76098">
        <ele>170</ele>
        <time>2018-01-28T11:00:41Z</time>
      </trkpt>
      <trkpt lat="45.93616" lon="4.76094">
        <ele>170</ele>
        <time>2018-01-28T11:00:42Z</time>
      </trkpt>
      <trkpt lat="45.93613" lon="4.76082">
        <ele>170</ele>
        <time>2018-01-28T11:00:45Z</time>
      </trkpt>
      <trkpt lat="45.93612" lon="4.76079">
        <ele>170</ele>
        <time>2018-01-28T11:00:46Z</time>
      </trkpt>
      <trkpt lat="45.93608" lon="4.76068">
        <ele>170</ele>
        <time>2018-01-28T11:00:49Z</time>
      </trkpt>
      <trkpt lat="45.93606" lon="4.76064">
        <ele>170</ele>
        <time>2018-01-28T11:00:50Z</time>
      </trkpt>
      <trkpt lat="45.93602" lon="4.76056">
        <ele>170</ele>
        <time>2018-01-28T11:00:52Z</time>
      </trkpt>
      <trkpt lat="45.93599" lon="4.76051">
        <ele>170</ele>
        <time>2018-01-28T11:00:53Z</time>
      </trkpt>
      <trkpt lat="45.93595" lon="4.76042">
        <ele>170</ele>
        <time>2018-01-28T11:00:55Z</time>
      </trkpt>
      <trkpt lat="45.93593" lon="4.76038">
        <ele>170</ele>
        <time>2018-01-28T11:00:56Z</time>
      </trkpt>
      <trkpt lat="45.93589" lon="4.76027">
        <ele>170</ele>
        <time>2018-01-28T11:00:59Z</time>
      </trkpt>
      <trkpt lat="45.93587" lon="4.76024">
        <ele>171</ele>
        <time>2018-01-28T11:01:00Z</time>
      </trkpt>
      <trkpt lat="45.93584" lon="4.76015">
        <ele>171</ele>
        <time>2018-01-28T11:01:02Z</time>
      </trkpt>
      <trkpt lat="45.93581" lon="4.76011">
        <ele>171</ele>
        <time>2018-01-28T11:01:03Z</time>
      </trkpt>
      <trkpt lat="45.93578" lon="4.76002">
        <ele>171</ele>
        <time>2018-01-28T11:01:05Z</time>
      </trkpt>
      <trkpt lat="45.93576" lon="4.75997">
        <ele>171</ele>
        <time>2018-01-28T11:01:06Z</time>
      </trkpt>
      <trkpt lat="45.93573" lon="4.75987">
        <ele>170</ele>
        <time>2018-01-28T11:01:08Z</time>
      </trkpt>
      <trkpt lat="45.93571" lon="4.75982">
        <ele>170</ele>
        <time>2018-01-28T11:01:09Z</time>
      </trkpt>
      <trkpt lat="45.93567" lon="4.75972">
        <ele>169</ele>
        <time>2018-01-28T11:01:11Z</time>
      </trkpt>
      <trkpt lat="45.93566" lon="4.75968">
        <ele>169</ele>
        <time>2018-01-28T11:01:12Z</time>
      </trkpt>
      <trkpt lat="45.93562" lon="4.75958">
        <ele>169</ele>
        <time>2018-01-28T11:01:15Z</time>
      </trkpt>
      <trkpt lat="45.93561" lon="4.75954">
        <ele>169</ele>
        <time>2018-01-28T11:01:16Z</time>
      </trkpt>
      <trkpt lat="45.93558" lon="4.75946">
        <ele>169</ele>
        <time>2018-01-28T11:01:18Z</time>
      </trkpt>
      <trkpt lat="45.93557" lon="4.75941">
        <ele>169</ele>
        <time>2018-01-28T11:01:19Z</time>
      </trkpt>
      <trkpt lat="45.93555" lon="4.7593">
        <ele>169</ele>
        <time>2018-01-28T11:01:21Z</time>
      </trkpt>
      <trkpt lat="45.93553" lon="4.75925">
        <ele>169</ele>
        <time>2018-01-28T11:01:22Z</time>
      </trkpt>
      <trkpt lat="45.93551" lon="4.75917">
        <ele>169</ele>
        <time>2018-01-28T11:01:24Z</time>
      </trkpt>
      <trkpt lat="45.9355" lon="4.75913">
        <ele>169</ele>
        <time>2018-01-28T11:01:25Z</time>
      </trkpt>
      <trkpt lat="45.93547" lon="4.75901">
        <ele>169</ele>
        <time>2018-01-28T11:01:28Z</time>
      </trkpt>
      <trkpt lat="45.93547" lon="4.75897">
        <ele>169</ele>
        <time>2018-01-28T11:01:29Z</time>
      </trkpt>
      <trkpt lat="45.93546" lon="4.75886">
        <ele>169</ele>
        <time>2018-01-28T11:01:32Z</time>
      </trkpt>
      <trkpt lat="45.93544" lon="4.75881">
        <ele>169</ele>
        <time>2018-01-28T11:01:33Z</time>
      </trkpt>
      <trkpt lat="45.93541" lon="4.75874">
        <ele>169</ele>
        <time>2018-01-28T11:01:35Z</time>
      </trkpt>
      <trkpt lat="45.93539" lon="4.7587">
        <ele>169</ele>
        <time>2018-01-28T11:01:36Z</time>
      </trkpt>
      <trkpt lat="45.93536" lon="4.75861">
        <ele>169</ele>
        <time>2018-01-28T11:01:38Z</time>
      </trkpt>
      <trkpt lat="45.93534" lon="4.75856">
        <ele>169</ele>
        <time>2018-01-28T11:01:39Z</time>
      </trkpt>
      <trkpt lat="45.93532" lon="4.75844">
        <ele>168</ele>
        <time>2018-01-28T11:01:41Z</time>
      </trkpt>
      <trkpt lat="45.93532" lon="4.75838">
        <ele>168</ele>
        <time>2018-01-28T11:01:42Z</time>
      </trkpt>
      <trkpt lat="45.9353" lon="4.75827">
        <ele>169</ele>
        <time>2018-01-28T11:01:44Z</time>
      </trkpt>
      <trkpt lat="45.93529" lon="4.75821">
        <ele>169</ele>
        <time>2018-01-28T11:01:45Z</time>
      </trkpt>
      <trkpt lat="45.93527" lon="4.75808">
        <ele>169</ele>
        <time>2018-01-28T11:01:48Z</time>
      </trkpt>
      <trkpt lat="45.93527" lon="4.75804">
        <ele>169</ele>
        <time>2018-01-28T11:01:49Z</time>
      </trkpt>
      <trkpt lat="45.93528" lon="4.75793">
        <ele>169</ele>
        <time>2018-01-28T11:01:51Z</time>
      </trkpt>
      <trkpt lat="45.93529" lon="4.75788">
        <ele>169</ele>
        <time>2018-01-28T11:01:52Z</time>
      </trkpt>
      <trkpt lat="45.93529" lon="4.75778">
        <ele>169</ele>
        <time>2018-01-28T11:01:54Z</time>
      </trkpt>
      <trkpt lat="45.9353" lon="4.75774">
        <ele>169</ele>
        <time>2018-01-28T11:01:55Z</time>
      </trkpt>
      <trkpt lat="45.93531" lon="4.75765">
        <ele>169</ele>
        <time>2018-01-28T11:01:57Z</time>
      </trkpt>
      <trkpt lat="45.93532" lon="4.7576">
        <ele>169</ele>
        <time>2018-01-28T11:01:58Z</time>
      </trkpt>
      <trkpt lat="45.93534" lon="4.75752">
        <ele>169</ele>
        <time>2018-01-28T11:02:00Z</time>
      </trkpt>
      <trkpt lat="45.93535" lon="4.75748">
        <ele>169</ele>
        <time>2018-01-28T11:02:01Z</time>
      </trkpt>
      <trkpt lat="45.93536" lon="4.75736">
        <ele>170</ele>
        <time>2018-01-28T11:02:03Z</time>
      </trkpt>
      <trkpt lat="45.93537" lon="4.7573">
        <ele>170</ele>
        <time>2018-01-28T11:02:04Z</time>
      </trkpt>
      <trkpt lat="45.93538" lon="4.75719">
        <ele>170</ele>
        <time>2018-01-28T11:02:06Z</time>
      </trkpt>
      <trkpt lat="45.93539" lon="4.75712">
        <ele>170</ele>
        <time>2018-01-28T11:02:07Z</time>
      </trkpt>
      <trkpt lat="45.93541" lon="4.75702">
        <ele>170</ele>
        <time>2018-01-28T11:02:09Z</time>
      </trkpt>
      <trkpt lat="45.93541" lon="4.75697">
        <ele>170</ele>
        <time>2018-01-28T11:02:10Z</time>
      </trkpt>
      <trkpt lat="45.93544" lon="4.75685">
        <ele>170</ele>
        <time>2018-01-28T11:02:12Z</time>
      </trkpt>
      <trkpt lat="45.93545" lon="4.75681">
        <ele>170</ele>
        <time>2018-01-28T11:02:13Z</time>
      </trkpt>
      <trkpt lat="45.93547" lon="4.7567">
        <ele>170</ele>
        <time>2018-01-28T11:02:15Z</time>
      </trkpt>
      <trkpt lat="45.93549" lon="4.75664">
        <ele>170</ele>
        <time>2018-01-28T11:02:16Z</time>
      </trkpt>
      <trkpt lat="45.93549" lon="4.75652">
        <ele>170</ele>
        <time>2018-01-28T11:02:18Z</time>
      </trkpt>
      <trkpt lat="45.93549" lon="4.75646">
        <ele>170</ele>
        <time>2018-01-28T11:02:19Z</time>
      </trkpt>
      <trkpt lat="45.9355" lon="4.75636">
        <ele>170</ele>
        <time>2018-01-28T11:02:21Z</time>
      </trkpt>
      <trkpt lat="45.9355" lon="4.75632">
        <ele>170</ele>
        <time>2018-01-28T11:02:22Z</time>
      </trkpt>
      <trkpt lat="45.93551" lon="4.75623">
        <ele>170</ele>
        <time>2018-01-28T11:02:24Z</time>
      </trkpt>
      <trkpt lat="45.93552" lon="4.75618">
        <ele>170</ele>
        <time>2018-01-28T11:02:25Z</time>
      </trkpt>
      <trkpt lat="45.93554" lon="4.75608">
        <ele>170</ele>
        <time>2018-01-28T11:02:27Z</time>
      </trkpt>
      <trkpt lat="45.93555" lon="4.75602">
        <ele>170</ele>
        <time>2018-01-28T11:02:28Z</time>
      </trkpt>
      <trkpt lat="45.93557" lon="4.75592">
        <ele>170</ele>
        <time>2018-01-28T11:02:30Z</time>
      </trkpt>
      <trkpt lat="45.93558" lon="4.75586">
        <ele>170</ele>
        <time>2018-01-28T11:02:31Z</time>
      </trkpt>
      <trkpt lat="45.93561" lon="4.75576">
        <ele>170</ele>
        <time>2018-01-28T11:02:33Z</time>
      </trkpt>
      <trkpt lat="45.93562" lon="4.75572">
        <ele>170</ele>
        <time>2018-01-28T11:02:34Z</time>
      </trkpt>
      <trkpt lat="45.93565" lon="4.75561">
        <ele>170</ele>
        <time>2018-01-28T11:02:36Z</time>
      </trkpt>
      <trkpt lat="45.93566" lon="4.75556">
        <ele>169</ele>
        <time>2018-01-28T11:02:37Z</time>
      </trkpt>
      <trkpt lat="45.93568" lon="4.75545">
        <ele>169</ele>
        <time>2018-01-28T11:02:39Z</time>
      </trkpt>
      <trkpt lat="45.93569" lon="4.7554">
        <ele>169</ele>
        <time>2018-01-28T11:02:40Z</time>
      </trkpt>
      <trkpt lat="45.93571" lon="4.75528">
        <ele>169</ele>
        <time>2018-01-28T11:02:42Z</time>
      </trkpt>
      <trkpt lat="45.93572" lon="4.75522">
        <ele>169</ele>
        <time>2018-01-28T11:02:43Z</time>
      </trkpt>
      <trkpt lat="45.93573" lon="4.75512">
        <ele>169</ele>
        <time>2018-01-28T11:02:45Z</time>
      </trkpt>
      <trkpt lat="45.93574" lon="4.75507">
        <ele>169</ele>
        <time>2018-01-28T11:02:46Z</time>
      </trkpt>
      <trkpt lat="45.93574" lon="4.75499">
        <ele>169</ele>
        <time>2018-01-28T11:02:48Z</time>
      </trkpt>
      <trkpt lat="45.93574" lon="4.75494">
        <ele>169</ele>
        <time>2018-01-28T11:02:49Z</time>
      </trkpt>
      <trkpt lat="45.93575" lon="4.75484">
        <ele>169</ele>
        <time>2018-01-28T11:02:51Z</time>
      </trkpt>
      <trkpt lat="45.93575" lon="4.75479">
        <ele>169</ele>
        <time>2018-01-28T11:02:52Z</time>
      </trkpt>
      <trkpt lat="45.93577" lon="4.75468">
        <ele>168</ele>
        <time>2018-01-28T11:02:54Z</time>
      </trkpt>
      <trkpt lat="45.93578" lon="4.75463">
        <ele>168</ele>
        <time>2018-01-28T11:02:55Z</time>
      </trkpt>
      <trkpt lat="45.93581" lon="4.75451">
        <ele>168</ele>
        <time>2018-01-28T11:02:57Z</time>
      </trkpt>
      <trkpt lat="45.93582" lon="4.75446">
        <ele>168</ele>
        <time>2018-01-28T11:02:58Z</time>
      </trkpt>
      <trkpt lat="45.93584" lon="4.75435">
        <ele>169</ele>
        <time>2018-01-28T11:03:00Z</time>
      </trkpt>
      <trkpt lat="45.93586" lon="4.7543">
        <ele>169</ele>
        <time>2018-01-28T11:03:01Z</time>
      </trkpt>
      <trkpt lat="45.93588" lon="4.75419">
        <ele>168</ele>
        <time>2018-01-28T11:03:03Z</time>
      </trkpt>
      <trkpt lat="45.93589" lon="4.75414">
        <ele>168</ele>
        <time>2018-01-28T11:03:04Z</time>
      </trkpt>
      <trkpt lat="45.93589" lon="4.75405">
        <ele>168</ele>
        <time>2018-01-28T11:03:06Z</time>
      </trkpt>
      <trkpt lat="45.93589" lon="4.75399">
        <ele>169</ele>
        <time>2018-01-28T11:03:07Z</time>
      </trkpt>
      <trkpt lat="45.9359" lon="4.7539">
        <ele>169</ele>
        <time>2018-01-28T11:03:09Z</time>
      </trkpt>
      <trkpt lat="45.93591" lon="4.75386">
        <ele>169</ele>
        <time>2018-01-28T11:03:10Z</time>
      </trkpt>
      <trkpt lat="45.93593" lon="4.75375">
        <ele>169</ele>
        <time>2018-01-28T11:03:12Z</time>
      </trkpt>
      <trkpt lat="45.93594" lon="4.7537">
        <ele>169</ele>
        <time>2018-01-28T11:03:13Z</time>
      </trkpt>
      <trkpt lat="45.93596" lon="4.7536">
        <ele>169</ele>
        <time>2018-01-28T11:03:15Z</time>
      </trkpt>
      <trkpt lat="45.93598" lon="4.75355">
        <ele>169</ele>
        <time>2018-01-28T11:03:16Z</time>
      </trkpt>
      <trkpt lat="45.93601" lon="4.75346">
        <ele>169</ele>
        <time>2018-01-28T11:03:19Z</time>
      </trkpt>
      <trkpt lat="45.93602" lon="4.75343">
        <ele>169</ele>
        <time>2018-01-28T11:03:20Z</time>
      </trkpt>
      <trkpt lat="45.93604" lon="4.75332">
        <ele>169</ele>
        <time>2018-01-28T11:03:22Z</time>
      </trkpt>
      <trkpt lat="45.93605" lon="4.75325">
        <ele>169</ele>
        <time>2018-01-28T11:03:23Z</time>
      </trkpt>
      <trkpt lat="45.93607" lon="4.75319">
        <ele>169</ele>
        <time>2018-01-28T11:03:24Z</time>
      </trkpt>
      <trkpt lat="45.93609" lon="4.75313">
        <ele>169</ele>
        <time>2018-01-28T11:03:25Z</time>
      </trkpt>
      <trkpt lat="45.93611" lon="4.75303">
        <ele>168</ele>
        <time>2018-01-28T11:03:27Z</time>
      </trkpt>
      <trkpt lat="45.93612" lon="4.75297">
        <ele>168</ele>
        <time>2018-01-28T11:03:28Z</time>
      </trkpt>
      <trkpt lat="45.93612" lon="4.75291">
        <ele>168</ele>
        <time>2018-01-28T11:03:29Z</time>
      </trkpt>
      <trkpt lat="45.93614" lon="4.75284">
        <ele>168</ele>
        <time>2018-01-28T11:03:30Z</time>
      </trkpt>
      <trkpt lat="45.93616" lon="4.75273">
        <ele>168</ele>
        <time>2018-01-28T11:03:32Z</time>
      </trkpt>
      <trkpt lat="45.93616" lon="4.75268">
        <ele>168</ele>
        <time>2018-01-28T11:03:33Z</time>
      </trkpt>
      <trkpt lat="45.93619" lon="4.75258">
        <ele>168</ele>
        <time>2018-01-28T11:03:35Z</time>
      </trkpt>
      <trkpt lat="45.9362" lon="4.75254">
        <ele>168</ele>
        <time>2018-01-28T11:03:36Z</time>
      </trkpt>
      <trkpt lat="45.93623" lon="4.75243">
        <ele>167</ele>
        <time>2018-01-28T11:03:38Z</time>
      </trkpt>
      <trkpt lat="45.93625" lon="4.75238">
        <ele>167</ele>
        <time>2018-01-28T11:03:39Z</time>
      </trkpt>
      <trkpt lat="45.93628" lon="4.75227">
        <ele>167</ele>
        <time>2018-01-28T11:03:41Z</time>
      </trkpt>
      <trkpt lat="45.9363" lon="4.75222">
        <ele>167</ele>
        <time>2018-01-28T11:03:42Z</time>
      </trkpt>
      <trkpt lat="45.93633" lon="4.75212">
        <ele>168</ele>
        <time>2018-01-28T11:03:44Z</time>
      </trkpt>
      <trkpt lat="45.93635" lon="4.75207">
        <ele>168</ele>
        <time>2018-01-28T11:03:45Z</time>
      </trkpt>
      <trkpt lat="45.93638" lon="4.75197">
        <ele>168</ele>
        <time>2018-01-28T11:03:47Z</time>
      </trkpt>
      <trkpt lat="45.9364" lon="4.75191">
        <ele>168</ele>
        <time>2018-01-28T11:03:48Z</time>
      </trkpt>
      <trkpt lat="45.93643" lon="4.7518">
        <ele>168</ele>
        <time>2018-01-28T11:03:50Z</time>
      </trkpt>
      <trkpt lat="45.93645" lon="4.75175">
        <ele>168</ele>
        <time>2018-01-28T11:03:51Z</time>
      </trkpt>
      <trkpt lat="45.93648" lon="4.75164">
        <ele>169</ele>
        <time>2018-01-28T11:03:53Z</time>
      </trkpt>
      <trkpt lat="45.9365" lon="4.75159">
        <ele>169</ele>
        <time>2018-01-28T11:03:54Z</time>
      </trkpt>
      <trkpt lat="45.93653" lon="4.7515">
        <ele>168</ele>
        <time>2018-01-28T11:03:57Z</time>
      </trkpt>
      <trkpt lat="45.93655" lon="4.75145">
        <ele>168</ele>
        <time>2018-01-28T11:03:58Z</time>
      </trkpt>
      <trkpt lat="45.93659" lon="4.75134">
        <ele>168</ele>
        <time>2018-01-28T11:04:00Z</time>
      </trkpt>
      <trkpt lat="45.9366" lon="4.75129">
        <ele>168</ele>
        <time>2018-01-28T11:04:01Z</time>
      </trkpt>
      <trkpt lat="45.93665" lon="4.75119">
        <ele>168</ele>
        <time>2018-01-28T11:04:03Z</time>
      </trkpt>
      <trkpt lat="45.93667" lon="4.75114">
        <ele>168</ele>
        <time>2018-01-28T11:04:04Z</time>
      </trkpt>
      <trkpt lat="45.93671" lon="4.75103">
        <ele>168</ele>
        <time>2018-01-28T11:04:06Z</time>
      </trkpt>
      <trkpt lat="45.93672" lon="4.75099">
        <ele>168</ele>
        <time>2018-01-28T11:04:07Z</time>
      </trkpt>
      <trkpt lat="45.93677" lon="4.75089">
        <ele>167</ele>
        <time>2018-01-28T11:04:10Z</time>
      </trkpt>
      <trkpt lat="45.93678" lon="4.75087">
        <ele>167</ele>
        <time>2018-01-28T11:04:11Z</time>
      </trkpt>
      <trkpt lat="45.93682" lon="4.75079">
        <ele>167</ele>
        <time>2018-01-28T11:04:14Z</time>
      </trkpt>
      <trkpt lat="45.93684" lon="4.75076">
        <ele>167</ele>
        <time>2018-01-28T11:04:15Z</time>
      </trkpt>
      <trkpt lat="45.93687" lon="4.75067">
        <ele>167</ele>
        <time>2018-01-28T11:04:17Z</time>
      </trkpt>
      <trkpt lat="45.93689" lon="4.75062">
        <ele>167</ele>
        <time>2018-01-28T11:04:18Z</time>
      </trkpt>
      <trkpt lat="45.93693" lon="4.75052">
        <ele>167</ele>
        <time>2018-01-28T11:04:21Z</time>
      </trkpt>
      <trkpt lat="45.93694" lon="4.75048">
        <ele>167</ele>
        <time>2018-01-28T11:04:22Z</time>
      </trkpt>
      <trkpt lat="45.93697" lon="4.75042">
        <ele>167</ele>
        <time>2018-01-28T11:04:24Z</time>
      </trkpt>
      <trkpt lat="45.937" lon="4.75037">
        <ele>167</ele>
        <time>2018-01-28T11:04:25Z</time>
      </trkpt>
      <trkpt lat="45.93703" lon="4.75031">
        <ele>167</ele>
        <time>2018-01-28T11:04:26Z</time>
      </trkpt>
      <trkpt lat="45.93706" lon="4.75025">
        <ele>167</ele>
        <time>2018-01-28T11:04:27Z</time>
      </trkpt>
      <trkpt lat="45.93711" lon="4.75015">
        <ele>167</ele>
        <time>2018-01-28T11:04:29Z</time>
      </trkpt>
      <trkpt lat="45.93713" lon="4.7501">
        <ele>167</ele>
        <time>2018-01-28T11:04:30Z</time>
      </trkpt>
      <trkpt lat="45.93717" lon="4.75001">
        <ele>168</ele>
        <time>2018-01-28T11:04:32Z</time>
      </trkpt>
      <trkpt lat="45.93719" lon="4.74997">
        <ele>168</ele>
        <time>2018-01-28T11:04:33Z</time>
      </trkpt>
      <trkpt lat="45.93724" lon="4.74989">
        <ele>168</ele>
        <time>2018-01-28T11:04:35Z</time>
      </trkpt>
      <trkpt lat="45.93727" lon="4.74984">
        <ele>168</ele>
        <time>2018-01-28T11:04:36Z</time>
      </trkpt>
      <trkpt lat="45.93732" lon="4.74973">
        <ele>168</ele>
        <time>2018-01-28T11:04:38Z</time>
      </trkpt>
      <trkpt lat="45.93734" lon="4.74969">
        <ele>168</ele>
        <time>2018-01-28T11:04:39Z</time>
      </trkpt>
      <trkpt lat="45.93738" lon="4.7496">
        <ele>169</ele>
        <time>2018-01-28T11:04:41Z</time>
      </trkpt>
      <trkpt lat="45.9374" lon="4.74956">
        <ele>169</ele>
        <time>2018-01-28T11:04:42Z</time>
      </trkpt>
      <trkpt lat="45.93744" lon="4.74948">
        <ele>169</ele>
        <time>2018-01-28T11:04:44Z</time>
      </trkpt>
      <trkpt lat="45.93746" lon="4.74944">
        <ele>169</ele>
        <time>2018-01-28T11:04:45Z</time>
      </trkpt>
      <trkpt lat="45.93749" lon="4.74935">
        <ele>169</ele>
        <time>2018-01-28T11:04:47Z</time>
      </trkpt>
      <trkpt lat="45.93751" lon="4.74931">
        <ele>170</ele>
        <time>2018-01-28T11:04:48Z</time>
      </trkpt>
      <trkpt lat="45.93756" lon="4.74922">
        <ele>171</ele>
        <time>2018-01-28T11:04:50Z</time>
      </trkpt>
      <trkpt lat="45.93758" lon="4.74918">
        <ele>171</ele>
        <time>2018-01-28T11:04:51Z</time>
      </trkpt>
      <trkpt lat="45.93762" lon="4.7491">
        <ele>170</ele>
        <time>2018-01-28T11:04:53Z</time>
      </trkpt>
      <trkpt lat="45.93764" lon="4.74906">
        <ele>170</ele>
        <time>2018-01-28T11:04:54Z</time>
      </trkpt>
      <trkpt lat="45.93769" lon="4.74899">
        <ele>169</ele>
        <time>2018-01-28T11:04:56Z</time>
      </trkpt>
      <trkpt lat="45.9377" lon="4.74896">
        <ele>169</ele>
        <time>2018-01-28T11:04:57Z</time>
      </trkpt>
      <trkpt lat="45.93776" lon="4.74887">
        <ele>169</ele>
        <time>2018-01-28T11:05:00Z</time>
      </trkpt>
      <trkpt lat="45.93778" lon="4.74884">
        <ele>169</ele>
        <time>2018-01-28T11:05:01Z</time>
      </trkpt>
      <trkpt lat="45.93782" lon="4.74875">
        <ele>168</ele>
        <time>2018-01-28T11:05:03Z</time>
      </trkpt>
      <trkpt lat="45.93784" lon="4.74871">
        <ele>168</ele>
        <time>2018-01-28T11:05:04Z</time>
      </trkpt>
      <trkpt lat="45.93788" lon="4.74861">
        <ele>168</ele>
        <time>2018-01-28T11:05:06Z</time>
      </trkpt>
      <trkpt lat="45.9379" lon="4.74856">
        <ele>168</ele>
        <time>2018-01-28T11:05:07Z</time>
      </trkpt>
      <trkpt lat="45.93794" lon="4.74847">
        <ele>168</ele>
        <time>2018-01-28T11:05:09Z</time>
      </trkpt>
      <trkpt lat="45.93796" lon="4.74842">
        <ele>168</ele>
        <time>2018-01-28T11:05:10Z</time>
      </trkpt>
      <trkpt lat="45.93799" lon="4.74836">
        <ele>168</ele>
        <time>2018-01-28T11:05:11Z</time>
      </trkpt>
      <trkpt lat="45.93802" lon="4.74831">
        <ele>167</ele>
        <time>2018-01-28T11:05:12Z</time>
      </trkpt>
      <trkpt lat="45.93808" lon="4.74823">
        <ele>167</ele>
        <time>2018-01-28T11:05:14Z</time>
      </trkpt>
      <trkpt lat="45.93811" lon="4.74818">
        <ele>167</ele>
        <time>2018-01-28T11:05:15Z</time>
      </trkpt>
      <trkpt lat="45.93816" lon="4.7481">
        <ele>167</ele>
        <time>2018-01-28T11:05:17Z</time>
      </trkpt>
      <trkpt lat="45.93817" lon="4.74806">
        <ele>167</ele>
        <time>2018-01-28T11:05:18Z</time>
      </trkpt>
      <trkpt lat="45.93821" lon="4.74797">
        <ele>167</ele>
        <time>2018-01-28T11:05:20Z</time>
      </trkpt>
      <trkpt lat="45.93824" lon="4.74792">
        <ele>167</ele>
        <time>2018-01-28T11:05:21Z</time>
      </trkpt>
      <trkpt lat="45.93828" lon="4.74782">
        <ele>167</ele>
        <time>2018-01-28T11:05:23Z</time>
      </trkpt>
      <trkpt lat="45.9383" lon="4.74777">
        <ele>167</ele>
        <time>2018-01-28T11:05:24Z</time>
      </trkpt>
      <trkpt lat="45.93835" lon="4.74766">
        <ele>168</ele>
        <time>2018-01-28T11:05:26Z</time>
      </trkpt>
      <trkpt lat="45.93837" lon="4.74761">
        <ele>168</ele>
        <time>2018-01-28T11:05:27Z</time>
      </trkpt>
      <trkpt lat="45.93841" lon="4.74753">
        <ele>168</ele>
        <time>2018-01-28T11:05:29Z</time>
      </trkpt>
      <trkpt lat="45.93843" lon="4.74749">
        <ele>168</ele>
        <time>2018-01-28T11:05:30Z</time>
      </trkpt>
      <trkpt lat="45.93847" lon="4.74741">
        <ele>169</ele>
        <time>2018-01-28T11:05:32Z</time>
      </trkpt>
      <trkpt lat="45.93849" lon="4.74736">
        <ele>169</ele>
        <time>2018-01-28T11:05:33Z</time>
      </trkpt>
      <trkpt lat="45.93853" lon="4.74727">
        <ele>169</ele>
        <time>2018-01-28T11:05:35Z</time>
      </trkpt>
      <trkpt lat="45.93856" lon="4.74722">
        <ele>169</ele>
        <time>2018-01-28T11:05:36Z</time>
      </trkpt>
      <trkpt lat="45.93859" lon="4.74714">
        <ele>169</ele>
        <time>2018-01-28T11:05:38Z</time>
      </trkpt>
      <trkpt lat="45.93861" lon="4.7471">
        <ele>169</ele>
        <time>2018-01-28T11:05:39Z</time>
      </trkpt>
      <trkpt lat="45.93865" lon="4.74699">
        <ele>169</ele>
        <time>2018-01-28T11:05:42Z</time>
      </trkpt>
      <trkpt lat="45.93866" lon="4.74694">
        <ele>170</ele>
        <time>2018-01-28T11:05:43Z</time>
      </trkpt>
      <trkpt lat="45.93869" lon="4.74684">
        <ele>170</ele>
        <time>2018-01-28T11:05:45Z</time>
      </trkpt>
      <trkpt lat="45.93871" lon="4.7468">
        <ele>170</ele>
        <time>2018-01-28T11:05:46Z</time>
      </trkpt>
      <trkpt lat="45.93874" lon="4.74671">
        <ele>170</ele>
        <time>2018-01-28T11:05:48Z</time>
      </trkpt>
      <trkpt lat="45.93876" lon="4.74666">
        <ele>170</ele>
        <time>2018-01-28T11:05:49Z</time>
      </trkpt>
      <trkpt lat="45.9388" lon="4.74656">
        <ele>170</ele>
        <time>2018-01-28T11:05:51Z</time>
      </trkpt>
      <trkpt lat="45.93882" lon="4.7465">
        <ele>170</ele>
        <time>2018-01-28T11:05:52Z</time>
      </trkpt>
      <trkpt lat="45.93884" lon="4.74644">
        <ele>170</ele>
        <time>2018-01-28T11:05:53Z</time>
      </trkpt>
      <trkpt lat="45.93886" lon="4.74637">
        <ele>170</ele>
        <time>2018-01-28T11:05:54Z</time>
      </trkpt>
      <trkpt lat="45.93889" lon="4.74626">
        <ele>170</ele>
        <time>2018-01-28T11:05:56Z</time>
      </trkpt>
      <trkpt lat="45.93891" lon="4.7462">
        <ele>170</ele>
        <time>2018-01-28T11:05:57Z</time>
      </trkpt>
      <trkpt lat="45.93894" lon="4.7461">
        <ele>170</ele>
        <time>2018-01-28T11:05:59Z</time>
      </trkpt>
      <trkpt lat="45.93895" lon="4.74604">
        <ele>170</ele>
        <time>2018-01-28T11:06:00Z</time>
      </trkpt>
      <trkpt lat="45.93898" lon="4.74595">
        <ele>170</ele>
        <time>2018-01-28T11:06:02Z</time>
      </trkpt>
      <trkpt lat="45.93899" lon="4.74591">
        <ele>170</ele>
        <time>2018-01-28T11:06:03Z</time>
      </trkpt>
      <trkpt lat="45.939" lon="4.74581">
        <ele>170</ele>
        <time>2018-01-28T11:06:05Z</time>
      </trkpt>
      <trkpt lat="45.93901" lon="4.74576">
        <ele>170</ele>
        <time>2018-01-28T11:06:06Z</time>
      </trkpt>
      <trkpt lat="45.93903" lon="4.74564">
        <ele>170</ele>
        <time>2018-01-28T11:06:08Z</time>
      </trkpt>
      <trkpt lat="45.93904" lon="4.74558">
        <ele>170</ele>
        <time>2018-01-28T11:06:09Z</time>
      </trkpt>
      <trkpt lat="45.93905" lon="4.74547">
        <ele>170</ele>
        <time>2018-01-28T11:06:11Z</time>
      </trkpt>
      <trkpt lat="45.93905" lon="4.74541">
        <ele>170</ele>
        <time>2018-01-28T11:06:12Z</time>
      </trkpt>
      <trkpt lat="45.93906" lon="4.74531">
        <ele>170</ele>
        <time>2018-01-28T11:06:14Z</time>
      </trkpt>
      <trkpt lat="45.93907" lon="4.74526">
        <ele>170</ele>
        <time>2018-01-28T11:06:15Z</time>
      </trkpt>
      <trkpt lat="45.93907" lon="4.74517">
        <ele>170</ele>
        <time>2018-01-28T11:06:17Z</time>
      </trkpt>
      <trkpt lat="45.93908" lon="4.74512">
        <ele>170</ele>
        <time>2018-01-28T11:06:18Z</time>
      </trkpt>
      <trkpt lat="45.93907" lon="4.74503">
        <ele>170</ele>
        <time>2018-01-28T11:06:20Z</time>
      </trkpt>
      <trkpt lat="45.93907" lon="4.74498">
        <ele>170</ele>
        <time>2018-01-28T11:06:21Z</time>
      </trkpt>
      <trkpt lat="45.93908" lon="4.74489">
        <ele>170</ele>
        <time>2018-01-28T11:06:23Z</time>
      </trkpt>
      <trkpt lat="45.93908" lon="4.74484">
        <ele>171</ele>
        <time>2018-01-28T11:06:24Z</time>
      </trkpt>
      <trkpt lat="45.93908" lon="4.74474">
        <ele>171</ele>
        <time>2018-01-28T11:06:26Z</time>
      </trkpt>
      <trkpt lat="45.93908" lon="4.74469">
        <ele>171</ele>
        <time>2018-01-28T11:06:27Z</time>
      </trkpt>
      <trkpt lat="45.93908" lon="4.74459">
        <ele>171</ele>
        <time>2018-01-28T11:06:29Z</time>
      </trkpt>
      <trkpt lat="45.93908" lon="4.74454">
        <ele>171</ele>
        <time>2018-01-28T11:06:30Z</time>
      </trkpt>
      <trkpt lat="45.93908" lon="4.74443">
        <ele>171</ele>
        <time>2018-01-28T11:06:32Z</time>
      </trkpt>
      <trkpt lat="45.93908" lon="4.74437">
        <ele>171</ele>
        <time>2018-01-28T11:06:33Z</time>
      </trkpt>
      <trkpt lat="45.93908" lon="4.7443">
        <ele>171</ele>
        <time>2018-01-28T11:06:34Z</time>
      </trkpt>
      <trkpt lat="45.93909" lon="4.74424">
        <ele>171</ele>
        <time>2018-01-28T11:06:35Z</time>
      </trkpt>
      <trkpt lat="45.93906" lon="4.74412">
        <ele>171</ele>
        <time>2018-01-28T11:06:37Z</time>
      </trkpt>
      <trkpt lat="45.93906" lon="4.74407">
        <ele>171</ele>
        <time>2018-01-28T11:06:38Z</time>
      </trkpt>
      <trkpt lat="45.93904" lon="4.74397">
        <ele>171</ele>
        <time>2018-01-28T11:06:40Z</time>
      </trkpt>
      <trkpt lat="45.93904" lon="4.74392">
        <ele>171</ele>
        <time>2018-01-28T11:06:41Z</time>
      </trkpt>
      <trkpt lat="45.93905" lon="4.74381">
        <ele>171</ele>
        <time>2018-01-28T11:06:43Z</time>
      </trkpt>
      <trkpt lat="45.93905" lon="4.74374">
        <ele>171</ele>
        <time>2018-01-28T11:06:44Z</time>
      </trkpt>
      <trkpt lat="45.93904" lon="4.74363">
        <ele>171</ele>
        <time>2018-01-28T11:06:46Z</time>
      </trkpt>
      <trkpt lat="45.93903" lon="4.74357">
        <ele>171</ele>
        <time>2018-01-28T11:06:47Z</time>
      </trkpt>
      <trkpt lat="45.93902" lon="4.74347">
        <ele>171</ele>
        <time>2018-01-28T11:06:49Z</time>
      </trkpt>
      <trkpt lat="45.93902" lon="4.74342">
        <ele>171</ele>
        <time>2018-01-28T11:06:50Z</time>
      </trkpt>
      <trkpt lat="45.93903" lon="4.74332">
        <ele>170</ele>
        <time>2018-01-28T11:06:52Z</time>
      </trkpt>
      <trkpt lat="45.93903" lon="4.74326">
        <ele>170</ele>
        <time>2018-01-28T11:06:53Z</time>
      </trkpt>
      <trkpt lat="45.93903" lon="4.74315">
        <ele>170</ele>
        <time>2018-01-28T11:06:55Z</time>
      </trkpt>
      <trkpt lat="45.93903" lon="4.7431">
        <ele>170</ele>
        <time>2018-01-28T11:06:56Z</time>
      </trkpt>
      <trkpt lat="45.93903" lon="4.743">
        <ele>170</ele>
        <time>2018-01-28T11:06:58Z</time>
      </trkpt>
      <trkpt lat="45.93903" lon="4.74295">
        <ele>170</ele>
        <time>2018-01-28T11:06:59Z</time>
      </trkpt>
      <trkpt lat="45.93904" lon="4.74283">
        <ele>170</ele>
        <time>2018-01-28T11:07:01Z</time>
      </trkpt>
      <trkpt lat="45.93906" lon="4.74278">
        <ele>170</ele>
        <time>2018-01-28T11:07:02Z</time>
      </trkpt>
      <trkpt lat="45.93906" lon="4.74271">
        <ele>170</ele>
        <time>2018-01-28T11:07:03Z</time>
      </trkpt>
      <trkpt lat="45.93907" lon="4.74264">
        <ele>170</ele>
        <time>2018-01-28T11:07:04Z</time>
      </trkpt>
      <trkpt lat="45.93908" lon="4.74254">
        <ele>170</ele>
        <time>2018-01-28T11:07:06Z</time>
      </trkpt>
      <trkpt lat="45.93908" lon="4.74249">
        <ele>170</ele>
        <time>2018-01-28T11:07:07Z</time>
      </trkpt>
      <trkpt lat="45.93909" lon="4.74239">
        <ele>170</ele>
        <time>2018-01-28T11:07:09Z</time>
      </trkpt>
      <trkpt lat="45.9391" lon="4.74233">
        <ele>170</ele>
        <time>2018-01-28T11:07:10Z</time>
      </trkpt>
      <trkpt lat="45.93911" lon="4.74224">
        <ele>170</ele>
        <time>2018-01-28T11:07:12Z</time>
      </trkpt>
      <trkpt lat="45.93912" lon="4.74218">
        <ele>169</ele>
        <time>2018-01-28T11:07:13Z</time>
      </trkpt>
      <trkpt lat="45.93912" lon="4.74208">
        <ele>169</ele>
        <time>2018-01-28T11:07:15Z</time>
      </trkpt>
      <trkpt lat="45.93912" lon="4.74203">
        <ele>169</ele>
        <time>2018-01-28T11:07:16Z</time>
      </trkpt>
      <trkpt lat="45.93914" lon="4.74191">
        <ele>169</ele>
        <time>2018-01-28T11:07:19Z</time>
      </trkpt>
      <trkpt lat="45.93914" lon="4.74187">
        <ele>169</ele>
        <time>2018-01-28T11:07:20Z</time>
      </trkpt>
      <trkpt lat="45.93914" lon="4.74177">
        <ele>169</ele>
        <time>2018-01-28T11:07:22Z</time>
      </trkpt>
      <trkpt lat="45.93913" lon="4.74172">
        <ele>168</ele>
        <time>2018-01-28T11:07:23Z</time>
      </trkpt>
      <trkpt lat="45.93913" lon="4.74161">
        <ele>168</ele>
        <time>2018-01-28T11:07:25Z</time>
      </trkpt>
      <trkpt lat="45.93914" lon="4.74155">
        <ele>169</ele>
        <time>2018-01-28T11:07:26Z</time>
      </trkpt>
      <trkpt lat="45.93915" lon="4.74145">
        <ele>169</ele>
        <time>2018-01-28T11:07:28Z</time>
      </trkpt>
      <trkpt lat="45.93916" lon="4.7414">
        <ele>169</ele>
        <time>2018-01-28T11:07:29Z</time>
      </trkpt>
      <trkpt lat="45.93917" lon="4.74129">
        <ele>169</ele>
        <time>2018-01-28T11:07:31Z</time>
      </trkpt>
      <trkpt lat="45.93918" lon="4.74123">
        <ele>169</ele>
        <time>2018-01-28T11:07:32Z</time>
      </trkpt>
      <trkpt lat="45.93919" lon="4.74111">
        <ele>169</ele>
        <time>2018-01-28T11:07:34Z</time>
      </trkpt>
      <trkpt lat="45.9392" lon="4.74104">
        <ele>169</ele>
        <time>2018-01-28T11:07:35Z</time>
      </trkpt>
      <trkpt lat="45.9392" lon="4.74092">
        <ele>170</ele>
        <time>2018-01-28T11:07:37Z</time>
      </trkpt>
      <trkpt lat="45.9392" lon="4.74086">
        <ele>170</ele>
        <time>2018-01-28T11:07:38Z</time>
      </trkpt>
      <trkpt lat="45.93921" lon="4.74076">
        <ele>170</ele>
        <time>2018-01-28T11:07:40Z</time>
      </trkpt>
      <trkpt lat="45.93922" lon="4.74072">
        <ele>170</ele>
        <time>2018-01-28T11:07:41Z</time>
      </trkpt>
      <trkpt lat="45.93922" lon="4.74059">
        <ele>171</ele>
        <time>2018-01-28T11:07:44Z</time>
      </trkpt>
      <trkpt lat="45.93923" lon="4.74055">
        <ele>171</ele>
        <time>2018-01-28T11:07:45Z</time>
      </trkpt>
      <trkpt lat="45.93923" lon="4.74045">
        <ele>171</ele>
        <time>2018-01-28T11:07:47Z</time>
      </trkpt>
      <trkpt lat="45.93923" lon="4.7404">
        <ele>171</ele>
        <time>2018-01-28T11:07:48Z</time>
      </trkpt>
      <trkpt lat="45.93924" lon="4.74028">
        <ele>171</ele>
        <time>2018-01-28T11:07:50Z</time>
      </trkpt>
      <trkpt lat="45.93924" lon="4.74023">
        <ele>171</ele>
        <time>2018-01-28T11:07:51Z</time>
      </trkpt>
      <trkpt lat="45.93926" lon="4.74013">
        <ele>171</ele>
        <time>2018-01-28T11:07:53Z</time>
      </trkpt>
      <trkpt lat="45.93927" lon="4.74009">
        <ele>171</ele>
        <time>2018-01-28T11:07:54Z</time>
      </trkpt>
      <trkpt lat="45.93929" lon="4.73999">
        <ele>172</ele>
        <time>2018-01-28T11:07:57Z</time>
      </trkpt>
      <trkpt lat="45.9393" lon="4.73997">
        <ele>172</ele>
        <time>2018-01-28T11:07:58Z</time>
      </trkpt>
      <trkpt lat="45.93931" lon="4.73985">
        <ele>172</ele>
        <time>2018-01-28T11:08:02Z</time>
      </trkpt>
      <trkpt lat="45.93931" lon="4.7398">
        <ele>172</ele>
        <time>2018-01-28T11:08:03Z</time>
      </trkpt>
      <trkpt lat="45.93932" lon="4.73971">
        <ele>172</ele>
        <time>2018-01-28T11:08:05Z</time>
      </trkpt>
      <trkpt lat="45.93932" lon="4.73966">
        <ele>172</ele>
        <time>2018-01-28T11:08:06Z</time>
      </trkpt>
      <trkpt lat="45.93933" lon="4.73956">
        <ele>172</ele>
        <time>2018-01-28T11:08:08Z</time>
      </trkpt>
      <trkpt lat="45.93933" lon="4.73951">
        <ele>172</ele>
        <time>2018-01-28T11:08:09Z</time>
      </trkpt>
      <trkpt lat="45.93933" lon="4.7394">
        <ele>172</ele>
        <time>2018-01-28T11:08:12Z</time>
      </trkpt>
      <trkpt lat="45.93934" lon="4.73935">
        <ele>172</ele>
        <time>2018-01-28T11:08:13Z</time>
      </trkpt>
      <trkpt lat="45.93936" lon="4.73926">
        <ele>172</ele>
        <time>2018-01-28T11:08:15Z</time>
      </trkpt>
      <trkpt lat="45.93937" lon="4.73921">
        <ele>172</ele>
        <time>2018-01-28T11:08:16Z</time>
      </trkpt>
      <trkpt lat="45.93938" lon="4.7391">
        <ele>172</ele>
        <time>2018-01-28T11:08:18Z</time>
      </trkpt>
      <trkpt lat="45.93939" lon="4.73905">
        <ele>172</ele>
        <time>2018-01-28T11:08:19Z</time>
      </trkpt>
      <trkpt lat="45.9394" lon="4.73895">
        <ele>172</ele>
        <time>2018-01-28T11:08:21Z</time>
      </trkpt>
      <trkpt lat="45.93941" lon="4.73891">
        <ele>172</ele>
        <time>2018-01-28T11:08:22Z</time>
      </trkpt>
      <trkpt lat="45.93942" lon="4.73882">
        <ele>172</ele>
        <time>2018-01-28T11:08:24Z</time>
      </trkpt>
      <trkpt lat="45.93943" lon="4.73877">
        <ele>172</ele>
        <time>2018-01-28T11:08:25Z</time>
      </trkpt>
      <trkpt lat="45.93945" lon="4.73866">
        <ele>172</ele>
        <time>2018-01-28T11:08:27Z</time>
      </trkpt>
      <trkpt lat="45.93945" lon="4.73861">
        <ele>172</ele>
        <time>2018-01-28T11:08:28Z</time>
      </trkpt>
      <trkpt lat="45.93946" lon="4.7385">
        <ele>172</ele>
        <time>2018-01-28T11:08:30Z</time>
      </trkpt>
      <trkpt lat="45.93946" lon="4.73845">
        <ele>172</ele>
        <time>2018-01-28T11:08:31Z</time>
      </trkpt>
      <trkpt lat="45.93948" lon="4.73835">
        <ele>172</ele>
        <time>2018-01-28T11:08:33Z</time>
      </trkpt>
      <trkpt lat="45.93949" lon="4.7383">
        <ele>172</ele>
        <time>2018-01-28T11:08:34Z</time>
      </trkpt>
      <trkpt lat="45.93952" lon="4.73819">
        <ele>172</ele>
        <time>2018-01-28T11:08:36Z</time>
      </trkpt>
      <trkpt lat="45.93952" lon="4.73813">
        <ele>172</ele>
        <time>2018-01-28T11:08:37Z</time>
      </trkpt>
      <trkpt lat="45.93953" lon="4.73802">
        <ele>172</ele>
        <time>2018-01-28T11:08:39Z</time>
      </trkpt>
      <trkpt lat="45.93953" lon="4.73796">
        <ele>172</ele>
        <time>2018-01-28T11:08:40Z</time>
      </trkpt>
      <trkpt lat="45.93953" lon="4.7379">
        <ele>172</ele>
        <time>2018-01-28T11:08:41Z</time>
      </trkpt>
      <trkpt lat="45.93954" lon="4.73782">
        <ele>172</ele>
        <time>2018-01-28T11:08:42Z</time>
      </trkpt>
      <trkpt lat="45.93955" lon="4.73775">
        <ele>172</ele>
        <time>2018-01-28T11:08:43Z</time>
      </trkpt>
      <trkpt lat="45.93955" lon="4.73767">
        <ele>172</ele>
        <time>2018-01-28T11:08:44Z</time>
      </trkpt>
      <trkpt lat="45.93956" lon="4.73755">
        <ele>172</ele>
        <time>2018-01-28T11:08:46Z</time>
      </trkpt>
      <trkpt lat="45.93956" lon="4.73749">
        <ele>172</ele>
        <time>2018-01-28T11:08:47Z</time>
      </trkpt>
      <trkpt lat="45.93957" lon="4.73739">
        <ele>172</ele>
        <time>2018-01-28T11:08:49Z</time>
      </trkpt>
      <trkpt lat="45.93958" lon="4.73733">
        <ele>172</ele>
        <time>2018-01-28T11:08:50Z</time>
      </trkpt>
      <trkpt lat="45.9396" lon="4.73724">
        <ele>172</ele>
        <time>2018-01-28T11:08:52Z</time>
      </trkpt>
      <trkpt lat="45.93961" lon="4.73717">
        <ele>172</ele>
        <time>2018-01-28T11:08:53Z</time>
      </trkpt>
      <trkpt lat="45.93961" lon="4.73706">
        <ele>172</ele>
        <time>2018-01-28T11:08:55Z</time>
      </trkpt>
      <trkpt lat="45.93962" lon="4.737">
        <ele>172</ele>
        <time>2018-01-28T11:08:56Z</time>
      </trkpt>
      <trkpt lat="45.93964" lon="4.73689">
        <ele>172</ele>
        <time>2018-01-28T11:08:58Z</time>
      </trkpt>
      <trkpt lat="45.93964" lon="4.73684">
        <ele>172</ele>
        <time>2018-01-28T11:08:59Z</time>
      </trkpt>
      <trkpt lat="45.93966" lon="4.73675">
        <ele>172</ele>
        <time>2018-01-28T11:09:01Z</time>
      </trkpt>
      <trkpt lat="45.93967" lon="4.73671">
        <ele>172</ele>
        <time>2018-01-28T11:09:02Z</time>
      </trkpt>
      <trkpt lat="45.93968" lon="4.7366">
        <ele>171</ele>
        <time>2018-01-28T11:09:04Z</time>
      </trkpt>
      <trkpt lat="45.93969" lon="4.73654">
        <ele>171</ele>
        <time>2018-01-28T11:09:05Z</time>
      </trkpt>
      <trkpt lat="45.93971" lon="4.73644">
        <ele>170</ele>
        <time>2018-01-28T11:09:07Z</time>
      </trkpt>
      <trkpt lat="45.93971" lon="4.73639">
        <ele>170</ele>
        <time>2018-01-28T11:09:08Z</time>
      </trkpt>
      <trkpt lat="45.93973" lon="4.73628">
        <ele>170</ele>
        <time>2018-01-28T11:09:10Z</time>
      </trkpt>
      <trkpt lat="45.93974" lon="4.73623">
        <ele>170</ele>
        <time>2018-01-28T11:09:11Z</time>
      </trkpt>
      <trkpt lat="45.93976" lon="4.73612">
        <ele>170</ele>
        <time>2018-01-28T11:09:13Z</time>
      </trkpt>
      <trkpt lat="45.93977" lon="4.73607">
        <ele>169</ele>
        <time>2018-01-28T11:09:14Z</time>
      </trkpt>
      <trkpt lat="45.93979" lon="4.73597">
        <ele>169</ele>
        <time>2018-01-28T11:09:16Z</time>
      </trkpt>
      <trkpt lat="45.93981" lon="4.73592">
        <ele>169</ele>
        <time>2018-01-28T11:09:17Z</time>
      </trkpt>
      <trkpt lat="45.93984" lon="4.73582">
        <ele>168</ele>
        <time>2018-01-28T11:09:19Z</time>
      </trkpt>
      <trkpt lat="45.93986" lon="4.73576">
        <ele>168</ele>
        <time>2018-01-28T11:09:20Z</time>
      </trkpt>
      <trkpt lat="45.93989" lon="4.73571">
        <ele>168</ele>
        <time>2018-01-28T11:09:21Z</time>
      </trkpt>
      <trkpt lat="45.93992" lon="4.73565">
        <ele>168</ele>
        <time>2018-01-28T11:09:22Z</time>
      </trkpt>
      <trkpt lat="45.93994" lon="4.73559">
        <ele>168</ele>
        <time>2018-01-28T11:09:23Z</time>
      </trkpt>
      <trkpt lat="45.93996" lon="4.73553">
        <ele>168</ele>
        <time>2018-01-28T11:09:24Z</time>
      </trkpt>
      <trkpt lat="45.94001" lon="4.73543">
        <ele>171</ele>
        <time>2018-01-28T11:09:26Z</time>
      </trkpt>
      <trkpt lat="45.94003" lon="4.7354">
        <ele>171</ele>
        <time>2018-01-28T11:09:27Z</time>
      </trkpt>
      <trkpt lat="45.94008" lon="4.73531">
        <ele>171</ele>
        <time>2018-01-28T11:09:29Z</time>
      </trkpt>
      <trkpt lat="45.94011" lon="4.73525">
        <ele>171</ele>
        <time>2018-01-28T11:09:30Z</time>
      </trkpt>
      <trkpt lat="45.94015" lon="4.73516">
        <ele>171</ele>
        <time>2018-01-28T11:09:32Z</time>
      </trkpt>
      <trkpt lat="45.94017" lon="4.73511">
        <ele>171</ele>
        <time>2018-01-28T11:09:33Z</time>
      </trkpt>
      <trkpt lat="45.94021" lon="4.73503">
        <ele>171</ele>
        <time>2018-01-28T11:09:35Z</time>
      </trkpt>
      <trkpt lat="45.94022" lon="4.73498">
        <ele>170</ele>
        <time>2018-01-28T11:09:36Z</time>
      </trkpt>
      <trkpt lat="45.94026" lon="4.73491">
        <ele>171</ele>
        <time>2018-01-28T11:09:38Z</time>
      </trkpt>
      <trkpt lat="45.94028" lon="4.73487">
        <ele>171</ele>
        <time>2018-01-28T11:09:39Z</time>
      </trkpt>
      <trkpt lat="45.94032" lon="4.7348">
        <ele>171</ele>
        <time>2018-01-28T11:09:41Z</time>
      </trkpt>
      <trkpt lat="45.94034" lon="4.73476">
        <ele>171</ele>
        <time>2018-01-28T11:09:42Z</time>
      </trkpt>
      <trkpt lat="45.94038" lon="4.73467">
        <ele>171</ele>
        <time>2018-01-28T11:09:44Z</time>
      </trkpt>
      <trkpt lat="45.94039" lon="4.73463">
        <ele>171</ele>
        <time>2018-01-28T11:09:45Z</time>
      </trkpt>
      <trkpt lat="45.94044" lon="4.73453">
        <ele>171</ele>
        <time>2018-01-28T11:09:47Z</time>
      </trkpt>
      <trkpt lat="45.94047" lon="4.73448">
        <ele>171</ele>
        <time>2018-01-28T11:09:48Z</time>
      </trkpt>
      <trkpt lat="45.94052" lon="4.73439">
        <ele>172</ele>
        <time>2018-01-28T11:09:50Z</time>
      </trkpt>
      <trkpt lat="45.94055" lon="4.73435">
        <ele>172</ele>
        <time>2018-01-28T11:09:51Z</time>
      </trkpt>
      <trkpt lat="45.9406" lon="4.73427">
        <ele>172</ele>
        <time>2018-01-28T11:09:53Z</time>
      </trkpt>
      <trkpt lat="45.94062" lon="4.73424">
        <ele>172</ele>
        <time>2018-01-28T11:09:54Z</time>
      </trkpt>
      <trkpt lat="45.94066" lon="4.73416">
        <ele>172</ele>
        <time>2018-01-28T11:09:56Z</time>
      </trkpt>
      <trkpt lat="45.94069" lon="4.73412">
        <ele>172</ele>
        <time>2018-01-28T11:09:57Z</time>
      </trkpt>
      <trkpt lat="45.94075" lon="4.73403">
        <ele>172</ele>
        <time>2018-01-28T11:09:59Z</time>
      </trkpt>
      <trkpt lat="45.94078" lon="4.73398">
        <ele>171</ele>
        <time>2018-01-28T11:10:00Z</time>
      </trkpt>
      <trkpt lat="45.94083" lon="4.7339">
        <ele>171</ele>
        <time>2018-01-28T11:10:02Z</time>
      </trkpt>
      <trkpt lat="45.94086" lon="4.73386">
        <ele>174</ele>
        <time>2018-01-28T11:10:03Z</time>
      </trkpt>
      <trkpt lat="45.94091" lon="4.73379">
        <ele>174</ele>
        <time>2018-01-28T11:10:05Z</time>
      </trkpt>
      <trkpt lat="45.94093" lon="4.73375">
        <ele>174</ele>
        <time>2018-01-28T11:10:06Z</time>
      </trkpt>
      <trkpt lat="45.94097" lon="4.73369">
        <ele>173</ele>
        <time>2018-01-28T11:10:08Z</time>
      </trkpt>
      <trkpt lat="45.941" lon="4.73365">
        <ele>173</ele>
        <time>2018-01-28T11:10:09Z</time>
      </trkpt>
      <trkpt lat="45.94104" lon="4.73359">
        <ele>173</ele>
        <time>2018-01-28T11:10:11Z</time>
      </trkpt>
      <trkpt lat="45.94106" lon="4.73356">
        <ele>173</ele>
        <time>2018-01-28T11:10:12Z</time>
      </trkpt>
      <trkpt lat="45.9411" lon="4.73348">
        <ele>173</ele>
        <time>2018-01-28T11:10:14Z</time>
      </trkpt>
      <trkpt lat="45.94113" lon="4.73344">
        <ele>173</ele>
        <time>2018-01-28T11:10:15Z</time>
      </trkpt>
      <trkpt lat="45.94118" lon="4.73337">
        <ele>173</ele>
        <time>2018-01-28T11:10:17Z</time>
      </trkpt>
      <trkpt lat="45.94121" lon="4.73333">
        <ele>171</ele>
        <time>2018-01-28T11:10:18Z</time>
      </trkpt>
      <trkpt lat="45.94126" lon="4.73326">
        <ele>171</ele>
        <time>2018-01-28T11:10:20Z</time>
      </trkpt>
      <trkpt lat="45.94128" lon="4.73323">
        <ele>171</ele>
        <time>2018-01-28T11:10:21Z</time>
      </trkpt>
      <trkpt lat="45.94133" lon="4.73316">
        <ele>171</ele>
        <time>2018-01-28T11:10:23Z</time>
      </trkpt>
      <trkpt lat="45.94135" lon="4.73312">
        <ele>171</ele>
        <time>2018-01-28T11:10:24Z</time>
      </trkpt>
      <trkpt lat="45.94141" lon="4.73303">
        <ele>171</ele>
        <time>2018-01-28T11:10:26Z</time>
      </trkpt>
      <trkpt lat="45.94145" lon="4.73298">
        <ele>170</ele>
        <time>2018-01-28T11:10:27Z</time>
      </trkpt>
      <trkpt lat="45.94149" lon="4.73292">
        <ele>170</ele>
        <time>2018-01-28T11:10:28Z</time>
      </trkpt>
      <trkpt lat="45.94152" lon="4.73288">
        <ele>170</ele>
        <time>2018-01-28T11:10:29Z</time>
      </trkpt>
      <trkpt lat="45.94159" lon="4.73281">
        <ele>170</ele>
        <time>2018-01-28T11:10:31Z</time>
      </trkpt>
      <trkpt lat="45.94161" lon="4.73278">
        <ele>170</ele>
        <time>2018-01-28T11:10:32Z</time>
      </trkpt>
      <trkpt lat="45.94167" lon="4.73271">
        <ele>170</ele>
        <time>2018-01-28T11:10:34Z</time>
      </trkpt>
      <trkpt lat="45.94169" lon="4.73269">
        <ele>172</ele>
        <time>2018-01-28T11:10:35Z</time>
      </trkpt>
      <trkpt lat="45.94174" lon="4.73263">
        <ele>171</ele>
        <time>2018-01-28T11:10:37Z</time>
      </trkpt>
      <trkpt lat="45.94178" lon="4.7326">
        <ele>171</ele>
        <time>2018-01-28T11:10:38Z</time>
      </trkpt>
      <trkpt lat="45.94185" lon="4.73254">
        <ele>172</ele>
        <time>2018-01-28T11:10:41Z</time>
      </trkpt>
      <trkpt lat="45.94188" lon="4.73251">
        <ele>172</ele>
        <time>2018-01-28T11:10:42Z</time>
      </trkpt>
      <trkpt lat="45.94194" lon="4.73246">
        <ele>169</ele>
        <time>2018-01-28T11:10:44Z</time>
      </trkpt>
      <trkpt lat="45.94197" lon="4.73243">
        <ele>169</ele>
        <time>2018-01-28T11:10:45Z</time>
      </trkpt>
      <trkpt lat="45.94203" lon="4.73238">
        <ele>169</ele>
        <time>2018-01-28T11:10:47Z</time>
      </trkpt>
      <trkpt lat="45.94206" lon="4.73235">
        <ele>169</ele>
        <time>2018-01-28T11:10:48Z</time>
      </trkpt>
      <trkpt lat="45.94213" lon="4.7323">
        <ele>169</ele>
        <time>2018-01-28T11:10:51Z</time>
      </trkpt>
      <trkpt lat="45.94215" lon="4.73228">
        <ele>169</ele>
        <time>2018-01-28T11:10:52Z</time>
      </trkpt>
      <trkpt lat="45.9422" lon="4.73224">
        <ele>169</ele>
        <time>2018-01-28T11:10:54Z</time>
      </trkpt>
      <trkpt lat="45.94223" lon="4.73222">
        <ele>169</ele>
        <time>2018-01-28T11:10:55Z</time>
      </trkpt>
      <trkpt lat="45.94229" lon="4.73216">
        <ele>169</ele>
        <time>2018-01-28T11:10:57Z</time>
      </trkpt>
      <trkpt lat="45.94233" lon="4.73213">
        <ele>169</ele>
        <time>2018-01-28T11:10:58Z</time>
      </trkpt>
      <trkpt lat="45.9424" lon="4.73207">
        <ele>169</ele>
        <time>2018-01-28T11:11:00Z</time>
      </trkpt>
      <trkpt lat="45.94243" lon="4.73205">
        <ele>168</ele>
        <time>2018-01-28T11:11:01Z</time>
      </trkpt>
      <trkpt lat="45.94249" lon="4.73199">
        <ele>168</ele>
        <time>2018-01-28T11:11:03Z</time>
      </trkpt>
      <trkpt lat="45.94252" lon="4.73196">
        <ele>169</ele>
        <time>2018-01-28T11:11:04Z</time>
      </trkpt>
      <trkpt lat="45.94258" lon="4.73189">
        <ele>169</ele>
        <time>2018-01-28T11:11:06Z</time>
      </trkpt>
      <trkpt lat="45.94261" lon="4.73186">
        <ele>169</ele>
        <time>2018-01-28T11:11:07Z</time>
      </trkpt>
      <trkpt lat="45.94268" lon="4.73179">
        <ele>169</ele>
        <time>2018-01-28T11:11:10Z</time>
      </trkpt>
      <trkpt lat="45.9427" lon="4.73177">
        <ele>169</ele>
        <time>2018-01-28T11:11:11Z</time>
      </trkpt>
      <trkpt lat="45.94277" lon="4.73176">
        <ele>169</ele>
        <time>2018-01-28T11:11:16Z</time>
      </trkpt>
      <trkpt lat="45.94279" lon="4.73175">
        <ele>169</ele>
        <time>2018-01-28T11:11:17Z</time>
      </trkpt>
      <trkpt lat="45.94286" lon="4.73169">
        <ele>170</ele>
        <time>2018-01-28T11:11:20Z</time>
      </trkpt>
      <trkpt lat="45.94289" lon="4.73166">
        <ele>167</ele>
        <time>2018-01-28T11:11:21Z</time>
      </trkpt>
      <trkpt lat="45.94294" lon="4.73161">
        <ele>167</ele>
        <time>2018-01-28T11:11:23Z</time>
      </trkpt>
      <trkpt lat="45.94297" lon="4.73159">
        <ele>168</ele>
        <time>2018-01-28T11:11:24Z</time>
      </trkpt>
      <trkpt lat="45.94303" lon="4.73154">
        <ele>168</ele>
        <time>2018-01-28T11:11:26Z</time>
      </trkpt>
      <trkpt lat="45.94306" lon="4.73152">
        <ele>168</ele>
        <time>2018-01-28T11:11:27Z</time>
      </trkpt>
      <trkpt lat="45.94313" lon="4.73146">
        <ele>168</ele>
        <time>2018-01-28T11:11:29Z</time>
      </trkpt>
      <trkpt lat="45.94316" lon="4.73143">
        <ele>168</ele>
        <time>2018-01-28T11:11:30Z</time>
      </trkpt>
      <trkpt lat="45.94323" lon="4.73137">
        <ele>168</ele>
        <time>2018-01-28T11:11:32Z</time>
      </trkpt>
      <trkpt lat="45.94325" lon="4.73135">
        <ele>168</ele>
        <time>2018-01-28T11:11:33Z</time>
      </trkpt>
      <trkpt lat="45.94331" lon="4.7313">
        <ele>168</ele>
        <time>2018-01-28T11:11:35Z</time>
      </trkpt>
      <trkpt lat="45.94335" lon="4.73127">
        <ele>169</ele>
        <time>2018-01-28T11:11:36Z</time>
      </trkpt>
      <trkpt lat="45.94341" lon="4.73123">
        <ele>169</ele>
        <time>2018-01-28T11:11:38Z</time>
      </trkpt>
      <trkpt lat="45.94344" lon="4.73121">
        <ele>169</ele>
        <time>2018-01-28T11:11:39Z</time>
      </trkpt>
      <trkpt lat="45.94351" lon="4.73117">
        <ele>169</ele>
        <time>2018-01-28T11:11:42Z</time>
      </trkpt>
      <trkpt lat="45.94354" lon="4.73116">
        <ele>169</ele>
        <time>2018-01-28T11:11:43Z</time>
      </trkpt>
      <trkpt lat="45.94361" lon="4.7311">
        <ele>169</ele>
        <time>2018-01-28T11:11:46Z</time>
      </trkpt>
      <trkpt lat="45.94364" lon="4.73108">
        <ele>169</ele>
        <time>2018-01-28T11:11:47Z</time>
      </trkpt>
      <trkpt lat="45.9437" lon="4.73102">
        <ele>169</ele>
        <time>2018-01-28T11:11:49Z</time>
      </trkpt>
      <trkpt lat="45.94373" lon="4.731">
        <ele>169</ele>
        <time>2018-01-28T11:11:50Z</time>
      </trkpt>
      <trkpt lat="45.94379" lon="4.73093">
        <ele>169</ele>
        <time>2018-01-28T11:11:52Z</time>
      </trkpt>
      <trkpt lat="45.94382" lon="4.7309">
        <ele>169</ele>
        <time>2018-01-28T11:11:53Z</time>
      </trkpt>
      <trkpt lat="45.94388" lon="4.73083">
        <ele>167</ele>
        <time>2018-01-28T11:11:55Z</time>
      </trkpt>
      <trkpt lat="45.94392" lon="4.7308">
        <ele>168</ele>
        <time>2018-01-28T11:11:56Z</time>
      </trkpt>
      <trkpt lat="45.94398" lon="4.73073">
        <ele>168</ele>
        <time>2018-01-28T11:11:58Z</time>
      </trkpt>
      <trkpt lat="45.944" lon="4.7307">
        <ele>168</ele>
        <time>2018-01-28T11:11:59Z</time>
      </trkpt>
      <trkpt lat="45.94405" lon="4.73065">
        <ele>168</ele>
        <time>2018-01-28T11:12:01Z</time>
      </trkpt>
      <trkpt lat="45.94408" lon="4.73062">
        <ele>168</ele>
        <time>2018-01-28T11:12:02Z</time>
      </trkpt>
      <trkpt lat="45.94415" lon="4.73055">
        <ele>167</ele>
        <time>2018-01-28T11:12:04Z</time>
      </trkpt>
      <trkpt lat="45.94417" lon="4.73052">
        <ele>169</ele>
        <time>2018-01-28T11:12:05Z</time>
      </trkpt>
      <trkpt lat="45.94423" lon="4.73043">
        <ele>169</ele>
        <time>2018-01-28T11:12:07Z</time>
      </trkpt>
      <trkpt lat="45.94426" lon="4.73039">
        <ele>169</ele>
        <time>2018-01-28T11:12:08Z</time>
      </trkpt>
      <trkpt lat="45.9443" lon="4.73033">
        <ele>169</ele>
        <time>2018-01-28T11:12:10Z</time>
      </trkpt>
      <trkpt lat="45.94433" lon="4.7303">
        <ele>169</ele>
        <time>2018-01-28T11:12:11Z</time>
      </trkpt>
      <trkpt lat="45.94439" lon="4.73023">
        <ele>169</ele>
        <time>2018-01-28T11:12:16Z</time>
      </trkpt>
      <trkpt lat="45.9444" lon="4.73021">
        <ele>169</ele>
        <time>2018-01-28T11:12:17Z</time>
      </trkpt>
      <trkpt lat="45.94448" lon="4.73023">
        <ele>169</ele>
        <time>2018-01-28T11:13:59Z</time>
      </trkpt>
      <trkpt lat="45.94448" lon="4.73024">
        <ele>169</ele>
        <time>2018-01-28T11:14:00Z</time>
      </trkpt>
      <trkpt lat="45.9445" lon="4.73036">
        <ele>169</ele>
        <time>2018-01-28T11:14:10Z</time>
      </trkpt>
      <trkpt lat="45.94449" lon="4.73037">
        <ele>169</ele>
        <time>2018-01-28T11:14:11Z</time>
      </trkpt>
      <trkpt lat="45.94454" lon="4.73047">
        <ele>169</ele>
        <time>2018-01-28T11:14:22Z</time>
      </trkpt>
      <trkpt lat="45.94455" lon="4.73047">
        <ele>169</ele>
        <time>2018-01-28T11:14:23Z</time>
      </trkpt>
      <trkpt lat="45.94455" lon="4.73048">
        <ele>170</ele>
        <time>2018-01-28T11:14:26Z</time>
      </trkpt>
      <trkpt lat="45.94455" lon="4.73048">
        <ele>170</ele>
        <time>2018-01-28T11:14:27Z</time>
      </trkpt>
      <trkpt lat="45.94452" lon="4.7305">
        <ele>169</ele>
        <time>2018-01-28T11:15:00Z</time>
      </trkpt>
      <trkpt lat="45.94452" lon="4.73051">
        <ele>169</ele>
        <time>2018-01-28T11:15:01Z</time>
      </trkpt>
      <trkpt lat="45.94456" lon="4.7304">
        <ele>169</ele>
        <time>2018-01-28T11:15:23Z</time>
      </trkpt>
      <trkpt lat="45.94456" lon="4.73038">
        <ele>169</ele>
        <time>2018-01-28T11:15:24Z</time>
      </trkpt>
      <trkpt lat="45.94453" lon="4.73027">
        <ele>169</ele>
        <time>2018-01-28T11:15:29Z</time>
      </trkpt>
      <trkpt lat="45.94453" lon="4.73024">
        <ele>169</ele>
        <time>2018-01-28T11:15:30Z</time>
      </trkpt>
      <trkpt lat="45.94452" lon="4.73012">
        <ele>169</ele>
        <time>2018-01-28T11:15:34Z</time>
      </trkpt>
      <trkpt lat="45.94452" lon="4.73009">
        <ele>169</ele>
        <time>2018-01-28T11:15:35Z</time>
      </trkpt>
      <trkpt lat="45.9445" lon="4.72999">
        <ele>167</ele>
        <time>2018-01-28T11:15:38Z</time>
      </trkpt>
      <trkpt lat="45.94449" lon="4.72996">
        <ele>167</ele>
        <time>2018-01-28T11:15:39Z</time>
      </trkpt>
      <trkpt lat="45.94448" lon="4.72985">
        <ele>167</ele>
        <time>2018-01-28T11:15:42Z</time>
      </trkpt>
      <trkpt lat="45.94446" lon="4.72982">
        <ele>167</ele>
        <time>2018-01-28T11:15:43Z</time>
      </trkpt>
      <trkpt lat="45.94444" lon="4.7297">
        <ele>167</ele>
        <time>2018-01-28T11:15:46Z</time>
      </trkpt>
      <trkpt lat="45.94443" lon="4.72967">
        <ele>167</ele>
        <time>2018-01-28T11:15:47Z</time>
      </trkpt>
      <trkpt lat="45.94442" lon="4.72956">
        <ele>167</ele>
        <time>2018-01-28T11:15:50Z</time>
      </trkpt>
      <trkpt lat="45.94441" lon="4.72953">
        <ele>167</ele>
        <time>2018-01-28T11:15:51Z</time>
      </trkpt>
      <trkpt lat="45.94441" lon="4.72943">
        <ele>167</ele>
        <time>2018-01-28T11:15:54Z</time>
      </trkpt>
      <trkpt lat="45.9444" lon="4.72939">
        <ele>167</ele>
        <time>2018-01-28T11:15:55Z</time>
      </trkpt>
      <trkpt lat="45.9444" lon="4.72929">
        <ele>167</ele>
        <time>2018-01-28T11:15:58Z</time>
      </trkpt>
      <trkpt lat="45.94439" lon="4.72925">
        <ele>167</ele>
        <time>2018-01-28T11:15:59Z</time>
      </trkpt>
      <trkpt lat="45.94438" lon="4.72915">
        <ele>166</ele>
        <time>2018-01-28T11:16:02Z</time>
      </trkpt>
      <trkpt lat="45.94438" lon="4.72912">
        <ele>166</ele>
        <time>2018-01-28T11:16:03Z</time>
      </trkpt>
      <trkpt lat="45.94437" lon="4.72901">
        <ele>166</ele>
        <time>2018-01-28T11:16:06Z</time>
      </trkpt>
      <trkpt lat="45.94436" lon="4.72898">
        <ele>166</ele>
        <time>2018-01-28T11:16:07Z</time>
      </trkpt>
      <trkpt lat="45.94436" lon="4.72887">
        <ele>166</ele>
        <time>2018-01-28T11:16:14Z</time>
      </trkpt>
      <trkpt lat="45.94436" lon="4.72883">
        <ele>166</ele>
        <time>2018-01-28T11:16:15Z</time>
      </trkpt>
      <trkpt lat="45.94434" lon="4.72871">
        <ele>166</ele>
        <time>2018-01-28T11:16:17Z</time>
      </trkpt>
      <trkpt lat="45.94433" lon="4.72864">
        <ele>166</ele>
        <time>2018-01-28T11:16:18Z</time>
      </trkpt>
      <trkpt lat="45.94432" lon="4.72856">
        <ele>166</ele>
        <time>2018-01-28T11:16:19Z</time>
      </trkpt>
      <trkpt lat="45.94431" lon="4.72848">
        <ele>166</ele>
        <time>2018-01-28T11:16:20Z</time>
      </trkpt>
      <trkpt lat="45.9443" lon="4.7284">
        <ele>166</ele>
        <time>2018-01-28T11:16:21Z</time>
      </trkpt>
      <trkpt lat="45.94429" lon="4.72832">
        <ele>167</ele>
        <time>2018-01-28T11:16:22Z</time>
      </trkpt>
      <trkpt lat="45.94427" lon="4.72824">
        <ele>167</ele>
        <time>2018-01-28T11:16:23Z</time>
      </trkpt>
      <trkpt lat="45.94427" lon="4.72816">
        <ele>167</ele>
        <time>2018-01-28T11:16:24Z</time>
      </trkpt>
      <trkpt lat="45.94426" lon="4.72808">
        <ele>167</ele>
        <time>2018-01-28T11:16:25Z</time>
      </trkpt>
      <trkpt lat="45.94425" lon="4.72799">
        <ele>167</ele>
        <time>2018-01-28T11:16:26Z</time>
      </trkpt>
      <trkpt lat="45.94423" lon="4.72789">
        <ele>168</ele>
        <time>2018-01-28T11:16:27Z</time>
      </trkpt>
      <trkpt lat="45.94422" lon="4.72781">
        <ele>168</ele>
        <time>2018-01-28T11:16:28Z</time>
      </trkpt>
      <trkpt lat="45.94421" lon="4.72772">
        <ele>169</ele>
        <time>2018-01-28T11:16:29Z</time>
      </trkpt>
      <trkpt lat="45.9442" lon="4.72764">
        <ele>169</ele>
        <time>2018-01-28T11:16:30Z</time>
      </trkpt>
      <trkpt lat="45.94419" lon="4.72755">
        <ele>170</ele>
        <time>2018-01-28T11:16:31Z</time>
      </trkpt>
      <trkpt lat="45.94415" lon="4.72745">
        <ele>171</ele>
        <time>2018-01-28T11:16:32Z</time>
      </trkpt>
      <trkpt lat="45.94415" lon="4.72737">
        <ele>171</ele>
        <time>2018-01-28T11:16:33Z</time>
      </trkpt>
      <trkpt lat="45.94414" lon="4.72728">
        <ele>172</ele>
        <time>2018-01-28T11:16:34Z</time>
      </trkpt>
      <trkpt lat="45.94414" lon="4.7272">
        <ele>172</ele>
        <time>2018-01-28T11:16:35Z</time>
      </trkpt>
      <trkpt lat="45.94412" lon="4.72712">
        <ele>172</ele>
        <time>2018-01-28T11:16:36Z</time>
      </trkpt>
      <trkpt lat="45.94412" lon="4.72703">
        <ele>172</ele>
        <time>2018-01-28T11:16:37Z</time>
      </trkpt>
      <trkpt lat="45.94413" lon="4.72695">
        <ele>173</ele>
        <time>2018-01-28T11:16:38Z</time>
      </trkpt>
      <trkpt lat="45.94413" lon="4.72687">
        <ele>173</ele>
        <time>2018-01-28T11:16:39Z</time>
      </trkpt>
      <trkpt lat="45.94408" lon="4.72678">
        <ele>173</ele>
        <time>2018-01-28T11:16:40Z</time>
      </trkpt>
      <trkpt lat="45.94407" lon="4.7267">
        <ele>173</ele>
        <time>2018-01-28T11:16:41Z</time>
      </trkpt>
      <trkpt lat="45.94407" lon="4.72662">
        <ele>174</ele>
        <time>2018-01-28T11:16:42Z</time>
      </trkpt>
      <trkpt lat="45.94407" lon="4.72655">
        <ele>174</ele>
        <time>2018-01-28T11:16:43Z</time>
      </trkpt>
      <trkpt lat="45.94406" lon="4.72648">
        <ele>174</ele>
        <time>2018-01-28T11:16:44Z</time>
      </trkpt>
      <trkpt lat="45.94405" lon="4.7264">
        <ele>174</ele>
        <time>2018-01-28T11:16:45Z</time>
      </trkpt>
      <trkpt lat="45.94405" lon="4.72634">
        <ele>174</ele>
        <time>2018-01-28T11:16:46Z</time>
      </trkpt>
      <trkpt lat="45.94403" lon="4.72627">
        <ele>174</ele>
        <time>2018-01-28T11:16:47Z</time>
      </trkpt>
      <trkpt lat="45.94404" lon="4.72619">
        <ele>173</ele>
        <time>2018-01-28T11:16:48Z</time>
      </trkpt>
      <trkpt lat="45.94403" lon="4.72606">
        <ele>173</ele>
        <time>2018-01-28T11:16:50Z</time>
      </trkpt>
      <trkpt lat="45.94402" lon="4.726">
        <ele>173</ele>
        <time>2018-01-28T11:16:51Z</time>
      </trkpt>
      <trkpt lat="45.94403" lon="4.72592">
        <ele>173</ele>
        <time>2018-01-28T11:16:52Z</time>
      </trkpt>
      <trkpt lat="45.94403" lon="4.72586">
        <ele>173</ele>
        <time>2018-01-28T11:16:53Z</time>
      </trkpt>
      <trkpt lat="45.94401" lon="4.72574">
        <ele>173</ele>
        <time>2018-01-28T11:16:55Z</time>
      </trkpt>
      <trkpt lat="45.944" lon="4.72569">
        <ele>173</ele>
        <time>2018-01-28T11:16:56Z</time>
      </trkpt>
      <trkpt lat="45.94397" lon="4.72557">
        <ele>173</ele>
        <time>2018-01-28T11:16:58Z</time>
      </trkpt>
      <trkpt lat="45.94394" lon="4.7255">
        <ele>173</ele>
        <time>2018-01-28T11:16:59Z</time>
      </trkpt>
      <trkpt lat="45.94391" lon="4.72544">
        <ele>173</ele>
        <time>2018-01-28T11:17:00Z</time>
      </trkpt>
      <trkpt lat="45.9439" lon="4.72537">
        <ele>174</ele>
        <time>2018-01-28T11:17:01Z</time>
      </trkpt>
      <trkpt lat="45.94389" lon="4.72531">
        <ele>174</ele>
        <time>2018-01-28T11:17:02Z</time>
      </trkpt>
      <trkpt lat="45.94388" lon="4.72524">
        <ele>174</ele>
        <time>2018-01-28T11:17:03Z</time>
      </trkpt>
      <trkpt lat="45.94385" lon="4.72513">
        <ele>174</ele>
        <time>2018-01-28T11:17:05Z</time>
      </trkpt>
      <trkpt lat="45.94383" lon="4.72507">
        <ele>174</ele>
        <time>2018-01-28T11:17:06Z</time>
      </trkpt>
      <trkpt lat="45.94379" lon="4.72496">
        <ele>173</ele>
        <time>2018-01-28T11:17:08Z</time>
      </trkpt>
      <trkpt lat="45.94378" lon="4.72492">
        <ele>173</ele>
        <time>2018-01-28T11:17:09Z</time>
      </trkpt>
      <trkpt lat="45.94375" lon="4.72481">
        <ele>173</ele>
        <time>2018-01-28T11:17:11Z</time>
      </trkpt>
      <trkpt lat="45.94373" lon="4.72475">
        <ele>173</ele>
        <time>2018-01-28T11:17:12Z</time>
      </trkpt>
      <trkpt lat="45.94369" lon="4.72466">
        <ele>173</ele>
        <time>2018-01-28T11:17:13Z</time>
      </trkpt>
      <trkpt lat="45.94367" lon="4.72461">
        <ele>173</ele>
        <time>2018-01-28T11:17:14Z</time>
      </trkpt>
      <trkpt lat="45.94364" lon="4.72454">
        <ele>173</ele>
        <time>2018-01-28T11:17:15Z</time>
      </trkpt>
      <trkpt lat="45.94362" lon="4.72447">
        <ele>173</ele>
        <time>2018-01-28T11:17:16Z</time>
      </trkpt>
      <trkpt lat="45.94357" lon="4.72437">
        <ele>173</ele>
        <time>2018-01-28T11:17:18Z</time>
      </trkpt>
      <trkpt lat="45.94355" lon="4.72432">
        <ele>173</ele>
        <time>2018-01-28T11:17:19Z</time>
      </trkpt>
      <trkpt lat="45.94351" lon="4.72423">
        <ele>173</ele>
        <time>2018-01-28T11:17:21Z</time>
      </trkpt>
      <trkpt lat="45.9435" lon="4.72419">
        <ele>173</ele>
        <time>2018-01-28T11:17:22Z</time>
      </trkpt>
      <trkpt lat="45.94347" lon="4.72414">
        <ele>173</ele>
        <time>2018-01-28T11:17:23Z</time>
      </trkpt>
      <trkpt lat="45.94345" lon="4.72408">
        <ele>173</ele>
        <time>2018-01-28T11:17:24Z</time>
      </trkpt>
      <trkpt lat="45.9434" lon="4.72403">
        <ele>173</ele>
        <time>2018-01-28T11:17:25Z</time>
      </trkpt>
      <trkpt lat="45.94338" lon="4.72397">
        <ele>172</ele>
        <time>2018-01-28T11:17:26Z</time>
      </trkpt>
      <trkpt lat="45.94335" lon="4.72387">
        <ele>172</ele>
        <time>2018-01-28T11:17:28Z</time>
      </trkpt>
      <trkpt lat="45.94332" lon="4.72382">
        <ele>172</ele>
        <time>2018-01-28T11:17:29Z</time>
      </trkpt>
      <trkpt lat="45.94328" lon="4.72373">
        <ele>172</ele>
        <time>2018-01-28T11:17:31Z</time>
      </trkpt>
      <trkpt lat="45.94326" lon="4.72368">
        <ele>172</ele>
        <time>2018-01-28T11:17:32Z</time>
      </trkpt>
      <trkpt lat="45.9432" lon="4.72358">
        <ele>172</ele>
        <time>2018-01-28T11:17:34Z</time>
      </trkpt>
      <trkpt lat="45.94318" lon="4.72352">
        <ele>172</ele>
        <time>2018-01-28T11:17:35Z</time>
      </trkpt>
      <trkpt lat="45.94315" lon="4.72346">
        <ele>172</ele>
        <time>2018-01-28T11:17:36Z</time>
      </trkpt>
      <trkpt lat="45.94313" lon="4.7234">
        <ele>172</ele>
        <time>2018-01-28T11:17:37Z</time>
      </trkpt>
      <trkpt lat="45.94309" lon="4.72328">
        <ele>172</ele>
        <time>2018-01-28T11:17:39Z</time>
      </trkpt>
      <trkpt lat="45.94307" lon="4.72321">
        <ele>171</ele>
        <time>2018-01-28T11:17:40Z</time>
      </trkpt>
      <trkpt lat="45.94304" lon="4.72315">
        <ele>171</ele>
        <time>2018-01-28T11:17:41Z</time>
      </trkpt>
      <trkpt lat="45.94302" lon="4.7231">
        <ele>171</ele>
        <time>2018-01-28T11:17:42Z</time>
      </trkpt>
      <trkpt lat="45.94297" lon="4.72304">
        <ele>171</ele>
        <time>2018-01-28T11:17:43Z</time>
      </trkpt>
      <trkpt lat="45.94294" lon="4.72299">
        <ele>171</ele>
        <time>2018-01-28T11:17:44Z</time>
      </trkpt>
      <trkpt lat="45.94291" lon="4.72294">
        <ele>171</ele>
        <time>2018-01-28T11:17:45Z</time>
      </trkpt>
      <trkpt lat="45.94288" lon="4.72289">
        <ele>171</ele>
        <time>2018-01-28T11:17:46Z</time>
      </trkpt>
      <trkpt lat="45.94284" lon="4.7228">
        <ele>171</ele>
        <time>2018-01-28T11:17:48Z</time>
      </trkpt>
      <trkpt lat="45.94284" lon="4.72275">
        <ele>171</ele>
        <time>2018-01-28T11:17:49Z</time>
      </trkpt>
      <trkpt lat="45.94278" lon="4.72266">
        <ele>171</ele>
        <time>2018-01-28T11:17:53Z</time>
      </trkpt>
      <trkpt lat="45.94274" lon="4.72265">
        <ele>171</ele>
        <time>2018-01-28T11:17:54Z</time>
      </trkpt>
      <trkpt lat="45.94267" lon="4.72264">
        <ele>171</ele>
        <time>2018-01-28T11:17:58Z</time>
      </trkpt>
      <trkpt lat="45.94265" lon="4.72268">
        <ele>171</ele>
        <time>2018-01-28T11:17:59Z</time>
      </trkpt>
      <trkpt lat="45.94259" lon="4.72275">
        <ele>171</ele>
        <time>2018-01-28T11:18:01Z</time>
      </trkpt>
      <trkpt lat="45.94256" lon="4.72278">
        <ele>171</ele>
        <time>2018-01-28T11:18:02Z</time>
      </trkpt>
      <trkpt lat="45.94248" lon="4.7228">
        <ele>171</ele>
        <time>2018-01-28T11:18:04Z</time>
      </trkpt>
      <trkpt lat="45.94244" lon="4.72281">
        <ele>171</ele>
        <time>2018-01-28T11:18:05Z</time>
      </trkpt>
      <trkpt lat="45.94239" lon="4.72284">
        <ele>171</ele>
        <time>2018-01-28T11:18:06Z</time>
      </trkpt>
      <trkpt lat="45.94234" lon="4.72285">
        <ele>171</ele>
        <time>2018-01-28T11:18:07Z</time>
      </trkpt>
      <trkpt lat="45.94229" lon="4.72286">
        <ele>171</ele>
        <time>2018-01-28T11:18:08Z</time>
      </trkpt>
      <trkpt lat="45.94225" lon="4.72287">
        <ele>171</ele>
        <time>2018-01-28T11:18:09Z</time>
      </trkpt>
      <trkpt lat="45.94216" lon="4.72287">
        <ele>171</ele>
        <time>2018-01-28T11:18:11Z</time>
      </trkpt>
      <trkpt lat="45.94213" lon="4.72287">
        <ele>171</ele>
        <time>2018-01-28T11:18:12Z</time>
      </trkpt>
      <trkpt lat="45.94206" lon="4.72287">
        <ele>171</ele>
        <time>2018-01-28T11:18:14Z</time>
      </trkpt>
      <trkpt lat="45.94203" lon="4.72288">
        <ele>171</ele>
        <time>2018-01-28T11:18:15Z</time>
      </trkpt>
      <trkpt lat="45.94195" lon="4.72287">
        <ele>171</ele>
        <time>2018-01-28T11:18:17Z</time>
      </trkpt>
      <trkpt lat="45.94191" lon="4.72287">
        <ele>171</ele>
        <time>2018-01-28T11:18:18Z</time>
      </trkpt>
      <trkpt lat="45.94186" lon="4.72287">
        <ele>171</ele>
        <time>2018-01-28T11:18:19Z</time>
      </trkpt>
      <trkpt lat="45.94181" lon="4.72286">
        <ele>171</ele>
        <time>2018-01-28T11:18:20Z</time>
      </trkpt>
      <trkpt lat="45.94176" lon="4.72286">
        <ele>171</ele>
        <time>2018-01-28T11:18:21Z</time>
      </trkpt>
      <trkpt lat="45.9417" lon="4.72285">
        <ele>171</ele>
        <time>2018-01-28T11:18:22Z</time>
      </trkpt>
      <trkpt lat="45.94165" lon="4.72284">
        <ele>171</ele>
        <time>2018-01-28T11:18:23Z</time>
      </trkpt>
      <trkpt lat="45.9416" lon="4.72283">
        <ele>171</ele>
        <time>2018-01-28T11:18:24Z</time>
      </trkpt>
      <trkpt lat="45.94155" lon="4.72282">
        <ele>171</ele>
        <time>2018-01-28T11:18:25Z</time>
      </trkpt>
      <trkpt lat="45.9415" lon="4.72281">
        <ele>171</ele>
        <time>2018-01-28T11:18:26Z</time>
      </trkpt>
      <trkpt lat="45.94142" lon="4.72278">
        <ele>171</ele>
        <time>2018-01-28T11:18:28Z</time>
      </trkpt>
      <trkpt lat="45.94138" lon="4.72276">
        <ele>171</ele>
        <time>2018-01-28T11:18:29Z</time>
      </trkpt>
      <trkpt lat="45.94134" lon="4.72273">
        <ele>171</ele>
        <time>2018-01-28T11:18:30Z</time>
      </trkpt>
      <trkpt lat="45.94129" lon="4.72271">
        <ele>171</ele>
        <time>2018-01-28T11:18:31Z</time>
      </trkpt>
      <trkpt lat="45.94122" lon="4.72267">
        <ele>171</ele>
        <time>2018-01-28T11:18:33Z</time>
      </trkpt>
      <trkpt lat="45.94118" lon="4.72265">
        <ele>171</ele>
        <time>2018-01-28T11:18:34Z</time>
      </trkpt>
      <trkpt lat="45.9411" lon="4.72263">
        <ele>171</ele>
        <time>2018-01-28T11:18:36Z</time>
      </trkpt>
      <trkpt lat="45.94107" lon="4.72262">
        <ele>171</ele>
        <time>2018-01-28T11:18:37Z</time>
      </trkpt>
      <trkpt lat="45.94098" lon="4.72261">
        <ele>171</ele>
        <time>2018-01-28T11:18:39Z</time>
      </trkpt>
      <trkpt lat="45.94093" lon="4.72262">
        <ele>171</ele>
        <time>2018-01-28T11:18:40Z</time>
      </trkpt>
      <trkpt lat="45.94085" lon="4.72265">
        <ele>171</ele>
        <time>2018-01-28T11:18:42Z</time>
      </trkpt>
      <trkpt lat="45.94081" lon="4.72268">
        <ele>171</ele>
        <time>2018-01-28T11:18:43Z</time>
      </trkpt>
      <trkpt lat="45.94075" lon="4.72273">
        <ele>171</ele>
        <time>2018-01-28T11:18:45Z</time>
      </trkpt>
      <trkpt lat="45.94072" lon="4.72276">
        <ele>171</ele>
        <time>2018-01-28T11:18:46Z</time>
      </trkpt>
      <trkpt lat="45.94066" lon="4.72283">
        <ele>171</ele>
        <time>2018-01-28T11:18:48Z</time>
      </trkpt>
      <trkpt lat="45.94063" lon="4.72287">
        <ele>171</ele>
        <time>2018-01-28T11:18:49Z</time>
      </trkpt>
      <trkpt lat="45.94056" lon="4.72294">
        <ele>171</ele>
        <time>2018-01-28T11:18:51Z</time>
      </trkpt>
      <trkpt lat="45.94052" lon="4.72299">
        <ele>171</ele>
        <time>2018-01-28T11:18:52Z</time>
      </trkpt>
      <trkpt lat="45.94048" lon="4.72304">
        <ele>171</ele>
        <time>2018-01-28T11:18:53Z</time>
      </trkpt>
      <trkpt lat="45.94044" lon="4.72309">
        <ele>171</ele>
        <time>2018-01-28T11:18:54Z</time>
      </trkpt>
      <trkpt lat="45.94041" lon="4.72314">
        <ele>171</ele>
        <time>2018-01-28T11:18:55Z</time>
      </trkpt>
      <trkpt lat="45.94037" lon="4.7232">
        <ele>171</ele>
        <time>2018-01-28T11:18:56Z</time>
      </trkpt>
      <trkpt lat="45.94033" lon="4.72325">
        <ele>171</ele>
        <time>2018-01-28T11:18:57Z</time>
      </trkpt>
      <trkpt lat="45.94029" lon="4.7233">
        <ele>171</ele>
        <time>2018-01-28T11:18:58Z</time>
      </trkpt>
      <trkpt lat="45.94025" lon="4.72334">
        <ele>171</ele>
        <time>2018-01-28T11:18:59Z</time>
      </trkpt>
      <trkpt lat="45.94021" lon="4.72338">
        <ele>171</ele>
        <time>2018-01-28T11:19:00Z</time>
      </trkpt>
      <trkpt lat="45.94017" lon="4.72343">
        <ele>171</ele>
        <time>2018-01-28T11:19:01Z</time>
      </trkpt>
      <trkpt lat="45.94014" lon="4.72347">
        <ele>171</ele>
        <time>2018-01-28T11:19:02Z</time>
      </trkpt>
      <trkpt lat="45.94008" lon="4.72354">
        <ele>171</ele>
        <time>2018-01-28T11:19:04Z</time>
      </trkpt>
      <trkpt lat="45.94005" lon="4.72358">
        <ele>171</ele>
        <time>2018-01-28T11:19:05Z</time>
      </trkpt>
      <trkpt lat="45.93999" lon="4.72366">
        <ele>171</ele>
        <time>2018-01-28T11:19:07Z</time>
      </trkpt>
      <trkpt lat="45.93995" lon="4.7237">
        <ele>171</ele>
        <time>2018-01-28T11:19:08Z</time>
      </trkpt>
      <trkpt lat="45.93991" lon="4.72375">
        <ele>171</ele>
        <time>2018-01-28T11:19:09Z</time>
      </trkpt>
      <trkpt lat="45.93987" lon="4.72379">
        <ele>171</ele>
        <time>2018-01-28T11:19:10Z</time>
      </trkpt>
      <trkpt lat="45.93983" lon="4.72384">
        <ele>171</ele>
        <time>2018-01-28T11:19:11Z</time>
      </trkpt>
      <trkpt lat="45.9398" lon="4.72388">
        <ele>171</ele>
        <time>2018-01-28T11:19:12Z</time>
      </trkpt>
      <trkpt lat="45.93975" lon="4.72393">
        <ele>171</ele>
        <time>2018-01-28T11:19:13Z</time>
      </trkpt>
      <trkpt lat="45.9397" lon="4.72397">
        <ele>171</ele>
        <time>2018-01-28T11:19:14Z</time>
      </trkpt>
      <trkpt lat="45.93964" lon="4.72406">
        <ele>171</ele>
        <time>2018-01-28T11:19:16Z</time>
      </trkpt>
      <trkpt lat="45.9396" lon="4.72409">
        <ele>171</ele>
        <time>2018-01-28T11:19:17Z</time>
      </trkpt>
      <trkpt lat="45.93953" lon="4.72417">
        <ele>171</ele>
        <time>2018-01-28T11:19:19Z</time>
      </trkpt>
      <trkpt lat="45.9395" lon="4.72421">
        <ele>171</ele>
        <time>2018-01-28T11:19:20Z</time>
      </trkpt>
      <trkpt lat="45.93946" lon="4.72426">
        <ele>171</ele>
        <time>2018-01-28T11:19:21Z</time>
      </trkpt>
      <trkpt lat="45.93943" lon="4.7243">
        <ele>171</ele>
        <time>2018-01-28T11:19:22Z</time>
      </trkpt>
      <trkpt lat="45.93939" lon="4.72434">
        <ele>171</ele>
        <time>2018-01-28T11:19:23Z</time>
      </trkpt>
      <trkpt lat="45.93935" lon="4.72438">
        <ele>171</ele>
        <time>2018-01-28T11:19:24Z</time>
      </trkpt>
      <trkpt lat="45.93932" lon="4.72442">
        <ele>171</ele>
        <time>2018-01-28T11:19:25Z</time>
      </trkpt>
      <trkpt lat="45.93928" lon="4.72446">
        <ele>171</ele>
        <time>2018-01-28T11:19:26Z</time>
      </trkpt>
      <trkpt lat="45.93922" lon="4.72454">
        <ele>171</ele>
        <time>2018-01-28T11:19:28Z</time>
      </trkpt>
      <trkpt lat="45.93919" lon="4.72459">
        <ele>171</ele>
        <time>2018-01-28T11:19:29Z</time>
      </trkpt>
      <trkpt lat="45.93915" lon="4.72462">
        <ele>172</ele>
        <time>2018-01-28T11:19:30Z</time>
      </trkpt>
      <trkpt lat="45.93911" lon="4.72467">
        <ele>172</ele>
        <time>2018-01-28T11:19:31Z</time>
      </trkpt>
      <trkpt lat="45.93905" lon="4.72474">
        <ele>172</ele>
        <time>2018-01-28T11:19:33Z</time>
      </trkpt>
      <trkpt lat="45.93902" lon="4.72479">
        <ele>172</ele>
        <time>2018-01-28T11:19:34Z</time>
      </trkpt>
      <trkpt lat="45.93896" lon="4.72485">
        <ele>172</ele>
        <time>2018-01-28T11:19:36Z</time>
      </trkpt>
      <trkpt lat="45.93893" lon="4.72489">
        <ele>172</ele>
        <time>2018-01-28T11:19:37Z</time>
      </trkpt>
      <trkpt lat="45.93889" lon="4.72494">
        <ele>172</ele>
        <time>2018-01-28T11:19:38Z</time>
      </trkpt>
      <trkpt lat="45.93886" lon="4.72498">
        <ele>172</ele>
        <time>2018-01-28T11:19:39Z</time>
      </trkpt>
      <trkpt lat="45.93879" lon="4.72505">
        <ele>173</ele>
        <time>2018-01-28T11:19:41Z</time>
      </trkpt>
      <trkpt lat="45.93875" lon="4.72509">
        <ele>173</ele>
        <time>2018-01-28T11:19:42Z</time>
      </trkpt>
      <trkpt lat="45.93868" lon="4.72513">
        <ele>173</ele>
        <time>2018-01-28T11:19:44Z</time>
      </trkpt>
      <trkpt lat="45.93864" lon="4.72514">
        <ele>173</ele>
        <time>2018-01-28T11:19:45Z</time>
      </trkpt>
      <trkpt lat="45.93857" lon="4.72513">
        <ele>173</ele>
        <time>2018-01-28T11:19:47Z</time>
      </trkpt>
      <trkpt lat="45.93854" lon="4.72512">
        <ele>173</ele>
        <time>2018-01-28T11:19:48Z</time>
      </trkpt>
      <trkpt lat="45.93848" lon="4.72506">
        <ele>174</ele>
        <time>2018-01-28T11:19:50Z</time>
      </trkpt>
      <trkpt lat="45.93839" lon="4.72496">
        <ele>174</ele>
        <time>2018-01-28T11:19:54Z</time>
      </trkpt>
      <trkpt lat="45.93834" lon="4.72494">
        <ele>174</ele>
        <time>2018-01-28T11:19:57Z</time>
      </trkpt>
      <trkpt lat="45.93824" lon="4.72457">
        <ele>172</ele>
        <time>2018-01-28T11:19:58Z</time>
      </trkpt>
      <trkpt lat="45.93818" lon="4.72463">
        <ele>172</ele>
        <time>2018-01-28T11:20:00Z</time>
      </trkpt>
      <trkpt lat="45.93815" lon="4.72461">
        <ele>172</ele>
        <time>2018-01-28T11:20:01Z</time>
      </trkpt>
      <trkpt lat="45.93808" lon="4.72457">
        <ele>172</ele>
        <time>2018-01-28T11:20:03Z</time>
      </trkpt>
      <trkpt lat="45.93805" lon="4.72455">
        <ele>172</ele>
        <time>2018-01-28T11:20:04Z</time>
      </trkpt>
      <trkpt lat="45.93799" lon="4.72449">
        <ele>172</ele>
        <time>2018-01-28T11:20:06Z</time>
      </trkpt>
      <trkpt lat="45.93795" lon="4.72446">
        <ele>172</ele>
        <time>2018-01-28T11:20:07Z</time>
      </trkpt>
      <trkpt lat="45.9379" lon="4.7244">
        <ele>172</ele>
        <time>2018-01-28T11:20:09Z</time>
      </trkpt>
      <trkpt lat="45.93786" lon="4.72437">
        <ele>172</ele>
        <time>2018-01-28T11:20:10Z</time>
      </trkpt>
      <trkpt lat="45.93779" lon="4.7243">
        <ele>172</ele>
        <time>2018-01-28T11:20:12Z</time>
      </trkpt>
      <trkpt lat="45.93775" lon="4.72428">
        <ele>171</ele>
        <time>2018-01-28T11:20:13Z</time>
      </trkpt>
      <trkpt lat="45.9377" lon="4.72421">
        <ele>171</ele>
        <time>2018-01-28T11:20:15Z</time>
      </trkpt>
      <trkpt lat="45.93767" lon="4.72419">
        <ele>171</ele>
        <time>2018-01-28T11:20:16Z</time>
      </trkpt>
      <trkpt lat="45.93759" lon="4.72412">
        <ele>171</ele>
        <time>2018-01-28T11:20:18Z</time>
      </trkpt>
      <trkpt lat="45.93756" lon="4.72409">
        <ele>171</ele>
        <time>2018-01-28T11:20:19Z</time>
      </trkpt>
      <trkpt lat="45.93749" lon="4.724">
        <ele>171</ele>
        <time>2018-01-28T11:20:21Z</time>
      </trkpt>
      <trkpt lat="45.93746" lon="4.72397">
        <ele>171</ele>
        <time>2018-01-28T11:20:22Z</time>
      </trkpt>
      <trkpt lat="45.93741" lon="4.72392">
        <ele>171</ele>
        <time>2018-01-28T11:20:24Z</time>
      </trkpt>
      <trkpt lat="45.93737" lon="4.72388">
        <ele>171</ele>
        <time>2018-01-28T11:20:25Z</time>
      </trkpt>
      <trkpt lat="45.9373" lon="4.72381">
        <ele>171</ele>
        <time>2018-01-28T11:20:27Z</time>
      </trkpt>
      <trkpt lat="45.93726" lon="4.72378">
        <ele>171</ele>
        <time>2018-01-28T11:20:28Z</time>
      </trkpt>
      <trkpt lat="45.93722" lon="4.72374">
        <ele>172</ele>
        <time>2018-01-28T11:20:29Z</time>
      </trkpt>
      <trkpt lat="45.93718" lon="4.7237">
        <ele>172</ele>
        <time>2018-01-28T11:20:30Z</time>
      </trkpt>
      <trkpt lat="45.93711" lon="4.72363">
        <ele>172</ele>
        <time>2018-01-28T11:20:32Z</time>
      </trkpt>
      <trkpt lat="45.93706" lon="4.72359">
        <ele>171</ele>
        <time>2018-01-28T11:20:33Z</time>
      </trkpt>
      <trkpt lat="45.937" lon="4.72353">
        <ele>171</ele>
        <time>2018-01-28T11:20:35Z</time>
      </trkpt>
      <trkpt lat="45.93697" lon="4.7235">
        <ele>171</ele>
        <time>2018-01-28T11:20:36Z</time>
      </trkpt>
      <trkpt lat="45.9369" lon="4.72343">
        <ele>171</ele>
        <time>2018-01-28T11:20:39Z</time>
      </trkpt>
      <trkpt lat="45.93686" lon="4.72339">
        <ele>171</ele>
        <time>2018-01-28T11:20:40Z</time>
      </trkpt>
      <trkpt lat="45.93683" lon="4.72333">
        <ele>171</ele>
        <time>2018-01-28T11:20:41Z</time>
      </trkpt>
      <trkpt lat="45.93678" lon="4.72331">
        <ele>171</ele>
        <time>2018-01-28T11:20:42Z</time>
      </trkpt>
      <trkpt lat="45.93673" lon="4.72325">
        <ele>171</ele>
        <time>2018-01-28T11:20:44Z</time>
      </trkpt>
      <trkpt lat="45.9367" lon="4.72323">
        <ele>171</ele>
        <time>2018-01-28T11:20:45Z</time>
      </trkpt>
      <trkpt lat="45.93664" lon="4.72316">
        <ele>172</ele>
        <time>2018-01-28T11:20:47Z</time>
      </trkpt>
      <trkpt lat="45.93661" lon="4.72313">
        <ele>172</ele>
        <time>2018-01-28T11:20:48Z</time>
      </trkpt>
      <trkpt lat="45.93657" lon="4.72309">
        <ele>172</ele>
        <time>2018-01-28T11:20:49Z</time>
      </trkpt>
      <trkpt lat="45.93652" lon="4.72305">
        <ele>172</ele>
        <time>2018-01-28T11:20:50Z</time>
      </trkpt>
      <trkpt lat="45.93648" lon="4.72301">
        <ele>172</ele>
        <time>2018-01-28T11:20:51Z</time>
      </trkpt>
      <trkpt lat="45.93645" lon="4.72298">
        <ele>172</ele>
        <time>2018-01-28T11:20:52Z</time>
      </trkpt>
      <trkpt lat="45.93638" lon="4.72292">
        <ele>172</ele>
        <time>2018-01-28T11:20:54Z</time>
      </trkpt>
      <trkpt lat="45.93634" lon="4.72289">
        <ele>172</ele>
        <time>2018-01-28T11:20:55Z</time>
      </trkpt>
      <trkpt lat="45.93629" lon="4.72283">
        <ele>172</ele>
        <time>2018-01-28T11:20:57Z</time>
      </trkpt>
      <trkpt lat="45.93626" lon="4.72281">
        <ele>172</ele>
        <time>2018-01-28T11:20:58Z</time>
      </trkpt>
      <trkpt lat="45.93621" lon="4.72275">
        <ele>172</ele>
        <time>2018-01-28T11:21:00Z</time>
      </trkpt>
      <trkpt lat="45.93618" lon="4.72272">
        <ele>172</ele>
        <time>2018-01-28T11:21:01Z</time>
      </trkpt>
      <trkpt lat="45.93612" lon="4.72265">
        <ele>172</ele>
        <time>2018-01-28T11:21:03Z</time>
      </trkpt>
      <trkpt lat="45.93608" lon="4.72262">
        <ele>173</ele>
        <time>2018-01-28T11:21:04Z</time>
      </trkpt>
      <trkpt lat="45.93603" lon="4.72256">
        <ele>173</ele>
        <time>2018-01-28T11:21:06Z</time>
      </trkpt>
      <trkpt lat="45.93601" lon="4.72253">
        <ele>173</ele>
        <time>2018-01-28T11:21:07Z</time>
      </trkpt>
      <trkpt lat="45.93595" lon="4.72247">
        <ele>173</ele>
        <time>2018-01-28T11:21:09Z</time>
      </trkpt>
      <trkpt lat="45.93592" lon="4.72244">
        <ele>173</ele>
        <time>2018-01-28T11:21:10Z</time>
      </trkpt>
      <trkpt lat="45.93586" lon="4.72238">
        <ele>173</ele>
        <time>2018-01-28T11:21:12Z</time>
      </trkpt>
      <trkpt lat="45.93583" lon="4.72234">
        <ele>173</ele>
        <time>2018-01-28T11:21:13Z</time>
      </trkpt>
      <trkpt lat="45.93577" lon="4.72229">
        <ele>173</ele>
        <time>2018-01-28T11:21:15Z</time>
      </trkpt>
      <trkpt lat="45.93574" lon="4.72226">
        <ele>173</ele>
        <time>2018-01-28T11:21:16Z</time>
      </trkpt>
      <trkpt lat="45.93568" lon="4.72221">
        <ele>173</ele>
        <time>2018-01-28T11:21:19Z</time>
      </trkpt>
      <trkpt lat="45.93566" lon="4.7222">
        <ele>173</ele>
        <time>2018-01-28T11:21:20Z</time>
      </trkpt>
      <trkpt lat="45.93559" lon="4.72217">
        <ele>173</ele>
        <time>2018-01-28T11:21:23Z</time>
      </trkpt>
      <trkpt lat="45.93556" lon="4.72218">
        <ele>173</ele>
        <time>2018-01-28T11:21:24Z</time>
      </trkpt>
      <trkpt lat="45.9355" lon="4.72222">
        <ele>172</ele>
        <time>2018-01-28T11:21:26Z</time>
      </trkpt>
      <trkpt lat="45.93548" lon="4.72226">
        <ele>172</ele>
        <time>2018-01-28T11:21:27Z</time>
      </trkpt>
      <trkpt lat="45.93544" lon="4.72236">
        <ele>172</ele>
        <time>2018-01-28T11:21:29Z</time>
      </trkpt>
      <trkpt lat="45.93542" lon="4.72241">
        <ele>172</ele>
        <time>2018-01-28T11:21:30Z</time>
      </trkpt>
      <trkpt lat="45.93539" lon="4.7225">
        <ele>172</ele>
        <time>2018-01-28T11:21:32Z</time>
      </trkpt>
      <trkpt lat="45.93537" lon="4.72255">
        <ele>172</ele>
        <time>2018-01-28T11:21:33Z</time>
      </trkpt>
      <trkpt lat="45.93533" lon="4.72265">
        <ele>172</ele>
        <time>2018-01-28T11:21:35Z</time>
      </trkpt>
      <trkpt lat="45.93531" lon="4.72271">
        <ele>172</ele>
        <time>2018-01-28T11:21:36Z</time>
      </trkpt>
      <trkpt lat="45.93527" lon="4.72276">
        <ele>172</ele>
        <time>2018-01-28T11:21:37Z</time>
      </trkpt>
      <trkpt lat="45.93525" lon="4.72282">
        <ele>172</ele>
        <time>2018-01-28T11:21:38Z</time>
      </trkpt>
      <trkpt lat="45.93521" lon="4.72293">
        <ele>172</ele>
        <time>2018-01-28T11:21:40Z</time>
      </trkpt>
      <trkpt lat="45.93519" lon="4.72299">
        <ele>172</ele>
        <time>2018-01-28T11:21:41Z</time>
      </trkpt>
      <trkpt lat="45.93514" lon="4.72304">
        <ele>173</ele>
        <time>2018-01-28T11:21:42Z</time>
      </trkpt>
      <trkpt lat="45.93511" lon="4.72309">
        <ele>173</ele>
        <time>2018-01-28T11:21:43Z</time>
      </trkpt>
      <trkpt lat="45.93507" lon="4.72314">
        <ele>173</ele>
        <time>2018-01-28T11:21:44Z</time>
      </trkpt>
      <trkpt lat="45.93504" lon="4.72319">
        <ele>173</ele>
        <time>2018-01-28T11:21:45Z</time>
      </trkpt>
      <trkpt lat="45.935" lon="4.72324">
        <ele>173</ele>
        <time>2018-01-28T11:21:46Z</time>
      </trkpt>
      <trkpt lat="45.93496" lon="4.72328">
        <ele>173</ele>
        <time>2018-01-28T11:21:47Z</time>
      </trkpt>
      <trkpt lat="45.93493" lon="4.72333">
        <ele>173</ele>
        <time>2018-01-28T11:21:48Z</time>
      </trkpt>
      <trkpt lat="45.93489" lon="4.72337">
        <ele>173</ele>
        <time>2018-01-28T11:21:49Z</time>
      </trkpt>
      <trkpt lat="45.93483" lon="4.72345">
        <ele>173</ele>
        <time>2018-01-28T11:21:51Z</time>
      </trkpt>
      <trkpt lat="45.9348" lon="4.7235">
        <ele>173</ele>
        <time>2018-01-28T11:21:52Z</time>
      </trkpt>
      <trkpt lat="45.93473" lon="4.72358">
        <ele>173</ele>
        <time>2018-01-28T11:21:54Z</time>
      </trkpt>
      <trkpt lat="45.93469" lon="4.72363">
        <ele>173</ele>
        <time>2018-01-28T11:21:55Z</time>
      </trkpt>
      <trkpt lat="45.93463" lon="4.72371">
        <ele>173</ele>
        <time>2018-01-28T11:21:57Z</time>
      </trkpt>
      <trkpt lat="45.9346" lon="4.72375">
        <ele>173</ele>
        <time>2018-01-28T11:21:58Z</time>
      </trkpt>
      <trkpt lat="45.93456" lon="4.7238">
        <ele>173</ele>
        <time>2018-01-28T11:21:59Z</time>
      </trkpt>
      <trkpt lat="45.93453" lon="4.72383">
        <ele>173</ele>
        <time>2018-01-28T11:22:00Z</time>
      </trkpt>
      <trkpt lat="45.93448" lon="4.72387">
        <ele>173</ele>
        <time>2018-01-28T11:22:01Z</time>
      </trkpt>
      <trkpt lat="45.93444" lon="4.7239">
        <ele>173</ele>
        <time>2018-01-28T11:22:02Z</time>
      </trkpt>
      <trkpt lat="45.93438" lon="4.72392">
        <ele>173</ele>
        <time>2018-01-28T11:22:03Z</time>
      </trkpt>
      <trkpt lat="45.93432" lon="4.72394">
        <ele>173</ele>
        <time>2018-01-28T11:22:04Z</time>
      </trkpt>
      <trkpt lat="45.93428" lon="4.72396">
        <ele>174</ele>
        <time>2018-01-28T11:22:05Z</time>
      </trkpt>
      <trkpt lat="45.93423" lon="4.72398">
        <ele>174</ele>
        <time>2018-01-28T11:22:06Z</time>
      </trkpt>
      <trkpt lat="45.93417" lon="4.72405">
        <ele>174</ele>
        <time>2018-01-28T11:22:08Z</time>
      </trkpt>
      <trkpt lat="45.93413" lon="4.72407">
        <ele>174</ele>
        <time>2018-01-28T11:22:09Z</time>
      </trkpt>
      <trkpt lat="45.93408" lon="4.72407">
        <ele>174</ele>
        <time>2018-01-28T11:22:11Z</time>
      </trkpt>
      <trkpt lat="45.93403" lon="4.72404">
        <ele>174</ele>
        <time>2018-01-28T11:22:12Z</time>
      </trkpt>
      <trkpt lat="45.93398" lon="4.72404">
        <ele>174</ele>
        <time>2018-01-28T11:22:13Z</time>
      </trkpt>
      <trkpt lat="45.93393" lon="4.72404">
        <ele>174</ele>
        <time>2018-01-28T11:22:14Z</time>
      </trkpt>
      <trkpt lat="45.93386" lon="4.72412">
        <ele>174</ele>
        <time>2018-01-28T11:22:16Z</time>
      </trkpt>
      <trkpt lat="45.93385" lon="4.72418">
        <ele>173</ele>
        <time>2018-01-28T11:22:17Z</time>
      </trkpt>
      <trkpt lat="45.93387" lon="4.7243">
        <ele>173</ele>
        <time>2018-01-28T11:22:19Z</time>
      </trkpt>
      <trkpt lat="45.93389" lon="4.72436">
        <ele>173</ele>
        <time>2018-01-28T11:22:20Z</time>
      </trkpt>
      <trkpt lat="45.93391" lon="4.72448">
        <ele>173</ele>
        <time>2018-01-28T11:22:22Z</time>
      </trkpt>
      <trkpt lat="45.93392" lon="4.72454">
        <ele>173</ele>
        <time>2018-01-28T11:22:23Z</time>
      </trkpt>
      <trkpt lat="45.9339" lon="4.72466">
        <ele>173</ele>
        <time>2018-01-28T11:22:25Z</time>
      </trkpt>
      <trkpt lat="45.93388" lon="4.72471">
        <ele>173</ele>
        <time>2018-01-28T11:22:26Z</time>
      </trkpt>
      <trkpt lat="45.93385" lon="4.72475">
        <ele>173</ele>
        <time>2018-01-28T11:22:27Z</time>
      </trkpt>
      <trkpt lat="45.93379" lon="4.72479">
        <ele>173</ele>
        <time>2018-01-28T11:22:28Z</time>
      </trkpt>
      <trkpt lat="45.93375" lon="4.72483">
        <ele>173</ele>
        <time>2018-01-28T11:22:29Z</time>
      </trkpt>
      <trkpt lat="45.93371" lon="4.72487">
        <ele>173</ele>
        <time>2018-01-28T11:22:30Z</time>
      </trkpt>
      <trkpt lat="45.93365" lon="4.72495">
        <ele>173</ele>
        <time>2018-01-28T11:22:32Z</time>
      </trkpt>
      <trkpt lat="45.93362" lon="4.72498">
        <ele>173</ele>
        <time>2018-01-28T11:22:33Z</time>
      </trkpt>
      <trkpt lat="45.93357" lon="4.72505">
        <ele>172</ele>
        <time>2018-01-28T11:22:35Z</time>
      </trkpt>
      <trkpt lat="45.93354" lon="4.72509">
        <ele>172</ele>
        <time>2018-01-28T11:22:36Z</time>
      </trkpt>
      <trkpt lat="45.9335" lon="4.72513">
        <ele>172</ele>
        <time>2018-01-28T11:22:37Z</time>
      </trkpt>
      <trkpt lat="45.93346" lon="4.72517">
        <ele>172</ele>
        <time>2018-01-28T11:22:38Z</time>
      </trkpt>
      <trkpt lat="45.9334" lon="4.72524">
        <ele>172</ele>
        <time>2018-01-28T11:22:40Z</time>
      </trkpt>
      <trkpt lat="45.93337" lon="4.72528">
        <ele>172</ele>
        <time>2018-01-28T11:22:41Z</time>
      </trkpt>
      <trkpt lat="45.93334" lon="4.72532">
        <ele>172</ele>
        <time>2018-01-28T11:22:42Z</time>
      </trkpt>
      <trkpt lat="45.93328" lon="4.72537">
        <ele>172</ele>
        <time>2018-01-28T11:22:43Z</time>
      </trkpt>
      <trkpt lat="45.93324" lon="4.72541">
        <ele>172</ele>
        <time>2018-01-28T11:22:44Z</time>
      </trkpt>
      <trkpt lat="45.9332" lon="4.72545">
        <ele>172</ele>
        <time>2018-01-28T11:22:45Z</time>
      </trkpt>
      <trkpt lat="45.93313" lon="4.72554">
        <ele>172</ele>
        <time>2018-01-28T11:22:47Z</time>
      </trkpt>
      <trkpt lat="45.93311" lon="4.72559">
        <ele>172</ele>
        <time>2018-01-28T11:22:48Z</time>
      </trkpt>
      <trkpt lat="45.93304" lon="4.72567">
        <ele>171</ele>
        <time>2018-01-28T11:22:50Z</time>
      </trkpt>
      <trkpt lat="45.93302" lon="4.72571">
        <ele>171</ele>
        <time>2018-01-28T11:22:51Z</time>
      </trkpt>
      <trkpt lat="45.93296" lon="4.72578">
        <ele>171</ele>
        <time>2018-01-28T11:22:53Z</time>
      </trkpt>
      <trkpt lat="45.93292" lon="4.72581">
        <ele>171</ele>
        <time>2018-01-28T11:22:54Z</time>
      </trkpt>
      <trkpt lat="45.93285" lon="4.72588">
        <ele>170</ele>
        <time>2018-01-28T11:22:56Z</time>
      </trkpt>
      <trkpt lat="45.93281" lon="4.72593">
        <ele>170</ele>
        <time>2018-01-28T11:22:57Z</time>
      </trkpt>
      <trkpt lat="45.93278" lon="4.72596">
        <ele>170</ele>
        <time>2018-01-28T11:22:58Z</time>
      </trkpt>
      <trkpt lat="45.93274" lon="4.72601">
        <ele>170</ele>
        <time>2018-01-28T11:22:59Z</time>
      </trkpt>
      <trkpt lat="45.93269" lon="4.72605">
        <ele>170</ele>
        <time>2018-01-28T11:23:00Z</time>
      </trkpt>
      <trkpt lat="45.93264" lon="4.72611">
        <ele>170</ele>
        <time>2018-01-28T11:23:01Z</time>
      </trkpt>
      <trkpt lat="45.93259" lon="4.72616">
        <ele>170</ele>
        <time>2018-01-28T11:23:02Z</time>
      </trkpt>
      <trkpt lat="45.93254" lon="4.72621">
        <ele>170</ele>
        <time>2018-01-28T11:23:03Z</time>
      </trkpt>
      <trkpt lat="45.9325" lon="4.72625">
        <ele>170</ele>
        <time>2018-01-28T11:23:04Z</time>
      </trkpt>
      <trkpt lat="45.93245" lon="4.7263">
        <ele>170</ele>
        <time>2018-01-28T11:23:05Z</time>
      </trkpt>
      <trkpt lat="45.9324" lon="4.72634">
        <ele>170</ele>
        <time>2018-01-28T11:23:06Z</time>
      </trkpt>
      <trkpt lat="45.93237" lon="4.72639">
        <ele>170</ele>
        <time>2018-01-28T11:23:07Z</time>
      </trkpt>
      <trkpt lat="45.93231" lon="4.72647">
        <ele>170</ele>
        <time>2018-01-28T11:23:09Z</time>
      </trkpt>
      <trkpt lat="45.93228" lon="4.72651">
        <ele>170</ele>
        <time>2018-01-28T11:23:10Z</time>
      </trkpt>
      <trkpt lat="45.93224" lon="4.72655">
        <ele>170</ele>
        <time>2018-01-28T11:23:11Z</time>
      </trkpt>
      <trkpt lat="45.93221" lon="4.72659">
        <ele>170</ele>
        <time>2018-01-28T11:23:12Z</time>
      </trkpt>
      <trkpt lat="45.93215" lon="4.72666">
        <ele>170</ele>
        <time>2018-01-28T11:23:14Z</time>
      </trkpt>
      <trkpt lat="45.93212" lon="4.7267">
        <ele>169</ele>
        <time>2018-01-28T11:23:15Z</time>
      </trkpt>
      <trkpt lat="45.93206" lon="4.72678">
        <ele>169</ele>
        <time>2018-01-28T11:23:17Z</time>
      </trkpt>
      <trkpt lat="45.93203" lon="4.72682">
        <ele>169</ele>
        <time>2018-01-28T11:23:18Z</time>
      </trkpt>
      <trkpt lat="45.93199" lon="4.72686">
        <ele>169</ele>
        <time>2018-01-28T11:23:19Z</time>
      </trkpt>
      <trkpt lat="45.93196" lon="4.72689">
        <ele>169</ele>
        <time>2018-01-28T11:23:20Z</time>
      </trkpt>
      <trkpt lat="45.93189" lon="4.72697">
        <ele>169</ele>
        <time>2018-01-28T11:23:22Z</time>
      </trkpt>
      <trkpt lat="45.93185" lon="4.727">
        <ele>169</ele>
        <time>2018-01-28T11:23:23Z</time>
      </trkpt>
      <trkpt lat="45.93179" lon="4.72707">
        <ele>169</ele>
        <time>2018-01-28T11:23:25Z</time>
      </trkpt>
      <trkpt lat="45.93176" lon="4.72711">
        <ele>169</ele>
        <time>2018-01-28T11:23:26Z</time>
      </trkpt>
      <trkpt lat="45.93169" lon="4.7272">
        <ele>170</ele>
        <time>2018-01-28T11:23:28Z</time>
      </trkpt>
      <trkpt lat="45.93166" lon="4.72724">
        <ele>170</ele>
        <time>2018-01-28T11:23:29Z</time>
      </trkpt>
      <trkpt lat="45.93163" lon="4.72728">
        <ele>170</ele>
        <time>2018-01-28T11:23:30Z</time>
      </trkpt>
      <trkpt lat="45.93159" lon="4.72732">
        <ele>170</ele>
        <time>2018-01-28T11:23:31Z</time>
      </trkpt>
      <trkpt lat="45.93155" lon="4.72737">
        <ele>170</ele>
        <time>2018-01-28T11:23:32Z</time>
      </trkpt>
      <trkpt lat="45.93151" lon="4.72741">
        <ele>170</ele>
        <time>2018-01-28T11:23:33Z</time>
      </trkpt>
      <trkpt lat="45.93147" lon="4.72746">
        <ele>170</ele>
        <time>2018-01-28T11:23:34Z</time>
      </trkpt>
      <trkpt lat="45.93143" lon="4.72751">
        <ele>171</ele>
        <time>2018-01-28T11:23:35Z</time>
      </trkpt>
      <trkpt lat="45.9314" lon="4.72755">
        <ele>171</ele>
        <time>2018-01-28T11:23:36Z</time>
      </trkpt>
      <trkpt lat="45.93136" lon="4.72759">
        <ele>171</ele>
        <time>2018-01-28T11:23:37Z</time>
      </trkpt>
      <trkpt lat="45.93133" lon="4.72766">
        <ele>171</ele>
        <time>2018-01-28T11:23:38Z</time>
      </trkpt>
      <trkpt lat="45.93129" lon="4.72771">
        <ele>171</ele>
        <time>2018-01-28T11:23:39Z</time>
      </trkpt>
      <trkpt lat="45.93125" lon="4.72777">
        <ele>171</ele>
        <time>2018-01-28T11:23:40Z</time>
      </trkpt>
      <trkpt lat="45.93121" lon="4.72782">
        <ele>171</ele>
        <time>2018-01-28T11:23:41Z</time>
      </trkpt>
      <trkpt lat="45.93118" lon="4.72787">
        <ele>171</ele>
        <time>2018-01-28T11:23:42Z</time>
      </trkpt>
      <trkpt lat="45.93113" lon="4.7279">
        <ele>171</ele>
        <time>2018-01-28T11:23:43Z</time>
      </trkpt>
      <trkpt lat="45.93109" lon="4.72795">
        <ele>171</ele>
        <time>2018-01-28T11:23:44Z</time>
      </trkpt>
      <trkpt lat="45.93106" lon="4.72798">
        <ele>171</ele>
        <time>2018-01-28T11:23:45Z</time>
      </trkpt>
      <trkpt lat="45.93099" lon="4.72806">
        <ele>171</ele>
        <time>2018-01-28T11:23:47Z</time>
      </trkpt>
      <trkpt lat="45.93095" lon="4.72809">
        <ele>172</ele>
        <time>2018-01-28T11:23:48Z</time>
      </trkpt>
      <trkpt lat="45.93088" lon="4.72817">
        <ele>172</ele>
        <time>2018-01-28T11:23:50Z</time>
      </trkpt>
      <trkpt lat="45.93085" lon="4.72822">
        <ele>172</ele>
        <time>2018-01-28T11:23:51Z</time>
      </trkpt>
      <trkpt lat="45.93079" lon="4.7283">
        <ele>173</ele>
        <time>2018-01-28T11:23:53Z</time>
      </trkpt>
      <trkpt lat="45.93076" lon="4.72833">
        <ele>173</ele>
        <time>2018-01-28T11:23:54Z</time>
      </trkpt>
      <trkpt lat="45.93074" lon="4.72836">
        <ele>173</ele>
        <time>2018-01-28T11:23:55Z</time>
      </trkpt>
      <trkpt lat="45.9307" lon="4.72842">
        <ele>173</ele>
        <time>2018-01-28T11:23:56Z</time>
      </trkpt>
      <trkpt lat="45.93067" lon="4.72844">
        <ele>172</ele>
        <time>2018-01-28T11:23:57Z</time>
      </trkpt>
      <trkpt lat="45.93058" lon="4.7285">
        <ele>172</ele>
        <time>2018-01-28T11:23:58Z</time>
      </trkpt>
      <trkpt lat="45.93052" lon="4.72851">
        <ele>172</ele>
        <time>2018-01-28T11:23:59Z</time>
      </trkpt>
      <trkpt lat="45.93041" lon="4.72849">
        <ele>172</ele>
        <time>2018-01-28T11:24:00Z</time>
      </trkpt>
      <trkpt lat="45.93041" lon="4.7286">
        <ele>172</ele>
        <time>2018-01-28T11:24:02Z</time>
      </trkpt>
      <trkpt lat="45.93038" lon="4.72864">
        <ele>172</ele>
        <time>2018-01-28T11:24:03Z</time>
      </trkpt>
      <trkpt lat="45.93035" lon="4.72872">
        <ele>172</ele>
        <time>2018-01-28T11:24:05Z</time>
      </trkpt>
      <trkpt lat="45.93032" lon="4.72876">
        <ele>172</ele>
        <time>2018-01-28T11:24:06Z</time>
      </trkpt>
      <trkpt lat="45.93028" lon="4.7288">
        <ele>172</ele>
        <time>2018-01-28T11:24:07Z</time>
      </trkpt>
      <trkpt lat="45.93024" lon="4.72886">
        <ele>172</ele>
        <time>2018-01-28T11:24:08Z</time>
      </trkpt>
      <trkpt lat="45.9302" lon="4.7289">
        <ele>172</ele>
        <time>2018-01-28T11:24:09Z</time>
      </trkpt>
      <trkpt lat="45.93016" lon="4.72894">
        <ele>172</ele>
        <time>2018-01-28T11:24:10Z</time>
      </trkpt>
      <trkpt lat="45.93012" lon="4.72899">
        <ele>172</ele>
        <time>2018-01-28T11:24:11Z</time>
      </trkpt>
      <trkpt lat="45.93007" lon="4.72905">
        <ele>171</ele>
        <time>2018-01-28T11:24:12Z</time>
      </trkpt>
      <trkpt lat="45.93004" lon="4.7291">
        <ele>171</ele>
        <time>2018-01-28T11:24:13Z</time>
      </trkpt>
      <trkpt lat="45.93002" lon="4.72915">
        <ele>171</ele>
        <time>2018-01-28T11:24:14Z</time>
      </trkpt>
      <trkpt lat="45.92998" lon="4.72919">
        <ele>171</ele>
        <time>2018-01-28T11:24:15Z</time>
      </trkpt>
      <trkpt lat="45.92994" lon="4.72924">
        <ele>171</ele>
        <time>2018-01-28T11:24:16Z</time>
      </trkpt>
      <trkpt lat="45.9299" lon="4.72927">
        <ele>171</ele>
        <time>2018-01-28T11:24:17Z</time>
      </trkpt>
      <trkpt lat="45.92987" lon="4.72931">
        <ele>171</ele>
        <time>2018-01-28T11:24:18Z</time>
      </trkpt>
      <trkpt lat="45.92983" lon="4.72937">
        <ele>171</ele>
        <time>2018-01-28T11:24:19Z</time>
      </trkpt>
      <trkpt lat="45.92979" lon="4.72941">
        <ele>171</ele>
        <time>2018-01-28T11:24:20Z</time>
      </trkpt>
      <trkpt lat="45.92976" lon="4.72946">
        <ele>171</ele>
        <time>2018-01-28T11:24:21Z</time>
      </trkpt>
      <trkpt lat="45.92972" lon="4.72951">
        <ele>171</ele>
        <time>2018-01-28T11:24:22Z</time>
      </trkpt>
      <trkpt lat="45.92965" lon="4.72958">
        <ele>171</ele>
        <time>2018-01-28T11:24:24Z</time>
      </trkpt>
      <trkpt lat="45.92962" lon="4.72962">
        <ele>171</ele>
        <time>2018-01-28T11:24:25Z</time>
      </trkpt>
      <trkpt lat="45.92956" lon="4.72969">
        <ele>171</ele>
        <time>2018-01-28T11:24:27Z</time>
      </trkpt>
      <trkpt lat="45.92953" lon="4.72972">
        <ele>171</ele>
        <time>2018-01-28T11:24:28Z</time>
      </trkpt>
      <trkpt lat="45.92946" lon="4.7298">
        <ele>171</ele>
        <time>2018-01-28T11:24:30Z</time>
      </trkpt>
      <trkpt lat="45.92943" lon="4.72984">
        <ele>171</ele>
        <time>2018-01-28T11:24:31Z</time>
      </trkpt>
      <trkpt lat="45.92936" lon="4.72992">
        <ele>171</ele>
        <time>2018-01-28T11:24:33Z</time>
      </trkpt>
      <trkpt lat="45.92933" lon="4.72996">
        <ele>172</ele>
        <time>2018-01-28T11:24:34Z</time>
      </trkpt>
      <trkpt lat="45.92929" lon="4.73">
        <ele>172</ele>
        <time>2018-01-28T11:24:35Z</time>
      </trkpt>
      <trkpt lat="45.92925" lon="4.73005">
        <ele>172</ele>
        <time>2018-01-28T11:24:36Z</time>
      </trkpt>
      <trkpt lat="45.92921" lon="4.73009">
        <ele>172</ele>
        <time>2018-01-28T11:24:37Z</time>
      </trkpt>
      <trkpt lat="45.92917" lon="4.73014">
        <ele>172</ele>
        <time>2018-01-28T11:24:38Z</time>
      </trkpt>
      <trkpt lat="45.92913" lon="4.73019">
        <ele>172</ele>
        <time>2018-01-28T11:24:39Z</time>
      </trkpt>
      <trkpt lat="45.9291" lon="4.73024">
        <ele>172</ele>
        <time>2018-01-28T11:24:40Z</time>
      </trkpt>
      <trkpt lat="45.92906" lon="4.73029">
        <ele>172</ele>
        <time>2018-01-28T11:24:41Z</time>
      </trkpt>
      <trkpt lat="45.92903" lon="4.73033">
        <ele>172</ele>
        <time>2018-01-28T11:24:42Z</time>
      </trkpt>
      <trkpt lat="45.92897" lon="4.73041">
        <ele>172</ele>
        <time>2018-01-28T11:24:44Z</time>
      </trkpt>
      <trkpt lat="45.92894" lon="4.73046">
        <ele>172</ele>
        <time>2018-01-28T11:24:45Z</time>
      </trkpt>
      <trkpt lat="45.9289" lon="4.73051">
        <ele>172</ele>
        <time>2018-01-28T11:24:46Z</time>
      </trkpt>
      <trkpt lat="45.92887" lon="4.73056">
        <ele>172</ele>
        <time>2018-01-28T11:24:47Z</time>
      </trkpt>
      <trkpt lat="45.92884" lon="4.73061">
        <ele>172</ele>
        <time>2018-01-28T11:24:48Z</time>
      </trkpt>
      <trkpt lat="45.92881" lon="4.73066">
        <ele>172</ele>
        <time>2018-01-28T11:24:49Z</time>
      </trkpt>
      <trkpt lat="45.92875" lon="4.73075">
        <ele>172</ele>
        <time>2018-01-28T11:24:51Z</time>
      </trkpt>
      <trkpt lat="45.92873" lon="4.73079">
        <ele>172</ele>
        <time>2018-01-28T11:24:52Z</time>
      </trkpt>
      <trkpt lat="45.92868" lon="4.73088">
        <ele>172</ele>
        <time>2018-01-28T11:24:54Z</time>
      </trkpt>
      <trkpt lat="45.92865" lon="4.73092">
        <ele>172</ele>
        <time>2018-01-28T11:24:55Z</time>
      </trkpt>
      <trkpt lat="45.92858" lon="4.73097">
        <ele>171</ele>
        <time>2018-01-28T11:24:57Z</time>
      </trkpt>
      <trkpt lat="45.92854" lon="4.73099">
        <ele>171</ele>
        <time>2018-01-28T11:24:58Z</time>
      </trkpt>
      <trkpt lat="45.92848" lon="4.73092">
        <ele>171</ele>
        <time>2018-01-28T11:25:00Z</time>
      </trkpt>
      <trkpt lat="45.92847" lon="4.73086">
        <ele>171</ele>
        <time>2018-01-28T11:25:01Z</time>
      </trkpt>
      <trkpt lat="45.92845" lon="4.73075">
        <ele>171</ele>
        <time>2018-01-28T11:25:03Z</time>
      </trkpt>
      <trkpt lat="45.92845" lon="4.73069">
        <ele>171</ele>
        <time>2018-01-28T11:25:04Z</time>
      </trkpt>
      <trkpt lat="45.92844" lon="4.73056">
        <ele>171</ele>
        <time>2018-01-28T11:25:06Z</time>
      </trkpt>
      <trkpt lat="45.92841" lon="4.7305">
        <ele>171</ele>
        <time>2018-01-28T11:25:07Z</time>
      </trkpt>
      <trkpt lat="45.92838" lon="4.73043">
        <ele>171</ele>
        <time>2018-01-28T11:25:08Z</time>
      </trkpt>
      <trkpt lat="45.92837" lon="4.73037">
        <ele>171</ele>
        <time>2018-01-28T11:25:09Z</time>
      </trkpt>
      <trkpt lat="45.92835" lon="4.73025">
        <ele>171</ele>
        <time>2018-01-28T11:25:11Z</time>
      </trkpt>
      <trkpt lat="45.92835" lon="4.73019">
        <ele>171</ele>
        <time>2018-01-28T11:25:12Z</time>
      </trkpt>
      <trkpt lat="45.92833" lon="4.73007">
        <ele>170</ele>
        <time>2018-01-28T11:25:14Z</time>
      </trkpt>
      <trkpt lat="45.92832" lon="4.73002">
        <ele>170</ele>
        <time>2018-01-28T11:25:15Z</time>
      </trkpt>
      <trkpt lat="45.92831" lon="4.72996">
        <ele>170</ele>
        <time>2018-01-28T11:25:16Z</time>
      </trkpt>
      <trkpt lat="45.92829" lon="4.72989">
        <ele>170</ele>
        <time>2018-01-28T11:25:17Z</time>
      </trkpt>
      <trkpt lat="45.92828" lon="4.72977">
        <ele>170</ele>
        <time>2018-01-28T11:25:19Z</time>
      </trkpt>
      <trkpt lat="45.92828" lon="4.7297">
        <ele>170</ele>
        <time>2018-01-28T11:25:20Z</time>
      </trkpt>
      <trkpt lat="45.92827" lon="4.72963">
        <ele>170</ele>
        <time>2018-01-28T11:25:21Z</time>
      </trkpt>
      <trkpt lat="45.92827" lon="4.72956">
        <ele>170</ele>
        <time>2018-01-28T11:25:22Z</time>
      </trkpt>
      <trkpt lat="45.92826" lon="4.72949">
        <ele>170</ele>
        <time>2018-01-28T11:25:23Z</time>
      </trkpt>
      <trkpt lat="45.92826" lon="4.72941">
        <ele>170</ele>
        <time>2018-01-28T11:25:24Z</time>
      </trkpt>
      <trkpt lat="45.92825" lon="4.72933">
        <ele>170</ele>
        <time>2018-01-28T11:25:25Z</time>
      </trkpt>
      <trkpt lat="45.92826" lon="4.72925">
        <ele>170</ele>
        <time>2018-01-28T11:25:26Z</time>
      </trkpt>
      <trkpt lat="45.92825" lon="4.72917">
        <ele>170</ele>
        <time>2018-01-28T11:25:27Z</time>
      </trkpt>
      <trkpt lat="45.92824" lon="4.7291">
        <ele>170</ele>
        <time>2018-01-28T11:25:28Z</time>
      </trkpt>
      <trkpt lat="45.92823" lon="4.72903">
        <ele>170</ele>
        <time>2018-01-28T11:25:29Z</time>
      </trkpt>
      <trkpt lat="45.92822" lon="4.72896">
        <ele>170</ele>
        <time>2018-01-28T11:25:30Z</time>
      </trkpt>
      <trkpt lat="45.9282" lon="4.72885">
        <ele>170</ele>
        <time>2018-01-28T11:25:32Z</time>
      </trkpt>
      <trkpt lat="45.92818" lon="4.72879">
        <ele>170</ele>
        <time>2018-01-28T11:25:33Z</time>
      </trkpt>
      <trkpt lat="45.92815" lon="4.72867">
        <ele>170</ele>
        <time>2018-01-28T11:25:35Z</time>
      </trkpt>
      <trkpt lat="45.92814" lon="4.72862">
        <ele>170</ele>
        <time>2018-01-28T11:25:36Z</time>
      </trkpt>
      <trkpt lat="45.92813" lon="4.7285">
        <ele>170</ele>
        <time>2018-01-28T11:25:38Z</time>
      </trkpt>
      <trkpt lat="45.92812" lon="4.72843">
        <ele>170</ele>
        <time>2018-01-28T11:25:39Z</time>
      </trkpt>
      <trkpt lat="45.9281" lon="4.72831">
        <ele>171</ele>
        <time>2018-01-28T11:25:41Z</time>
      </trkpt>
      <trkpt lat="45.92809" lon="4.72825">
        <ele>171</ele>
        <time>2018-01-28T11:25:42Z</time>
      </trkpt>
      <trkpt lat="45.92807" lon="4.72814">
        <ele>171</ele>
        <time>2018-01-28T11:25:44Z</time>
      </trkpt>
      <trkpt lat="45.92806" lon="4.72808">
        <ele>171</ele>
        <time>2018-01-28T11:25:45Z</time>
      </trkpt>
      <trkpt lat="45.92804" lon="4.72798">
        <ele>171</ele>
        <time>2018-01-28T11:25:47Z</time>
      </trkpt>
      <trkpt lat="45.92803" lon="4.72793">
        <ele>171</ele>
        <time>2018-01-28T11:25:48Z</time>
      </trkpt>
      <trkpt lat="45.92797" lon="4.72788">
        <ele>171</ele>
        <time>2018-01-28T11:25:50Z</time>
      </trkpt>
      <trkpt lat="45.92794" lon="4.72789">
        <ele>171</ele>
        <time>2018-01-28T11:25:51Z</time>
      </trkpt>
      <trkpt lat="45.92786" lon="4.72792">
        <ele>170</ele>
        <time>2018-01-28T11:25:53Z</time>
      </trkpt>
      <trkpt lat="45.92782" lon="4.72795">
        <ele>170</ele>
        <time>2018-01-28T11:25:54Z</time>
      </trkpt>
      <trkpt lat="45.92779" lon="4.728">
        <ele>170</ele>
        <time>2018-01-28T11:25:55Z</time>
      </trkpt>
      <trkpt lat="45.92775" lon="4.72805">
        <ele>170</ele>
        <time>2018-01-28T11:25:56Z</time>
      </trkpt>
      <trkpt lat="45.92771" lon="4.72808">
        <ele>170</ele>
        <time>2018-01-28T11:25:57Z</time>
      </trkpt>
      <trkpt lat="45.92767" lon="4.72811">
        <ele>170</ele>
        <time>2018-01-28T11:25:58Z</time>
      </trkpt>
      <trkpt lat="45.92762" lon="4.72815">
        <ele>170</ele>
        <time>2018-01-28T11:25:59Z</time>
      </trkpt>
      <trkpt lat="45.92758" lon="4.72816">
        <ele>170</ele>
        <time>2018-01-28T11:26:00Z</time>
      </trkpt>
      <trkpt lat="45.9275" lon="4.72821">
        <ele>170</ele>
        <time>2018-01-28T11:26:02Z</time>
      </trkpt>
      <trkpt lat="45.92747" lon="4.72825">
        <ele>169</ele>
        <time>2018-01-28T11:26:03Z</time>
      </trkpt>
      <trkpt lat="45.92743" lon="4.72827">
        <ele>169</ele>
        <time>2018-01-28T11:26:04Z</time>
      </trkpt>
      <trkpt lat="45.92738" lon="4.72829">
        <ele>169</ele>
        <time>2018-01-28T11:26:05Z</time>
      </trkpt>
      <trkpt lat="45.92734" lon="4.72833">
        <ele>169</ele>
        <time>2018-01-28T11:26:06Z</time>
      </trkpt>
      <trkpt lat="45.9273" lon="4.72836">
        <ele>169</ele>
        <time>2018-01-28T11:26:07Z</time>
      </trkpt>
      <trkpt lat="45.92726" lon="4.72839">
        <ele>169</ele>
        <time>2018-01-28T11:26:08Z</time>
      </trkpt>
      <trkpt lat="45.92722" lon="4.72843">
        <ele>169</ele>
        <time>2018-01-28T11:26:09Z</time>
      </trkpt>
      <trkpt lat="45.92717" lon="4.72847">
        <ele>169</ele>
        <time>2018-01-28T11:26:10Z</time>
      </trkpt>
      <trkpt lat="45.92713" lon="4.7285">
        <ele>169</ele>
        <time>2018-01-28T11:26:11Z</time>
      </trkpt>
      <trkpt lat="45.92708" lon="4.72853">
        <ele>169</ele>
        <time>2018-01-28T11:26:12Z</time>
      </trkpt>
      <trkpt lat="45.92703" lon="4.72856">
        <ele>169</ele>
        <time>2018-01-28T11:26:13Z</time>
      </trkpt>
      <trkpt lat="45.92696" lon="4.72862">
        <ele>169</ele>
        <time>2018-01-28T11:26:15Z</time>
      </trkpt>
      <trkpt lat="45.92692" lon="4.72865">
        <ele>169</ele>
        <time>2018-01-28T11:26:16Z</time>
      </trkpt>
      <trkpt lat="45.92685" lon="4.72871">
        <ele>169</ele>
        <time>2018-01-28T11:26:18Z</time>
      </trkpt>
      <trkpt lat="45.92681" lon="4.72874">
        <ele>169</ele>
        <time>2018-01-28T11:26:19Z</time>
      </trkpt>
      <trkpt lat="45.92677" lon="4.72878">
        <ele>170</ele>
        <time>2018-01-28T11:26:20Z</time>
      </trkpt>
      <trkpt lat="45.92672" lon="4.72882">
        <ele>170</ele>
        <time>2018-01-28T11:26:21Z</time>
      </trkpt>
      <trkpt lat="45.92665" lon="4.72888">
        <ele>169</ele>
        <time>2018-01-28T11:26:23Z</time>
      </trkpt>
      <trkpt lat="45.92661" lon="4.7289">
        <ele>169</ele>
        <time>2018-01-28T11:26:24Z</time>
      </trkpt>
      <trkpt lat="45.92656" lon="4.72894">
        <ele>169</ele>
        <time>2018-01-28T11:26:25Z</time>
      </trkpt>
      <trkpt lat="45.92652" lon="4.72897">
        <ele>170</ele>
        <time>2018-01-28T11:26:26Z</time>
      </trkpt>
      <trkpt lat="45.92648" lon="4.72901">
        <ele>170</ele>
        <time>2018-01-28T11:26:27Z</time>
      </trkpt>
      <trkpt lat="45.92644" lon="4.72905">
        <ele>169</ele>
        <time>2018-01-28T11:26:28Z</time>
      </trkpt>
      <trkpt lat="45.92637" lon="4.72911">
        <ele>169</ele>
        <time>2018-01-28T11:26:30Z</time>
      </trkpt>
      <trkpt lat="45.92633" lon="4.72913">
        <ele>169</ele>
        <time>2018-01-28T11:26:31Z</time>
      </trkpt>
      <trkpt lat="45.92625" lon="4.72918">
        <ele>170</ele>
        <time>2018-01-28T11:26:33Z</time>
      </trkpt>
      <trkpt lat="45.92621" lon="4.72921">
        <ele>169</ele>
        <time>2018-01-28T11:26:34Z</time>
      </trkpt>
      <trkpt lat="45.92617" lon="4.72925">
        <ele>169</ele>
        <time>2018-01-28T11:26:35Z</time>
      </trkpt>
      <trkpt lat="45.92614" lon="4.7293">
        <ele>169</ele>
        <time>2018-01-28T11:26:36Z</time>
      </trkpt>
      <trkpt lat="45.9261" lon="4.72935">
        <ele>169</ele>
        <time>2018-01-28T11:26:37Z</time>
      </trkpt>
      <trkpt lat="45.92605" lon="4.72939">
        <ele>169</ele>
        <time>2018-01-28T11:26:38Z</time>
      </trkpt>
      <trkpt lat="45.926" lon="4.72944">
        <ele>169</ele>
        <time>2018-01-28T11:26:39Z</time>
      </trkpt>
      <trkpt lat="45.92596" lon="4.72948">
        <ele>169</ele>
        <time>2018-01-28T11:26:40Z</time>
      </trkpt>
      <trkpt lat="45.9259" lon="4.72957">
        <ele>169</ele>
        <time>2018-01-28T11:26:42Z</time>
      </trkpt>
      <trkpt lat="45.92588" lon="4.72961">
        <ele>169</ele>
        <time>2018-01-28T11:26:43Z</time>
      </trkpt>
      <trkpt lat="45.92584" lon="4.72965">
        <ele>169</ele>
        <time>2018-01-28T11:26:44Z</time>
      </trkpt>
      <trkpt lat="45.92581" lon="4.7297">
        <ele>169</ele>
        <time>2018-01-28T11:26:45Z</time>
      </trkpt>
      <trkpt lat="45.92574" lon="4.72976">
        <ele>169</ele>
        <time>2018-01-28T11:26:47Z</time>
      </trkpt>
      <trkpt lat="45.92571" lon="4.72979">
        <ele>169</ele>
        <time>2018-01-28T11:26:48Z</time>
      </trkpt>
      <trkpt lat="45.92566" lon="4.72982">
        <ele>169</ele>
        <time>2018-01-28T11:26:49Z</time>
      </trkpt>
      <trkpt lat="45.92562" lon="4.72985">
        <ele>169</ele>
        <time>2018-01-28T11:26:50Z</time>
      </trkpt>
      <trkpt lat="45.92555" lon="4.72991">
        <ele>169</ele>
        <time>2018-01-28T11:26:52Z</time>
      </trkpt>
      <trkpt lat="45.92552" lon="4.72994">
        <ele>169</ele>
        <time>2018-01-28T11:26:53Z</time>
      </trkpt>
      <trkpt lat="45.92545" lon="4.73001">
        <ele>169</ele>
        <time>2018-01-28T11:26:55Z</time>
      </trkpt>
      <trkpt lat="45.92542" lon="4.73004">
        <ele>169</ele>
        <time>2018-01-28T11:26:56Z</time>
      </trkpt>
      <trkpt lat="45.92538" lon="4.73008">
        <ele>169</ele>
        <time>2018-01-28T11:26:57Z</time>
      </trkpt>
      <trkpt lat="45.92534" lon="4.73011">
        <ele>169</ele>
        <time>2018-01-28T11:26:58Z</time>
      </trkpt>
      <trkpt lat="45.9253" lon="4.73015">
        <ele>169</ele>
        <time>2018-01-28T11:26:59Z</time>
      </trkpt>
      <trkpt lat="45.92526" lon="4.73018">
        <ele>169</ele>
        <time>2018-01-28T11:27:00Z</time>
      </trkpt>
      <trkpt lat="45.92522" lon="4.73022">
        <ele>169</ele>
        <time>2018-01-28T11:27:01Z</time>
      </trkpt>
      <trkpt lat="45.92518" lon="4.73025">
        <ele>169</ele>
        <time>2018-01-28T11:27:02Z</time>
      </trkpt>
      <trkpt lat="45.9251" lon="4.73031">
        <ele>169</ele>
        <time>2018-01-28T11:27:04Z</time>
      </trkpt>
      <trkpt lat="45.92506" lon="4.73034">
        <ele>169</ele>
        <time>2018-01-28T11:27:05Z</time>
      </trkpt>
      <trkpt lat="45.92502" lon="4.73038">
        <ele>169</ele>
        <time>2018-01-28T11:27:06Z</time>
      </trkpt>
      <trkpt lat="45.92499" lon="4.73042">
        <ele>170</ele>
        <time>2018-01-28T11:27:07Z</time>
      </trkpt>
      <trkpt lat="45.92494" lon="4.73046">
        <ele>170</ele>
        <time>2018-01-28T11:27:08Z</time>
      </trkpt>
      <trkpt lat="45.9249" lon="4.7305">
        <ele>170</ele>
        <time>2018-01-28T11:27:09Z</time>
      </trkpt>
      <trkpt lat="45.92485" lon="4.73055">
        <ele>170</ele>
        <time>2018-01-28T11:27:10Z</time>
      </trkpt>
      <trkpt lat="45.9248" lon="4.73058">
        <ele>170</ele>
        <time>2018-01-28T11:27:11Z</time>
      </trkpt>
      <trkpt lat="45.92475" lon="4.73061">
        <ele>170</ele>
        <time>2018-01-28T11:27:12Z</time>
      </trkpt>
      <trkpt lat="45.92471" lon="4.73064">
        <ele>170</ele>
        <time>2018-01-28T11:27:13Z</time>
      </trkpt>
      <trkpt lat="45.92466" lon="4.73068">
        <ele>170</ele>
        <time>2018-01-28T11:27:14Z</time>
      </trkpt>
      <trkpt lat="45.92463" lon="4.73071">
        <ele>170</ele>
        <time>2018-01-28T11:27:15Z</time>
      </trkpt>
      <trkpt lat="45.92455" lon="4.73078">
        <ele>170</ele>
        <time>2018-01-28T11:27:17Z</time>
      </trkpt>
      <trkpt lat="45.92451" lon="4.73082">
        <ele>170</ele>
        <time>2018-01-28T11:27:18Z</time>
      </trkpt>
      <trkpt lat="45.92447" lon="4.73085">
        <ele>170</ele>
        <time>2018-01-28T11:27:19Z</time>
      </trkpt>
      <trkpt lat="45.92442" lon="4.73088">
        <ele>170</ele>
        <time>2018-01-28T11:27:20Z</time>
      </trkpt>
      <trkpt lat="45.92437" lon="4.73091">
        <ele>171</ele>
        <time>2018-01-28T11:27:21Z</time>
      </trkpt>
      <trkpt lat="45.92433" lon="4.73094">
        <ele>171</ele>
        <time>2018-01-28T11:27:22Z</time>
      </trkpt>
      <trkpt lat="45.92426" lon="4.731">
        <ele>171</ele>
        <time>2018-01-28T11:27:24Z</time>
      </trkpt>
      <trkpt lat="45.92424" lon="4.73104">
        <ele>171</ele>
        <time>2018-01-28T11:27:25Z</time>
      </trkpt>
      <trkpt lat="45.92416" lon="4.7311">
        <ele>171</ele>
        <time>2018-01-28T11:27:27Z</time>
      </trkpt>
      <trkpt lat="45.92413" lon="4.73113">
        <ele>171</ele>
        <time>2018-01-28T11:27:28Z</time>
      </trkpt>
      <trkpt lat="45.92407" lon="4.73123">
        <ele>171</ele>
        <time>2018-01-28T11:27:30Z</time>
      </trkpt>
      <trkpt lat="45.92406" lon="4.73129">
        <ele>171</ele>
        <time>2018-01-28T11:27:31Z</time>
      </trkpt>
      <trkpt lat="45.92406" lon="4.73141">
        <ele>171</ele>
        <time>2018-01-28T11:27:33Z</time>
      </trkpt>
      <trkpt lat="45.92408" lon="4.73147">
        <ele>171</ele>
        <time>2018-01-28T11:27:34Z</time>
      </trkpt>
      <trkpt lat="45.92409" lon="4.73154">
        <ele>170</ele>
        <time>2018-01-28T11:27:35Z</time>
      </trkpt>
      <trkpt lat="45.9241" lon="4.73161">
        <ele>170</ele>
        <time>2018-01-28T11:27:36Z</time>
      </trkpt>
      <trkpt lat="45.92411" lon="4.73168">
        <ele>170</ele>
        <time>2018-01-28T11:27:37Z</time>
      </trkpt>
      <trkpt lat="45.92411" lon="4.73174">
        <ele>170</ele>
        <time>2018-01-28T11:27:38Z</time>
      </trkpt>
      <trkpt lat="45.92411" lon="4.73187">
        <ele>171</ele>
        <time>2018-01-28T11:27:40Z</time>
      </trkpt>
      <trkpt lat="45.92411" lon="4.73192">
        <ele>171</ele>
        <time>2018-01-28T11:27:41Z</time>
      </trkpt>
      <trkpt lat="45.92412" lon="4.73204">
        <ele>171</ele>
        <time>2018-01-28T11:27:43Z</time>
      </trkpt>
      <trkpt lat="45.92412" lon="4.7321">
        <ele>171</ele>
        <time>2018-01-28T11:27:44Z</time>
      </trkpt>
      <trkpt lat="45.92413" lon="4.73222">
        <ele>171</ele>
        <time>2018-01-28T11:27:46Z</time>
      </trkpt>
      <trkpt lat="45.92413" lon="4.73229">
        <ele>171</ele>
        <time>2018-01-28T11:27:47Z</time>
      </trkpt>
      <trkpt lat="45.92414" lon="4.73235">
        <ele>171</ele>
        <time>2018-01-28T11:27:48Z</time>
      </trkpt>
      <trkpt lat="45.92414" lon="4.73242">
        <ele>171</ele>
        <time>2018-01-28T11:27:49Z</time>
      </trkpt>
      <trkpt lat="45.92414" lon="4.73249">
        <ele>171</ele>
        <time>2018-01-28T11:27:50Z</time>
      </trkpt>
      <trkpt lat="45.92414" lon="4.73256">
        <ele>171</ele>
        <time>2018-01-28T11:27:51Z</time>
      </trkpt>
      <trkpt lat="45.92415" lon="4.73264">
        <ele>171</ele>
        <time>2018-01-28T11:27:52Z</time>
      </trkpt>
      <trkpt lat="45.92415" lon="4.73271">
        <ele>171</ele>
        <time>2018-01-28T11:27:53Z</time>
      </trkpt>
      <trkpt lat="45.92416" lon="4.73278">
        <ele>171</ele>
        <time>2018-01-28T11:27:54Z</time>
      </trkpt>
      <trkpt lat="45.92416" lon="4.73285">
        <ele>171</ele>
        <time>2018-01-28T11:27:55Z</time>
      </trkpt>
      <trkpt lat="45.92417" lon="4.73297">
        <ele>171</ele>
        <time>2018-01-28T11:27:57Z</time>
      </trkpt>
      <trkpt lat="45.92418" lon="4.73303">
        <ele>171</ele>
        <time>2018-01-28T11:27:58Z</time>
      </trkpt>
      <trkpt lat="45.92418" lon="4.7331">
        <ele>171</ele>
        <time>2018-01-28T11:27:59Z</time>
      </trkpt>
      <trkpt lat="45.92418" lon="4.73316">
        <ele>171</ele>
        <time>2018-01-28T11:28:00Z</time>
      </trkpt>
      <trkpt lat="45.92418" lon="4.73329">
        <ele>171</ele>
        <time>2018-01-28T11:28:02Z</time>
      </trkpt>
      <trkpt lat="45.92418" lon="4.73334">
        <ele>171</ele>
        <time>2018-01-28T11:28:03Z</time>
      </trkpt>
      <trkpt lat="45.92418" lon="4.73346">
        <ele>171</ele>
        <time>2018-01-28T11:28:05Z</time>
      </trkpt>
      <trkpt lat="45.92419" lon="4.73352">
        <ele>171</ele>
        <time>2018-01-28T11:28:06Z</time>
      </trkpt>
      <trkpt lat="45.92422" lon="4.73364">
        <ele>172</ele>
        <time>2018-01-28T11:28:08Z</time>
      </trkpt>
      <trkpt lat="45.92423" lon="4.73369">
        <ele>172</ele>
        <time>2018-01-28T11:28:09Z</time>
      </trkpt>
      <trkpt lat="45.92425" lon="4.73381">
        <ele>172</ele>
        <time>2018-01-28T11:28:11Z</time>
      </trkpt>
      <trkpt lat="45.92426" lon="4.73387">
        <ele>172</ele>
        <time>2018-01-28T11:28:12Z</time>
      </trkpt>
      <trkpt lat="45.92428" lon="4.73394">
        <ele>172</ele>
        <time>2018-01-28T11:28:13Z</time>
      </trkpt>
      <trkpt lat="45.9243" lon="4.73399">
        <ele>172</ele>
        <time>2018-01-28T11:28:14Z</time>
      </trkpt>
      <trkpt lat="45.92433" lon="4.73408">
        <ele>172</ele>
        <time>2018-01-28T11:28:16Z</time>
      </trkpt>
      <trkpt lat="45.92437" lon="4.73411">
        <ele>172</ele>
        <time>2018-01-28T11:28:17Z</time>
      </trkpt>
      <trkpt lat="45.92444" lon="4.73417">
        <ele>173</ele>
        <time>2018-01-28T11:28:19Z</time>
      </trkpt>
      <trkpt lat="45.92447" lon="4.7342">
        <ele>173</ele>
        <time>2018-01-28T11:28:20Z</time>
      </trkpt>
      <trkpt lat="45.92455" lon="4.73424">
        <ele>173</ele>
        <time>2018-01-28T11:28:22Z</time>
      </trkpt>
      <trkpt lat="45.92458" lon="4.73427">
        <ele>173</ele>
        <time>2018-01-28T11:28:23Z</time>
      </trkpt>
      <trkpt lat="45.92463" lon="4.73437">
        <ele>173</ele>
        <time>2018-01-28T11:28:25Z</time>
      </trkpt>
      <trkpt lat="45.92465" lon="4.73443">
        <ele>173</ele>
        <time>2018-01-28T11:28:26Z</time>
      </trkpt>
      <trkpt lat="45.92466" lon="4.7345">
        <ele>173</ele>
        <time>2018-01-28T11:28:27Z</time>
      </trkpt>
      <trkpt lat="45.92468" lon="4.73458">
        <ele>173</ele>
        <time>2018-01-28T11:28:28Z</time>
      </trkpt>
      <trkpt lat="45.92468" lon="4.73465">
        <ele>173</ele>
        <time>2018-01-28T11:28:29Z</time>
      </trkpt>
      <trkpt lat="45.92468" lon="4.73473">
        <ele>173</ele>
        <time>2018-01-28T11:28:30Z</time>
      </trkpt>
      <trkpt lat="45.92469" lon="4.7348">
        <ele>173</ele>
        <time>2018-01-28T11:28:31Z</time>
      </trkpt>
      <trkpt lat="45.92469" lon="4.73486">
        <ele>173</ele>
        <time>2018-01-28T11:28:32Z</time>
      </trkpt>
      <trkpt lat="45.92469" lon="4.73499">
        <ele>173</ele>
        <time>2018-01-28T11:28:34Z</time>
      </trkpt>
      <trkpt lat="45.92469" lon="4.73505">
        <ele>174</ele>
        <time>2018-01-28T11:28:35Z</time>
      </trkpt>
      <trkpt lat="45.92467" lon="4.73517">
        <ele>174</ele>
        <time>2018-01-28T11:28:37Z</time>
      </trkpt>
      <trkpt lat="45.92467" lon="4.73522">
        <ele>174</ele>
        <time>2018-01-28T11:28:38Z</time>
      </trkpt>
      <trkpt lat="45.92467" lon="4.73532">
        <ele>174</ele>
        <time>2018-01-28T11:28:40Z</time>
      </trkpt>
      <trkpt lat="45.92467" lon="4.73538">
        <ele>174</ele>
        <time>2018-01-28T11:28:41Z</time>
      </trkpt>
      <trkpt lat="45.92467" lon="4.73547">
        <ele>173</ele>
        <time>2018-01-28T11:28:43Z</time>
      </trkpt>
      <trkpt lat="45.92467" lon="4.73551">
        <ele>173</ele>
        <time>2018-01-28T11:28:44Z</time>
      </trkpt>
      <trkpt lat="45.92467" lon="4.73561">
        <ele>173</ele>
        <time>2018-01-28T11:28:46Z</time>
      </trkpt>
      <trkpt lat="45.92466" lon="4.73566">
        <ele>173</ele>
        <time>2018-01-28T11:28:47Z</time>
      </trkpt>
      <trkpt lat="45.92467" lon="4.73576">
        <ele>173</ele>
        <time>2018-01-28T11:28:49Z</time>
      </trkpt>
      <trkpt lat="45.92467" lon="4.73582">
        <ele>173</ele>
        <time>2018-01-28T11:28:50Z</time>
      </trkpt>
      <trkpt lat="45.92467" lon="4.73593">
        <ele>174</ele>
        <time>2018-01-28T11:28:52Z</time>
      </trkpt>
      <trkpt lat="45.92467" lon="4.73599">
        <ele>174</ele>
        <time>2018-01-28T11:28:53Z</time>
      </trkpt>
      <trkpt lat="45.92467" lon="4.7361">
        <ele>174</ele>
        <time>2018-01-28T11:28:55Z</time>
      </trkpt>
      <trkpt lat="45.92468" lon="4.73616">
        <ele>174</ele>
        <time>2018-01-28T11:28:56Z</time>
      </trkpt>
      <trkpt lat="45.92468" lon="4.73626">
        <ele>174</ele>
        <time>2018-01-28T11:28:58Z</time>
      </trkpt>
      <trkpt lat="45.92468" lon="4.73632">
        <ele>174</ele>
        <time>2018-01-28T11:28:59Z</time>
      </trkpt>
      <trkpt lat="45.92468" lon="4.73643">
        <ele>174</ele>
        <time>2018-01-28T11:29:01Z</time>
      </trkpt>
      <trkpt lat="45.92468" lon="4.73649">
        <ele>174</ele>
        <time>2018-01-28T11:29:02Z</time>
      </trkpt>
      <trkpt lat="45.92468" lon="4.73661">
        <ele>174</ele>
        <time>2018-01-28T11:29:04Z</time>
      </trkpt>
      <trkpt lat="45.92467" lon="4.73667">
        <ele>174</ele>
        <time>2018-01-28T11:29:05Z</time>
      </trkpt>
      <trkpt lat="45.92466" lon="4.73678">
        <ele>174</ele>
        <time>2018-01-28T11:29:07Z</time>
      </trkpt>
      <trkpt lat="45.92466" lon="4.73684">
        <ele>174</ele>
        <time>2018-01-28T11:29:08Z</time>
      </trkpt>
      <trkpt lat="45.92465" lon="4.73694">
        <ele>174</ele>
        <time>2018-01-28T11:29:10Z</time>
      </trkpt>
      <trkpt lat="45.92465" lon="4.73699">
        <ele>174</ele>
        <time>2018-01-28T11:29:11Z</time>
      </trkpt>
      <trkpt lat="45.92459" lon="4.73707">
        <ele>174</ele>
        <time>2018-01-28T11:29:39Z</time>
      </trkpt>
      <trkpt lat="45.92458" lon="4.73708">
        <ele>174</ele>
        <time>2018-01-28T11:29:40Z</time>
      </trkpt>
      <trkpt lat="45.92455" lon="4.73708">
        <ele>174</ele>
        <time>2018-01-28T11:29:55.302Z</time>
      </trkpt>
    </trkseg>
  </trk>
</gpx>